
Distance (Route):
Temperature : 14.3°C
Humidity : 75.7%
Pressure : 833.2hPa| Receiver | Frames | First received | Last received |
|---|---|---|---|
| DO3MHA-11 | 525 | 2026-09-04 10:48:35 | 2026-09-04 13:13:31 |
| OE5MMP-10 | 432 | 2026-09-04 11:18:27 | 2026-09-04 13:14:30 |
| OE5WHR-10 | 169 | 2026-09-04 11:11:58 | 2026-09-04 13:06:04 |
| DL6DJ-15 | 166 | 2026-09-04 10:51:29 | 2026-09-04 13:07:09 |
| PG1ADW-2 | 150 | 2026-09-04 11:22:29 | 2026-09-04 13:07:04 |
| PETON7-10 | 148 | 2026-09-04 11:29:36 | 2026-09-04 12:57:14 |
| OE5DXL-15 | 145 | 2026-09-04 11:04:43 | 2026-09-04 13:10:14 |
| BAUMI2-15 | 142 | 2026-09-04 11:56:21 | 2026-09-04 12:48:51 |
| OE5DRO-10 | 116 | 2026-09-04 11:05:31 | 2026-09-04 13:10:40 |
| OE5REO-15 | 107 | 2026-09-04 11:28:26 | 2026-09-04 12:55:10 |
| DF8AY | 102 | 2026-09-04 11:48:17 | 2026-09-04 12:48:54 |
| EDDB2-12 | 87 | 2026-09-04 11:22:27 | 2026-09-04 12:59:13 |
| DO8TBO-1 | 85 | 2026-09-04 10:58:40 | 2026-09-04 12:59:42 |
| EDDB2-11 | 84 | 2026-09-04 11:22:07 | 2026-09-04 12:59:23 |
| DO9HM | 78 | 2026-09-04 10:52:31 | 2026-09-04 11:32:42 |
| SONDE2-11 | 75 | 2026-09-04 11:16:48 | 2026-09-04 12:58:47 |
| DM0DOS-11 | 70 | 2026-09-04 11:24:26 | 2026-09-04 12:40:16 |
| SP3BTT-10 | 38 | 2026-09-04 11:33:04 | 2026-09-04 12:52:49 |
| NBG1-10 | 31 | 2026-09-04 10:48:49 | 2026-09-04 11:32:04 |
| DB0NH | 26 | 2026-09-04 10:48:49 | 2026-09-04 11:20:37 |
| DL1JEZ-13 | 23 | 2026-09-04 11:25:12 | 2026-09-04 12:51:04 |
| SONCRA | 21 | 2026-09-04 11:21:27 | 2026-09-04 12:53:05 |
| OM5KV | 17 | 2026-09-04 11:48:06 | 2026-09-04 11:51:45 |
| ANDY1245 | 15 | 2026-09-04 11:20:59 | 2026-09-04 11:37:47 |
| DL9SK-14 | 13 | 2026-09-04 12:09:35 | 2026-09-04 12:39:37 |
| HSKMA3-T | 12 | 2026-09-04 12:18:41 | 2026-09-04 12:42:35 |
| S52SK | 11 | 2026-09-04 11:33:45 | 2026-09-04 11:39:32 |
| OK1ALN | 11 | 2026-09-04 12:36:04 | 2026-09-04 12:44:19 |
| OE5GOL-10 | 10 | 2026-09-04 11:24:47 | 2026-09-04 11:32:23 |
| AM1SDL-15 | 9 | 2026-09-04 11:17:47 | 2026-09-04 11:21:24 |
| DK5PH-5 | 8 | 2026-09-04 11:35:04 | 2026-09-04 12:26:58 |
| OE3JTB-15 | 7 | 2026-09-04 11:15:04 | 2026-09-04 13:02:15 |
| DL3JIN-12 | 5 | 2026-09-04 12:40:28 | 2026-09-04 12:51:07 |
| OE5HKT-10 | 3 | 2026-09-04 12:20:56 | 2026-09-04 12:22:06 |
| DF7PN | 3 | 2026-09-04 12:31:36 | 2026-09-04 12:38:51 |
| DL1XH-west | 3 | 2026-09-04 12:34:08 | 2026-09-04 12:36:34 |
| OE8JPQ-2 | 3 | 2026-09-04 12:37:02 | 2026-09-04 12:40:43 |
| DF2AP-13 | 2 | 2026-09-04 12:08:48 | 2026-09-04 12:44:09 |
| DG1MFX-10 | 2 | 2026-09-04 12:52:55 | 2026-09-04 12:53:57 |
| DF9NV-10 | 1 | 2026-09-04 11:19:06 | 2026-09-04 11:19:06 |
| Receiver | Date | Latitude | Longitude | Direction | Speed | Altitude | Climb | Temperature | Humidity | Pressure | Voltage | Killtimer | Uptime | BKT | XDATA |
|---|---|---|---|---|---|---|---|---|---|---|---|---|---|---|---|
| OE5MMP-10 | 2026-09-04 13:14:30 | 49.15525 | 13.49782 | 66° | 44km/h | 1737m | -5.3m/s | 14.3°C | 75.7% | 833.2hPa | 2.7V | 00:00:00 | 03:11:51 | 00:00:00 | |
| OE5MMP-10 | 2026-09-04 13:14:25 | 49.15505 | 13.49704 | 70° | 46km/h | 1757m | -4.1m/s | 13.9°C | 79.9% | 831.1hPa | 2.7V | 00:00:00 | 03:11:46 | 00:00:00 | |
| OE5MMP-10 | 2026-09-04 13:14:18 | 49.15475 | 13.49592 | 65° | 47km/h | 1784m | -4.4m/s | 13.9°C | 75.7% | 828.1hPa | 2.7V | 02:53:00 | 03:11:39 | 00:00:00 | |
| OE5MMP-10 | 2026-09-04 13:14:12 | 49.15447 | 13.49491 | 71° | 44km/h | 1806m | -3.9m/s | 13.7°C | 75.0% | 825.9hPa | 2.6V | 00:00:00 | 03:11:33 | 00:00:00 | |
| OE5MMP-10 | 2026-09-04 13:14:07 | 49.15429 | 13.49412 | 69° | 46km/h | 1825m | -4.3m/s | 13.6°C | 76.4% | 824.0hPa | 2.6V | 00:00:00 | 03:11:28 | 00:00:00 | |
| OE5MMP-10 | 2026-09-04 13:14:02 | 49.15406 | 13.49327 | 68° | 51km/h | 1845m | -3.0m/s | 13.4°C | 75.2% | 821.8hPa | 2.6V | 02:53:00 | 03:11:23 | 00:00:00 | |
| OE5MMP-10 | 2026-09-04 13:13:57 | 49.15384 | 13.49235 | 74° | 49km/h | 1867m | -4.6m/s | 13.1°C | 76.9% | 819.8hPa | 2.7V | 00:00:00 | 03:11:18 | 00:00:00 | |
| OE5MMP-10 | 2026-09-04 13:13:52 | 49.15368 | 13.49144 | 76° | 46km/h | 1887m | -4.8m/s | 12.9°C | 80.1% | 817.6hPa | 2.7V | 00:00:00 | 03:11:13 | 00:00:00 | |
| OE5MMP-10 | 2026-09-04 13:13:47 | 49.15352 | 13.49059 | 73° | 51km/h | 1908m | -3.8m/s | 12.6°C | 81.6% | 815.6hPa | 2.7V | 02:54:00 | 03:11:08 | 00:00:00 | |
| OE5MMP-10 | 2026-09-04 13:13:42 | 49.15334 | 13.48964 | 78° | 47km/h | 1930m | -6.1m/s | 12.4°C | 82.6% | 813.5hPa | 2.6V | 00:00:00 | 03:11:03 | 00:00:00 | |
| OE5MMP-10 | 2026-09-04 13:13:37 | 49.15322 | 13.48873 | 84° | 46km/h | 1956m | -4.0m/s | 12.1°C | 84.4% | 810.9hPa | 2.6V | 00:00:00 | 03:10:58 | 00:00:00 | |
| OE5MMP-10 | 2026-09-04 13:13:32 | 49.15313 | 13.48785 | 79° | 51km/h | 1975m | -4.8m/s | 12.0°C | 84.3% | 809.2hPa | 2.6V | 02:54:00 | 03:10:53 | 00:00:00 | |
| DO3MHA-11 | 2026-09-04 13:13:31 | 49.15310 | 13.48768 | 76° | 53km/h | 1980m | -5.3m/s | 12.0°C | 84.6% | 808.8hPa | 2.6V | 00:00:00 | 03:10:52 | 00:00:00 | |
| OE5MMP-10 | 2026-09-04 13:13:27 | 49.15298 | 13.48688 | 81° | 60km/h | 2003m | -6.3m/s | 11.9°C | 85.0% | 806.6hPa | 2.6V | 00:00:00 | 03:10:48 | 00:00:00 | |
| DO3MHA-11 | 2026-09-04 13:13:26 | 49.15296 | 13.48666 | 81° | 60km/h | 2009m | -6.0m/s | 12.0°C | 81.4% | 805.9hPa | 2.6V | 00:00:00 | 03:10:47 | 00:00:00 | |
| DO3MHA-11 | 2026-09-04 13:13:21 | 49.15290 | 13.48549 | 86° | 62km/h | 2037m | -5.8m/s | 12.9°C | 62.8% | 803.2hPa | 2.6V | 02:54:00 | 03:10:42 | 00:00:00 | |
| OE5MMP-10 | 2026-09-04 13:13:17 | 49.15284 | 13.48455 | 86° | 68km/h | 2064m | -7.1m/s | 12.7°C | 62.5% | 800.7hPa | 2.7V | 00:00:00 | 03:10:38 | 00:00:00 | |
| DO3MHA-11 | 2026-09-04 13:13:16 | 49.15283 | 13.48430 | 87° | 68km/h | 2071m | -6.6m/s | 12.8°C | 58.9% | 800.0hPa | 2.7V | 00:00:00 | 03:10:37 | 00:00:00 | |
| DO3MHA-11 | 2026-09-04 13:13:11 | 49.15282 | 13.48299 | 89° | 71km/h | 2103m | -6.9m/s | 13.2°C | 50.9% | 796.9hPa | 2.7V | 00:00:00 | 03:10:32 | 00:00:00 | |
| OE5MMP-10 | 2026-09-04 13:13:07 | 49.15279 | 13.48189 | 88° | 78km/h | 2129m | -6.4m/s | 13.1°C | 50.7% | 794.4hPa | 2.7V | 02:54:00 | 03:10:28 | 00:00:00 | |
| DO3MHA-11 | 2026-09-04 13:13:06 | 49.15278 | 13.48160 | 89° | 78km/h | 2135m | -6.5m/s | 13.0°C | 51.5% | 793.8hPa | 2.7V | 02:54:00 | 03:10:27 | 00:00:00 | |
| DO3MHA-11 | 2026-09-04 13:13:01 | 49.15278 | 13.48009 | 91° | 78km/h | 2169m | -6.7m/s | 14.3°C | 33.2% | 790.7hPa | 2.7V | 00:00:00 | 03:10:22 | 00:00:00 | |
| OE5MMP-10 | 2026-09-04 13:12:57 | 49.15280 | 13.47887 | 92° | 78km/h | 2196m | -6.7m/s | 14.6°C | 36.5% | 788.0hPa | 2.7V | 00:00:00 | 03:10:18 | 00:00:00 | |
| DO3MHA-11 | 2026-09-04 13:12:56 | 49.15281 | 13.47856 | 92° | 78km/h | 2202m | -6.7m/s | 14.5°C | 42.8% | 787.5hPa | 2.7V | 00:00:00 | 03:10:17 | 00:00:00 | |
| DO3MHA-11 | 2026-09-04 13:12:51 | 49.15285 | 13.47704 | 94° | 78km/h | 2237m | -6.7m/s | 14.3°C | 47.6% | 784.3hPa | 2.7V | 02:55:00 | 03:10:12 | 00:00:00 | |
| OE5MMP-10 | 2026-09-04 13:12:47 | 49.15291 | 13.47584 | 95° | 78km/h | 2263m | -6.9m/s | 14.2°C | 49.3% | 781.7hPa | 2.7V | 00:00:00 | 03:10:08 | 00:00:00 | |
| DO3MHA-11 | 2026-09-04 13:12:46 | 49.15292 | 13.47553 | 95° | 78km/h | 2270m | -6.7m/s | 14.2°C | 49.5% | 781.3hPa | 2.7V | 00:00:00 | 03:10:07 | 00:00:00 | |
| DO3MHA-11 | 2026-09-04 13:12:41 | 49.15300 | 13.47403 | 95° | 77km/h | 2304m | -6.9m/s | 14.0°C | 48.5% | 778.1hPa | 2.7V | 00:00:00 | 03:10:02 | 00:00:00 | |
| OE5MMP-10 | 2026-09-04 13:12:37 | 49.15307 | 13.47284 | 96° | 77km/h | 2331m | -6.9m/s | 13.9°C | 45.9% | 775.4hPa | 2.7V | 02:55:00 | 03:09:58 | 00:00:00 | |
| DO3MHA-11 | 2026-09-04 13:12:31 | 49.15319 | 13.47106 | 97° | 77km/h | 2372m | -7.0m/s | 14.0°C | 42.7% | 771.6hPa | 2.7V | 00:00:00 | 03:09:52 | 00:00:00 | |
| OE5MMP-10 | 2026-09-04 13:12:27 | 49.15328 | 13.46989 | 97° | 75km/h | 2400m | -7.2m/s | 13.8°C | 41.2% | 769.1hPa | 2.7V | 00:00:00 | 03:09:48 | 00:00:00 | |
| DO3MHA-11 | 2026-09-04 13:12:26 | 49.15330 | 13.46960 | 98° | 75km/h | 2407m | -7.1m/s | 13.8°C | 40.2% | 768.4hPa | 2.7V | 00:00:00 | 03:09:47 | 00:00:00 | |
| DO3MHA-11 | 2026-09-04 13:12:21 | 49.15343 | 13.46816 | 99° | 77km/h | 2442m | -7.2m/s | 13.6°C | 38.3% | 765.1hPa | 2.7V | 02:55:00 | 03:09:42 | 00:00:00 | |
| OE5MMP-10 | 2026-09-04 13:12:17 | 49.15356 | 13.46700 | 100° | 77km/h | 2471m | -7.0m/s | 13.5°C | 36.6% | 762.5hPa | 2.7V | 00:00:00 | 03:09:38 | 00:00:00 | |
| DO3MHA-11 | 2026-09-04 13:12:11 | 49.15376 | 13.46527 | 102° | 77km/h | 2513m | -7.3m/s | 13.5°C | 41.0% | 758.6hPa | 2.7V | 00:00:00 | 03:09:32 | 00:00:00 | |
| OE5MMP-10 | 2026-09-04 13:12:07 | 49.15393 | 13.46411 | 104° | 78km/h | 2542m | -7.2m/s | 13.5°C | 39.1% | 756.0hPa | 2.7V | 02:55:00 | 03:09:28 | 00:00:00 | |
| DO3MHA-11 | 2026-09-04 13:12:06 | 49.15397 | 13.46382 | 104° | 78km/h | 2549m | -7.6m/s | 13.5°C | 38.0% | 755.3hPa | 2.6V | 02:55:00 | 03:09:27 | 00:00:00 | |
| DO3MHA-11 | 2026-09-04 13:12:01 | 49.15423 | 13.46236 | 106° | 78km/h | 2586m | -7.4m/s | 13.4°C | 36.8% | 752.0hPa | 2.7V | 00:00:00 | 03:09:22 | 00:00:00 | |
| OE5MMP-10 | 2026-09-04 13:11:57 | 49.15443 | 13.46120 | 106° | 78km/h | 2615m | -7.8m/s | 13.2°C | 35.6% | 749.2hPa | 2.7V | 00:00:00 | 03:09:18 | 00:00:00 | |
| DO3MHA-11 | 2026-09-04 13:11:56 | 49.15449 | 13.46091 | 106° | 78km/h | 2623m | -7.8m/s | 13.2°C | 35.4% | 748.7hPa | 2.7V | 00:00:00 | 03:09:17 | 00:00:00 | |
| DO3MHA-11 | 2026-09-04 13:11:51 | 49.15475 | 13.45947 | 107° | 78km/h | 2661m | -7.7m/s | 13.1°C | 32.4% | 745.2hPa | 2.7V | 02:56:00 | 03:09:12 | 00:00:00 | |
| OE5MMP-10 | 2026-09-04 13:11:47 | 49.15497 | 13.45832 | 107° | 77km/h | 2691m | -7.6m/s | 12.9°C | 30.6% | 742.5hPa | 2.7V | 00:00:00 | 03:09:08 | 00:00:00 | |
| DO3MHA-11 | 2026-09-04 13:11:46 | 49.15503 | 13.45803 | 107° | 77km/h | 2698m | -7.6m/s | 12.9°C | 30.8% | 741.9hPa | 2.7V | 00:00:00 | 03:09:07 | 00:00:00 | |
| DO3MHA-11 | 2026-09-04 13:11:41 | 49.15531 | 13.45660 | 107° | 77km/h | 2736m | -7.3m/s | 12.5°C | 31.3% | 738.5hPa | 2.7V | 00:00:00 | 03:09:02 | 00:00:00 | |
| OE5MMP-10 | 2026-09-04 13:11:37 | 49.15553 | 13.45546 | 107° | 77km/h | 2765m | -7.9m/s | 12.3°C | 33.7% | 736.0hPa | 2.7V | 02:56:00 | 03:08:58 | 00:00:00 | |
| DO3MHA-11 | 2026-09-04 13:11:36 | 49.15558 | 13.45518 | 107° | 77km/h | 2773m | -7.6m/s | 12.3°C | 33.9% | 735.2hPa | 2.7V | 02:56:00 | 03:08:57 | 00:00:00 | |
| DO3MHA-11 | 2026-09-04 13:11:31 | 49.15586 | 13.45377 | 107° | 77km/h | 2809m | -7.6m/s | 12.0°C | 34.8% | 732.0hPa | 2.6V | 00:00:00 | 03:08:52 | 00:00:00 | |
| OE5MMP-10 | 2026-09-04 13:11:27 | 49.15608 | 13.45265 | 108° | 77km/h | 2840m | -8.0m/s | 11.7°C | 35.6% | 729.4hPa | 2.6V | 00:00:00 | 03:08:48 | 00:00:00 | |
| DO3MHA-11 | 2026-09-04 13:11:26 | 49.15614 | 13.45236 | 108° | 77km/h | 2848m | -8.0m/s | 11.6°C | 35.9% | 728.6hPa | 2.6V | 00:00:00 | 03:08:47 | 00:00:00 | |
| DO3MHA-11 | 2026-09-04 13:11:21 | 49.15644 | 13.45095 | 109° | 75km/h | 2887m | -7.6m/s | 11.3°C | 37.0% | 725.3hPa | 2.6V | 02:56:00 | 03:08:42 | 00:00:00 | |
| OE5MMP-10 | 2026-09-04 13:11:17 | 49.15666 | 13.44983 | 107° | 75km/h | 2918m | -8.0m/s | 11.0°C | 38.0% | 722.6hPa | 2.7V | 00:00:00 | 03:08:38 | 00:00:00 | |
| DO3MHA-11 | 2026-09-04 13:11:16 | 49.15672 | 13.44955 | 109° | 75km/h | 2925m | -7.8m/s | 10.9°C | 38.2% | 722.0hPa | 2.7V | 00:00:00 | 03:08:37 | 00:00:00 | |
| DO3MHA-11 | 2026-09-04 13:11:11 | 49.15700 | 13.44816 | 107° | 77km/h | 2965m | -8.1m/s | 10.6°C | 38.0% | 718.7hPa | 2.7V | 00:00:00 | 03:08:32 | 00:00:00 | |
| OE5MMP-10 | 2026-09-04 13:11:07 | 49.15722 | 13.44703 | 107° | 75km/h | 2996m | -7.9m/s | 10.4°C | 38.2% | 716.0hPa | 2.7V | 02:56:00 | 03:08:28 | 00:00:00 | |
| DO3MHA-11 | 2026-09-04 13:11:06 | 49.15728 | 13.44675 | 107° | 75km/h | 3003m | -8.1m/s | 10.3°C | 37.9% | 715.3hPa | 2.6V | 02:56:00 | 03:08:27 | 00:00:00 | |
| DO3MHA-11 | 2026-09-04 13:11:01 | 49.15754 | 13.44535 | 106° | 77km/h | 3043m | -8.0m/s | 10.1°C | 38.4% | 712.1hPa | 2.7V | 00:00:00 | 03:08:22 | 00:00:00 | |
| OE5MMP-10 | 2026-09-04 13:10:57 | 49.15775 | 13.44422 | 106° | 75km/h | 3074m | -8.1m/s | 9.8°C | 39.9% | 709.4hPa | 2.7V | 00:00:00 | 03:08:18 | 00:00:00 | |
| DO3MHA-11 | 2026-09-04 13:10:56 | 49.15780 | 13.44394 | 106° | 77km/h | 3082m | -7.6m/s | 9.8°C | 40.2% | 708.8hPa | 2.7V | 00:00:00 | 03:08:17 | 00:00:00 | |
| DO3MHA-11 | 2026-09-04 13:10:51 | 49.15807 | 13.44253 | 106° | 75km/h | 3121m | -8.1m/s | 9.5°C | 40.8% | 705.4hPa | 2.7V | 02:57:00 | 03:08:12 | 00:00:00 | |
| OE5MMP-10 | 2026-09-04 13:10:47 | 49.15827 | 13.44140 | 106° | 75km/h | 3153m | -8.0m/s | 9.3°C | 41.0% | 702.8hPa | 2.7V | 00:00:00 | 03:08:08 | 00:00:00 | |
| DO3MHA-11 | 2026-09-04 13:10:46 | 49.15832 | 13.44112 | 107° | 75km/h | 3160m | -7.5m/s | 9.2°C | 41.3% | 702.1hPa | 2.7V | 00:00:00 | 03:08:07 | 00:00:00 | |
| DO3MHA-11 | 2026-09-04 13:10:41 | 49.15858 | 13.43973 | 106° | 75km/h | 3199m | -8.1m/s | 8.9°C | 41.1% | 698.9hPa | 2.7V | 00:00:00 | 03:08:02 | 00:00:00 | |
| OE5DRO-10 | 2026-09-04 13:10:40 | 49.15867 | 13.43917 | 105° | 75km/h | 3215m | -8.0m/s | 8.8°C | 39.6% | 697.5hPa | 2.7V | 02:57:00 | 00:00:00 | 00:00:00 | |
| OE5MMP-10 | 2026-09-04 13:10:37 | 49.15877 | 13.43861 | 105° | 75km/h | 3231m | -8.1m/s | 8.7°C | 40.2% | 696.2hPa | 2.7V | 02:57:00 | 03:07:58 | 00:00:00 | |
| DO3MHA-11 | 2026-09-04 13:10:36 | 49.15882 | 13.43833 | 106° | 75km/h | 3239m | -7.9m/s | 8.6°C | 40.3% | 695.6hPa | 2.7V | 02:57:00 | 03:07:57 | 00:00:00 | |
| DO3MHA-11 | 2026-09-04 13:10:31 | 49.15907 | 13.43694 | 106° | 75km/h | 3278m | -8.0m/s | 8.4°C | 40.5% | 692.3hPa | 2.7V | 00:00:00 | 03:07:52 | 00:00:00 | |
| OE5MMP-10 | 2026-09-04 13:10:27 | 49.15929 | 13.43582 | 106° | 77km/h | 3307m | -7.6m/s | 8.3°C | 36.6% | 689.8hPa | 2.7V | 00:00:00 | 03:07:48 | 00:00:00 | |
| DO3MHA-11 | 2026-09-04 13:10:26 | 49.15934 | 13.43554 | 107° | 75km/h | 3315m | -7.7m/s | 8.2°C | 36.3% | 689.1hPa | 2.7V | 00:00:00 | 03:07:47 | 00:00:00 | |
| OE5DRO-10 | 2026-09-04 13:10:24 | 49.15957 | 13.43443 | 108° | 77km/h | 3345m | -8.3m/s | 8.1°C | 34.2% | 686.4hPa | 2.7V | 00:00:00 | 00:00:00 | 00:00:00 | |
| DO3MHA-11 | 2026-09-04 13:10:21 | 49.15963 | 13.43415 | 108° | 77km/h | 3353m | -8.3m/s | 8.1°C | 32.1% | 685.8hPa | 2.7V | 02:57:00 | 03:07:42 | 00:00:00 | |
| OE5MMP-10 | 2026-09-04 13:10:17 | 49.15987 | 13.43303 | 108° | 77km/h | 3386m | -8.4m/s | 7.9°C | 33.2% | 683.1hPa | 2.7V | 00:00:00 | 03:07:38 | 00:00:00 | |
| DO3MHA-11 | 2026-09-04 13:10:16 | 49.15992 | 13.43275 | 108° | 77km/h | 3394m | -8.5m/s | 7.8°C | 37.7% | 682.4hPa | 2.7V | 00:00:00 | 03:07:37 | 00:00:00 | |
| OE5DXL-15 | 2026-09-04 13:10:14 | 49.16004 | 13.43219 | 109° | 78km/h | 3411m | -8.0m/s | 7.7°C | 48.3% | 681.0hPa | 2.7V | 00:00:00 | 00:00:00 | 00:00:00 | |
| DO3MHA-11 | 2026-09-04 13:10:11 | 49.16023 | 13.43134 | 109° | 78km/h | 3434m | -8.0m/s | 7.6°C | 47.8% | 679.1hPa | 2.7V | 00:00:00 | 03:07:32 | 00:00:00 | |
| OE5MMP-10 | 2026-09-04 13:10:07 | 49.16046 | 13.43019 | 108° | 78km/h | 3466m | -8.4m/s | 7.3°C | 47.5% | 676.4hPa | 2.7V | 02:57:00 | 03:07:28 | 00:00:00 | |
| DO3MHA-11 | 2026-09-04 13:10:06 | 49.16052 | 13.42990 | 108° | 78km/h | 3475m | -8.6m/s | 7.3°C | 47.7% | 675.6hPa | 2.6V | 02:57:00 | 03:07:27 | 00:00:00 | |
| DO3MHA-11 | 2026-09-04 13:10:01 | 49.16082 | 13.42846 | 107° | 78km/h | 3516m | -8.3m/s | 6.9°C | 48.6% | 672.3hPa | 2.6V | 00:00:00 | 03:07:22 | 00:00:00 | |
| OE5MMP-10 | 2026-09-04 13:09:57 | 49.16106 | 13.42730 | 108° | 78km/h | 3550m | -8.5m/s | 6.7°C | 48.7% | 669.6hPa | 2.6V | 00:00:00 | 03:07:18 | 00:00:00 | |
| DO3MHA-11 | 2026-09-04 13:09:56 | 49.16112 | 13.42701 | 109° | 78km/h | 3558m | -8.4m/s | 6.6°C | 49.7% | 668.9hPa | 2.6V | 00:00:00 | 03:07:17 | 00:00:00 | |
| DO3MHA-11 | 2026-09-04 13:09:51 | 49.16142 | 13.42556 | 109° | 78km/h | 3602m | -8.8m/s | 6.2°C | 58.0% | 665.4hPa | 2.6V | 02:58:00 | 03:07:12 | 00:00:00 | |
| OE5MMP-10 | 2026-09-04 13:09:47 | 49.16166 | 13.42441 | 108° | 78km/h | 3637m | -8.8m/s | 5.9°C | 69.0% | 662.7hPa | 2.6V | 00:00:00 | 03:07:08 | 00:00:00 | |
| DO3MHA-11 | 2026-09-04 13:09:46 | 49.16172 | 13.42412 | 107° | 78km/h | 3646m | -8.8m/s | 5.8°C | 69.6% | 662.0hPa | 2.6V | 00:00:00 | 03:07:07 | 00:00:00 | |
| OE5DXL-15 | 2026-09-04 13:09:44 | 49.16184 | 13.42354 | 109° | 80km/h | 3663m | -8.7m/s | 5.6°C | 70.7% | 660.6hPa | 2.6V | 00:00:00 | 00:00:00 | 00:00:00 | |
| DO3MHA-11 | 2026-09-04 13:09:41 | 49.16202 | 13.42267 | 109° | 78km/h | 3690m | -8.9m/s | 5.4°C | 71.6% | 658.4hPa | 2.6V | 00:00:00 | 03:07:02 | 00:00:00 | |
| OE5MMP-10 | 2026-09-04 13:09:37 | 49.16225 | 13.42150 | 107° | 80km/h | 3726m | -9.1m/s | 5.2°C | 68.8% | 655.7hPa | 2.6V | 02:58:00 | 03:06:58 | 00:00:00 | |
| DO3MHA-11 | 2026-09-04 13:09:36 | 49.16231 | 13.42121 | 108° | 80km/h | 3735m | -9.3m/s | 5.1°C | 67.9% | 655.0hPa | 2.7V | 02:58:00 | 03:06:57 | 00:00:00 | |
| DO3MHA-11 | 2026-09-04 13:09:31 | 49.16261 | 13.41973 | 107° | 82km/h | 3778m | -8.2m/s | 4.8°C | 66.9% | 651.5hPa | 2.7V | 00:00:00 | 03:06:52 | 00:00:00 | |
| OE5MMP-10 | 2026-09-04 13:09:27 | 49.16284 | 13.41852 | 107° | 82km/h | 3810m | -8.4m/s | 4.6°C | 67.7% | 648.8hPa | 2.7V | 00:00:00 | 03:06:48 | 00:00:00 | |
| OE5DRO-10 | 2026-09-04 13:09:25 | 49.16306 | 13.41730 | 106° | 82km/h | 3843m | -8.3m/s | 4.4°C | 66.5% | 646.3hPa | 2.7V | 00:00:00 | 00:00:00 | 00:00:00 | |
| DO3MHA-11 | 2026-09-04 13:09:21 | 49.16317 | 13.41668 | 105° | 82km/h | 3859m | -8.3m/s | 4.3°C | 65.9% | 645.0hPa | 2.7V | 02:58:00 | 03:06:42 | 00:00:00 | |
| OE5MMP-10 | 2026-09-04 13:09:17 | 49.16338 | 13.41545 | 105° | 82km/h | 3892m | -8.4m/s | 4.1°C | 63.8% | 642.4hPa | 2.7V | 00:00:00 | 03:06:38 | 00:00:00 | |
| DO3MHA-11 | 2026-09-04 13:09:16 | 49.16343 | 13.41514 | 105° | 82km/h | 3900m | -8.4m/s | 4.1°C | 64.2% | 641.8hPa | 2.7V | 00:00:00 | 03:06:37 | 00:00:00 | |
| OE5DXL-15 | 2026-09-04 13:09:14 | 49.16353 | 13.41452 | 105° | 80km/h | 3916m | -8.0m/s | 4.0°C | 63.1% | 640.5hPa | 2.7V | 02:58:00 | 00:00:00 | 00:00:00 | |
| DO3MHA-11 | 2026-09-04 13:09:11 | 49.16369 | 13.41359 | 104° | 82km/h | 3941m | -8.1m/s | 3.8°C | 62.4% | 638.6hPa | 2.7V | 00:00:00 | 03:06:32 | 00:00:00 | |
| OE5MMP-10 | 2026-09-04 13:09:07 | 49.16388 | 13.41235 | 104° | 82km/h | 3973m | -8.2m/s | 3.6°C | 61.1% | 636.0hPa | 2.7V | 02:58:00 | 03:06:28 | 00:00:00 | |
| DO3MHA-11 | 2026-09-04 13:09:06 | 49.16393 | 13.41204 | 104° | 82km/h | 3982m | -8.0m/s | 3.5°C | 61.2% | 635.3hPa | 2.7V | 02:58:00 | 03:06:27 | 00:00:00 | |
| DO3MHA-11 | 2026-09-04 13:09:01 | 49.16418 | 13.41050 | 105° | 80km/h | 4022m | -8.0m/s | 3.2°C | 60.1% | 632.0hPa | 2.7V | 00:00:00 | 03:06:22 | 00:00:00 | |
| OE5MMP-10 | 2026-09-04 13:08:57 | 49.16438 | 13.40928 | 104° | 80km/h | 4054m | -8.3m/s | 2.8°C | 66.3% | 629.5hPa | 2.7V | 00:00:00 | 03:06:18 | 00:00:00 | |
| DO3MHA-11 | 2026-09-04 13:08:56 | 49.16442 | 13.40898 | 104° | 80km/h | 4063m | -8.5m/s | 2.8°C | 66.5% | 628.8hPa | 2.7V | 00:00:00 | 03:06:17 | 00:00:00 | |
| DO3MHA-11 | 2026-09-04 13:08:51 | 49.16466 | 13.40748 | 105° | 78km/h | 4104m | -8.5m/s | 2.5°C | 65.6% | 625.5hPa | 2.7V | 02:59:00 | 03:06:12 | 00:00:00 | |
| OE5MMP-10 | 2026-09-04 13:08:47 | 49.16484 | 13.40629 | 103° | 78km/h | 4138m | -8.5m/s | 2.2°C | 60.5% | 623.0hPa | 2.7V | 00:00:00 | 03:06:08 | 00:00:00 | |
| DO3MHA-11 | 2026-09-04 13:08:46 | 49.16488 | 13.40599 | 104° | 78km/h | 4146m | -8.7m/s | 2.2°C | 59.3% | 622.4hPa | 2.7V | 00:00:00 | 03:06:07 | 00:00:00 | |
| OE5DXL-15 | 2026-09-04 13:08:44 | 49.16497 | 13.40540 | 104° | 80km/h | 4163m | -8.5m/s | 2.1°C | 58.2% | 621.0hPa | 2.7V | 00:00:00 | 00:00:00 | 00:00:00 | |
| DO3MHA-11 | 2026-09-04 13:08:41 | 49.16511 | 13.40451 | 103° | 78km/h | 4189m | -8.4m/s | 1.9°C | 55.6% | 619.1hPa | 2.7V | 00:00:00 | 03:06:02 | 00:00:00 | |
| OE5MMP-10 | 2026-09-04 13:08:37 | 49.16529 | 13.40332 | 104° | 80km/h | 4223m | -8.1m/s | 1.7°C | 56.7% | 616.5hPa | 2.7V | 02:59:00 | 03:05:58 | 00:00:00 | |
| DO3MHA-11 | 2026-09-04 13:08:36 | 49.16534 | 13.40302 | 104° | 80km/h | 4231m | -8.6m/s | 1.6°C | 57.3% | 615.9hPa | 2.6V | 02:59:00 | 03:05:57 | 00:00:00 | |
| DO3MHA-11 | 2026-09-04 13:08:31 | 49.16557 | 13.40152 | 105° | 80km/h | 4275m | -8.8m/s | 1.3°C | 69.1% | 612.6hPa | 2.6V | 00:00:00 | 03:05:52 | 00:00:00 | |
| OE5MMP-10 | 2026-09-04 13:08:27 | 49.16577 | 13.40032 | 105° | 80km/h | 4309m | -8.7m/s | 1.0°C | 63.6% | 610.0hPa | 2.6V | 00:00:00 | 03:05:48 | 00:00:00 | |
| DO3MHA-11 | 2026-09-04 13:08:26 | 49.16582 | 13.40003 | 105° | 80km/h | 4318m | -9.3m/s | 1.0°C | 63.2% | 609.3hPa | 2.6V | 00:00:00 | 03:05:47 | 00:00:00 | |
| DO3MHA-11 | 2026-09-04 13:08:21 | 49.16606 | 13.39853 | 105° | 80km/h | 4361m | -9.0m/s | 0.7°C | 60.8% | 606.1hPa | 2.6V | 02:59:00 | 03:05:42 | 00:00:00 | |
| OE5MMP-10 | 2026-09-04 13:08:17 | 49.16627 | 13.39731 | 104° | 80km/h | 4397m | -8.9m/s | 0.4°C | 57.3% | 603.5hPa | 2.6V | 00:00:00 | 03:05:38 | 00:00:00 | |
| DO3MHA-11 | 2026-09-04 13:08:16 | 49.16632 | 13.39701 | 105° | 80km/h | 4406m | -9.0m/s | 0.3°C | 57.5% | 602.8hPa | 2.6V | 00:00:00 | 03:05:37 | 00:00:00 | |
| OE5DXL-15 | 2026-09-04 13:08:14 | 49.16642 | 13.39641 | 105° | 80km/h | 4424m | -8.6m/s | 0.2°C | 57.1% | 601.7hPa | 2.6V | 00:00:00 | 00:00:00 | 00:00:00 | |
| DO3MHA-11 | 2026-09-04 13:08:11 | 49.16657 | 13.39549 | 105° | 82km/h | 4450m | -8.9m/s | 0.0°C | 57.6% | 599.6hPa | 2.6V | 00:00:00 | 03:05:32 | 00:00:00 | |
| OE5MMP-10 | 2026-09-04 13:08:07 | 49.16679 | 13.39428 | 106° | 82km/h | 4485m | -8.4m/s | -0.2°C | 58.6% | 597.0hPa | 2.6V | 02:59:00 | 03:05:28 | 00:00:00 | |
| DO3MHA-11 | 2026-09-04 13:08:06 | 49.16684 | 13.39397 | 106° | 82km/h | 4493m | -8.6m/s | -0.3°C | 57.6% | 596.5hPa | 2.6V | 02:59:00 | 03:05:27 | 00:00:00 | |
| DO3MHA-11 | 2026-09-04 13:08:01 | 49.16712 | 13.39246 | 107° | 82km/h | 4536m | -8.9m/s | -0.6°C | 52.1% | 593.2hPa | 2.6V | 00:00:00 | 03:05:22 | 00:00:00 | |
| OE5MMP-10 | 2026-09-04 13:07:57 | 49.16736 | 13.39125 | 107° | 80km/h | 4570m | -8.7m/s | -0.8°C | 51.9% | 590.5hPa | 2.6V | 00:00:00 | 03:05:18 | 00:00:00 | |
| DO3MHA-11 | 2026-09-04 13:07:56 | 49.16741 | 13.39094 | 107° | 82km/h | 4579m | -8.6m/s | -0.9°C | 50.5% | 589.9hPa | 2.6V | 00:00:00 | 03:05:17 | 00:00:00 | |
| DO3MHA-11 | 2026-09-04 13:07:51 | 49.16770 | 13.38944 | 108° | 80km/h | 4622m | -8.3m/s | -1.1°C | 45.4% | 586.8hPa | 2.6V | 00:00:00 | 03:05:12 | 00:00:00 | |
| OE5MMP-10 | 2026-09-04 13:07:47 | 49.16795 | 13.38826 | 108° | 78km/h | 4655m | -8.8m/s | -1.3°C | 52.3% | 584.2hPa | 2.6V | 00:00:00 | 03:05:08 | 00:00:00 | |
| DO3MHA-11 | 2026-09-04 13:07:46 | 49.16802 | 13.38797 | 109° | 78km/h | 4664m | -8.6m/s | -1.4°C | 52.4% | 583.6hPa | 2.6V | 00:00:00 | 03:05:07 | 00:00:00 | |
| OE5DXL-15 | 2026-09-04 13:07:44 | 49.16814 | 13.38739 | 110° | 78km/h | 4681m | -8.3m/s | -1.5°C | 51.1% | 582.4hPa | 2.6V | 00:00:00 | 00:00:00 | 00:00:00 | |
| OE5MMP-10 | 2026-09-04 13:07:37 | 49.16861 | 13.38542 | 111° | 77km/h | 4740m | -8.7m/s | -2.0°C | 51.2% | 577.9hPa | 2.6V | 03:00:00 | 03:04:58 | 00:00:00 | |
| DO3MHA-11 | 2026-09-04 13:07:36 | 49.16868 | 13.38514 | 112° | 77km/h | 4749m | -8.8m/s | -2.0°C | 52.0% | 577.4hPa | 2.6V | 00:00:00 | 03:04:57 | 00:00:00 | |
| DO3MHA-11 | 2026-09-04 13:07:31 | 49.16904 | 13.38375 | 112° | 77km/h | 4793m | -9.0m/s | -2.4°C | 56.3% | 574.1hPa | 2.6V | 00:00:00 | 03:04:52 | 00:00:00 | |
| OE5MMP-10 | 2026-09-04 13:07:27 | 49.16932 | 13.38264 | 111° | 78km/h | 4828m | -8.6m/s | -2.7°C | 58.2% | 571.7hPa | 2.6V | 00:00:00 | 03:04:48 | 00:00:00 | |
| DO3MHA-11 | 2026-09-04 13:07:26 | 49.16939 | 13.38236 | 111° | 77km/h | 4837m | -8.9m/s | -2.8°C | 58.5% | 571.0hPa | 2.6V | 00:00:00 | 03:04:47 | 00:00:00 | |
| DO3MHA-11 | 2026-09-04 13:07:21 | 49.16974 | 13.38096 | 111° | 78km/h | 4880m | -9.0m/s | -3.2°C | 59.4% | 568.0hPa | 2.6V | 03:00:00 | 03:04:42 | 00:00:00 | |
| OE5MMP-10 | 2026-09-04 13:07:16 | 49.17009 | 13.37953 | 111° | 80km/h | 4924m | -8.9m/s | -3.6°C | 61.9% | 565.0hPa | 2.6V | 00:00:00 | 03:04:37 | 00:00:00 | |
| OE5DXL-15 | 2026-09-04 13:07:14 | 49.17023 | 13.37896 | 110° | 82km/h | 4941m | -8.7m/s | -3.7°C | 62.7% | 563.7hPa | 2.6V | 03:00:00 | 00:00:00 | 00:00:00 | |
| DO3MHA-11 | 2026-09-04 13:07:11 | 49.17043 | 13.37810 | 111° | 80km/h | 4968m | -9.0m/s | -3.9°C | 63.3% | 561.9hPa | 2.6V | 00:00:00 | 03:04:32 | 00:00:00 | |
| DL6DJ-15 | 2026-09-04 13:07:09 | 49.17058 | 13.37751 | 110° | 80km/h | 4985m | -8.7m/s | -4.1°C | 61.1% | 560.8hPa | 2.6V | 00:00:00 | 00:00:00 | 00:00:00 | |
| OE5MMP-10 | 2026-09-04 13:07:06 | 49.17079 | 13.37663 | 111° | 82km/h | 5012m | -8.9m/s | -4.3°C | 64.5% | 558.9hPa | 2.6V | 00:00:00 | 03:04:27 | 00:00:00 | |
| PG1ADW-2 | 2026-09-04 13:07:04 | 49.17093 | 13.37604 | 110° | 86km/h | 5029m | -8.2m/s | -4.5°C | 64.5% | 557.7hPa | 2.6V | 00:00:00 | 00:00:00 | 00:00:00 | |
| OE5MMP-10 | 2026-09-04 13:06:56 | 49.17150 | 13.37366 | 110° | 84km/h | 5097m | -8.4m/s | -5.1°C | 71.2% | 552.9hPa | 2.6V | 03:00:00 | 03:04:17 | 00:00:00 | |
| OE5MMP-10 | 2026-09-04 13:06:46 | 49.17219 | 13.37059 | 109° | 88km/h | 5179m | -8.5m/s | -5.9°C | 81.4% | 547.0hPa | 2.6V | 00:00:00 | 03:04:07 | 00:00:00 | |
| OE5DXL-15 | 2026-09-04 13:06:44 | 49.17233 | 13.36996 | 109° | 88km/h | 5196m | -8.6m/s | -6.0°C | 79.3% | 545.8hPa | 2.6V | 00:00:00 | 00:00:00 | 00:00:00 | |
| PG1ADW-2 | 2026-09-04 13:06:40 | 49.17260 | 13.36867 | 109° | 88km/h | 5229m | -8.3m/s | -6.2°C | 79.5% | 543.6hPa | 2.6V | 03:01:00 | 00:00:00 | 00:00:00 | |
| OE5MMP-10 | 2026-09-04 13:06:36 | 49.17290 | 13.36742 | 110° | 88km/h | 5262m | -8.1m/s | -6.4°C | 76.9% | 541.2hPa | 2.6V | 00:00:00 | 03:03:57 | 00:00:00 | |
| DO3MHA-11 | 2026-09-04 13:06:26 | 49.17367 | 13.36425 | 111° | 88km/h | 5345m | -8.4m/s | -6.7°C | 62.3% | 535.4hPa | 2.6V | 00:00:00 | 03:03:47 | 00:00:00 | |
| PG1ADW-2 | 2026-09-04 13:06:20 | 49.17410 | 13.36233 | 109° | 89km/h | 5395m | -8.4m/s | -7.0°C | 50.4% | 532.0hPa | 2.6V | 00:00:00 | 00:00:00 | 00:00:00 | |
| DO3MHA-11 | 2026-09-04 13:06:16 | 49.17440 | 13.36106 | 110° | 89km/h | 5428m | -8.1m/s | -7.1°C | 49.9% | 529.7hPa | 2.6V | 03:01:00 | 03:03:37 | 00:00:00 | |
| OE5DXL-15 | 2026-09-04 13:06:14 | 49.17455 | 13.36042 | 111° | 93km/h | 5444m | -7.9m/s | -7.2°C | 56.5% | 528.6hPa | 2.6V | 00:00:00 | 00:00:00 | 00:00:00 | |
| OE5MMP-10 | 2026-09-04 13:06:06 | 49.17522 | 13.35786 | 114° | 93km/h | 5509m | -8.1m/s | -7.5°C | 47.3% | 524.2hPa | 2.5V | 00:00:00 | 03:03:27 | 00:00:00 | |
| OE5WHR-10 | 2026-09-04 13:06:04 | 49.17541 | 13.35720 | 115° | 97km/h | 5525m | -8.1m/s | -7.4°C | 45.7% | 523.0hPa | 2.5V | 00:00:00 | 03:03:25 | 00:00:00 | |
| PG1ADW-2 | 2026-09-04 13:06:00 | 49.17581 | 13.35590 | 117° | 95km/h | 5557m | -8.3m/s | -7.6°C | 45.5% | 520.8hPa | 2.5V | 00:00:00 | 03:03:21 | 00:00:00 | |
| OE5MMP-10 | 2026-09-04 13:05:56 | 49.17625 | 13.35460 | 118° | 95km/h | 5590m | -8.1m/s | -7.8°C | 46.2% | 518.5hPa | 2.5V | 00:00:00 | 03:03:17 | 00:00:00 | |
| OE5DRO-10 | 2026-09-04 13:05:49 | 49.17742 | 13.35137 | 120° | 97km/h | 5671m | -8.4m/s | -8.5°C | 49.2% | 513.0hPa | 2.5V | 00:00:00 | 00:00:00 | 00:00:00 | |
| DO3MHA-11 | 2026-09-04 13:05:46 | 49.17742 | 13.35137 | 120° | 97km/h | 5671m | -8.4m/s | -8.5°C | 49.2% | 513.0hPa | 2.6V | 00:00:00 | 03:03:07 | 00:00:00 | |
| OE5DXL-15 | 2026-09-04 13:05:44 | 49.17767 | 13.35072 | 121° | 97km/h | 5688m | -8.7m/s | -8.6°C | 50.1% | 511.8hPa | 2.6V | 00:00:00 | 00:00:00 | 00:00:00 | |
| PG1ADW-2 | 2026-09-04 13:05:40 | 49.17816 | 13.34944 | 121° | 97km/h | 5722m | -8.6m/s | -8.9°C | 51.2% | 509.7hPa | 2.6V | 00:00:00 | 00:00:00 | 00:00:00 | |
| OE5MMP-10 | 2026-09-04 13:05:36 | 49.17865 | 13.34816 | 121° | 97km/h | 5754m | -8.4m/s | -9.1°C | 55.7% | 507.5hPa | 2.6V | 03:02:00 | 03:02:57 | 00:00:00 | |
| OE5WHR-10 | 2026-09-04 13:05:35 | 49.17877 | 13.34784 | 121° | 97km/h | 5763m | -8.4m/s | -9.2°C | 56.4% | 506.9hPa | 2.6V | 00:00:00 | 00:00:00 | 00:00:00 | |
| OE5DRO-10 | 2026-09-04 13:05:30 | 49.17962 | 13.34556 | 120° | 97km/h | 5820m | -8.4m/s | -9.5°C | 47.8% | 503.2hPa | 2.5V | 00:00:00 | 00:00:00 | 00:00:00 | |
| OE5MMP-10 | 2026-09-04 13:05:26 | 49.17986 | 13.34490 | 119° | 97km/h | 5836m | -8.3m/s | -9.6°C | 46.3% | 502.2hPa | 2.5V | 00:00:00 | 03:02:47 | 00:00:00 | |
| DO3MHA-11 | 2026-09-04 13:05:21 | 49.18045 | 13.34326 | 119° | 97km/h | 5877m | -8.3m/s | -9.9°C | 43.7% | 499.5hPa | 2.5V | 00:00:00 | 03:02:42 | 00:00:00 | |
| PG1ADW-2 | 2026-09-04 13:05:20 | 49.18056 | 13.34293 | 119° | 97km/h | 5886m | -8.4m/s | -9.9°C | 43.9% | 499.0hPa | 2.5V | 03:02:00 | 00:00:00 | 00:00:00 | |
| OE5MMP-10 | 2026-09-04 13:05:16 | 49.18103 | 13.34161 | 119° | 97km/h | 5919m | -8.4m/s | -10.2°C | 43.7% | 496.9hPa | 2.5V | 00:00:00 | 03:02:37 | 00:00:00 | |
| OE5DXL-15 | 2026-09-04 13:05:14 | 49.18127 | 13.34095 | 119° | 97km/h | 5935m | -8.2m/s | -10.3°C | 47.1% | 495.8hPa | 2.5V | 03:02:00 | 00:00:00 | 00:00:00 | |
| DO3MHA-11 | 2026-09-04 13:05:07 | 49.18207 | 13.33864 | 119° | 95km/h | 5993m | -8.2m/s | -10.9°C | 51.3% | 492.2hPa | 2.5V | 00:00:00 | 03:02:28 | 00:00:00 | |
| OE5MMP-10 | 2026-09-04 13:05:06 | 49.18219 | 13.33831 | 119° | 97km/h | 6001m | -8.2m/s | -10.9°C | 51.6% | 491.6hPa | 2.5V | 00:00:00 | 03:02:27 | 00:00:00 | |
| DL6DJ-15 | 2026-09-04 13:05:05 | 49.18424 | 13.33287 | 121° | 95km/h | 6141m | -8.3m/s | -11.9°C | 45.2% | 482.8hPa | 2.5V | 00:00:00 | 00:00:00 | 00:00:00 | |
| PG1ADW-2 | 2026-09-04 13:05:00 | 49.18291 | 13.33638 | 120° | 95km/h | 6049m | -8.2m/s | -11.3°C | 52.4% | 488.6hPa | 2.5V | 00:00:00 | 00:00:00 | 00:00:00 | |
| OE5WHR-10 | 2026-09-04 13:04:59 | 49.18303 | 13.33606 | 120° | 95km/h | 6057m | -8.3m/s | -11.3°C | 50.7% | 488.0hPa | 2.6V | 03:02:00 | 00:00:00 | 00:00:00 | |
| OE5DRO-10 | 2026-09-04 13:04:58 | 49.18339 | 13.33509 | 120° | 95km/h | 6082m | -8.2m/s | -11.4°C | 46.4% | 486.4hPa | 2.6V | 00:00:00 | 00:00:00 | 00:00:00 | |
| OE5MMP-10 | 2026-09-04 13:04:56 | 49.18339 | 13.33509 | 120° | 95km/h | 6082m | -8.2m/s | -11.4°C | 46.4% | 486.4hPa | 2.5V | 03:02:00 | 03:02:17 | 00:00:00 | |
| OE5MMP-10 | 2026-09-04 13:04:46 | 49.18461 | 13.33192 | 121° | 95km/h | 6166m | -8.3m/s | -12.0°C | 46.2% | 481.2hPa | 2.5V | 00:00:00 | 03:02:07 | 00:00:00 | |
| OE5DXL-15 | 2026-09-04 13:04:44 | 49.18485 | 13.33128 | 120° | 93km/h | 6182m | -8.0m/s | -12.1°C | 43.7% | 480.2hPa | 2.5V | 00:00:00 | 00:00:00 | 00:00:00 | |
| OE5DRO-10 | 2026-09-04 13:04:40 | 49.18556 | 13.32936 | 120° | 93km/h | 6231m | -8.3m/s | -12.4°C | 41.7% | 477.1hPa | 2.6V | 00:00:00 | 00:00:00 | 00:00:00 | |
| OE5MMP-10 | 2026-09-04 13:04:36 | 49.18579 | 13.32872 | 120° | 93km/h | 6247m | -8.3m/s | -12.6°C | 42.3% | 476.1hPa | 2.6V | 00:00:00 | 03:01:57 | 00:00:00 | |
| OE5WHR-10 | 2026-09-04 13:04:35 | 49.18591 | 13.32840 | 120° | 91km/h | 6255m | -8.3m/s | -12.6°C | 42.0% | 475.5hPa | 2.5V | 00:00:00 | 03:01:56 | 00:00:00 | |
| OE5MMP-10 | 2026-09-04 13:04:26 | 49.18694 | 13.32555 | 118° | 91km/h | 6328m | -8.1m/s | -13.0°C | 36.6% | 470.8hPa | 2.5V | 00:00:00 | 03:01:47 | 00:00:00 | |
| PG1ADW-2 | 2026-09-04 13:04:20 | 49.18758 | 13.32366 | 117° | 91km/h | 6377m | -8.3m/s | -13.3°C | 30.3% | 467.7hPa | 2.5V | 00:00:00 | 00:00:00 | 00:00:00 | |
| OE5MMP-10 | 2026-09-04 13:04:16 | 49.18798 | 13.32239 | 116° | 91km/h | 6411m | -8.9m/s | -13.3°C | 25.7% | 465.6hPa | 2.5V | 03:03:00 | 03:01:37 | 00:00:00 | |
| OE5DXL-15 | 2026-09-04 13:04:14 | 49.18818 | 13.32175 | 115° | 91km/h | 6428m | -8.8m/s | -13.4°C | 26.3% | 464.6hPa | 2.5V | 00:00:00 | 00:00:00 | 00:00:00 | |
| OE5MMP-10 | 2026-09-04 13:04:06 | 49.18895 | 13.31920 | 116° | 91km/h | 6496m | -9.2m/s | -13.7°C | 28.1% | 460.4hPa | 2.5V | 00:00:00 | 03:01:27 | 00:00:00 | |
| DL6DJ-15 | 2026-09-04 13:04:04 | 49.19011 | 13.31536 | 115° | 91km/h | 6601m | -9.2m/s | -14.3°C | 24.4% | 454.2hPa | 2.5V | 00:00:00 | 00:00:00 | 00:00:00 | |
| PG1ADW-2 | 2026-09-04 13:04:00 | 49.18953 | 13.31728 | 115° | 91km/h | 6548m | -8.7m/s | -14.1°C | 28.4% | 457.2hPa | 2.5V | 03:03:00 | 00:00:00 | 00:00:00 | |
| OE5DRO-10 | 2026-09-04 13:03:59 | 49.18982 | 13.31632 | 115° | 91km/h | 6574m | -9.2m/s | -14.2°C | 27.2% | 455.7hPa | 2.6V | 03:03:00 | 00:00:00 | 00:00:00 | |
| OE5MMP-10 | 2026-09-04 13:03:56 | 49.18991 | 13.31600 | 115° | 91km/h | 6583m | -9.1m/s | -14.2°C | 27.0% | 455.2hPa | 2.5V | 00:00:00 | 03:01:17 | 00:00:00 | |
| OE5MMP-10 | 2026-09-04 13:03:46 | 49.19087 | 13.31278 | 115° | 91km/h | 6674m | -9.2m/s | -14.4°C | 22.3% | 449.8hPa | 2.5V | 00:00:00 | 03:01:07 | 00:00:00 | |
| OE5DXL-15 | 2026-09-04 13:03:44 | 49.19106 | 13.31213 | 115° | 93km/h | 6692m | -9.3m/s | -14.5°C | 22.4% | 448.7hPa | 2.5V | 00:00:00 | 00:00:00 | 00:00:00 | |
| PG1ADW-2 | 2026-09-04 13:03:41 | 49.19144 | 13.31084 | 115° | 93km/h | 6729m | -9.5m/s | -14.7°C | 22.7% | 446.5hPa | 2.5V | 00:00:00 | 00:00:00 | 00:00:00 | |
| OE5DRO-10 | 2026-09-04 13:03:40 | 49.19173 | 13.30986 | 115° | 93km/h | 6756m | -9.7m/s | -14.9°C | 23.1% | 444.9hPa | 2.5V | 00:00:00 | 00:00:00 | 00:00:00 | |
| OE5MMP-10 | 2026-09-04 13:03:36 | 49.19183 | 13.30954 | 114° | 93km/h | 6766m | -9.7m/s | -15.0°C | 23.2% | 444.4hPa | 2.5V | 03:04:00 | 03:00:57 | 00:00:00 | |
| DL6DJ-15 | 2026-09-04 13:03:32 | 49.19231 | 13.30792 | 115° | 91km/h | 6813m | -9.7m/s | -15.4°C | 22.7% | 441.6hPa | 2.5V | 00:00:00 | 00:00:00 | 00:00:00 | |
| OE5MMP-10 | 2026-09-04 13:03:26 | 49.19280 | 13.30630 | 115° | 93km/h | 6860m | -10.0m/s | -15.8°C | 25.3% | 438.8hPa | 2.5V | 00:00:00 | 03:00:47 | 00:00:00 | |
| PG1ADW-2 | 2026-09-04 13:03:20 | 49.19339 | 13.30435 | 115° | 95km/h | 6920m | -9.9m/s | -16.3°C | 26.3% | 435.5hPa | 2.5V | 00:00:00 | 03:00:41 | 00:00:00 | |
| OE5DRO-10 | 2026-09-04 13:03:18 | 49.19379 | 13.30303 | 116° | 95km/h | 6959m | -10.2m/s | -16.6°C | 26.0% | 433.3hPa | 2.5V | 00:00:00 | 00:00:00 | 00:00:00 | |
| OE5MMP-10 | 2026-09-04 13:03:16 | 49.19379 | 13.30303 | 116° | 95km/h | 6959m | -10.2m/s | -16.6°C | 26.0% | 433.3hPa | 2.5V | 00:00:00 | 03:00:37 | 00:00:00 | |
| DO3MHA-11 | 2026-09-04 13:03:15 | 49.19390 | 13.30270 | 116° | 95km/h | 6969m | -10.1m/s | -16.7°C | 26.1% | 432.7hPa | 2.5V | 00:00:00 | 03:00:36 | 00:00:00 | |
| OE5DXL-15 | 2026-09-04 13:03:14 | 49.19400 | 13.30237 | 116° | 93km/h | 6979m | -9.9m/s | -16.8°C | 26.2% | 432.2hPa | 2.6V | 03:04:00 | 00:00:00 | 00:00:00 | |
| OE5MMP-10 | 2026-09-04 13:03:06 | 49.19482 | 13.29971 | 116° | 95km/h | 7058m | -9.7m/s | -17.4°C | 26.0% | 427.6hPa | 2.6V | 00:00:00 | 03:00:27 | 00:00:00 | |
| DO3MHA-11 | 2026-09-04 13:03:05 | 49.19493 | 13.29938 | 116° | 95km/h | 7067m | -10.1m/s | -17.5°C | 25.9% | 427.1hPa | 2.6V | 03:04:00 | 03:00:26 | 00:00:00 | |
| DL6DJ-15 | 2026-09-04 13:03:01 | 49.19605 | 13.29579 | 114° | 89km/h | 7175m | -10.0m/s | -18.1°C | 20.8% | 420.9hPa | 2.6V | 00:00:00 | 00:00:00 | 00:00:00 | |
| PG1ADW-2 | 2026-09-04 13:03:00 | 49.19545 | 13.29772 | 116° | 89km/h | 7117m | -9.8m/s | -17.8°C | 25.4% | 424.3hPa | 2.6V | 00:00:00 | 00:00:00 | 00:00:00 | |
| OE5MMP-10 | 2026-09-04 13:02:56 | 49.19585 | 13.29642 | 115° | 89km/h | 7155m | -9.7m/s | -17.9°C | 22.5% | 422.0hPa | 2.5V | 03:04:00 | 03:00:17 | 00:00:00 | |
| DO3MHA-11 | 2026-09-04 13:02:55 | 49.19595 | 13.29610 | 115° | 89km/h | 7165m | -9.7m/s | -18.0°C | 22.5% | 421.4hPa | 2.5V | 00:00:00 | 03:00:16 | 00:00:00 | |
| OE5MMP-10 | 2026-09-04 13:02:46 | 49.19675 | 13.29325 | 112° | 86km/h | 7253m | -10.3m/s | -18.2°C | 14.4% | 416.4hPa | 2.5V | 00:00:00 | 03:00:07 | 00:00:00 | |
| DO3MHA-11 | 2026-09-04 13:02:45 | 49.19683 | 13.29293 | 111° | 86km/h | 7263m | -10.4m/s | -18.2°C | 14.1% | 415.9hPa | 2.5V | 00:00:00 | 03:00:06 | 00:00:00 | |
| OE5DXL-15 | 2026-09-04 13:02:44 | 49.19691 | 13.29262 | 111° | 84km/h | 7274m | -10.5m/s | -18.3°C | 13.7% | 415.3hPa | 2.6V | 00:00:00 | 00:00:00 | 00:00:00 | |
| PG1ADW-2 | 2026-09-04 13:02:40 | 49.19721 | 13.29138 | 111° | 84km/h | 7314m | -10.9m/s | -18.2°C | 11.2% | 413.0hPa | 2.6V | 03:05:00 | 00:00:00 | 00:00:00 | |
| OE5MMP-10 | 2026-09-04 13:02:36 | 49.19751 | 13.29014 | 111° | 84km/h | 7356m | -10.8m/s | -18.4°C | 10.8% | 410.7hPa | 2.6V | 00:00:00 | 02:59:57 | 00:00:00 | |
| DO3MHA-11 | 2026-09-04 13:02:34 | 49.19766 | 13.28953 | 110° | 82km/h | 7377m | -10.5m/s | -18.5°C | 10.4% | 409.5hPa | 2.6V | 00:00:00 | 02:59:55 | 00:00:00 | |
| DL6DJ-15 | 2026-09-04 13:02:30 | 49.19799 | 13.28799 | 107° | 82km/h | 7428m | -10.1m/s | -18.8°C | 9.4% | 406.7hPa | 2.6V | 00:00:00 | 00:00:00 | 00:00:00 | |
| OE5MMP-10 | 2026-09-04 13:02:26 | 49.19819 | 13.28707 | 108° | 82km/h | 7458m | -10.2m/s | -19.0°C | 10.3% | 405.0hPa | 2.6V | 00:00:00 | 02:59:47 | 00:00:00 | |
| PG1ADW-2 | 2026-09-04 13:02:20 | 49.19857 | 13.28526 | 108° | 82km/h | 7522m | -10.8m/s | -19.4°C | 9.9% | 401.6hPa | 2.6V | 00:00:00 | 00:00:00 | 00:00:00 | |
| DO3MHA-11 | 2026-09-04 13:02:17 | 49.19875 | 13.28435 | 106° | 82km/h | 7553m | -10.7m/s | -19.6°C | 10.1% | 399.8hPa | 2.6V | 03:05:00 | 02:59:38 | 00:00:00 | |
| OE5MMP-10 | 2026-09-04 13:02:16 | 49.19880 | 13.28405 | 108° | 82km/h | 7564m | -10.8m/s | -19.7°C | 10.8% | 399.3hPa | 2.6V | 03:05:00 | 02:59:37 | 00:00:00 | |
| OE3JTB-15 | 2026-09-04 13:02:15 | 49.19892 | 13.28345 | 108° | 84km/h | 7585m | -11.3m/s | 0°C | 0% | 0hPa | 2.6V | 00:00:00 | 00:00:00 | 00:00:00 | |
| OE5DXL-15 | 2026-09-04 13:02:14 | 49.19892 | 13.28345 | 108° | 84km/h | 7585m | -11.3m/s | -19.9°C | 11.9% | 398.2hPa | 2.6V | 00:00:00 | 00:00:00 | 00:00:00 | |
| OE5WHR-10 | 2026-09-04 13:02:11 | 49.19910 | 13.28253 | 108° | 86km/h | 7617m | -10.9m/s | -20.2°C | 14.0% | 396.4hPa | 2.6V | 00:00:00 | 00:00:00 | 00:00:00 | |
| DO3MHA-11 | 2026-09-04 13:02:07 | 49.19934 | 13.28132 | 108° | 82km/h | 7661m | -11.0m/s | -20.6°C | 15.0% | 394.1hPa | 2.6V | 00:00:00 | 02:59:28 | 00:00:00 | |
| OE5MMP-10 | 2026-09-04 13:02:06 | 49.19940 | 13.28102 | 107° | 84km/h | 7672m | -10.9m/s | -20.7°C | 15.1% | 393.7hPa | 2.6V | 00:00:00 | 02:59:27 | 00:00:00 | |
| DL6DJ-15 | 2026-09-04 13:01:58 | 49.19988 | 13.27855 | 107° | 84km/h | 7757m | -10.7m/s | -21.6°C | 16.0% | 389.1hPa | 2.6V | 00:00:00 | 00:00:00 | 00:00:00 | |
| DO3MHA-11 | 2026-09-04 13:01:57 | 49.19994 | 13.27824 | 108° | 86km/h | 7768m | -10.5m/s | -21.6°C | 18.4% | 388.5hPa | 2.6V | 00:00:00 | 02:59:18 | 00:00:00 | |
| OE5MMP-10 | 2026-09-04 13:01:56 | 49.20000 | 13.27793 | 108° | 86km/h | 7778m | -10.7m/s | -21.7°C | 18.0% | 387.9hPa | 2.6V | 00:00:00 | 02:59:17 | 00:00:00 | |
| DO3MHA-11 | 2026-09-04 13:01:47 | 49.20063 | 13.27508 | 110° | 88km/h | 7877m | -11.2m/s | -22.4°C | 11.3% | 382.7hPa | 2.6V | 00:00:00 | 02:59:08 | 00:00:00 | |
| OE5MMP-10 | 2026-09-04 13:01:46 | 49.20070 | 13.27477 | 110° | 88km/h | 7888m | -10.9m/s | -22.5°C | 11.6% | 382.2hPa | 2.6V | 00:00:00 | 02:59:07 | 00:00:00 | |
| OE5DXL-15 | 2026-09-04 13:01:44 | 49.20086 | 13.27413 | 111° | 89km/h | 7910m | -11.4m/s | -22.7°C | 12.0% | 381.1hPa | 2.6V | 00:00:00 | 00:00:00 | 00:00:00 | |
| PG1ADW-2 | 2026-09-04 13:01:40 | 49.20116 | 13.27285 | 112° | 89km/h | 7954m | -10.9m/s | -23.1°C | 12.9% | 378.8hPa | 2.5V | 00:00:00 | 00:00:00 | 00:00:00 | |
| DO3MHA-11 | 2026-09-04 13:01:37 | 49.20140 | 13.27190 | 112° | 88km/h | 7987m | -11.5m/s | -23.4°C | 13.4% | 377.1hPa | 2.5V | 03:06:00 | 02:58:58 | 00:00:00 | |
| OE5MMP-10 | 2026-09-04 13:01:36 | 49.20148 | 13.27158 | 112° | 88km/h | 7998m | -11.2m/s | -23.5°C | 13.5% | 376.5hPa | 2.6V | 03:06:00 | 02:58:57 | 00:00:00 | |
| OE5DRO-10 | 2026-09-04 13:01:33 | 49.20189 | 13.26999 | 113° | 91km/h | 8053m | -11.2m/s | -24.0°C | 13.8% | 373.7hPa | 2.5V | 00:00:00 | 00:00:00 | 00:00:00 | |
| DO3MHA-11 | 2026-09-04 13:01:27 | 49.20221 | 13.26872 | 111° | 89km/h | 8099m | -11.6m/s | -24.4°C | 13.9% | 371.4hPa | 2.5V | 00:00:00 | 02:58:48 | 00:00:00 | |
| OE5MMP-10 | 2026-09-04 13:01:26 | 49.20230 | 13.26840 | 113° | 89km/h | 8110m | -11.4m/s | -24.4°C | 13.9% | 370.8hPa | 2.5V | 00:00:00 | 02:58:47 | 00:00:00 | |
| PG1ADW-2 | 2026-09-04 13:01:20 | 49.20280 | 13.26648 | 112° | 91km/h | 8179m | -11.8m/s | -25.0°C | 13.7% | 367.4hPa | 2.5V | 03:06:00 | 00:00:00 | 00:00:00 | |
| DO3MHA-11 | 2026-09-04 13:01:17 | 49.20307 | 13.26551 | 113° | 91km/h | 8212m | -11.3m/s | -25.2°C | 13.5% | 365.7hPa | 2.5V | 00:00:00 | 02:58:38 | 00:00:00 | |
| OE5MMP-10 | 2026-09-04 13:01:16 | 49.20316 | 13.26518 | 112° | 91km/h | 8224m | -11.8m/s | -25.3°C | 13.5% | 365.2hPa | 2.5V | 00:00:00 | 02:58:37 | 00:00:00 | |
| OE5DXL-15 | 2026-09-04 13:01:14 | 49.20333 | 13.26453 | 112° | 89km/h | 8246m | -11.7m/s | -25.5°C | 13.7% | 364.0hPa | 2.5V | 03:06:00 | 00:00:00 | 00:00:00 | |
| OE5DRO-10 | 2026-09-04 13:01:09 | 49.20386 | 13.26258 | 114° | 89km/h | 8315m | -11.7m/s | -26.0°C | 13.1% | 360.6hPa | 2.5V | 03:06:00 | 00:00:00 | 00:00:00 | |
| DO3MHA-11 | 2026-09-04 13:01:07 | 49.20395 | 13.26225 | 113° | 91km/h | 8326m | -11.4m/s | -26.1°C | 13.3% | 360.1hPa | 2.5V | 00:00:00 | 02:58:28 | 00:00:00 | |
| OE5MMP-10 | 2026-09-04 13:01:06 | 49.20403 | 13.26192 | 112° | 89km/h | 8337m | -11.5m/s | -26.2°C | 13.4% | 359.6hPa | 2.5V | 00:00:00 | 02:58:27 | 00:00:00 | |
| PG1ADW-2 | 2026-09-04 13:01:00 | 49.20454 | 13.25997 | 111° | 88km/h | 8405m | -11.3m/s | -26.8°C | 14.2% | 356.2hPa | 2.5V | 00:00:00 | 00:00:00 | 00:00:00 | |
| DO3MHA-11 | 2026-09-04 13:00:57 | 49.20478 | 13.25899 | 111° | 88km/h | 8439m | -11.4m/s | -27.1°C | 14.0% | 354.6hPa | 2.5V | 03:06:00 | 02:58:18 | 00:00:00 | |
| OE5MMP-10 | 2026-09-04 13:00:56 | 49.20486 | 13.25867 | 111° | 88km/h | 8450m | -11.1m/s | -27.1°C | 14.0% | 354.0hPa | 2.5V | 03:06:00 | 02:58:17 | 00:00:00 | |
| OE5DRO-10 | 2026-09-04 13:00:49 | 49.20539 | 13.25643 | 110° | 88km/h | 8530m | -11.5m/s | -27.8°C | 14.1% | 350.2hPa | 2.5V | 00:00:00 | 00:00:00 | 00:00:00 | |
| DO3MHA-11 | 2026-09-04 13:00:47 | 49.20553 | 13.25579 | 111° | 88km/h | 8553m | -11.5m/s | -28.0°C | 14.4% | 349.1hPa | 2.5V | 00:00:00 | 02:58:08 | 00:00:00 | |
| OE5MMP-10 | 2026-09-04 13:00:46 | 49.20561 | 13.25547 | 110° | 88km/h | 8564m | -11.4m/s | -28.1°C | 14.5% | 348.5hPa | 2.5V | 00:00:00 | 02:58:07 | 00:00:00 | |
| OE5DXL-15 | 2026-09-04 13:00:44 | 49.20576 | 13.25484 | 110° | 88km/h | 8587m | -11.6m/s | -28.3°C | 14.9% | 347.5hPa | 2.5V | 00:00:00 | 00:00:00 | 00:00:00 | |
| PG1ADW-2 | 2026-09-04 13:00:40 | 49.20605 | 13.25358 | 110° | 88km/h | 8633m | -11.7m/s | -28.7°C | 16.9% | 345.2hPa | 2.5V | 00:00:00 | 02:58:01 | 00:00:00 | |
| DO3MHA-11 | 2026-09-04 13:00:37 | 49.20628 | 13.25262 | 111° | 89km/h | 8668m | -11.4m/s | -29.0°C | 18.5% | 343.6hPa | 2.5V | 00:00:00 | 02:57:58 | 00:00:00 | |
| OE5MMP-10 | 2026-09-04 13:00:36 | 49.20636 | 13.25230 | 110° | 89km/h | 8679m | -11.4m/s | -29.0°C | 18.8% | 343.0hPa | 2.6V | 00:00:00 | 02:57:57 | 00:00:00 | |
| OE5DRO-10 | 2026-09-04 13:00:30 | 49.20681 | 13.25034 | 109° | 88km/h | 8748m | -11.5m/s | -29.6°C | 20.0% | 339.7hPa | 2.6V | 00:00:00 | 00:00:00 | 00:00:00 | |
| DO3MHA-11 | 2026-09-04 13:00:27 | 49.20702 | 13.24938 | 109° | 88km/h | 8783m | -12.0m/s | -30.0°C | 21.5% | 338.0hPa | 2.6V | 00:00:00 | 02:57:48 | 00:00:00 | |
| OE5MMP-10 | 2026-09-04 13:00:26 | 49.20709 | 13.24906 | 109° | 88km/h | 8795m | -12.0m/s | -30.1°C | 21.0% | 337.5hPa | 2.6V | 00:00:00 | 02:57:47 | 00:00:00 | |
| DL6DJ-15 | 2026-09-04 13:00:25 | 49.20717 | 13.24874 | 108° | 86km/h | 8807m | -11.6m/s | -30.2°C | 18.3% | 336.9hPa | 2.6V | 00:00:00 | 00:00:00 | 00:00:00 | |
| PG1ADW-2 | 2026-09-04 13:00:20 | 49.20753 | 13.24714 | 109° | 82km/h | 8864m | -11.4m/s | -30.6°C | 21.0% | 334.2hPa | 2.6V | 00:00:00 | 00:00:00 | 00:00:00 | |
| DO3MHA-11 | 2026-09-04 13:00:18 | 49.20773 | 13.24619 | 108° | 84km/h | 8898m | -11.3m/s | -30.9°C | 23.3% | 332.6hPa | 2.6V | 03:07:00 | 02:57:38 | 00:00:00 | |
| OE5MMP-10 | 2026-09-04 13:00:17 | 49.20780 | 13.24588 | 108° | 84km/h | 8910m | -11.3m/s | -31.0°C | 24.0% | 332.1hPa | 2.6V | 03:07:00 | 02:57:37 | 00:00:00 | |
| OE5WHR-10 | 2026-09-04 13:00:14 | 49.20793 | 13.24524 | 107° | 82km/h | 8932m | -11.1m/s | -31.1°C | 24.0% | 331.0hPa | 2.6V | 00:00:00 | 02:57:35 | 00:00:00 | |
| OE5DRO-10 | 2026-09-04 13:00:11 | 49.20811 | 13.24431 | 106° | 78km/h | 8965m | -11.2m/s | -31.3°C | 23.5% | 329.4hPa | 2.6V | 00:00:00 | 00:00:00 | 00:00:00 | |
| DO3MHA-11 | 2026-09-04 13:00:07 | 49.20831 | 13.24309 | 104° | 78km/h | 9011m | -11.3m/s | -31.6°C | 21.8% | 327.3hPa | 2.6V | 00:00:00 | 02:57:28 | 00:00:00 | |
| OE5MMP-10 | 2026-09-04 13:00:06 | 49.20836 | 13.24279 | 103° | 78km/h | 9022m | -11.3m/s | -31.6°C | 21.6% | 326.8hPa | 2.6V | 00:00:00 | 02:57:27 | 00:00:00 | |
| DL6DJ-15 | 2026-09-04 12:59:54 | 49.20875 | 13.23926 | 96° | 75km/h | 9158m | -11.2m/s | -32.8°C | 18.1% | 320.6hPa | 2.6V | 00:00:00 | 00:00:00 | 00:00:00 | |
| OE5WHR-10 | 2026-09-04 12:59:53 | 49.20877 | 13.23897 | 97° | 75km/h | 9169m | -11.5m/s | -32.8°C | 20.3% | 320.0hPa | 2.6V | 03:08:00 | 00:00:00 | 00:00:00 | |
| OE5DRO-10 | 2026-09-04 12:59:52 | 49.20879 | 13.23869 | 97° | 75km/h | 9181m | -11.4m/s | -32.9°C | 20.2% | 319.5hPa | 2.6V | 03:08:00 | 00:00:00 | 00:00:00 | |
| DO3MHA-11 | 2026-09-04 12:59:47 | 49.20889 | 13.23724 | 95° | 77km/h | 9237m | -11.6m/s | -33.1°C | 20.8% | 316.9hPa | 2.5V | 00:00:00 | 02:57:08 | 00:00:00 | |
| OE5MMP-10 | 2026-09-04 12:59:46 | 49.20890 | 13.23695 | 95° | 77km/h | 9249m | -11.5m/s | -33.2°C | 21.3% | 316.3hPa | 2.5V | 00:00:00 | 02:57:07 | 00:00:00 | |
| OE5DXL-15 | 2026-09-04 12:59:44 | 49.20893 | 13.23636 | 95° | 78km/h | 9272m | -11.5m/s | -33.3°C | 23.0% | 315.3hPa | 2.5V | 00:00:00 | 00:00:00 | 00:00:00 | |
| DO8TBO-1 | 2026-09-04 12:59:42 | 49.20897 | 13.23578 | 96° | 78km/h | 9294m | -11.3m/s | -33.4°C | 27.0% | 314.3hPa | 2.5V | 00:00:00 | 02:57:03 | 00:00:00 | |
| PG1ADW-2 | 2026-09-04 12:59:40 | 49.20900 | 13.23519 | 96° | 78km/h | 9317m | -11.2m/s | -33.6°C | 26.1% | 313.4hPa | 2.5V | 00:00:00 | 00:00:00 | 00:00:00 | |
| DO3MHA-11 | 2026-09-04 12:59:37 | 49.20906 | 13.23432 | 98° | 78km/h | 9351m | -11.4m/s | -33.8°C | 21.4% | 311.8hPa | 2.5V | 03:08:00 | 02:56:58 | 00:00:00 | |
| OE5MMP-10 | 2026-09-04 12:59:36 | 49.20909 | 13.23403 | 98° | 77km/h | 9362m | -11.4m/s | -33.9°C | 19.8% | 311.3hPa | 2.5V | 03:08:00 | 02:56:57 | 00:00:00 | |
| OE5DRO-10 | 2026-09-04 12:59:33 | 49.20918 | 13.23316 | 101° | 80km/h | 9396m | -11.3m/s | -34.0°C | 16.8% | 309.8hPa | 2.5V | 00:00:00 | 00:00:00 | 00:00:00 | |
| OE5WHR-10 | 2026-09-04 12:59:32 | 49.20922 | 13.23286 | 101° | 80km/h | 9407m | -11.4m/s | -34.0°C | 16.3% | 309.3hPa | 2.5V | 00:00:00 | 00:00:00 | 00:00:00 | |
| OE5MMP-10 | 2026-09-04 12:59:26 | 49.20947 | 13.23109 | 104° | 80km/h | 9475m | -11.5m/s | -34.2°C | 14.5% | 306.2hPa | 2.5V | 00:00:00 | 02:56:47 | 00:00:00 | |
| EDDB2-11 | 2026-09-04 12:59:23 | 49.20971 | 13.22959 | 104° | 80km/h | 9532m | -11.4m/s | -34.8°C | 12.5% | 303.8hPa | 2.5V | 00:00:00 | 00:00:00 | 00:00:00 | |
| PG1ADW-2 | 2026-09-04 12:59:20 | 49.20977 | 13.22929 | 105° | 84km/h | 9543m | -11.4m/s | -34.8°C | 14.7% | 303.2hPa | 2.5V | 00:00:00 | 02:56:41 | 00:00:00 | |
| DO3MHA-11 | 2026-09-04 12:59:18 | 49.20992 | 13.22837 | 104° | 84km/h | 9577m | -11.5m/s | -35.1°C | 14.4% | 301.8hPa | 2.5V | 00:00:00 | 02:56:38 | 00:00:00 | |
| OE5MMP-10 | 2026-09-04 12:59:16 | 49.20997 | 13.22806 | 105° | 84km/h | 9589m | -11.5m/s | -35.2°C | 14.1% | 301.3hPa | 2.5V | 00:00:00 | 02:56:37 | 00:00:00 | |
| OE5DRO-10 | 2026-09-04 12:59:14 | 49.21006 | 13.22744 | 104° | 86km/h | 9611m | -11.4m/s | -35.5°C | 13.8% | 300.3hPa | 2.5V | 00:00:00 | 00:00:00 | 00:00:00 | |
| EDDB2-12 | 2026-09-04 12:59:13 | 49.21012 | 13.22713 | 103° | 82km/h | 9622m | -11.4m/s | -35.6°C | 11.4% | 299.7hPa | 2.5V | 00:00:00 | 00:00:00 | 00:00:00 | |
| OE5WHR-10 | 2026-09-04 12:59:11 | 49.21021 | 13.22651 | 104° | 86km/h | 9645m | -11.5m/s | -35.8°C | 13.0% | 298.7hPa | 2.5V | 00:00:00 | 02:56:32 | 00:00:00 | |
| DO3MHA-11 | 2026-09-04 12:59:06 | 49.21045 | 13.22491 | 103° | 86km/h | 9701m | -11.6m/s | -36.1°C | 12.7% | 296.3hPa | 2.5V | 00:00:00 | 02:56:27 | 00:00:00 | |
| DL6DJ-15 | 2026-09-04 12:58:52 | 49.21098 | 13.22031 | 98° | 86km/h | 9860m | -11.9m/s | -37.2°C | 9.6% | 289.5hPa | 2.5V | 00:00:00 | 00:00:00 | 00:00:00 | |
| SONDE2-11 | 2026-09-04 12:58:47 | 49.21119 | 13.21830 | 99° | 88km/h | 9928m | -11.9m/s | -37.6°C | 10.0% | 286.6hPa | 2.5V | 00:00:00 | 00:00:00 | 00:00:00 | |
| OE5MMP-10 | 2026-09-04 12:58:46 | 49.21119 | 13.21830 | 100° | 89km/h | 9928m | -11.8m/s | -37.6°C | 12.1% | 286.6hPa | 2.5V | 00:00:00 | 02:56:07 | 00:00:00 | |
| OE5DXL-15 | 2026-09-04 12:58:44 | 49.21126 | 13.21762 | 99° | 91km/h | 9952m | -12.0m/s | -37.8°C | 12.3% | 285.7hPa | 2.5V | 00:00:00 | 00:00:00 | 00:00:00 | |
| DO8TBO-1 | 2026-09-04 12:58:41 | 49.21136 | 13.21659 | 99° | 91km/h | 9987m | -11.7m/s | -38.1°C | 12.5% | 284.2hPa | 2.6V | 00:00:00 | 02:56:02 | 00:00:00 | |
| PG1ADW-2 | 2026-09-04 12:58:40 | 49.21139 | 13.21624 | 98° | 91km/h | 9998m | -11.6m/s | -38.2°C | 12.4% | 283.7hPa | 2.6V | 03:09:00 | 00:00:00 | 00:00:00 | |
| OE5MMP-10 | 2026-09-04 12:58:36 | 49.21153 | 13.21486 | 100° | 91km/h | 10044m | -11.7m/s | -38.5°C | 12.6% | 281.8hPa | 2.6V | 00:00:00 | 02:55:57 | 00:00:00 | |
| OE5WHR-10 | 2026-09-04 12:58:28 | 49.21180 | 13.21206 | 99° | 89km/h | 10136m | -11.4m/s | -39.3°C | 13.2% | 278.1hPa | 2.5V | 00:00:00 | 00:00:00 | 00:00:00 | |
| OE5MMP-10 | 2026-09-04 12:58:26 | 49.21187 | 13.21137 | 99° | 89km/h | 10158m | -11.7m/s | -39.4°C | 13.4% | 277.2hPa | 2.5V | 00:00:00 | 02:55:47 | 00:00:00 | |
| DL6DJ-15 | 2026-09-04 12:58:21 | 49.21204 | 13.20965 | 99° | 89km/h | 10214m | -11.5m/s | -40.0°C | 11.4% | 275.0hPa | 2.5V | 00:00:00 | 00:00:00 | 00:00:00 | |
| PG1ADW-2 | 2026-09-04 12:58:20 | 49.21208 | 13.20930 | 99° | 89km/h | 10226m | -11.3m/s | -40.0°C | 14.0% | 274.5hPa | 2.5V | 00:00:00 | 00:00:00 | 00:00:00 | |
| OE5DRO-10 | 2026-09-04 12:58:17 | 49.21218 | 13.20827 | 98° | 89km/h | 10260m | -11.6m/s | -40.3°C | 14.5% | 273.1hPa | 2.5V | 00:00:00 | 00:00:00 | 00:00:00 | |
| SONDE2-11 | 2026-09-04 12:58:16 | 49.21225 | 13.20759 | 98° | 89km/h | 10283m | -11.4m/s | -40.6°C | 12.3% | 272.3hPa | 2.5V | 00:00:00 | 00:00:00 | 00:00:00 | |
| OE5DXL-15 | 2026-09-04 12:58:14 | 49.21228 | 13.20725 | 100° | 89km/h | 10294m | -11.6m/s | -40.6°C | 15.0% | 271.7hPa | 2.5V | 00:00:00 | 00:00:00 | 00:00:00 | |
| DO8TBO-1 | 2026-09-04 12:58:11 | 49.21239 | 13.20623 | 100° | 89km/h | 10328m | -11.6m/s | -40.9°C | 15.6% | 270.4hPa | 2.5V | 00:00:00 | 02:55:32 | 00:00:00 | |
| OE5MMP-10 | 2026-09-04 12:58:06 | 49.21258 | 13.20451 | 101° | 89km/h | 10385m | -11.8m/s | -41.5°C | 16.4% | 268.1hPa | 2.5V | 00:00:00 | 02:55:27 | 00:00:00 | |
| DL6DJ-15 | 2026-09-04 12:57:50 | 49.21334 | 13.19874 | 102° | 89km/h | 10579m | -11.4m/s | -43.1°C | 16.3% | 260.7hPa | 2.5V | 00:00:00 | 00:00:00 | 00:00:00 | |
| OE5MMP-10 | 2026-09-04 12:57:46 | 49.21349 | 13.19773 | 102° | 89km/h | 10614m | -11.4m/s | -43.4°C | 20.2% | 259.3hPa | 2.5V | 00:00:00 | 02:55:07 | 00:00:00 | |
| SONDE2-11 | 2026-09-04 12:57:45 | 49.21359 | 13.19705 | 102° | 89km/h | 10637m | -11.7m/s | -43.6°C | 17.4% | 258.6hPa | 2.5V | 00:00:00 | 00:00:00 | 00:00:00 | |
| OE5DXL-15 | 2026-09-04 12:57:44 | 49.21359 | 13.19705 | 103° | 88km/h | 10637m | -11.7m/s | -43.6°C | 20.9% | 258.5hPa | 2.5V | 00:00:00 | 00:00:00 | 00:00:00 | |
| PG1ADW-2 | 2026-09-04 12:57:42 | 49.21368 | 13.19638 | 103° | 88km/h | 10660m | -11.6m/s | -43.8°C | 21.8% | 257.6hPa | 2.5V | 00:00:00 | 02:55:03 | 00:00:00 | |
| OE5WHR-10 | 2026-09-04 12:57:41 | 49.21373 | 13.19605 | 103° | 88km/h | 10671m | -11.5m/s | -43.9°C | 22.3% | 257.2hPa | 2.5V | 00:00:00 | 02:55:02 | 00:00:00 | |
| EDDB2-12 | 2026-09-04 12:57:40 | 49.21378 | 13.19571 | 101° | 88km/h | 10683m | -11.8m/s | -44.0°C | 19.0% | 256.8hPa | 2.5V | 00:00:00 | 00:00:00 | 00:00:00 | |
| OE5DRO-10 | 2026-09-04 12:57:39 | 49.21382 | 13.19538 | 102° | 88km/h | 10695m | -11.6m/s | -44.1°C | 23.1% | 256.3hPa | 2.5V | 00:00:00 | 00:00:00 | 00:00:00 | |
| OE5MMP-10 | 2026-09-04 12:57:26 | 49.21434 | 13.19105 | 100° | 86km/h | 10842m | -11.5m/s | -45.4°C | 26.9% | 250.8hPa | 2.5V | 00:00:00 | 02:54:47 | 00:00:00 | |
| DO3MHA-11 | 2026-09-04 12:57:22 | 49.21449 | 13.18973 | 99° | 86km/h | 10889m | -11.4m/s | -45.8°C | 27.9% | 249.1hPa | 2.5V | 03:10:00 | 02:54:43 | 00:00:00 | |
| OE5WHR-10 | 2026-09-04 12:57:20 | 49.21455 | 13.18908 | 100° | 84km/h | 10912m | -11.2m/s | -46.0°C | 28.3% | 248.3hPa | 2.5V | 00:00:00 | 00:00:00 | 00:00:00 | |
| EDDB2-11 | 2026-09-04 12:57:19 | 49.21461 | 13.18842 | 97° | 84km/h | 10934m | -11.8m/s | -46.3°C | 24.0% | 247.4hPa | 2.5V | 00:00:00 | 00:00:00 | 00:00:00 | |
| OE5MMP-10 | 2026-09-04 12:57:16 | 49.21467 | 13.18777 | 99° | 84km/h | 10957m | -11.4m/s | -46.5°C | 29.0% | 246.6hPa | 2.5V | 00:00:00 | 02:54:37 | 00:00:00 | |
| PETON7-10 | 2026-09-04 12:57:14 | 49.21473 | 13.18711 | 98° | 89km/h | 10980m | -11.5m/s | -46.7°C | 29.4% | 245.7hPa | 2.5V | 00:00:00 | 00:00:00 | 00:00:00 | |
| SONDE2-11 | 2026-09-04 12:57:13 | 49.21476 | 13.18679 | 96° | 84km/h | 10992m | -11.4m/s | -46.8°C | 24.8% | 245.4hPa | 2.5V | 00:00:00 | 00:00:00 | 00:00:00 | |
| DO3MHA-11 | 2026-09-04 12:57:12 | 49.21478 | 13.18646 | 97° | 84km/h | 11003m | -11.4m/s | -46.9°C | 29.7% | 244.9hPa | 2.5V | 00:00:00 | 02:54:33 | 00:00:00 | |
| DO8TBO-1 | 2026-09-04 12:57:11 | 49.21481 | 13.18613 | 97° | 84km/h | 11015m | -11.1m/s | -47.0°C | 29.7% | 244.5hPa | 2.5V | 03:10:00 | 02:54:32 | 00:00:00 | |
| EDDB2-12 | 2026-09-04 12:57:09 | 49.21486 | 13.18549 | 96° | 82km/h | 11037m | -11.6m/s | -47.3°C | 25.2% | 243.7hPa | 2.5V | 00:00:00 | 00:00:00 | 00:00:00 | |
| OE5MMP-10 | 2026-09-04 12:57:06 | 49.21493 | 13.18452 | 96° | 84km/h | 11072m | -11.3m/s | -47.5°C | 30.3% | 242.4hPa | 2.5V | 00:00:00 | 02:54:27 | 00:00:00 | |
| DL6DJ-15 | 2026-09-04 12:56:49 | 49.21543 | 13.17835 | 97° | 82km/h | 11296m | -11.6m/s | -49.5°C | 30.8% | 234.7hPa | 2.6V | 00:00:00 | 00:00:00 | 00:00:00 | |
| EDDB2-11 | 2026-09-04 12:56:48 | 49.21543 | 13.17835 | 97° | 82km/h | 11296m | -11.6m/s | -49.5°C | 30.8% | 234.7hPa | 2.6V | 00:00:00 | 00:00:00 | 00:00:00 | |
| OE5MMP-10 | 2026-09-04 12:56:46 | 49.21545 | 13.17803 | 99° | 84km/h | 11307m | -11.7m/s | -49.5°C | 37.5% | 234.2hPa | 2.6V | 00:00:00 | 02:54:07 | 00:00:00 | |
| OE5DXL-15 | 2026-09-04 12:56:44 | 49.21552 | 13.17739 | 98° | 86km/h | 11332m | -12.0m/s | -49.7°C | 38.8% | 233.4hPa | 2.6V | 00:00:00 | 00:00:00 | 00:00:00 | |
| PG1ADW-2 | 2026-09-04 12:56:43 | 49.21558 | 13.17675 | 100° | 84km/h | 11356m | -11.5m/s | -49.9°C | 39.7% | 232.6hPa | 2.6V | 00:00:00 | 00:00:00 | 00:00:00 | |
| DO3MHA-11 | 2026-09-04 12:56:42 | 49.21558 | 13.17675 | 100° | 84km/h | 11356m | -11.5m/s | -49.9°C | 39.7% | 232.6hPa | 2.6V | 03:11:00 | 02:54:03 | 00:00:00 | |
| EDDB2-12 | 2026-09-04 12:56:39 | 49.21572 | 13.17546 | 99° | 84km/h | 11405m | -11.9m/s | -50.4°C | 33.6% | 231.0hPa | 2.6V | 00:00:00 | 00:00:00 | 00:00:00 | |
| OE5WHR-10 | 2026-09-04 12:56:38 | 49.21572 | 13.17546 | 100° | 84km/h | 11405m | -11.9m/s | -50.3°C | 39.8% | 231.0hPa | 2.6V | 03:11:00 | 02:53:59 | 00:00:00 | |
| OE5MMP-10 | 2026-09-04 12:56:36 | 49.21579 | 13.17482 | 100° | 84km/h | 11429m | -11.8m/s | -50.5°C | 38.6% | 230.1hPa | 2.6V | 00:00:00 | 02:53:57 | 00:00:00 | |
| DO3MHA-11 | 2026-09-04 12:56:32 | 49.21595 | 13.17356 | 101° | 84km/h | 11478m | -11.5m/s | -50.9°C | 38.2% | 228.5hPa | 2.5V | 00:00:00 | 02:53:53 | 00:00:00 | |
| OE5MMP-10 | 2026-09-04 12:56:26 | 49.21620 | 13.17165 | 102° | 86km/h | 11549m | -11.2m/s | -51.5°C | 39.5% | 226.0hPa | 2.6V | 00:00:00 | 02:53:47 | 00:00:00 | |
| OE5DRO-10 | 2026-09-04 12:56:23 | 49.21634 | 13.17069 | 102° | 88km/h | 11584m | -11.1m/s | -51.8°C | 40.4% | 224.9hPa | 2.6V | 00:00:00 | 00:00:00 | 00:00:00 | |
| DO3MHA-11 | 2026-09-04 12:56:22 | 49.21638 | 13.17036 | 103° | 88km/h | 11596m | -11.3m/s | -51.9°C | 40.8% | 224.4hPa | 2.6V | 00:00:00 | 02:53:43 | 00:00:00 | |
| EDDB2-11 | 2026-09-04 12:56:17 | 49.21668 | 13.16840 | 104° | 86km/h | 11665m | -11.1m/s | -52.5°C | 36.3% | 222.1hPa | 2.6V | 00:00:00 | 00:00:00 | 00:00:00 | |
| OE5MMP-10 | 2026-09-04 12:56:16 | 49.21668 | 13.16840 | 105° | 88km/h | 11665m | -11.1m/s | -52.5°C | 43.3% | 222.0hPa | 2.6V | 03:11:00 | 02:53:37 | 00:00:00 | |
| OE5DXL-15 | 2026-09-04 12:56:14 | 49.21679 | 13.16775 | 106° | 91km/h | 11688m | -11.2m/s | -52.7°C | 43.8% | 221.2hPa | 2.6V | 00:00:00 | 00:00:00 | 00:00:00 | |
| DO3MHA-11 | 2026-09-04 12:56:12 | 49.21690 | 13.16709 | 106° | 88km/h | 11711m | -11.2m/s | -52.9°C | 44.3% | 220.4hPa | 2.6V | 00:00:00 | 02:53:33 | 00:00:00 | |
| SONDE2-11 | 2026-09-04 12:56:11 | 49.21702 | 13.16644 | 105° | 86km/h | 11734m | -11.2m/s | -53.1°C | 37.2% | 219.7hPa | 2.6V | 00:00:00 | 00:00:00 | 00:00:00 | |
| DO8TBO-1 | 2026-09-04 12:56:09 | 49.21708 | 13.16611 | 106° | 89km/h | 11746m | -11.0m/s | -53.2°C | 44.4% | 219.3hPa | 2.6V | 00:00:00 | 02:53:30 | 00:00:00 | |
| EDDB2-12 | 2026-09-04 12:56:07 | 49.21720 | 13.16546 | 106° | 88km/h | 11769m | -11.2m/s | -53.4°C | 37.0% | 218.5hPa | 2.5V | 00:00:00 | 00:00:00 | 00:00:00 | |
| OE5MMP-10 | 2026-09-04 12:56:06 | 49.21726 | 13.16513 | 106° | 89km/h | 11781m | -11.1m/s | -53.5°C | 44.3% | 218.1hPa | 2.5V | 00:00:00 | 02:53:27 | 00:00:00 | |
| OE5DRO-10 | 2026-09-04 12:56:04 | 49.21745 | 13.16415 | 107° | 91km/h | 11816m | -11.4m/s | -53.7°C | 43.3% | 216.9hPa | 2.6V | 03:11:00 | 00:00:00 | 00:00:00 | |
| DL6DJ-15 | 2026-09-04 12:55:46 | 49.21868 | 13.15804 | 109° | 91km/h | 12028m | -11.5m/s | -55.4°C | 34.0% | 209.9hPa | 2.6V | 00:00:00 | 00:00:00 | 00:00:00 | |
| EDDB2-11 | 2026-09-04 12:55:45 | 49.21868 | 13.15804 | 109° | 91km/h | 12028m | -11.5m/s | -55.4°C | 34.0% | 209.9hPa | 2.6V | 00:00:00 | 00:00:00 | 00:00:00 | |
| OE5DXL-15 | 2026-09-04 12:55:44 | 49.21875 | 13.15770 | 109° | 91km/h | 12040m | -11.1m/s | -55.4°C | 41.2% | 209.4hPa | 2.6V | 00:00:00 | 02:53:05 | 00:00:00 | |
| DO3MHA-11 | 2026-09-04 12:55:42 | 49.21891 | 13.15702 | 110° | 93km/h | 12063m | -11.4m/s | -55.6°C | 41.1% | 208.7hPa | 2.5V | 00:00:00 | 02:53:03 | 00:00:00 | |
| SONDE2-11 | 2026-09-04 12:55:40 | 49.21907 | 13.15634 | 110° | 95km/h | 12087m | -11.6m/s | -55.8°C | 33.3% | 207.9hPa | 2.5V | 00:00:00 | 00:00:00 | 00:00:00 | |
| OE5MMP-10 | 2026-09-04 12:55:36 | 49.21939 | 13.15499 | 111° | 91km/h | 12135m | -11.6m/s | -56.2°C | 39.9% | 206.3hPa | 2.5V | 03:12:00 | 02:52:57 | 00:00:00 | |
| OE5DRO-10 | 2026-09-04 12:55:35 | 49.21971 | 13.15364 | 111° | 88km/h | 12183m | -11.9m/s | -56.5°C | 39.5% | 204.8hPa | 2.6V | 00:00:00 | 00:00:00 | 00:00:00 | |
| DO3MHA-11 | 2026-09-04 12:55:32 | 49.21971 | 13.15364 | 111° | 91km/h | 12183m | -11.9m/s | -56.5°C | 39.5% | 204.8hPa | 2.6V | 00:00:00 | 02:52:53 | 00:00:00 | |
| OE5MMP-10 | 2026-09-04 12:55:26 | 49.22018 | 13.15166 | 111° | 88km/h | 12255m | -11.5m/s | -57.1°C | 39.8% | 202.4hPa | 2.5V | 00:00:00 | 02:52:47 | 00:00:00 | |
| DO3MHA-11 | 2026-09-04 12:55:22 | 49.22049 | 13.15036 | 112° | 89km/h | 12303m | -11.3m/s | -57.5°C | 40.0% | 201.0hPa | 2.5V | 03:12:00 | 02:52:43 | 00:00:00 | |
| OE5MMP-10 | 2026-09-04 12:55:16 | 49.22096 | 13.14847 | 111° | 86km/h | 12376m | -11.3m/s | -58.1°C | 40.1% | 198.6hPa | 2.5V | 00:00:00 | 02:52:37 | 00:00:00 | |
| EDDB2-11 | 2026-09-04 12:55:15 | 49.22111 | 13.14785 | 109° | 84km/h | 12400m | -11.7m/s | -58.4°C | 32.1% | 197.9hPa | 2.5V | 00:00:00 | 00:00:00 | 00:00:00 | |
| OE5WHR-10 | 2026-09-04 12:55:14 | 49.22111 | 13.14785 | 110° | 86km/h | 12400m | -11.6m/s | -58.3°C | 40.0% | 197.9hPa | 2.5V | 03:12:00 | 00:00:00 | 00:00:00 | |
| OE5DRO-10 | 2026-09-04 12:55:12 | 49.22133 | 13.14692 | 111° | 86km/h | 12437m | -12.2m/s | -58.7°C | 39.9% | 196.7hPa | 2.5V | 00:00:00 | 00:00:00 | 00:00:00 | |
| OE5REO-15 | 2026-09-04 12:55:10 | 49.22133 | 13.14692 | 111° | 86km/h | 12437m | -12.2m/s | -58.7°C | 31.9% | 196.8hPa | 2.5V | 03:13:00 | 00:00:00 | 00:00:00 | |
| SONDE2-11 | 2026-09-04 12:55:09 | 49.22148 | 13.14631 | 111° | 84km/h | 12462m | -11.8m/s | -58.9°C | 31.8% | 196.0hPa | 2.5V | 00:00:00 | 00:00:00 | 00:00:00 | |
| OE5MMP-10 | 2026-09-04 12:55:06 | 49.22171 | 13.14538 | 112° | 86km/h | 12498m | -11.2m/s | -59.2°C | 39.7% | 194.9hPa | 2.5V | 00:00:00 | 02:52:27 | 00:00:00 | |
| EDDB2-12 | 2026-09-04 12:55:05 | 49.22179 | 13.14507 | 111° | 84km/h | 12510m | -11.2m/s | -59.4°C | 31.5% | 194.6hPa | 2.5V | 00:00:00 | 00:00:00 | 00:00:00 | |
| PG1ADW-2 | 2026-09-04 12:55:02 | 49.22202 | 13.14415 | 112° | 89km/h | 12546m | -11.6m/s | -59.5°C | 39.4% | 193.4hPa | 2.5V | 00:00:00 | 02:52:23 | 00:00:00 | |
| OE5MMP-10 | 2026-09-04 12:54:56 | 49.22248 | 13.14226 | 111° | 91km/h | 12619m | -12.1m/s | -59.9°C | 38.5% | 191.1hPa | 2.5V | 03:12:00 | 02:52:17 | 00:00:00 | |
| OE5REO-15 | 2026-09-04 12:54:55 | 49.22248 | 13.14226 | 112° | 89km/h | 12619m | -12.2m/s | -60.0°C | 30.3% | 191.1hPa | 2.5V | 03:13:00 | 00:00:00 | 00:00:00 | |
| OE5WHR-10 | 2026-09-04 12:54:53 | 49.22271 | 13.14129 | 110° | 93km/h | 12657m | -12.0m/s | -60.2°C | 38.3% | 190.0hPa | 2.5V | 00:00:00 | 00:00:00 | 00:00:00 | |
| OE5DRO-10 | 2026-09-04 12:54:52 | 49.22278 | 13.14096 | 111° | 93km/h | 12670m | -12.0m/s | -60.2°C | 38.3% | 189.6hPa | 2.5V | 00:00:00 | 00:00:00 | 00:00:00 | |
| OE5MMP-10 | 2026-09-04 12:54:46 | 49.22330 | 13.13898 | 113° | 95km/h | 12742m | -11.4m/s | -60.8°C | 38.2% | 187.4hPa | 2.5V | 00:00:00 | 02:52:07 | 00:00:00 | |
| OE5DXL-15 | 2026-09-04 12:54:44 | 49.22349 | 13.13831 | 113° | 95km/h | 12767m | -11.8m/s | -60.9°C | 38.2% | 186.6hPa | 2.5V | 00:00:00 | 00:00:00 | 00:00:00 | |
| EDDB2-11 | 2026-09-04 12:54:43 | 49.22358 | 13.13798 | 114° | 95km/h | 12779m | -12.2m/s | -61.1°C | 29.7% | 186.3hPa | 2.5V | 00:00:00 | 00:00:00 | 00:00:00 | |
| PG1ADW-2 | 2026-09-04 12:54:42 | 49.22368 | 13.13765 | 115° | 95km/h | 12792m | -11.6m/s | -61.1°C | 38.4% | 185.9hPa | 2.5V | 00:00:00 | 00:00:00 | 00:00:00 | |
| OE5REO-15 | 2026-09-04 12:54:39 | 49.22388 | 13.13698 | 116° | 95km/h | 12817m | -12.0m/s | -61.4°C | 29.6% | 185.2hPa | 2.5V | 03:13:00 | 00:00:00 | 00:00:00 | |
| SONDE2-11 | 2026-09-04 12:54:38 | 49.22420 | 13.13599 | 116° | 95km/h | 12854m | -12.3m/s | -61.7°C | 29.3% | 184.1hPa | 2.5V | 00:00:00 | 00:00:00 | 00:00:00 | |
| OE5MMP-10 | 2026-09-04 12:54:36 | 49.22430 | 13.13566 | 117° | 95km/h | 12867m | -12.0m/s | -61.7°C | 37.9% | 183.7hPa | 2.5V | 00:00:00 | 02:51:57 | 00:00:00 | |
| EDDB2-12 | 2026-09-04 12:54:35 | 49.22464 | 13.13468 | 119° | 93km/h | 12904m | -11.8m/s | -62.0°C | 28.7% | 182.7hPa | 2.5V | 00:00:00 | 00:00:00 | 00:00:00 | |
| OE5DRO-10 | 2026-09-04 12:54:33 | 49.22464 | 13.13468 | 120° | 93km/h | 12904m | -11.8m/s | -61.9°C | 37.3% | 182.6hPa | 2.5V | 03:13:00 | 00:00:00 | 00:00:00 | |
| OE5WHR-10 | 2026-09-04 12:54:32 | 49.22476 | 13.13435 | 120° | 93km/h | 12917m | -11.7m/s | -61.9°C | 36.9% | 182.2hPa | 2.5V | 00:00:00 | 02:51:53 | 00:00:00 | |
| OE5MMP-10 | 2026-09-04 12:54:26 | 49.22546 | 13.13247 | 120° | 93km/h | 12991m | -12.4m/s | -62.4°C | 36.0% | 180.0hPa | 2.5V | 00:00:00 | 02:51:47 | 00:00:00 | |
| OE5REO-15 | 2026-09-04 12:54:23 | 49.22569 | 13.13185 | 120° | 91km/h | 13017m | -12.5m/s | -62.6°C | 27.1% | 179.3hPa | 2.5V | 03:13:00 | 00:00:00 | 00:00:00 | |
| PG1ADW-2 | 2026-09-04 12:54:22 | 49.22591 | 13.13122 | 120° | 95km/h | 13043m | -12.5m/s | -62.7°C | 35.4% | 178.5hPa | 2.5V | 03:13:00 | 00:00:00 | 00:00:00 | |
| OE5MMP-10 | 2026-09-04 12:54:16 | 49.22659 | 13.12932 | 118° | 95km/h | 13120m | -12.1m/s | -63.1°C | 34.2% | 176.3hPa | 2.5V | 03:13:00 | 02:51:37 | 00:00:00 | |
| OE5DRO-10 | 2026-09-04 12:54:14 | 49.22681 | 13.12868 | 117° | 95km/h | 13145m | -12.5m/s | -62.8°C | 32.8% | 175.6hPa | 2.5V | 00:00:00 | 00:00:00 | 00:00:00 | |
| DL6DJ-15 | 2026-09-04 12:54:13 | 49.22703 | 13.12802 | 117° | 97km/h | 13171m | -12.0m/s | -62.9°C | 24.0% | 174.8hPa | 2.5V | 00:00:00 | 00:00:00 | 00:00:00 | |
| EDDB2-11 | 2026-09-04 12:54:12 | 49.22703 | 13.12802 | 117° | 97km/h | 13171m | -12.0m/s | -62.9°C | 24.0% | 174.8hPa | 2.5V | 00:00:00 | 00:00:00 | 00:00:00 | |
| OE5WHR-10 | 2026-09-04 12:54:11 | 49.22714 | 13.12769 | 118° | 93km/h | 13184m | -12.5m/s | -62.9°C | 31.8% | 174.4hPa | 2.5V | 00:00:00 | 00:00:00 | 00:00:00 | |
| SONDE2-11 | 2026-09-04 12:54:07 | 49.22768 | 13.12604 | 116° | 95km/h | 13248m | -12.9m/s | -63.4°C | 23.0% | 172.7hPa | 2.5V | 00:00:00 | 00:00:00 | 00:00:00 | |
| OE5MMP-10 | 2026-09-04 12:54:06 | 49.22768 | 13.12604 | 117° | 93km/h | 13248m | -12.9m/s | -63.3°C | 31.0% | 172.6hPa | 2.5V | 00:00:00 | 02:51:27 | 00:00:00 | |
| EDDB2-12 | 2026-09-04 12:54:03 | 49.22799 | 13.12506 | 114° | 93km/h | 13288m | -12.7m/s | -63.7°C | 22.7% | 171.6hPa | 2.5V | 00:00:00 | 00:00:00 | 00:00:00 | |
| PG1ADW-2 | 2026-09-04 12:54:02 | 49.22809 | 13.12473 | 116° | 91km/h | 13301m | -12.9m/s | -63.8°C | 30.7% | 171.2hPa | 2.5V | 00:00:00 | 00:00:00 | 00:00:00 | |
| DG1MFX-10 | 2026-09-04 12:53:57 | 49.22849 | 13.12344 | 117° | 91km/h | 13353m | -12.2m/s | -64.2°C | 22.0% | 169.8hPa | 2.5V | 03:14:00 | 00:00:00 | 00:00:00 | |
| OE5MMP-10 | 2026-09-04 12:53:56 | 49.22869 | 13.12280 | 115° | 91km/h | 13380m | -12.6m/s | -64.2°C | 29.2% | 168.9hPa | 2.5V | 00:00:00 | 02:51:17 | 00:00:00 | |
| OE5DRO-10 | 2026-09-04 12:53:55 | 49.22879 | 13.12248 | 116° | 91km/h | 13393m | -13.1m/s | -64.3°C | 29.0% | 168.6hPa | 2.5V | 00:00:00 | 00:00:00 | 00:00:00 | |
| OE5REO-15 | 2026-09-04 12:53:52 | 49.22908 | 13.12152 | 116° | 93km/h | 13433m | -12.2m/s | -64.6°C | 20.4% | 167.6hPa | 2.6V | 03:14:00 | 00:00:00 | 00:00:00 | |
| OE5WHR-10 | 2026-09-04 12:53:50 | 49.22928 | 13.12088 | 116° | 91km/h | 13459m | -12.9m/s | -64.8°C | 28.0% | 166.8hPa | 2.6V | 03:14:00 | 00:00:00 | 00:00:00 | |
| OE5MMP-10 | 2026-09-04 12:53:46 | 49.22966 | 13.11960 | 115° | 91km/h | 13512m | -13.3m/s | -65.3°C | 27.5% | 165.3hPa | 2.6V | 00:00:00 | 02:51:07 | 00:00:00 | |
| OE5DXL-15 | 2026-09-04 12:53:44 | 49.22984 | 13.11895 | 116° | 91km/h | 13539m | -12.8m/s | -65.5°C | 27.4% | 164.6hPa | 2.6V | 00:00:00 | 00:00:00 | 00:00:00 | |
| DL6DJ-15 | 2026-09-04 12:53:42 | 49.23013 | 13.11800 | 114° | 91km/h | 13579m | -13.0m/s | -65.8°C | 18.6% | 163.6hPa | 2.6V | 00:00:00 | 00:00:00 | 00:00:00 | |
| EDDB2-11 | 2026-09-04 12:53:41 | 49.23013 | 13.11800 | 114° | 91km/h | 13579m | -13.0m/s | -65.8°C | 18.6% | 163.6hPa | 2.6V | 00:00:00 | 00:00:00 | 00:00:00 | |
| OE5MMP-10 | 2026-09-04 12:53:36 | 49.23058 | 13.11641 | 114° | 91km/h | 13647m | -12.6m/s | -66.1°C | 25.2% | 161.7hPa | 2.6V | 03:14:00 | 02:50:57 | 00:00:00 | |
| OE5REO-15 | 2026-09-04 12:53:35 | 49.23059 | 13.11641 | 114° | 91km/h | 13647m | -12.7m/s | -66.1°C | 17.2% | 161.8hPa | 2.5V | 03:14:00 | 00:00:00 | 00:00:00 | |
| DO8TBO-1 | 2026-09-04 12:53:33 | 49.23086 | 13.11545 | 113° | 84km/h | 13686m | -12.9m/s | -66.2°C | 24.4% | 160.7hPa | 2.5V | 00:00:00 | 02:50:54 | 00:00:00 | |
| EDDB2-12 | 2026-09-04 12:53:32 | 49.23103 | 13.11481 | 111° | 88km/h | 13713m | -13.0m/s | -66.4°C | 16.0% | 160.0hPa | 2.5V | 00:00:00 | 00:00:00 | 00:00:00 | |
| OE5WHR-10 | 2026-09-04 12:53:29 | 49.23120 | 13.11415 | 111° | 91km/h | 13741m | -13.0m/s | -66.6°C | 23.5% | 159.2hPa | 2.5V | 00:00:00 | 02:50:50 | 00:00:00 | |
| OE5MMP-10 | 2026-09-04 12:53:26 | 49.23144 | 13.11316 | 111° | 91km/h | 13782m | -13.0m/s | -66.8°C | 23.0% | 158.2hPa | 2.5V | 00:00:00 | 02:50:47 | 00:00:00 | |
| PG1ADW-2 | 2026-09-04 12:53:22 | 49.23175 | 13.11184 | 108° | 89km/h | 13837m | -13.4m/s | -66.9°C | 22.5% | 156.7hPa | 2.5V | 00:00:00 | 00:00:00 | 00:00:00 | |
| PETON7-10 | 2026-09-04 12:53:21 | 49.23182 | 13.11151 | 109° | 89km/h | 13851m | -13.7m/s | -66.9°C | 22.2% | 156.3hPa | 2.5V | 00:00:00 | 00:00:00 | 00:00:00 | |
| OE5REO-15 | 2026-09-04 12:53:19 | 49.23189 | 13.11117 | 109° | 93km/h | 13864m | -12.9m/s | -67.0°C | 14.1% | 156.0hPa | 2.5V | 03:15:00 | 00:00:00 | 00:00:00 | |
| OE5DRO-10 | 2026-09-04 12:53:17 | 49.23210 | 13.11017 | 108° | 88km/h | 13906m | -13.3m/s | -67.2°C | 21.7% | 154.9hPa | 2.5V | 03:14:00 | 00:00:00 | 00:00:00 | |
| OE5MMP-10 | 2026-09-04 12:53:16 | 49.23217 | 13.10984 | 109° | 89km/h | 13920m | -14.1m/s | -67.2°C | 21.4% | 154.5hPa | 2.5V | 00:00:00 | 02:50:37 | 00:00:00 | |
| OE5DXL-15 | 2026-09-04 12:53:14 | 49.23232 | 13.10918 | 110° | 78km/h | 13948m | -14.0m/s | -67.3°C | 20.8% | 153.8hPa | 2.5V | 03:14:00 | 00:00:00 | 00:00:00 | |
| DO3MHA-11 | 2026-09-04 12:53:11 | 49.23255 | 13.10819 | 111° | 80km/h | 13990m | -13.7m/s | -67.3°C | 19.4% | 152.8hPa | 2.5V | 00:00:00 | 02:50:32 | 00:00:00 | |
| OE5WHR-10 | 2026-09-04 12:53:08 | 49.23282 | 13.10724 | 116° | 77km/h | 14033m | -13.8m/s | -66.7°C | 17.2% | 151.7hPa | 2.5V | 00:00:00 | 00:00:00 | 00:00:00 | |
| PETON7-10 | 2026-09-04 12:53:06 | 49.23301 | 13.10663 | 118° | 73km/h | 14061m | -13.4m/s | -66.3°C | 16.0% | 150.9hPa | 2.6V | 00:00:00 | 00:00:00 | 00:00:00 | |
| SONCRA | 2026-09-04 12:53:05 | 49.23323 | 13.10605 | 120° | 84km/h | 14089m | -13.6m/s | -65.5°C | 8.0% | 150.3hPa | 2.6V | 00:00:00 | 00:00:00 | 00:00:00 | |
| SONDE2-11 | 2026-09-04 12:53:04 | 49.23323 | 13.10605 | 120° | 84km/h | 14089m | -13.6m/s | -65.5°C | 8.0% | 150.3hPa | 2.6V | 00:00:00 | 00:00:00 | 00:00:00 | |
| OE5REO-15 | 2026-09-04 12:53:03 | 49.23323 | 13.10605 | 121° | 86km/h | 14089m | -13.6m/s | -65.5°C | 8.0% | 150.3hPa | 2.6V | 03:15:00 | 00:00:00 | 00:00:00 | |
| EDDB2-12 | 2026-09-04 12:53:01 | 49.23366 | 13.10495 | 120° | 78km/h | 14147m | -13.9m/s | -64.4°C | 6.5% | 148.9hPa | 2.6V | 00:00:00 | 00:00:00 | 00:00:00 | |
| OE5DRO-10 | 2026-09-04 12:52:58 | 49.23386 | 13.10443 | 123° | 71km/h | 14176m | -14.1m/s | -64.0°C | 11.3% | 148.1hPa | 2.6V | 00:00:00 | 00:00:00 | 00:00:00 | |
| OE5MMP-10 | 2026-09-04 12:52:56 | 49.23407 | 13.10393 | 121° | 69km/h | 14205m | -13.6m/s | -63.9°C | 11.0% | 147.4hPa | 2.6V | 03:14:00 | 02:50:17 | 00:00:00 | |
| DG1MFX-10 | 2026-09-04 12:52:55 | 49.23406 | 13.10393 | 122° | 75km/h | 14205m | -13.6m/s | 0°C | 0% | 0hPa | 2.6V | 00:00:00 | 00:00:00 | 00:00:00 | |
| SP3BTT-10 | 2026-09-04 12:52:49 | 49.23460 | 13.10225 | 109° | 75km/h | 14305m | -13.9m/s | -63.0°C | 9.8% | 145.0hPa | 2.6V | 00:00:00 | 00:00:00 | 00:00:00 | |
| OE5REO-15 | 2026-09-04 12:52:48 | 49.23460 | 13.10225 | 110° | 68km/h | 14305m | -14.0m/s | -63.0°C | 4.9% | 145.0hPa | 2.6V | 03:15:00 | 00:00:00 | 00:00:00 | |
| OE5WHR-10 | 2026-09-04 12:52:47 | 49.23471 | 13.10175 | 110° | 75km/h | 14334m | -14.0m/s | -63.1°C | 9.8% | 144.3hPa | 2.6V | 00:00:00 | 00:00:00 | 00:00:00 | |
| OE5MMP-10 | 2026-09-04 12:52:46 | 49.23477 | 13.10150 | 108° | 73km/h | 14348m | -13.9m/s | -63.1°C | 9.8% | 144.0hPa | 2.6V | 00:00:00 | 02:50:07 | 00:00:00 | |
| OE5DXL-15 | 2026-09-04 12:52:44 | 49.23486 | 13.10098 | 104° | 78km/h | 14378m | -14.1m/s | -63.0°C | 9.5% | 143.3hPa | 2.6V | 00:00:00 | 00:00:00 | 00:00:00 | |
| PG1ADW-2 | 2026-09-04 12:52:42 | 49.23495 | 13.10045 | 102° | 75km/h | 14408m | -14.5m/s | -63.0°C | 9.3% | 142.5hPa | 2.6V | 00:00:00 | 00:00:00 | 00:00:00 | |
| DO3MHA-11 | 2026-09-04 12:52:39 | 49.23508 | 13.09962 | 104° | 80km/h | 14452m | -14.5m/s | -63.0°C | 9.1% | 141.5hPa | 2.5V | 00:00:00 | 02:50:00 | 00:00:00 | |
| OE5MMP-10 | 2026-09-04 12:52:36 | 49.23521 | 13.09876 | 103° | 78km/h | 14497m | -15.0m/s | -62.7°C | 9.0% | 140.5hPa | 2.6V | 00:00:00 | 02:49:57 | 00:00:00 | |
| SONCRA | 2026-09-04 12:52:34 | 49.23534 | 13.09789 | 103° | 78km/h | 14541m | -14.9m/s | -61.9°C | 3.9% | 139.5hPa | 2.5V | 00:00:00 | 00:00:00 | 00:00:00 | |
| SONDE2-11 | 2026-09-04 12:52:33 | 49.23534 | 13.09789 | 103° | 78km/h | 14541m | -14.9m/s | -61.9°C | 3.9% | 139.5hPa | 2.5V | 00:00:00 | 00:00:00 | 00:00:00 | |
| OE5REO-15 | 2026-09-04 12:52:32 | 49.23534 | 13.09788 | 105° | 78km/h | 14542m | -14.9m/s | -61.8°C | 3.9% | 139.5hPa | 2.5V | 03:16:00 | 00:00:00 | 00:00:00 | |
| EDDB2-12 | 2026-09-04 12:52:30 | 49.23552 | 13.09671 | 103° | 77km/h | 14601m | -14.5m/s | -61.9°C | 4.0% | 138.1hPa | 2.5V | 00:00:00 | 00:00:00 | 00:00:00 | |
| OE5DRO-10 | 2026-09-04 12:52:20 | 49.23606 | 13.09396 | 109° | 78km/h | 14736m | -14.9m/s | -62.1°C | 8.4% | 135.0hPa | 2.5V | 00:00:00 | 00:00:00 | 00:00:00 | |
| OE5MMP-10 | 2026-09-04 12:52:16 | 49.23636 | 13.09273 | 112° | 80km/h | 14797m | -15.6m/s | -61.7°C | 7.9% | 133.6hPa | 2.5V | 03:15:00 | 02:49:37 | 00:00:00 | |
| OE5DXL-15 | 2026-09-04 12:52:14 | 49.23652 | 13.09212 | 114° | 77km/h | 14828m | -15.5m/s | -61.3°C | 7.7% | 132.9hPa | 2.5V | 00:00:00 | 00:00:00 | 00:00:00 | |
| DO3MHA-11 | 2026-09-04 12:52:12 | 49.23669 | 13.09153 | 114° | 77km/h | 14858m | -15.2m/s | -61.0°C | 7.4% | 132.3hPa | 2.5V | 00:00:00 | 02:49:33 | 00:00:00 | |
| EDDB2-11 | 2026-09-04 12:52:08 | 49.23700 | 13.09039 | 111° | 75km/h | 14919m | -14.9m/s | -60.8°C | 3.1% | 131.0hPa | 2.5V | 00:00:00 | 00:00:00 | 00:00:00 | |
| OE5MMP-10 | 2026-09-04 12:52:06 | 49.23714 | 13.08986 | 113° | 73km/h | 14949m | -15.3m/s | -60.8°C | 7.2% | 130.3hPa | 2.5V | 00:00:00 | 02:49:27 | 00:00:00 | |
| OE5WHR-10 | 2026-09-04 12:52:05 | 49.23721 | 13.08960 | 112° | 75km/h | 14964m | -15.3m/s | -60.7°C | 7.2% | 130.0hPa | 2.5V | 00:00:00 | 00:00:00 | 00:00:00 | |
| SONDE2-11 | 2026-09-04 12:52:03 | 49.23742 | 13.08881 | 110° | 69km/h | 15010m | -15.5m/s | -60.7°C | 3.0% | 129.1hPa | 2.5V | 00:00:00 | 00:00:00 | 00:00:00 | |
| EDDB2-12 | 2026-09-04 12:51:59 | 49.23767 | 13.08777 | 110° | 71km/h | 15072m | -15.8m/s | -60.6°C | 2.9% | 127.8hPa | 2.5V | 00:00:00 | 00:00:00 | 00:00:00 | |
| OE5MMP-10 | 2026-09-04 12:51:56 | 49.23780 | 13.08725 | 110° | 77km/h | 15104m | -15.8m/s | -60.7°C | 6.9% | 127.1hPa | 2.5V | 00:00:00 | 02:49:17 | 00:00:00 | |
| DO8TBO-1 | 2026-09-04 12:51:55 | 49.23786 | 13.08698 | 110° | 69km/h | 15120m | -15.7m/s | -60.8°C | 6.9% | 126.7hPa | 2.5V | 00:00:00 | 02:49:16 | 00:00:00 | |
| OE5REO-15 | 2026-09-04 12:51:46 | 49.23850 | 13.08450 | 115° | 78km/h | 15262m | -15.9m/s | -60.1°C | 2.5% | 123.9hPa | 2.6V | 03:16:00 | 00:00:00 | 00:00:00 | |
| OE5WHR-10 | 2026-09-04 12:51:44 | 49.23867 | 13.08395 | 116° | 68km/h | 15294m | -15.7m/s | -60.1°C | 6.4% | 123.3hPa | 2.6V | 00:00:00 | 00:00:00 | 00:00:00 | |
| DO3MHA-11 | 2026-09-04 12:51:41 | 49.23893 | 13.08315 | 118° | 69km/h | 15342m | -15.7m/s | -60.2°C | 6.5% | 122.3hPa | 2.6V | 00:00:00 | 02:49:02 | 00:00:00 | |
| EDDB2-11 | 2026-09-04 12:51:37 | 49.23929 | 13.08217 | 120° | 69km/h | 15405m | -15.9m/s | -60.2°C | 2.5% | 121.1hPa | 2.6V | 00:00:00 | 00:00:00 | 00:00:00 | |
| OE5MMP-10 | 2026-09-04 12:51:36 | 49.23938 | 13.08194 | 122° | 62km/h | 15421m | -15.8m/s | -60.0°C | 6.5% | 120.8hPa | 2.6V | 03:16:00 | 02:48:57 | 00:00:00 | |
| OE5DRO-10 | 2026-09-04 12:51:35 | 49.23955 | 13.08150 | 123° | 58km/h | 15453m | -15.7m/s | -59.9°C | 6.5% | 120.1hPa | 2.6V | 00:00:00 | 00:00:00 | 00:00:00 | |
| SP3BTT-10 | 2026-09-04 12:51:33 | 49.23964 | 13.08129 | 123° | 64km/h | 15469m | -15.9m/s | -59.9°C | 6.5% | 119.9hPa | 2.6V | 03:16:00 | 00:00:00 | 00:00:00 | |
| PETON7-10 | 2026-09-04 12:51:30 | 49.23989 | 13.08068 | 121° | 51km/h | 15517m | -16.0m/s | -59.9°C | 6.4% | 118.9hPa | 2.6V | 03:16:00 | 02:48:51 | 00:00:00 | |
| OE5REO-15 | 2026-09-04 12:51:29 | 49.23989 | 13.08068 | 122° | 60km/h | 15517m | -16.0m/s | -60.0°C | 2.4% | 119.0hPa | 2.6V | 03:16:00 | 00:00:00 | 00:00:00 | |
| EDDB2-12 | 2026-09-04 12:51:28 | 49.24010 | 13.08010 | 117° | 57km/h | 15565m | -16.1m/s | -60.0°C | 2.4% | 118.0hPa | 2.6V | 00:00:00 | 00:00:00 | 00:00:00 | |
| OE5MMP-10 | 2026-09-04 12:51:26 | 49.24016 | 13.07990 | 116° | 55km/h | 15581m | -16.1m/s | -60.0°C | 6.4% | 117.7hPa | 2.6V | 00:00:00 | 02:48:47 | 00:00:00 | |
| DO8TBO-1 | 2026-09-04 12:51:25 | 49.24022 | 13.07971 | 114° | 62km/h | 15597m | -16.2m/s | -60.0°C | 6.5% | 117.4hPa | 2.6V | 00:00:00 | 02:48:46 | 00:00:00 | |
| OE5WHR-10 | 2026-09-04 12:51:23 | 49.24032 | 13.07931 | 111° | 60km/h | 15629m | -16.1m/s | -60.0°C | 6.5% | 116.8hPa | 2.6V | 00:00:00 | 02:48:44 | 00:00:00 | |
| PG1ADW-2 | 2026-09-04 12:51:21 | 49.24042 | 13.07891 | 109° | 60km/h | 15661m | -16.2m/s | -60.2°C | 6.5% | 116.1hPa | 2.6V | 03:16:00 | 00:00:00 | 00:00:00 | |
| OE5MMP-10 | 2026-09-04 12:51:16 | 49.24058 | 13.07787 | 99° | 60km/h | 15742m | -16.1m/s | -59.6°C | 6.1% | 114.7hPa | 2.5V | 00:00:00 | 02:48:37 | 00:00:00 | |
| OE5DXL-15 | 2026-09-04 12:51:14 | 49.24062 | 13.07743 | 96° | 64km/h | 15774m | -15.9m/s | -59.5°C | 6.1% | 114.1hPa | 2.5V | 03:16:00 | 00:00:00 | 00:00:00 | |
| OE5REO-15 | 2026-09-04 12:51:13 | 49.24062 | 13.07743 | 97° | 58km/h | 15774m | -16.0m/s | -59.6°C | 2.2% | 114.1hPa | 2.5V | 03:16:00 | 00:00:00 | 00:00:00 | |
| DO3MHA-11 | 2026-09-04 12:51:10 | 49.24066 | 13.07651 | 93° | 57km/h | 15838m | -16.2m/s | -58.6°C | 5.5% | 112.9hPa | 2.5V | 00:00:00 | 02:48:31 | 00:00:00 | |
| DL3JIN-12 | 2026-09-04 12:51:07 | 49.24068 | 13.07603 | 94° | 64km/h | 15870m | -16.2m/s | -58.5°C | 2.0% | 112.4hPa | 2.5V | 00:00:00 | 00:00:00 | 00:00:00 | |
| OE5MMP-10 | 2026-09-04 12:51:06 | 49.24069 | 13.07554 | 95° | 68km/h | 15903m | -15.9m/s | -58.5°C | 5.5% | 111.8hPa | 2.5V | 00:00:00 | 02:48:27 | 00:00:00 | |
| DL1JEZ-13 | 2026-09-04 12:51:04 | 49.24071 | 13.07529 | 95° | 66km/h | 15919m | -16.4m/s | -58.6°C | 2.0% | 111.5hPa | 2.6V | 00:00:00 | 00:00:00 | 00:00:00 | |
| SONDE2-11 | 2026-09-04 12:51:00 | 49.24079 | 13.07399 | 98° | 68km/h | 16000m | -16.2m/s | -58.7°C | 2.0% | 110.1hPa | 2.6V | 00:00:00 | 00:00:00 | 00:00:00 | |
| EDDB2-12 | 2026-09-04 12:50:57 | 49.24094 | 13.07295 | 104° | 66km/h | 16066m | -16.6m/s | -58.5°C | 2.0% | 108.9hPa | 2.6V | 00:00:00 | 00:00:00 | 00:00:00 | |
| SP3BTT-10 | 2026-09-04 12:50:56 | 49.24094 | 13.07295 | 105° | 51km/h | 16066m | -16.6m/s | -58.4°C | 5.7% | 108.9hPa | 2.6V | 00:00:00 | 00:00:00 | 00:00:00 | |
| DO8TBO-1 | 2026-09-04 12:50:53 | 49.24108 | 13.07220 | 107° | 53km/h | 16116m | -16.6m/s | -58.0°C | 5.6% | 108.0hPa | 2.6V | 00:00:00 | 02:48:14 | 00:00:00 | |
| OE5MMP-10 | 2026-09-04 12:50:46 | 49.24140 | 13.07054 | 106° | 60km/h | 16234m | -16.7m/s | -57.9°C | 5.6% | 106.0hPa | 2.6V | 00:00:00 | 02:48:07 | 00:00:00 | |
| OE5DXL-15 | 2026-09-04 12:50:43 | 49.24150 | 13.06985 | 102° | 42km/h | 16284m | -16.7m/s | -57.3°C | 5.2% | 105.1hPa | 2.6V | 00:00:00 | 00:00:00 | 00:00:00 | |
| OE5REO-15 | 2026-09-04 12:50:42 | 49.24150 | 13.06985 | 102° | 62km/h | 16284m | -16.7m/s | -57.4°C | 1.7% | 105.2hPa | 2.6V | 03:17:00 | 00:00:00 | 00:00:00 | |
| OE5WHR-10 | 2026-09-04 12:50:41 | 49.24156 | 13.06939 | 101° | 44km/h | 16318m | -17.1m/s | -57.2°C | 5.2% | 104.6hPa | 2.6V | 00:00:00 | 00:00:00 | 00:00:00 | |
| OE5DRO-10 | 2026-09-04 12:50:38 | 49.24164 | 13.06872 | 99° | 40km/h | 16369m | -17.0m/s | -56.3°C | 4.8% | 103.8hPa | 2.6V | 03:17:00 | 00:00:00 | 00:00:00 | |
| OE5MMP-10 | 2026-09-04 12:50:36 | 49.24168 | 13.06829 | 99° | 46km/h | 16404m | -17.3m/s | -56.3°C | 4.7% | 103.2hPa | 2.6V | 00:00:00 | 02:47:57 | 00:00:00 | |
| DL6DJ-15 | 2026-09-04 12:50:35 | 49.24170 | 13.06809 | 98° | 51km/h | 16421m | -17.3m/s | -56.4°C | 1.5% | 103.0hPa | 2.5V | 00:00:00 | 00:00:00 | 00:00:00 | |
| SONDE2-11 | 2026-09-04 12:50:30 | 49.24182 | 13.06703 | 101° | 38km/h | 16525m | -17.2m/s | -56.2°C | 1.5% | 101.3hPa | 2.5V | 00:00:00 | 00:00:00 | 00:00:00 | |
| OE5REO-15 | 2026-09-04 12:50:27 | 49.24184 | 13.06689 | 103° | 37km/h | 16542m | -17.5m/s | -56.1°C | 1.5% | 101.0hPa | 2.5V | 03:17:00 | 00:00:00 | 00:00:00 | |
| OE5MMP-10 | 2026-09-04 12:50:26 | 49.24188 | 13.06663 | 104° | 27km/h | 16577m | -17.4m/s | -56.0°C | 4.5% | 100.1hPa | 2.5V | 00:00:00 | 02:47:47 | 00:00:00 | |
| EDDB2-12 | 2026-09-04 12:50:25 | 49.24190 | 13.06651 | 102° | 29km/h | 16595m | -17.5m/s | -56.1°C | 1.5% | 100.2hPa | 2.5V | 00:00:00 | 00:00:00 | 00:00:00 | |
| PETON7-10 | 2026-09-04 12:50:23 | 49.24193 | 13.06629 | 103° | 29km/h | 16630m | -17.5m/s | -56.2°C | 4.6% | 99.6hPa | 2.5V | 00:00:00 | 00:00:00 | 00:00:00 | |
| OE5WHR-10 | 2026-09-04 12:50:20 | 49.24198 | 13.06599 | 105° | 31km/h | 16682m | -17.2m/s | -56.6°C | 4.5% | 98.8hPa | 2.6V | 00:00:00 | 02:47:41 | 00:00:00 | |
| OE5DRO-10 | 2026-09-04 12:50:19 | 49.24199 | 13.06590 | 106° | 31km/h | 16699m | -17.1m/s | -56.7°C | 4.5% | 98.5hPa | 2.6V | 00:00:00 | 00:00:00 | 00:00:00 | |
| PG1ADW-2 | 2026-09-04 12:50:18 | 49.24201 | 13.06580 | 103° | 33km/h | 16716m | -17.3m/s | -56.9°C | 4.6% | 98.2hPa | 2.6V | 00:00:00 | 00:00:00 | 00:00:00 | |
| OE5MMP-10 | 2026-09-04 12:50:16 | 49.24203 | 13.06559 | 101° | 31km/h | 16751m | -17.0m/s | -57.2°C | 4.7% | 97.7hPa | 2.6V | 03:17:00 | 02:47:37 | 00:00:00 | |
| OE5REO-15 | 2026-09-04 12:50:11 | 49.24209 | 13.06516 | 105° | 31km/h | 16820m | -17.5m/s | -57.2°C | 1.5% | 96.7hPa | 2.6V | 03:17:00 | 00:00:00 | 00:00:00 | |
| PETON7-10 | 2026-09-04 12:50:08 | 49.24218 | 13.06468 | 109° | 38km/h | 16890m | -17.3m/s | -57.6°C | 4.9% | 95.6hPa | 2.6V | 00:00:00 | 00:00:00 | 00:00:00 | |
| OE5MMP-10 | 2026-09-04 12:50:06 | 49.24224 | 13.06443 | 109° | 37km/h | 16925m | -17.7m/s | -57.8°C | 4.9% | 95.0hPa | 2.6V | 00:00:00 | 02:47:27 | 00:00:00 | |
| EDDB2-11 | 2026-09-04 12:50:04 | 49.24230 | 13.06417 | 108° | 35km/h | 16960m | -17.8m/s | -58.0°C | 1.6% | 94.5hPa | 2.6V | 00:00:00 | 00:00:00 | 00:00:00 | |
| SONDE2-11 | 2026-09-04 12:49:58 | 49.24247 | 13.06337 | 103° | 38km/h | 17066m | -17.8m/s | -58.8°C | 1.6% | 93.0hPa | 2.6V | 00:00:00 | 00:00:00 | 00:00:00 | |
| EDDB2-12 | 2026-09-04 12:49:54 | 49.24255 | 13.06273 | 99° | 46km/h | 17136m | -17.6m/s | -59.0°C | 1.7% | 91.9hPa | 2.6V | 00:00:00 | 00:00:00 | 00:00:00 | |
| PETON7-10 | 2026-09-04 12:49:53 | 49.24257 | 13.06255 | 99° | 49km/h | 17154m | -17.9m/s | -58.8°C | 5.2% | 91.6hPa | 2.6V | 00:00:00 | 02:47:14 | 00:00:00 | |
| OE5MMP-10 | 2026-09-04 12:49:46 | 49.24276 | 13.06121 | 106° | 47km/h | 17279m | -18.4m/s | -59.0°C | 5.1% | 89.8hPa | 2.6V | 00:00:00 | 02:47:07 | 00:00:00 | |
| OE5DXL-15 | 2026-09-04 12:49:44 | 49.24284 | 13.06084 | 110° | 38km/h | 17315m | -17.9m/s | -58.8°C | 5.1% | 89.3hPa | 2.6V | 00:00:00 | 00:00:00 | 00:00:00 | |
| DO3MHA-11 | 2026-09-04 12:49:43 | 49.24288 | 13.06066 | 110° | 33km/h | 17333m | -18.1m/s | -58.7°C | 5.1% | 89.0hPa | 2.6V | 03:18:00 | 02:47:04 | 00:00:00 | |
| OE5DRO-10 | 2026-09-04 12:49:41 | 49.24297 | 13.06031 | 113° | 35km/h | 17370m | -18.3m/s | -58.5°C | 5.1% | 88.5hPa | 2.6V | 00:00:00 | 00:00:00 | 00:00:00 | |
| OE5REO-15 | 2026-09-04 12:49:39 | 49.24301 | 13.06014 | 114° | 46km/h | 17388m | -18.4m/s | -58.5°C | 1.5% | 88.3hPa | 2.6V | 00:00:00 | 00:00:00 | 00:00:00 | |
| PETON7-10 | 2026-09-04 12:49:38 | 49.24310 | 13.05984 | 116° | 35km/h | 17424m | -18.2m/s | -58.5°C | 5.2% | 87.8hPa | 2.6V | 03:18:00 | 00:00:00 | 00:00:00 | |
| OE5MMP-10 | 2026-09-04 12:49:36 | 49.24319 | 13.05955 | 116° | 33km/h | 17461m | -18.2m/s | -58.6°C | 5.3% | 87.2hPa | 2.6V | 03:18:00 | 02:46:57 | 00:00:00 | |
| DL6DJ-15 | 2026-09-04 12:49:33 | 49.24334 | 13.05905 | 111° | 31km/h | 17534m | -18.6m/s | -58.9°C | 1.6% | 86.2hPa | 2.6V | 00:00:00 | 00:00:00 | 00:00:00 | |
| SONDE2-11 | 2026-09-04 12:49:27 | 49.24344 | 13.05850 | 98° | 27km/h | 17628m | -18.7m/s | -58.8°C | 1.5% | 85.0hPa | 2.6V | 00:00:00 | 00:00:00 | 00:00:00 | |
| OE5MMP-10 | 2026-09-04 12:49:26 | 49.24345 | 13.05839 | 97° | 35km/h | 17647m | -19.0m/s | -58.7°C | 5.1% | 84.7hPa | 2.6V | 00:00:00 | 02:46:47 | 00:00:00 | |
| PETON7-10 | 2026-09-04 12:49:23 | 49.24347 | 13.05803 | 96° | 40km/h | 17704m | -19.0m/s | -58.1°C | 5.0% | 83.9hPa | 2.6V | 00:00:00 | 00:00:00 | 00:00:00 | |
| DO3MHA-11 | 2026-09-04 12:49:22 | 49.24348 | 13.05790 | 98° | 38km/h | 17723m | -19.1m/s | -58.0°C | 5.0% | 83.7hPa | 2.6V | 00:00:00 | 02:46:43 | 00:00:00 | |
| PG1ADW-2 | 2026-09-04 12:49:18 | 49.24357 | 13.05734 | 110° | 44km/h | 17799m | -19.5m/s | -58.0°C | 5.2% | 82.7hPa | 2.6V | 00:00:00 | 02:46:39 | 00:00:00 | |
| OE5WHR-10 | 2026-09-04 12:49:17 | 49.24360 | 13.05720 | 111° | 46km/h | 17819m | -19.7m/s | -58.2°C | 5.3% | 82.4hPa | 2.6V | 00:00:00 | 02:46:38 | 00:00:00 | |
| OE5MMP-10 | 2026-09-04 12:49:16 | 49.24364 | 13.05706 | 113° | 42km/h | 17839m | -19.2m/s | -58.2°C | 5.4% | 82.1hPa | 2.6V | 00:00:00 | 02:46:37 | 00:00:00 | |
| OE5DXL-15 | 2026-09-04 12:49:14 | 49.24376 | 13.05663 | 115° | 40km/h | 17897m | -19.6m/s | -58.3°C | 5.6% | 81.4hPa | 2.6V | 03:18:00 | 00:00:00 | 00:00:00 | |
| DO3MHA-11 | 2026-09-04 12:49:12 | 49.24381 | 13.05647 | 113° | 46km/h | 17917m | -19.5m/s | -58.3°C | 5.7% | 81.1hPa | 2.6V | 00:00:00 | 02:46:33 | 00:00:00 | |
| DF8AY | 2026-09-04 12:48:54 | 49.24466 | 13.05348 | 122° | 46km/h | 18276m | -20.5m/s | -55.2°C | 0.6% | 76.7hPa | 2.6V | 03:19:31 | 02:46:15 | 00:00:00 | |
| PETON7-10 | 2026-09-04 12:48:53 | 49.24471 | 13.05333 | 123° | 26km/h | 18296m | -20.3m/s | -54.9°C | 4.3% | 76.4hPa | 2.6V | 00:00:00 | 00:00:00 | 00:00:00 | |
| DO3MHA-11 | 2026-09-04 12:48:52 | 49.24477 | 13.05319 | 121° | 26km/h | 18316m | -20.3m/s | -54.8°C | 4.2% | 76.1hPa | 2.6V | 03:19:00 | 02:46:13 | 00:00:00 | |
| BAUMI2-15 | 2026-09-04 12:48:51 | 49.24482 | 13.05306 | 120° | 33km/h | 18337m | -20.4m/s | -54.7°C | 4.2% | 75.9hPa | 2.6V | 00:00:00 | 02:46:12 | 00:00:00 | |
| SP3BTT-10 | 2026-09-04 12:48:49 | 49.24491 | 13.05282 | 118° | 20km/h | 18378m | -20.4m/s | -54.3°C | 4.1% | 75.4hPa | 2.6V | 00:00:00 | 00:00:00 | 00:00:00 | |
| OE5MMP-10 | 2026-09-04 12:48:46 | 49.24501 | 13.05251 | 116° | 16km/h | 18439m | -20.0m/s | -53.8°C | 3.9% | 74.7hPa | 2.6V | 00:00:00 | 02:46:07 | 00:00:00 | |
| DF8AY | 2026-09-04 12:48:28 | 49.24515 | 13.05162 | 71° | 15km/h | 18815m | -21m/s | -54.7°C | 0.4% | 70.5hPa | 2.6V | 03:19:31 | 02:45:49 | 00:00:00 | |
| DF8AY | 2026-09-04 12:48:17 | 49.24493 | 13.05067 | 72° | 31km/h | 19046m | -21.5m/s | -55.8°C | 0.6% | 68hPa | 2.6V | 03:20:22 | 02:45:38 | 00:00:00 | |
| DF8AY | 2026-09-04 12:48:07 | 49.24486 | 13.04957 | 95° | 24km/h | 19257m | -20.8m/s | -55.6°C | 0.7% | 65.8hPa | 2.6V | 03:20:22 | 02:45:28 | 00:00:00 | |
| DF8AY | 2026-09-04 12:47:56 | 49.24475 | 13.04899 | 30° | 13km/h | 19488m | -21.6m/s | -55.1°C | 0.6% | 63.4hPa | 2.6V | 03:20:22 | 02:45:17 | 00:00:00 | |
| DF8AY | 2026-09-04 12:47:46 | 49.24439 | 13.04858 | 57° | 26km/h | 19703m | -21.4m/s | -54.6°C | 0.5% | 61.3hPa | 2.6V | 03:20:22 | 02:45:07 | 00:00:00 | |
| DF8AY | 2026-09-04 12:47:35 | 49.24426 | 13.04729 | 100° | 35km/h | 19942m | -22.3m/s | -55°C | 0.6% | 59.1hPa | 2.6V | 03:20:22 | 02:44:56 | 00:00:00 | |
| DF8AY | 2026-09-04 12:47:25 | 49.24446 | 13.04644 | 109° | 13km/h | 20166m | -23.2m/s | -55.3°C | 0.5% | 57hPa | 2.7V | 03:21:13 | 02:44:46 | 00:00:00 | |
| DF8AY | 2026-09-04 12:47:14 | 49.24450 | 13.04589 | 108° | 13km/h | 20416m | -23.3m/s | -54.8°C | 0.5% | 0hPa | 2.6V | 03:21:13 | 02:44:35 | 00:00:00 | |
| DF8AY | 2026-09-04 12:47:05 | 49.24466 | 13.04541 | 119° | 16km/h | 20647m | -23.8m/s | -55.3°C | 0.6% | 0hPa | 2.6V | 03:21:13 | 02:44:25 | 00:00:00 | |
| DF8AY | 2026-09-04 12:46:54 | 49.24494 | 13.04493 | 151° | 9km/h | 20878m | -23.8m/s | -54.2°C | 0.4% | 0hPa | 2.6V | 03:21:13 | 02:44:15 | 00:00:00 | |
| SONCRA | 2026-09-04 12:46:52 | 49.24497 | 13.04491 | 168° | 4km/h | 20925m | -24.2m/s | -53.8°C | 1.0% | 50.5hPa | 2.6V | 00:00:00 | 00:00:00 | 00:00:00 | |
| DF8AY | 2026-09-04 12:46:44 | 49.24484 | 13.04476 | 42° | 9km/h | 21142m | -24.3m/s | 0°C | 0% | 0hPa | 2.6V | 03:21:13 | 02:44:04 | 00:00:00 | |
| DF8AY | 2026-09-04 12:46:32 | 49.24483 | 13.04410 | 114° | 16km/h | 21409m | -26.1m/s | 0°C | 0% | 0hPa | 2.6V | 03:22:04 | 02:43:53 | 00:00:00 | |
| OE5DRO-10 | 2026-09-04 12:46:30 | 49.24487 | 13.04401 | 139° | 9km/h | 21460m | -25.9m/s | -53.7°C | 3.9% | 46.4hPa | 2.7V | 00:00:00 | 00:00:00 | 00:00:00 | |
| OE5WHR-10 | 2026-09-04 12:46:29 | 49.24490 | 13.04397 | 142° | 9km/h | 21485m | -25.1m/s | -53.7°C | 3.9% | 46.2hPa | 2.6V | 00:00:00 | 00:00:00 | 00:00:00 | |
| EDDB2-11 | 2026-09-04 12:46:27 | 49.24498 | 13.04390 | 156° | 7km/h | 21559m | -25.7m/s | -53.9°C | 1.0% | 45.7hPa | 2.6V | 00:00:00 | 00:00:00 | 00:00:00 | |
| OE5MMP-10 | 2026-09-04 12:46:26 | 49.24498 | 13.04390 | 157° | 5km/h | 21559m | -25.7m/s | -53.8°C | 3.9% | 45.7hPa | 2.6V | 00:00:00 | 02:43:47 | 00:00:00 | |
| DO3MHA-11 | 2026-09-04 12:46:25 | 49.24501 | 13.04388 | 154° | 5km/h | 21584m | -25.0m/s | -53.8°C | 3.9% | 45.5hPa | 2.6V | 03:21:00 | 02:43:46 | 00:00:00 | |
| PETON7-10 | 2026-09-04 12:46:23 | 49.24504 | 13.04386 | 166° | 7km/h | 21634m | -25.8m/s | -53.8°C | 4.0% | 45.1hPa | 2.6V | 00:00:00 | 00:00:00 | 00:00:00 | |
| SONCRA | 2026-09-04 12:46:21 | 49.24504 | 13.04385 | 27° | 0km/h | 21684m | -25.1m/s | -53.8°C | 1.0% | 44.9hPa | 2.6V | 00:00:00 | 00:00:00 | 00:00:00 | |
| PG1ADW-2 | 2026-09-04 12:46:18 | 49.24503 | 13.04383 | 99° | 7km/h | 21759m | -25.9m/s | -53.5°C | 4.0% | 44.3hPa | 2.6V | 00:00:00 | 00:00:00 | 00:00:00 | |
| DF8AY | 2026-09-04 12:46:00 | 49.24509 | 13.04355 | 293° | 7km/h | 22221m | -27.1m/s | 0°C | 0% | 0hPa | 2.7V | 03:22:04 | 02:43:21 | 00:00:00 | |
| DF8AY | 2026-09-04 12:45:54 | 49.24491 | 13.04363 | 58° | 7km/h | 22515m | -27m/s | 0°C | 0% | 0hPa | 2.6V | 18:12:15 | 02:43:10 | 00:00:00 | |
| SONCRA | 2026-09-04 12:45:50 | 49.24491 | 13.04363 | 58° | 7km/h | 22515m | -27.0m/s | -53.6°C | 0.9% | 39.4hPa | 2.6V | 00:00:00 | 00:00:00 | 00:00:00 | |
| EDDB2-12 | 2026-09-04 12:45:46 | 49.24488 | 13.04355 | 76° | 7km/h | 22596m | -27.2m/s | -53.6°C | 0.9% | 39.0hPa | 2.6V | 00:00:00 | 00:00:00 | 00:00:00 | |
| DO3MHA-11 | 2026-09-04 12:45:45 | 49.24488 | 13.04352 | 74° | 11km/h | 22623m | -27.1m/s | -53.7°C | 4.0% | 38.7hPa | 2.6V | 03:22:00 | 02:43:06 | 00:00:00 | |
| BAUMI2-15 | 2026-09-04 12:45:42 | 49.24486 | 13.04343 | 56° | 11km/h | 22703m | -26.9m/s | -53.5°C | 3.9% | 38.2hPa | 2.6V | 00:00:00 | 02:43:03 | 00:00:00 | |
| DL3JIN-12 | 2026-09-04 12:45:39 | 49.24482 | 13.04339 | 15° | 11km/h | 22756m | -26.9m/s | -53.5°C | 1.0% | 38.0hPa | 2.6V | 03:22:00 | 00:00:00 | 00:00:00 | |
| PETON7-10 | 2026-09-04 12:45:38 | 49.24476 | 13.04339 | 359° | 20km/h | 22808m | -26.9m/s | -53.5°C | 3.9% | 37.6hPa | 2.6V | 03:22:00 | 00:00:00 | 00:00:00 | |
| BAUMI2-15 | 2026-09-04 12:45:37 | 49.24472 | 13.04339 | 357° | 18km/h | 22835m | -27.6m/s | -53.5°C | 3.9% | 37.5hPa | 2.6V | 03:22:00 | 02:42:58 | 00:00:00 | |
| OE5MMP-10 | 2026-09-04 12:45:36 | 49.24468 | 13.04340 | 358° | 20km/h | 22862m | -27.1m/s | -53.5°C | 3.9% | 37.3hPa | 2.6V | 03:22:00 | 02:42:57 | 00:00:00 | |
| DO3MHA-11 | 2026-09-04 12:45:35 | 49.24464 | 13.04340 | 359° | 20km/h | 22888m | -27.7m/s | -53.5°C | 4.0% | 37.1hPa | 2.6V | 00:00:00 | 02:42:56 | 00:00:00 | |
| OE5REO-15 | 2026-09-04 12:45:34 | 49.24464 | 13.04340 | 359° | 20km/h | 22888m | -27.7m/s | -53.6°C | 0.9% | 37.2hPa | 2.7V | 03:22:00 | 00:00:00 | 00:00:00 | |
| OE5DRO-10 | 2026-09-04 12:45:33 | 49.24454 | 13.04340 | 2° | 15km/h | 22942m | -27.5m/s | -53.8°C | 4.0% | 36.8hPa | 2.7V | 00:00:00 | 00:00:00 | 00:00:00 | |
| BAUMI2-15 | 2026-09-04 12:45:32 | 49.24449 | 13.04340 | 8° | 20km/h | 22969m | -27.3m/s | -53.9°C | 4.1% | 36.7hPa | 2.7V | 00:00:00 | 02:42:53 | 00:00:00 | |
| BAUMI2-15 | 2026-09-04 12:45:27 | 49.24427 | 13.04327 | 55° | 22km/h | 23105m | -27.7m/s | -53.8°C | 4.1% | 35.9hPa | 2.7V | 00:00:00 | 02:42:48 | 00:00:00 | |
| OE5MMP-10 | 2026-09-04 12:45:26 | 49.24424 | 13.04320 | 70° | 20km/h | 23132m | -28.1m/s | -53.8°C | 4.2% | 35.7hPa | 2.7V | 00:00:00 | 02:42:47 | 00:00:00 | |
| EDDB2-11 | 2026-09-04 12:45:25 | 49.24422 | 13.04303 | 79° | 22km/h | 23186m | -28.0m/s | -53.6°C | 0.9% | 35.5hPa | 2.7V | 00:00:00 | 00:00:00 | 00:00:00 | |
| DL6DJ-15 | 2026-09-04 12:45:24 | 49.24422 | 13.04303 | 79° | 22km/h | 23186m | -28.0m/s | -53.6°C | 0.9% | 35.5hPa | 2.7V | 00:00:00 | 00:00:00 | 00:00:00 | |
| PETON7-10 | 2026-09-04 12:45:23 | 49.24421 | 13.04295 | 84° | 18km/h | 23214m | -28.3m/s | -53.4°C | 4.0% | 35.3hPa | 2.7V | 00:00:00 | 02:42:44 | 00:00:00 | |
| BAUMI2-15 | 2026-09-04 12:45:22 | 49.24420 | 13.04286 | 87° | 20km/h | 23242m | -28.8m/s | -53.4°C | 4.0% | 35.1hPa | 2.7V | 00:00:00 | 02:42:43 | 00:00:00 | |
| SONCRA | 2026-09-04 12:45:19 | 49.24421 | 13.04254 | 99° | 16km/h | 23357m | -28.7m/s | -53.2°C | 0.9% | 34.6hPa | 2.7V | 00:00:00 | 00:00:00 | 00:00:00 | |
| PG1ADW-2 | 2026-09-04 12:45:18 | 49.24421 | 13.04254 | 100° | 15km/h | 23357m | -28.7m/s | -53.1°C | 4.0% | 34.5hPa | 2.7V | 00:00:00 | 02:42:39 | 00:00:00 | |
| BAUMI2-15 | 2026-09-04 12:45:17 | 49.24421 | 13.04248 | 98° | 16km/h | 23385m | -28.2m/s | -53.1°C | 4.0% | 34.3hPa | 2.7V | 03:22:00 | 02:42:38 | 00:00:00 | |
| OE5MMP-10 | 2026-09-04 12:45:16 | 49.24422 | 13.04242 | 100° | 16km/h | 23412m | -28.3m/s | -53.1°C | 4.1% | 34.2hPa | 2.7V | 00:00:00 | 02:42:37 | 00:00:00 | |
| DO3MHA-11 | 2026-09-04 12:45:15 | 49.24422 | 13.04236 | 94° | 15km/h | 23440m | -28.7m/s | -53.0°C | 4.0% | 34.1hPa | 2.7V | 00:00:00 | 02:42:36 | 00:00:00 | |
| BAUMI2-15 | 2026-09-04 12:45:12 | 49.24421 | 13.04217 | 75° | 16km/h | 23525m | -30.0m/s | -52.5°C | 3.9% | 33.6hPa | 2.7V | 00:00:00 | 02:42:33 | 00:00:00 | |
| PETON7-10 | 2026-09-04 12:45:08 | 49.24414 | 13.04194 | 59° | 13km/h | 23641m | -29.8m/s | -52.0°C | 3.8% | 33.0hPa | 2.7V | 00:00:00 | 00:00:00 | 00:00:00 | |
| BAUMI2-15 | 2026-09-04 12:45:07 | 49.24412 | 13.04190 | 47° | 11km/h | 23670m | -29.0m/s | -52.0°C | 3.8% | 32.8hPa | 2.6V | 00:00:00 | 02:42:28 | 00:00:00 | |
| OE5MMP-10 | 2026-09-04 12:45:06 | 49.24411 | 13.04187 | 50° | 13km/h | 23698m | -28.9m/s | -52.0°C | 3.8% | 32.7hPa | 2.6V | 00:00:00 | 02:42:27 | 00:00:00 | |
| OE5WHR-10 | 2026-09-04 12:45:05 | 49.24409 | 13.04184 | 64° | 15km/h | 23726m | -28.6m/s | -52.0°C | 3.8% | 32.6hPa | 2.6V | 00:00:00 | 02:42:26 | 00:00:00 | |
| DO3MHA-11 | 2026-09-04 12:45:04 | 49.24408 | 13.04180 | 71° | 15km/h | 23754m | -29.3m/s | -52.0°C | 3.8% | 32.4hPa | 2.6V | 03:22:00 | 02:42:25 | 00:00:00 | |
| OE5REO-15 | 2026-09-04 12:45:03 | 49.24408 | 13.04180 | 71° | 9km/h | 23754m | -29.4m/s | -52.1°C | 0.8% | 32.5hPa | 2.6V | 03:22:00 | 00:00:00 | 00:00:00 | |
| DL6DJ-15 | 2026-09-04 12:44:53 | 49.24412 | 13.04127 | 107° | 15km/h | 24080m | -31.1m/s | -51.5°C | 0.8% | 30.9hPa | 2.6V | 00:00:00 | 00:00:00 | 00:00:00 | |
| SONCRA | 2026-09-04 12:44:48 | 49.24429 | 13.04090 | 133° | 18km/h | 24262m | -31.4m/s | -50.6°C | 0.8% | 30.0hPa | 2.6V | 00:00:00 | 00:00:00 | 00:00:00 | |
| OE5MMP-10 | 2026-09-04 12:44:46 | 49.24432 | 13.04085 | 142° | 16km/h | 24293m | -31.5m/s | -50.4°C | 3.5% | 29.8hPa | 2.6V | 00:00:00 | 02:42:07 | 00:00:00 | |
| OE5WHR-10 | 2026-09-04 12:44:44 | 49.24440 | 13.04078 | 162° | 11km/h | 24356m | -31.9m/s | -50.2°C | 3.5% | 29.5hPa | 2.6V | 00:00:00 | 00:00:00 | 00:00:00 | |
| BAUMI2-15 | 2026-09-04 12:44:41 | 49.24453 | 13.04076 | 188° | 15km/h | 24450m | -31.8m/s | -50.1°C | 3.5% | 29.1hPa | 2.7V | 00:00:00 | 02:42:02 | 00:00:00 | |
| PETON7-10 | 2026-09-04 12:44:38 | 49.24464 | 13.04081 | 203° | 7km/h | 24543m | -31.2m/s | -49.6°C | 3.3% | 28.7hPa | 2.7V | 03:23:00 | 02:41:59 | 00:00:00 | |
| OE5MMP-10 | 2026-09-04 12:44:36 | 49.24471 | 13.04084 | 205° | 5km/h | 24605m | -31.2m/s | -49.6°C | 3.4% | 28.4hPa | 2.7V | 00:00:00 | 02:41:57 | 00:00:00 | |
| OE5REO-15 | 2026-09-04 12:44:32 | 49.24472 | 13.04086 | 359° | 5km/h | 24697m | -31.6m/s | -49.4°C | 0.7% | 28.1hPa | 2.6V | 03:23:00 | 00:00:00 | 00:00:00 | |
| BAUMI2-15 | 2026-09-04 12:44:31 | 49.24470 | 13.04084 | 29° | 7km/h | 24759m | -32.4m/s | -48.9°C | 3.2% | 27.7hPa | 2.6V | 00:00:00 | 02:41:52 | 00:00:00 | |
| OE5DRO-10 | 2026-09-04 12:44:30 | 49.24469 | 13.04084 | 19° | 7km/h | 24790m | -31.9m/s | -48.8°C | 3.2% | 27.6hPa | 2.7V | 03:23:00 | 00:00:00 | 00:00:00 | |
| OE5MMP-10 | 2026-09-04 12:44:26 | 49.24465 | 13.04077 | 94° | 9km/h | 24921m | -33.0m/s | -48.4°C | 3.0% | 27.1hPa | 2.7V | 00:00:00 | 02:41:47 | 00:00:00 | |
| EDDB2-11 | 2026-09-04 12:44:23 | 49.24469 | 13.04063 | 116° | 13km/h | 25053m | -33.9m/s | -48.0°C | 0.6% | 26.6hPa | 2.7V | 00:00:00 | 00:00:00 | 00:00:00 | |
| DL6DJ-15 | 2026-09-04 12:44:22 | 49.24469 | 13.04063 | 116° | 13km/h | 25053m | -33.9m/s | -48.0°C | 0.6% | 26.6hPa | 2.7V | 00:00:00 | 00:00:00 | 00:00:00 | |
| BAUMI2-15 | 2026-09-04 12:44:21 | 49.24470 | 13.04059 | 114° | 7km/h | 25087m | -33.5m/s | -47.9°C | 2.9% | 26.4hPa | 2.7V | 00:00:00 | 02:41:42 | 00:00:00 | |
| OK1ALN | 2026-09-04 12:44:19 | 49.24471 | 13.04055 | 116° | 9km/h | 25120m | -33.7m/s | -48.0°C | 0.6% | 26.3hPa | 2.7V | 00:00:00 | 00:00:00 | 00:00:00 | |
| OE5REO-15 | 2026-09-04 12:44:18 | 49.24472 | 13.04050 | 119° | 5km/h | 25186m | -33.4m/s | -47.9°C | 0.6% | 26.1hPa | 2.7V | 03:23:00 | 00:00:00 | 00:00:00 | |
| SONDE2-11 | 2026-09-04 12:44:17 | 49.24474 | 13.04049 | 168° | 4km/h | 25251m | -33.5m/s | -48.1°C | 0.6% | 25.8hPa | 2.7V | 00:00:00 | 00:00:00 | 00:00:00 | |
| DL3JIN-12 | 2026-09-04 12:44:16 | 49.24474 | 13.04049 | 169° | 5km/h | 25251m | -33.5m/s | -48.1°C | 0.6% | 25.8hPa | 2.7V | 03:23:00 | 00:00:00 | 00:00:00 | |
| EDDB2-12 | 2026-09-04 12:44:13 | 49.24478 | 13.04053 | 235° | 7km/h | 25384m | -34.1m/s | -48.2°C | 0.6% | 25.3hPa | 2.7V | 00:00:00 | 00:00:00 | 00:00:00 | |
| DF2AP-13 | 2026-09-04 12:44:09 | 49.24480 | 13.04062 | 247° | 13km/h | 25484m | -35.1m/s | 0°C | 0% | 0hPa | 2.7V | 00:00:00 | 02:41:30 | 00:00:00 | |
| PETON7-10 | 2026-09-04 12:44:08 | 49.24481 | 13.04066 | 248° | 13km/h | 25519m | -35.8m/s | -48.3°C | 3.0% | 24.7hPa | 2.7V | 00:00:00 | 00:00:00 | 00:00:00 | |
| OE5MMP-10 | 2026-09-04 12:44:06 | 49.24483 | 13.04075 | 252° | 11km/h | 25587m | -34.1m/s | -48.5°C | 3.0% | 24.4hPa | 2.7V | 00:00:00 | 02:41:27 | 00:00:00 | |
| OE5DRO-10 | 2026-09-04 12:44:05 | 49.24484 | 13.04080 | 251° | 16km/h | 25621m | -34.5m/s | -48.5°C | 3.0% | 24.3hPa | 2.6V | 00:00:00 | 00:00:00 | 00:00:00 | |
| EDDB2-11 | 2026-09-04 12:43:52 | 49.24464 | 13.04132 | 331° | 18km/h | 26097m | -34.8m/s | -48.9°C | 0.6% | 22.7hPa | 2.6V | 00:00:00 | 00:00:00 | 00:00:00 | |
| DL6DJ-15 | 2026-09-04 12:43:51 | 49.24464 | 13.04132 | 331° | 18km/h | 26097m | -34.8m/s | -48.9°C | 0.6% | 22.7hPa | 2.6V | 00:00:00 | 00:00:00 | 00:00:00 | |
| SONCRA | 2026-09-04 12:43:46 | 49.24443 | 13.04134 | 23° | 15km/h | 26301m | -35.1m/s | -48.8°C | 0.6% | 21.9hPa | 2.6V | 00:00:00 | 00:00:00 | 00:00:00 | |
| EDDB2-12 | 2026-09-04 12:43:42 | 49.24424 | 13.04124 | 15° | 20km/h | 26441m | -36.6m/s | -48.4°C | 0.6% | 21.5hPa | 2.6V | 00:00:00 | 00:00:00 | 00:00:00 | |
| OE5WHR-10 | 2026-09-04 12:43:41 | 49.24424 | 13.04124 | 16° | 7km/h | 26441m | -36.6m/s | -48.3°C | 3.1% | 21.4hPa | 2.6V | 00:00:00 | 00:00:00 | 00:00:00 | |
| OE5DXL-15 | 2026-09-04 12:43:37 | 49.24406 | 13.04122 | 216° | 5km/h | 26663m | -37.5m/s | -48.6°C | 3.2% | 20.7hPa | 2.7V | 00:00:00 | 00:00:00 | 00:00:00 | |
| DL1JEZ-13 | 2026-09-04 12:43:35 | 49.24406 | 13.04122 | 0° | 0km/h | 26663m | -37.5m/s | -48.6°C | 0.7% | 20.8hPa | 2.7V | 03:24:00 | 00:00:00 | 00:00:00 | |
| OE5MMP-10 | 2026-09-04 12:43:33 | 49.24406 | 13.04122 | 140° | 4km/h | 26735m | -36.3m/s | -48.6°C | 3.3% | 20.5hPa | 2.7V | 03:24:00 | 02:40:54 | 00:00:00 | |
| PETON7-10 | 2026-09-04 12:43:23 | 49.24406 | 13.04136 | 336° | 9km/h | 27103m | -37.2m/s | -47.5°C | 3.0% | 19.4hPa | 2.6V | 00:00:00 | 00:00:00 | 00:00:00 | |
| OE5MMP-10 | 2026-09-04 12:43:22 | 49.24404 | 13.04136 | 15° | 9km/h | 27140m | -37.9m/s | -47.6°C | 3.1% | 19.3hPa | 2.6V | 00:00:00 | 02:40:43 | 00:00:00 | |
| EDDB2-11 | 2026-09-04 12:43:21 | 49.24401 | 13.04132 | 32° | 13km/h | 27214m | -38.2m/s | -47.8°C | 0.6% | 19.1hPa | 2.6V | 00:00:00 | 00:00:00 | 00:00:00 | |
| OE5WHR-10 | 2026-09-04 12:43:20 | 49.24401 | 13.04132 | 33° | 7km/h | 27214m | -38.2m/s | -47.8°C | 3.1% | 19.1hPa | 2.6V | 00:00:00 | 00:00:00 | 00:00:00 | |
| PG1ADW-2 | 2026-09-04 12:43:18 | 49.24393 | 13.04124 | 41° | 5km/h | 27327m | -37.9m/s | -47.8°C | 3.2% | 18.7hPa | 2.6V | 03:24:00 | 00:00:00 | 00:00:00 | |
| OE5REO-15 | 2026-09-04 12:43:15 | 49.24391 | 13.04119 | 87° | 5km/h | 27403m | -39.0m/s | -47.6°C | 0.6% | 18.5hPa | 2.6V | 03:25:00 | 00:00:00 | 00:00:00 | |
| DL1JEZ-13 | 2026-09-04 12:43:14 | 49.24392 | 13.04117 | 134° | 7km/h | 27441m | -39.5m/s | -47.4°C | 0.6% | 18.4hPa | 2.6V | 00:00:00 | 00:00:00 | 00:00:00 | |
| OE5MMP-10 | 2026-09-04 12:43:12 | 49.24395 | 13.04113 | 153° | 5km/h | 27519m | -39.2m/s | -46.9°C | 3.0% | 18.2hPa | 2.6V | 00:00:00 | 02:40:33 | 00:00:00 | |
| EDDB2-12 | 2026-09-04 12:43:11 | 49.24399 | 13.04110 | 143° | 9km/h | 27596m | -40.2m/s | -46.9°C | 0.6% | 18.0hPa | 2.6V | 00:00:00 | 00:00:00 | 00:00:00 | |
| PETON7-10 | 2026-09-04 12:43:08 | 49.24402 | 13.04106 | 140° | 4km/h | 27676m | -40.2m/s | -46.9°C | 3.0% | 17.7hPa | 2.6V | 00:00:00 | 02:40:29 | 00:00:00 | |
| OE5DXL-15 | 2026-09-04 12:43:07 | 49.24404 | 13.04102 | 104° | 5km/h | 27793m | -39.6m/s | -46.5°C | 3.0% | 17.4hPa | 2.6V | 00:00:00 | 00:00:00 | 00:00:00 | |
| EDDB2-11 | 2026-09-04 12:42:50 | 49.24406 | 13.04123 | 287° | 5km/h | 28435m | -41.9m/s | -44.7°C | 0.5% | 15.8hPa | 2.6V | 00:00:00 | 00:00:00 | 00:00:00 | |
| DL6DJ-15 | 2026-09-04 12:42:49 | 49.24406 | 13.04123 | 287° | 5km/h | 28435m | -41.9m/s | -44.7°C | 0.5% | 15.8hPa | 2.6V | 00:00:00 | 00:00:00 | 00:00:00 | |
| HSKMA3-T | 2026-09-04 12:42:35 | 49.24398 | 13.04107 | 83° | 15km/h | 29029m | -44.9m/s | 0°C | 0% | 0hPa | 2.6V | 18:12:15 | 02:39:56 | 00:00:00 | |
| HSKMA3-T | 2026-09-04 12:42:22 | 49.24367 | 13.04037 | 67° | 27km/h | 29606m | -45.4m/s | 0°C | 0% | 0hPa | 2.6V | 18:12:15 | 02:39:43 | 00:00:00 | |
| HSKMA3-T | 2026-09-04 12:42:09 | 49.24315 | 13.03918 | 68° | 33km/h | 30197m | -46.5m/s | 0°C | 0% | 0hPa | 2.7V | 18:12:15 | 02:39:30 | 00:00:00 | |
| HSKMA3-T | 2026-09-04 12:41:55 | 49.24276 | 13.03831 | 66° | 26km/h | 30856m | -48.9m/s | 0°C | 0% | 0hPa | 2.7V | 18:12:15 | 02:39:16 | 00:00:00 | |
| HSKMA3-T | 2026-09-04 12:41:45 | 49.24262 | 13.03736 | 94° | 29km/h | 31382m | -56.7m/s | 0°C | 0% | 0hPa | 2.6V | 18:12:15 | 02:39:06 | 00:00:00 | |
| SP3BTT-10 | 2026-09-04 12:41:44 | 49.24263 | 13.03725 | 101° | 37km/h | 31439m | -56.6m/s | -42.1°C | 2.6% | 10.0hPa | 2.7V | 03:26:00 | 00:00:00 | 00:00:00 | |
| HSKMA3-T | 2026-09-04 12:41:26 | 49.24291 | 13.03595 | 122° | 11km/h | 32482m | -64.9m/s | 0°C | 0% | 0hPa | 2.7V | 18:12:15 | 02:38:47 | 00:00:00 | |
| OE5REO-15 | 2026-09-04 12:41:25 | 49.24291 | 13.03595 | 123° | 11km/h | 32482m | -64.9m/s | -37.2°C | 0.2% | 8.6hPa | 2.7V | 00:00:00 | 00:00:00 | 00:00:00 | |
| PETON7-10 | 2026-09-04 12:41:23 | 49.24295 | 13.03590 | 192° | 7km/h | 32681m | -67.7m/s | -36.3°C | 1.8% | 8.3hPa | 2.7V | 00:00:00 | 00:00:00 | 00:00:00 | |
| OE5MMP-10 | 2026-09-04 12:41:22 | 49.24296 | 13.03590 | 191° | 5km/h | 32748m | -67.2m/s | -36.0°C | 1.8% | 8.2hPa | 2.7V | 00:00:00 | 02:38:43 | 00:00:00 | |
| PG1ADW-2 | 2026-09-04 12:41:18 | 49.24300 | 13.03595 | 173° | 15km/h | 33012m | -64.4m/s | -35.4°C | 1.7% | 7.9hPa | 2.7V | 00:00:00 | 02:38:39 | 00:00:00 | |
| DL6DJ-15 | 2026-09-04 12:41:16 | 49.24301 | 13.03591 | 99° | 5km/h | 33209m | -66.3m/s | -35.2°C | 0.2% | 7.7hPa | 2.7V | 00:00:00 | 00:00:00 | 00:00:00 | |
| DO3MHA-11 | 2026-09-04 12:41:15 | 49.24301 | 13.03591 | 100° | 11km/h | 33209m | -66.2m/s | -35.1°C | 1.7% | 7.7hPa | 2.7V | 00:00:00 | 02:38:36 | 00:00:00 | |
| OE5WHR-10 | 2026-09-04 12:41:14 | 49.24301 | 13.03588 | 93° | 24km/h | 33275m | -64.8m/s | -34.9°C | 1.7% | 7.6hPa | 2.7V | 03:26:00 | 00:00:00 | 00:00:00 | |
| BAUMI2-15 | 2026-09-04 12:41:13 | 49.24301 | 13.03586 | 67° | 9km/h | 33340m | -65.7m/s | -34.6°C | 1.6% | 7.5hPa | 2.7V | 03:26:00 | 02:38:34 | 00:00:00 | |
| OE5MMP-10 | 2026-09-04 12:41:12 | 49.24299 | 13.03586 | 13° | 15km/h | 33406m | -67.1m/s | -34.3°C | 1.6% | 7.5hPa | 2.7V | 00:00:00 | 02:38:33 | 00:00:00 | |
| SONCRA | 2026-09-04 12:41:10 | 49.24287 | 13.03594 | 330° | 15km/h | 33694m | -72.4m/s | 0°C | -1.0% | -1.0hPa | 2.7V | 00:00:00 | 00:00:00 | 00:00:00 | |
| PETON7-10 | 2026-09-04 12:41:08 | 49.24287 | 13.03593 | 331° | 31km/h | 33694m | -72.3m/s | -33.9°C | 1.5% | 7.1hPa | 2.7V | 00:00:00 | 00:00:00 | 00:00:00 | |
| EDDB2-12 | 2026-09-04 12:41:06 | 49.24275 | 13.03600 | 340° | 15km/h | 33909m | -68.9m/s | 0°C | -1.0% | -1.0hPa | 2.7V | 00:00:00 | 00:00:00 | 00:00:00 | |
| DO3MHA-11 | 2026-09-04 12:41:05 | 49.24275 | 13.03600 | 341° | 29km/h | 33909m | -68.8m/s | -33.9°C | 1.5% | 6.9hPa | 2.7V | 00:00:00 | 02:38:26 | 00:00:00 | |
| BAUMI2-15 | 2026-09-04 12:41:03 | 49.24267 | 13.03601 | 4° | 26km/h | 34041m | -65.1m/s | -34.2°C | 1.5% | 6.8hPa | 2.6V | 00:00:00 | 02:38:24 | 00:00:00 | |
| OE5MMP-10 | 2026-09-04 12:41:02 | 49.24263 | 13.03599 | 24° | 42km/h | 34107m | -63.0m/s | -34.3°C | 1.5% | 6.7hPa | 2.6V | 00:00:00 | 02:38:23 | 00:00:00 | |
| BAUMI2-15 | 2026-09-04 12:40:58 | 49.24239 | 13.03575 | 39° | 49km/h | 34345m | -54.5m/s | -33.5°C | 1.4% | 6.5hPa | 2.6V | 00:00:00 | 02:38:19 | 00:00:00 | |
| DO3MHA-11 | 2026-09-04 12:40:55 | 49.24206 | 13.03548 | 27° | 37km/h | 34533m | -55.4m/s | -33.4°C | 1.5% | 6.3hPa | 2.6V | 00:00:00 | 02:38:16 | 00:00:00 | |
| OE5REO-15 | 2026-09-04 12:40:54 | 49.24206 | 13.03548 | 28° | 57km/h | 34533m | -55.4m/s | -33.4°C | 0.2% | 6.3hPa | 2.6V | 00:00:00 | 00:00:00 | 00:00:00 | |
| PETON7-10 | 2026-09-04 12:40:53 | 49.24180 | 13.03530 | 26° | 26km/h | 34630m | -41.0m/s | -33.6°C | 1.5% | 6.2hPa | 2.6V | 00:00:00 | 02:38:14 | 00:00:00 | |
| OE5MMP-10 | 2026-09-04 12:40:52 | 49.24169 | 13.03522 | 25° | 26km/h | 34667m | -32.3m/s | -33.5°C | 1.5% | 6.2hPa | 2.6V | 03:27:00 | 02:38:13 | 00:00:00 | |
| DL3JIN-12 | 2026-09-04 12:40:51 | 49.24168 | 13.03522 | 26° | 51km/h | 34667m | -32.4m/s | 0°C | 0% | 0hPa | 2.6V | 03:27:00 | 00:00:00 | 00:00:00 | |
| DL6DJ-15 | 2026-09-04 12:40:45 | 49.24124 | 13.03487 | 57° | 24km/h | 34708m | 6.8m/s | -33.1°C | 0.2% | 6.2hPa | 2.6V | 00:00:00 | 00:00:00 | 00:00:00 | |
| SP3BTT-10 | 2026-09-04 12:40:44 | 49.24124 | 13.03487 | 58° | 27km/h | 34708m | 6.7m/s | -33.1°C | 1.5% | 6.2hPa | 2.6V | 00:00:00 | 00:00:00 | 00:00:00 | |
| OE8JPQ-2 | 2026-09-04 12:40:43 | 49.24120 | 13.03477 | 60° | 24km/h | 34702m | 6.1m/s | 0°C | 0% | 0hPa | 2.6V | 00:00:00 | 02:38:04 | 00:00:00 | |
| OE5MMP-10 | 2026-09-04 12:40:40 | 49.24106 | 13.03443 | 50° | 22km/h | 34683m | 6.7m/s | -32.5°C | 1.5% | 6.2hPa | 2.6V | 00:00:00 | 02:38:01 | 00:00:00 | |
| BAUMI2-15 | 2026-09-04 12:40:39 | 49.24100 | 13.03434 | 43° | 24km/h | 34676m | 6.6m/s | -32.8°C | 1.5% | 6.2hPa | 2.6V | 00:00:00 | 02:38:00 | 00:00:00 | |
| PG1ADW-2 | 2026-09-04 12:40:38 | 49.24094 | 13.03427 | 35° | 27km/h | 34670m | 6.1m/s | -33.0°C | 1.5% | 6.2hPa | 2.7V | 03:27:00 | 00:00:00 | 00:00:00 | |
| EDDB2-12 | 2026-09-04 12:40:36 | 49.24077 | 13.03411 | 49° | 13km/h | 34645m | 7.2m/s | 0°C | -1.0% | -1.0hPa | 2.7V | 00:00:00 | 00:00:00 | 00:00:00 | |
| BAUMI2-15 | 2026-09-04 12:40:34 | 49.24077 | 13.03410 | 50° | 26km/h | 34645m | 7.2m/s | -33.3°C | 1.5% | 6.2hPa | 2.7V | 00:00:00 | 02:37:55 | 00:00:00 | |
| OE5REO-15 | 2026-09-04 12:40:32 | 49.24076 | 13.03406 | 63° | 13km/h | 34638m | 6.3m/s | -33.4°C | 0.2% | 6.3hPa | 2.7V | 03:28:00 | 00:00:00 | 00:00:00 | |
| DO3MHA-11 | 2026-09-04 12:40:31 | 49.24071 | 13.03397 | 45° | 37km/h | 34628m | 4.6m/s | -33.0°C | 1.5% | 6.2hPa | 2.7V | 00:00:00 | 02:37:52 | 00:00:00 | |
| OE5MMP-10 | 2026-09-04 12:40:30 | 49.24067 | 13.03392 | 29° | 37km/h | 34623m | 5.5m/s | -33.1°C | 1.5% | 6.3hPa | 2.7V | 00:00:00 | 02:37:51 | 00:00:00 | |
| DL3JIN-12 | 2026-09-04 12:40:28 | 49.24060 | 13.03388 | 21° | 31km/h | 34616m | 7.3m/s | 0°C | 0% | 0hPa | 2.6V | 00:00:00 | 00:00:00 | 00:00:00 | |
| BAUMI2-15 | 2026-09-04 12:40:27 | 49.24041 | 13.03380 | 12° | 44km/h | 34602m | 6.9m/s | -33.2°C | 1.5% | 6.3hPa | 2.6V | 03:27:00 | 02:37:48 | 00:00:00 | |
| OE5WHR-10 | 2026-09-04 12:40:26 | 49.24030 | 13.03376 | 14° | 37km/h | 34595m | 5.6m/s | -33.1°C | 1.5% | 6.3hPa | 2.6V | 00:00:00 | 00:00:00 | 00:00:00 | |
| BAUMI2-15 | 2026-09-04 12:40:22 | 49.23992 | 13.03349 | 47° | 22km/h | 34570m | 7.4m/s | -33.1°C | 1.5% | 6.3hPa | 2.6V | 00:00:00 | 02:37:43 | 00:00:00 | |
| DO3MHA-11 | 2026-09-04 12:40:21 | 49.23988 | 13.03340 | 59° | 35km/h | 34563m | 6.3m/s | -33.2°C | 1.5% | 6.3hPa | 2.7V | 00:00:00 | 02:37:42 | 00:00:00 | |
| OE5MMP-10 | 2026-09-04 12:40:20 | 49.23985 | 13.03333 | 62° | 37km/h | 34558m | 4.8m/s | -33.2°C | 1.4% | 6.3hPa | 2.7V | 00:00:00 | 02:37:41 | 00:00:00 | |
| PG1ADW-2 | 2026-09-04 12:40:18 | 49.23979 | 13.03324 | 16° | 35km/h | 34549m | 5.1m/s | -33.6°C | 1.5% | 6.3hPa | 2.7V | 00:00:00 | 00:00:00 | 00:00:00 | |
| BAUMI2-15 | 2026-09-04 12:40:17 | 49.23973 | 13.03323 | 354° | 26km/h | 34543m | 7.0m/s | -33.8°C | 1.5% | 6.3hPa | 2.7V | 00:00:00 | 02:37:38 | 00:00:00 | |
| DM0DOS-11 | 2026-09-04 12:40:16 | 49.23943 | 13.03332 | 353° | 55km/h | 34522m | 5m/s | -34°C | 1.6% | 6.4hPa | 2.7V | 03:27:41 | 02:37:35 | 00:00:00 | |
| PETON7-10 | 2026-09-04 12:40:16 | 49.23966 | 13.03325 | 349° | 37km/h | 34535m | 7.6m/s | -34.0°C | 1.6% | 6.3hPa | 2.7V | 00:00:00 | 00:00:00 | 00:00:00 | |
| DL6DJ-15 | 2026-09-04 12:40:14 | 49.23929 | 13.03333 | 2° | 55km/h | 34518m | 3.7m/s | -34.0°C | 0.2% | 6.4hPa | 2.7V | 00:00:00 | 00:00:00 | 00:00:00 | |
| DO3MHA-11 | 2026-09-04 12:40:11 | 49.23904 | 13.03323 | 28° | 29km/h | 34508m | 6.5m/s | -34.0°C | 1.6% | 6.4hPa | 2.7V | 00:00:00 | 02:37:32 | 00:00:00 | |
| OE5MMP-10 | 2026-09-04 12:40:10 | 49.23895 | 13.03313 | 47° | 29km/h | 34501m | 7.6m/s | -33.9°C | 1.6% | 6.4hPa | 2.7V | 03:27:00 | 02:37:31 | 00:00:00 | |
| SONCRA | 2026-09-04 12:40:08 | 49.23888 | 13.03274 | 102° | 29km/h | 34481m | 4.7m/s | 0°C | -1.0% | -1.0hPa | 2.7V | 00:00:00 | 00:00:00 | 00:00:00 | |
| EDDB2-12 | 2026-09-04 12:40:05 | 49.23823 | 13.03261 | 66° | 37km/h | 34416m | 6.1m/s | 0°C | -1.0% | -1.0hPa | 2.7V | 00:00:00 | 00:00:00 | 00:00:00 | |
| OE5REO-15 | 2026-09-04 12:40:02 | 49.23882 | 13.03274 | 328° | 38km/h | 34451m | 6.3m/s | -34.5°C | 0.2% | 6.4hPa | 2.7V | 03:28:00 | 00:00:00 | 00:00:00 | |
| PETON7-10 | 2026-09-04 12:40:01 | 49.23872 | 13.03282 | 338° | 31km/h | 34445m | 5.2m/s | -34.3°C | 1.7% | 6.4hPa | 2.7V | 00:00:00 | 02:37:22 | 00:00:00 | |
| OE5MMP-10 | 2026-09-04 12:40:00 | 49.23861 | 13.03286 | 351° | 33km/h | 34440m | 5.1m/s | -34.4°C | 1.7% | 6.4hPa | 2.7V | 00:00:00 | 02:37:21 | 00:00:00 | |
| PG1ADW-2 | 2026-09-04 12:39:58 | 49.23837 | 13.03282 | 25° | 26km/h | 34429m | 5.9m/s | -34.4°C | 1.7% | 6.4hPa | 2.7V | 00:00:00 | 02:37:19 | 00:00:00 | |
| OE5DXL-15 | 2026-09-04 12:39:57 | 49.23821 | 13.03249 | 90° | 22km/h | 34410m | 6.2m/s | -34.1°C | 1.7% | 6.5hPa | 2.7V | 00:00:00 | 00:00:00 | 00:00:00 | |
| DO3MHA-11 | 2026-09-04 12:39:51 | 49.23833 | 13.03229 | 227° | 26km/h | 34386m | 5.5m/s | -33.6°C | 1.6% | 6.5hPa | 2.6V | 00:00:00 | 02:37:12 | 00:00:00 | |
| OK1ALN | 2026-09-04 12:39:50 | 49.23834 | 13.03234 | 273° | 16km/h | 34380m | 5.7m/s | -33.7°C | 0.2% | 6.5hPa | 2.6V | 03:28:00 | 00:00:00 | 00:00:00 | |
| PETON7-10 | 2026-09-04 12:39:46 | 49.23812 | 13.03252 | 6° | 22km/h | 34355m | 5.9m/s | -33.8°C | 1.7% | 6.5hPa | 2.6V | 00:00:00 | 00:00:00 | 00:00:00 | |
| OE5WHR-10 | 2026-09-04 12:39:44 | 49.23796 | 13.03243 | 35° | 20km/h | 34344m | 5.4m/s | -34.0°C | 1.7% | 6.5hPa | 2.6V | 03:28:00 | 02:37:05 | 00:00:00 | |
| DL6DJ-15 | 2026-09-04 12:39:43 | 49.23788 | 13.03229 | 69° | 16km/h | 34332m | 6.1m/s | -34.3°C | 0.2% | 6.6hPa | 2.6V | 00:00:00 | 00:00:00 | 00:00:00 | |
| DO3MHA-11 | 2026-09-04 12:39:41 | 49.23787 | 13.03223 | 101° | 16km/h | 34326m | 6.1m/s | -34.3°C | 1.7% | 6.5hPa | 2.6V | 00:00:00 | 02:37:02 | 00:00:00 | |
| OE5MMP-10 | 2026-09-04 12:39:40 | 49.23788 | 13.03221 | 159° | 18km/h | 34320m | 6.1m/s | -34.3°C | 1.7% | 6.5hPa | 2.6V | 00:00:00 | 02:37:01 | 00:00:00 | |
| PG1ADW-2 | 2026-09-04 12:39:38 | 49.23792 | 13.03225 | 246° | 22km/h | 34307m | 6.1m/s | -34.1°C | 1.6% | 6.5hPa | 2.6V | 00:00:00 | 00:00:00 | 00:00:00 | |
| DL9SK-14 | 2026-09-04 12:39:37 | 49.23792 | 13.03236 | 296° | 16km/h | 34295m | 6.3m/s | -34.0°C | 0.2% | 6.6hPa | 2.6V | 00:00:00 | 00:00:00 | 00:00:00 | |
| EDDB2-12 | 2026-09-04 12:39:34 | 49.23779 | 13.03247 | 351° | 24km/h | 34276m | 6.0m/s | 0°C | -1.0% | -1.0hPa | 2.6V | 00:00:00 | 00:00:00 | 00:00:00 | |
| PETON7-10 | 2026-09-04 12:39:31 | 49.23767 | 13.03248 | 1° | 22km/h | 34264m | 4.9m/s | -34.0°C | 1.6% | 6.6hPa | 2.6V | 03:28:00 | 00:00:00 | 00:00:00 | |
| DL1JEZ-13 | 2026-09-04 12:39:30 | 49.23762 | 13.03249 | 355° | 20km/h | 34260m | 4.9m/s | -33.8°C | 0.2% | 6.6hPa | 2.6V | 03:28:00 | 00:00:00 | 00:00:00 | |
| OK1ALN | 2026-09-04 12:39:29 | 49.23757 | 13.03250 | 338° | 16km/h | 34254m | 5.9m/s | -33.7°C | 0.2% | 6.6hPa | 2.6V | 03:28:00 | 00:00:00 | 00:00:00 | |
| OE5DXL-15 | 2026-09-04 12:39:22 | 49.23732 | 13.03303 | 358° | 15km/h | 34205m | 7.6m/s | -34.1°C | 1.7% | 6.6hPa | 2.6V | 03:28:00 | 00:00:00 | 00:00:00 | |
| OE5WHR-10 | 2026-09-04 12:39:21 | 49.23732 | 13.03303 | 358° | 22km/h | 34205m | 7.6m/s | -34.1°C | 1.7% | 6.6hPa | 2.6V | 00:00:00 | 00:00:00 | 00:00:00 | |
| OE5MMP-10 | 2026-09-04 12:39:20 | 49.23727 | 13.03301 | 21° | 22km/h | 34198m | 7.3m/s | -33.9°C | 1.7% | 6.7hPa | 2.7V | 00:00:00 | 02:36:41 | 00:00:00 | |
| PG1ADW-2 | 2026-09-04 12:39:19 | 49.23716 | 13.03293 | 30° | 16km/h | 34186m | 4.6m/s | -34.4°C | 1.7% | 6.7hPa | 2.7V | 03:28:00 | 00:00:00 | 00:00:00 | |
| PETON7-10 | 2026-09-04 12:39:16 | 49.23707 | 13.03289 | 351° | 18km/h | 34176m | 5.8m/s | -34.4°C | 1.7% | 6.7hPa | 2.6V | 00:00:00 | 02:36:37 | 00:00:00 | |
| OE5REO-15 | 2026-09-04 12:39:15 | 49.23707 | 13.03289 | 351° | 16km/h | 34176m | 5.8m/s | -34.5°C | 0.2% | 6.7hPa | 2.6V | 00:00:00 | 00:00:00 | 00:00:00 | |
| DL6DJ-15 | 2026-09-04 12:39:11 | 49.23696 | 13.03326 | 279° | 18km/h | 34146m | 5.2m/s | -33.7°C | 0.2% | 6.8hPa | 2.6V | 00:00:00 | 00:00:00 | 00:00:00 | |
| OE5MMP-10 | 2026-09-04 12:39:10 | 49.23695 | 13.03331 | 288° | 15km/h | 34140m | 6.0m/s | -33.7°C | 1.6% | 6.7hPa | 2.6V | 00:00:00 | 02:36:31 | 00:00:00 | |
| DL1JEZ-13 | 2026-09-04 12:39:09 | 49.23695 | 13.03331 | 289° | 11km/h | 34140m | 6.1m/s | -33.8°C | 0.2% | 6.7hPa | 2.6V | 03:28:00 | 00:00:00 | 00:00:00 | |
| DO3MHA-11 | 2026-09-04 12:39:08 | 49.23692 | 13.03331 | 60° | 16km/h | 34128m | 6.2m/s | -34.5°C | 1.7% | 6.7hPa | 2.6V | 00:00:00 | 02:36:29 | 00:00:00 | |
| OK1ALN | 2026-09-04 12:39:07 | 49.23693 | 13.03331 | 60° | 13km/h | 34128m | 6.3m/s | -34.5°C | 0.2% | 6.8hPa | 2.6V | 03:28:00 | 00:00:00 | 00:00:00 | |
| DL9SK-14 | 2026-09-04 12:39:06 | 49.23685 | 13.03313 | 42° | 18km/h | 34110m | 5.9m/s | 0°C | -1.0% | 6.8hPa | 2.6V | 00:00:00 | 00:00:00 | 00:00:00 | |
| EDDB2-12 | 2026-09-04 12:39:02 | 49.23649 | 13.03312 | 319° | 22km/h | 34014m | 5.0m/s | 0°C | -1.0% | -1.0hPa | 2.6V | 00:00:00 | 00:00:00 | 00:00:00 | |
| DF7PN | 2026-09-04 12:38:51 | 49.23646 | 13.03318 | 311° | 16km/h | 34009m | 4.0m/s | 0°C | -1.0% | -1.0hPa | 2.6V | 00:00:00 | 00:00:00 | 00:00:00 | |
| OE5MMP-10 | 2026-09-04 12:38:50 | 49.23654 | 13.03307 | 329° | 15km/h | 34019m | 6.2m/s | -34.1°C | 1.6% | 6.8hPa | 2.6V | 03:29:00 | 02:36:11 | 00:00:00 | |
| DL1JEZ-13 | 2026-09-04 12:38:49 | 49.23649 | 13.03312 | 320° | 24km/h | 34014m | 5.0m/s | -34.4°C | 0.3% | 6.9hPa | 2.6V | 00:00:00 | 00:00:00 | 00:00:00 | |
| OE5DXL-15 | 2026-09-04 12:38:48 | 49.23645 | 13.03318 | 312° | 15km/h | 34009m | 3.9m/s | -34.1°C | 1.7% | 6.8hPa | 2.6V | 00:00:00 | 00:00:00 | 00:00:00 | |
| PETON7-10 | 2026-09-04 12:38:46 | 49.23643 | 13.03324 | 256° | 16km/h | 34000m | 6.6m/s | -34.1°C | 1.7% | 6.8hPa | 2.6V | 00:00:00 | 00:00:00 | 00:00:00 | |
| OE5REO-15 | 2026-09-04 12:38:45 | 49.23644 | 13.03323 | 142° | 9km/h | 33992m | 7.6m/s | -34.5°C | 0.2% | 6.9hPa | 2.6V | 03:29:00 | 00:00:00 | 00:00:00 | |
| SP3BTT-10 | 2026-09-04 12:38:43 | 49.23649 | 13.03314 | 129° | 18km/h | 33980m | 4.6m/s | -34.2°C | 1.7% | 6.9hPa | 2.6V | 00:00:00 | 00:00:00 | 00:00:00 | |
| OE5MMP-10 | 2026-09-04 12:38:40 | 49.23653 | 13.03302 | 21° | 16km/h | 33965m | 6.2m/s | -33.9°C | 1.6% | 6.9hPa | 2.6V | 00:00:00 | 02:36:01 | 00:00:00 | |
| DO3MHA-11 | 2026-09-04 12:38:38 | 49.23647 | 13.03307 | 326° | 24km/h | 33952m | 6.0m/s | -34.3°C | 1.7% | 6.9hPa | 2.6V | 00:00:00 | 02:35:59 | 00:00:00 | |
| PETON7-10 | 2026-09-04 12:38:31 | 49.23620 | 13.03325 | 108° | 11km/h | 33914m | 5.2m/s | -33.8°C | 1.7% | 6.9hPa | 2.6V | 03:29:00 | 02:35:52 | 00:00:00 | |
| OE5MMP-10 | 2026-09-04 12:38:30 | 49.23621 | 13.03321 | 124° | 13km/h | 33908m | 5.0m/s | -33.8°C | 1.7% | 6.9hPa | 2.6V | 00:00:00 | 02:35:51 | 00:00:00 | |
| OE5REO-15 | 2026-09-04 12:38:28 | 49.23623 | 13.03319 | 154° | 7km/h | 33903m | 5.7m/s | -33.5°C | 0.2% | 7.0hPa | 2.7V | 03:29:00 | 00:00:00 | 00:00:00 | |
| OK1ALN | 2026-09-04 12:38:26 | 49.23625 | 13.03321 | 263° | 11km/h | 33891m | 6.1m/s | -33.8°C | 0.2% | 7.0hPa | 2.7V | 03:29:00 | 00:00:00 | 00:00:00 | |
| DO3MHA-11 | 2026-09-04 12:38:24 | 49.23623 | 13.03341 | 289° | 13km/h | 33875m | 5.2m/s | -33.6°C | 1.6% | 7.0hPa | 2.7V | 03:29:00 | 02:35:45 | 00:00:00 | |
| OE5MMP-10 | 2026-09-04 12:38:20 | 49.23618 | 13.03357 | 281° | 11km/h | 33851m | 5.2m/s | -33.6°C | 1.6% | 7.0hPa | 2.7V | 00:00:00 | 02:35:41 | 00:00:00 | |
| PG1ADW-2 | 2026-09-04 12:38:18 | 49.23619 | 13.03362 | 255° | 15km/h | 33840m | 5.8m/s | -34.0°C | 1.6% | 7.0hPa | 2.7V | 00:00:00 | 00:00:00 | 00:00:00 | |
| OE5DXL-15 | 2026-09-04 12:38:17 | 49.23621 | 13.03378 | 263° | 13km/h | 33822m | 5.2m/s | -34.0°C | 1.6% | 7.0hPa | 2.6V | 00:00:00 | 00:00:00 | 00:00:00 | |
| OE5REO-15 | 2026-09-04 12:38:12 | 49.23621 | 13.03391 | 267° | 15km/h | 33812m | 4.6m/s | -34.2°C | 0.2% | 7.1hPa | 2.6V | 03:29:00 | 00:00:00 | 00:00:00 | |
| OE5MMP-10 | 2026-09-04 12:38:10 | 49.23623 | 13.03396 | 114° | 18km/h | 33794m | 7.1m/s | -34.2°C | 1.6% | 7.1hPa | 2.6V | 03:29:00 | 02:35:31 | 00:00:00 | |
| DL6DJ-15 | 2026-09-04 12:38:09 | 49.23623 | 13.03393 | 109° | 11km/h | 33787m | 5.7m/s | -34.4°C | 0.2% | 7.1hPa | 2.6V | 00:00:00 | 00:00:00 | 00:00:00 | |
| BAUMI2-15 | 2026-09-04 12:38:08 | 49.23625 | 13.03390 | 124° | 15km/h | 33783m | 4.2m/s | -34.0°C | 1.6% | 7.1hPa | 2.6V | 00:00:00 | 02:35:29 | 00:00:00 | |
| OK1ALN | 2026-09-04 12:38:06 | 49.23626 | 13.03388 | 165° | 7km/h | 33778m | 4.3m/s | -34.3°C | 0.2% | 7.1hPa | 2.6V | 03:30:00 | 00:00:00 | 00:00:00 | |
| BAUMI2-15 | 2026-09-04 12:38:03 | 49.23632 | 13.03413 | 260° | 20km/h | 33754m | 4.8m/s | -34.5°C | 1.7% | 7.1hPa | 2.6V | 03:29:00 | 02:35:24 | 00:00:00 | |
| PETON7-10 | 2026-09-04 12:38:01 | 49.23635 | 13.03434 | 258° | 15km/h | 33745m | 4.8m/s | -34.1°C | 1.6% | 7.1hPa | 2.7V | 00:00:00 | 00:00:00 | 00:00:00 | |
| OE5MMP-10 | 2026-09-04 12:38:00 | 49.23637 | 13.03442 | 251° | 11km/h | 33739m | 6.0m/s | -34.3°C | 1.7% | 7.1hPa | 2.7V | 00:00:00 | 02:35:21 | 00:00:00 | |
| OE8JPQ-2 | 2026-09-04 12:37:59 | 49.23638 | 13.03445 | 225° | 7km/h | 33733m | 6.2m/s | 0°C | 0% | 0hPa | 2.6V | 00:00:00 | 00:00:00 | 00:00:00 | |
| BAUMI2-15 | 2026-09-04 12:37:58 | 49.23639 | 13.03445 | 119° | 9km/h | 33727m | 6.0m/s | -34.5°C | 1.7% | 7.1hPa | 2.6V | 00:00:00 | 02:35:19 | 00:00:00 | |
| OE5REO-15 | 2026-09-04 12:37:57 | 49.23639 | 13.03445 | 120° | 5km/h | 33727m | 6.0m/s | -34.5°C | 0.2% | 7.2hPa | 2.6V | 03:30:00 | 00:00:00 | 00:00:00 | |
| BAUMI2-15 | 2026-09-04 12:37:53 | 49.23645 | 13.03434 | 219° | 18km/h | 33700m | 6.0m/s | -34.4°C | 1.7% | 7.2hPa | 2.6V | 00:00:00 | 02:35:14 | 00:00:00 | |
| OE5MMP-10 | 2026-09-04 12:37:50 | 49.23654 | 13.03451 | 233° | 13km/h | 33682m | 5.1m/s | -34.3°C | 1.6% | 7.2hPa | 2.6V | 00:00:00 | 02:35:11 | 00:00:00 | |
| BAUMI2-15 | 2026-09-04 12:37:48 | 49.23660 | 13.03463 | 226° | 9km/h | 33671m | 5.8m/s | -34.3°C | 1.6% | 7.2hPa | 2.6V | 00:00:00 | 02:35:09 | 00:00:00 | |
| OK1ALN | 2026-09-04 12:37:46 | 49.23663 | 13.03468 | 259° | 4km/h | 33660m | 5.1m/s | -34.5°C | 0.2% | 7.3hPa | 2.7V | 03:30:00 | 00:00:00 | 00:00:00 | |
| BAUMI2-15 | 2026-09-04 12:37:43 | 49.23658 | 13.03473 | 331° | 13km/h | 33643m | 6.5m/s | -33.9°C | 1.5% | 7.2hPa | 2.7V | 03:30:00 | 02:35:04 | 00:00:00 | |
| OE5REO-15 | 2026-09-04 12:37:42 | 49.23659 | 13.03473 | 332° | 13km/h | 33643m | 6.5m/s | -33.9°C | 0.2% | 7.3hPa | 2.7V | 03:30:00 | 00:00:00 | 00:00:00 | |
| OE5MMP-10 | 2026-09-04 12:37:40 | 49.23652 | 13.03480 | 311° | 13km/h | 33628m | 4.5m/s | -34.3°C | 1.5% | 7.2hPa | 2.7V | 00:00:00 | 02:35:01 | 00:00:00 | |
| BAUMI2-15 | 2026-09-04 12:37:38 | 49.23653 | 13.03480 | 154° | 13km/h | 33615m | 7.2m/s | -35.0°C | 1.7% | 7.3hPa | 2.7V | 00:00:00 | 02:34:59 | 00:00:00 | |
| DO3MHA-11 | 2026-09-04 12:37:36 | 49.23659 | 13.03475 | 156° | 18km/h | 33603m | 5.0m/s | -34.9°C | 1.6% | 7.3hPa | 2.7V | 00:00:00 | 02:34:57 | 00:00:00 | |
| BAUMI2-15 | 2026-09-04 12:37:33 | 49.23668 | 13.03477 | 247° | 22km/h | 33588m | 6.5m/s | -35.4°C | 1.7% | 7.3hPa | 2.7V | 00:00:00 | 02:34:54 | 00:00:00 | |
| PETON7-10 | 2026-09-04 12:37:31 | 49.23667 | 13.03492 | 291° | 20km/h | 33575m | 6.3m/s | -35.6°C | 1.8% | 7.3hPa | 2.6V | 03:30:00 | 00:00:00 | 00:00:00 | |
| OE5MMP-10 | 2026-09-04 12:37:30 | 49.23664 | 13.03501 | 302° | 18km/h | 33569m | 4.8m/s | -35.6°C | 1.8% | 7.3hPa | 2.6V | 03:30:00 | 02:34:51 | 00:00:00 | |
| BAUMI2-15 | 2026-09-04 12:37:28 | 49.23656 | 13.03514 | 327° | 15km/h | 33560m | 5.2m/s | -35.4°C | 1.8% | 7.3hPa | 2.7V | 00:00:00 | 02:34:49 | 00:00:00 | |
| DO3MHA-11 | 2026-09-04 12:37:26 | 49.23652 | 13.03514 | 80° | 18km/h | 33548m | 6.3m/s | -35.3°C | 1.8% | 7.3hPa | 2.7V | 00:00:00 | 02:34:47 | 00:00:00 | |
| OK1ALN | 2026-09-04 12:37:25 | 49.23652 | 13.03508 | 112° | 18km/h | 33542m | 5.8m/s | -35.3°C | 0.3% | 7.4hPa | 2.7V | 03:30:00 | 00:00:00 | 00:00:00 | |
| BAUMI2-15 | 2026-09-04 12:37:23 | 49.23659 | 13.03496 | 144° | 20km/h | 33532m | 5.4m/s | -35.1°C | 1.8% | 7.3hPa | 2.7V | 03:30:00 | 02:34:44 | 00:00:00 | |
| OE5MMP-10 | 2026-09-04 12:37:20 | 49.23672 | 13.03495 | 221° | 11km/h | 33514m | 5.6m/s | -35.1°C | 1.8% | 7.4hPa | 2.7V | 00:00:00 | 02:34:41 | 00:00:00 | |
| BAUMI2-15 | 2026-09-04 12:37:18 | 49.23676 | 13.03508 | 262° | 15km/h | 33504m | 5.0m/s | -35.1°C | 1.8% | 7.4hPa | 2.7V | 00:00:00 | 02:34:39 | 00:00:00 | |
| PETON7-10 | 2026-09-04 12:37:16 | 49.23675 | 13.03519 | 299° | 13km/h | 33493m | 6.4m/s | -35.0°C | 1.7% | 7.4hPa | 2.6V | 00:00:00 | 00:00:00 | 00:00:00 | |
| BAUMI2-15 | 2026-09-04 12:37:13 | 49.23671 | 13.03517 | 67° | 7km/h | 33475m | 5.2m/s | -34.5°C | 1.7% | 7.4hPa | 2.6V | 00:00:00 | 02:34:34 | 00:00:00 | |
| OE5REO-15 | 2026-09-04 12:37:11 | 49.23671 | 13.03514 | 83° | 7km/h | 33470m | 4.9m/s | -34.8°C | 0.2% | 7.5hPa | 2.6V | 03:31:00 | 00:00:00 | 00:00:00 | |
| OE5MMP-10 | 2026-09-04 12:37:10 | 49.23672 | 13.03512 | 220° | 11km/h | 33459m | 6.5m/s | -34.6°C | 1.6% | 7.4hPa | 2.6V | 00:00:00 | 02:34:31 | 00:00:00 | |
| BAUMI2-15 | 2026-09-04 12:37:08 | 49.23675 | 13.03519 | 241° | 13km/h | 33447m | 5.6m/s | -34.5°C | 1.6% | 7.4hPa | 2.6V | 00:00:00 | 02:34:29 | 00:00:00 | |
| DL6DJ-15 | 2026-09-04 12:37:07 | 49.23677 | 13.03525 | 240° | 18km/h | 33441m | 5.2m/s | -34.6°C | 0.2% | 7.5hPa | 2.6V | 00:00:00 | 00:00:00 | 00:00:00 | |
| DO3MHA-11 | 2026-09-04 12:37:06 | 49.23679 | 13.03531 | 241° | 11km/h | 33436m | 5.6m/s | -34.9°C | 1.7% | 7.5hPa | 2.6V | 00:00:00 | 02:34:27 | 00:00:00 | |
| OK1ALN | 2026-09-04 12:37:05 | 49.23681 | 13.03536 | 240° | 13km/h | 33430m | 6.2m/s | -35.0°C | 0.3% | 7.5hPa | 2.6V | 03:31:00 | 00:00:00 | 00:00:00 | |
| BAUMI2-15 | 2026-09-04 12:37:03 | 49.23682 | 13.03540 | 333° | 5km/h | 33419m | 5.4m/s | -34.9°C | 1.7% | 7.5hPa | 2.6V | 03:30:00 | 02:34:24 | 00:00:00 | |
| OE8JPQ-2 | 2026-09-04 12:37:02 | 49.23681 | 13.03540 | 4° | 18km/h | 33413m | 5.4m/s | 0°C | 0% | 0hPa | 2.7V | 00:00:00 | 02:34:23 | 00:00:00 | |
| OE5MMP-10 | 2026-09-04 12:37:00 | 49.23675 | 13.03541 | 349° | 18km/h | 33401m | 6.9m/s | -35.0°C | 1.7% | 7.5hPa | 2.7V | 00:00:00 | 02:34:21 | 00:00:00 | |
| PETON7-10 | 2026-09-04 12:36:57 | 49.23664 | 13.03548 | 312° | 20km/h | 33386m | 4.1m/s | -35.1°C | 1.7% | 7.5hPa | 2.7V | 00:00:00 | 02:34:18 | 00:00:00 | |
| DO3MHA-11 | 2026-09-04 12:36:56 | 49.23664 | 13.03551 | 240° | 22km/h | 33381m | 4.9m/s | -35.2°C | 1.7% | 7.5hPa | 2.7V | 00:00:00 | 02:34:17 | 00:00:00 | |
| BAUMI2-15 | 2026-09-04 12:36:55 | 49.23666 | 13.03552 | 192° | 24km/h | 33375m | 7.3m/s | -35.3°C | 1.7% | 7.5hPa | 2.7V | 00:00:00 | 02:34:16 | 00:00:00 | |
| PG1ADW-2 | 2026-09-04 12:36:53 | 49.23676 | 13.03551 | 173° | 26km/h | 33361m | 6.1m/s | -35.5°C | 1.7% | 7.5hPa | 2.7V | 00:00:00 | 00:00:00 | 00:00:00 | |
| DL1XH-west | 2026-09-04 12:36:34 | 49.23733 | 13.03594 | 305° | 26km/h | 33252m | 4.6m/s | 0°C | 0% | 0hPa | 2.7V | 18:12:15 | 02:33:54 | 00:00:00 | |
| PG1ADW-2 | 2026-09-04 12:36:33 | 49.23733 | 13.03594 | 305° | 27km/h | 33252m | 4.6m/s | -35.9°C | 1.7% | 7.7hPa | 2.7V | 03:31:00 | 00:00:00 | 00:00:00 | |
| OE5MMP-10 | 2026-09-04 12:36:30 | 49.23723 | 13.03599 | 71° | 29km/h | 33238m | 5.8m/s | -36.1°C | 1.8% | 7.7hPa | 2.7V | 00:00:00 | 02:33:51 | 00:00:00 | |
| BAUMI2-15 | 2026-09-04 12:36:28 | 49.23727 | 13.03584 | 132° | 35km/h | 33225m | 6.2m/s | -36.1°C | 1.8% | 7.7hPa | 2.7V | 00:00:00 | 02:33:49 | 00:00:00 | |
| PETON7-10 | 2026-09-04 12:36:27 | 49.23733 | 13.03576 | 148° | 29km/h | 33220m | 5.3m/s | -36.1°C | 1.8% | 7.7hPa | 2.7V | 03:31:00 | 00:00:00 | 00:00:00 | |
| DO3MHA-11 | 2026-09-04 12:36:26 | 49.23742 | 13.03570 | 164° | 24km/h | 33214m | 4.7m/s | -36.2°C | 1.8% | 7.7hPa | 2.7V | 00:00:00 | 02:33:47 | 00:00:00 | |
| OE5REO-15 | 2026-09-04 12:36:25 | 49.23742 | 13.03570 | 165° | 40km/h | 33214m | 4.7m/s | -36.2°C | 0.3% | 7.7hPa | 2.7V | 03:32:00 | 00:00:00 | 00:00:00 | |
| OK1ALN | 2026-09-04 12:36:24 | 49.23751 | 13.03568 | 183° | 37km/h | 33210m | 4.7m/s | 0°C | 0% | 7.8hPa | 2.7V | 00:00:00 | 00:00:00 | 00:00:00 | |
| BAUMI2-15 | 2026-09-04 12:36:23 | 49.23765 | 13.03578 | 231° | 27km/h | 33199m | 6.3m/s | -36.4°C | 1.8% | 7.7hPa | 2.7V | 00:00:00 | 02:33:44 | 00:00:00 | |
| OE5MMP-10 | 2026-09-04 12:36:20 | 49.23765 | 13.03608 | 307° | 24km/h | 33180m | 5.3m/s | -36.4°C | 1.8% | 7.7hPa | 2.7V | 00:00:00 | 02:33:41 | 00:00:00 | |
| BAUMI2-15 | 2026-09-04 12:36:18 | 49.23757 | 13.03616 | 1° | 15km/h | 33170m | 5.0m/s | -36.4°C | 1.9% | 7.8hPa | 2.7V | 03:31:00 | 02:33:39 | 00:00:00 | |
| DO3MHA-11 | 2026-09-04 12:36:15 | 49.23758 | 13.03603 | 135° | 27km/h | 33152m | 6.2m/s | -36.4°C | 1.9% | 7.8hPa | 2.7V | 00:00:00 | 02:33:36 | 00:00:00 | |
| PETON7-10 | 2026-09-04 12:36:12 | 49.23780 | 13.03590 | 183° | 22km/h | 33136m | 4.6m/s | -36.3°C | 1.9% | 7.8hPa | 2.6V | 00:00:00 | 02:33:33 | 00:00:00 | |
| OE5REO-15 | 2026-09-04 12:36:10 | 49.23792 | 13.03598 | 233° | 24km/h | 33126m | 6.0m/s | -36.3°C | 0.3% | 7.8hPa | 2.6V | 03:32:00 | 00:00:00 | 00:00:00 | |
| DO3MHA-11 | 2026-09-04 12:36:05 | 49.23780 | 13.03627 | 3° | 20km/h | 33095m | 5.5m/s | -36.2°C | 1.9% | 7.8hPa | 2.6V | 00:00:00 | 02:33:26 | 00:00:00 | |
| OK1ALN | 2026-09-04 12:36:04 | 49.23780 | 13.03627 | 3° | 16km/h | 33095m | 5.6m/s | 0°C | 0% | 0hPa | 2.6V | 00:00:00 | 00:00:00 | 00:00:00 | |
| SONDE2-11 | 2026-09-04 12:36:00 | 49.23800 | 13.03659 | 332° | 11km/h | 33026m | 4.6m/s | 0°C | -1.0% | -1.0hPa | 2.6V | 00:00:00 | 00:00:00 | 00:00:00 | |
| EDDB2-12 | 2026-09-04 12:35:57 | 49.23800 | 13.03659 | 332° | 11km/h | 33026m | 4.6m/s | 0°C | -1.0% | -1.0hPa | 2.6V | 00:00:00 | 00:00:00 | 00:00:00 | |
| DO3MHA-11 | 2026-09-04 12:35:55 | 49.23805 | 13.03648 | 288° | 22km/h | 33035m | 4.8m/s | -36.2°C | 1.9% | 7.9hPa | 2.6V | 03:32:00 | 02:33:16 | 00:00:00 | |
| OE5REO-15 | 2026-09-04 12:35:54 | 49.23805 | 13.03648 | 288° | 22km/h | 33035m | 4.8m/s | -36.3°C | 0.3% | 8.0hPa | 2.6V | 03:32:00 | 00:00:00 | 00:00:00 | |
| DL1XH-west | 2026-09-04 12:35:35 | 49.23845 | 13.03654 | 165° | 20km/h | 32921m | 6.4m/s | 0°C | 0% | 0hPa | 2.6V | 18:12:15 | 02:32:56 | 00:00:00 | |
| DL6DJ-15 | 2026-09-04 12:35:34 | 49.23850 | 13.03652 | 171° | 16km/h | 32915m | 6.3m/s | -36.0°C | 0.3% | 8.1hPa | 2.7V | 00:00:00 | 00:00:00 | 00:00:00 | |
| OE5MMP-10 | 2026-09-04 12:35:30 | 49.23864 | 13.03650 | 163° | 13km/h | 32892m | 6.2m/s | -36.2°C | 1.9% | 8.1hPa | 2.7V | 03:32:00 | 02:32:51 | 00:00:00 | |
| SONDE2-11 | 2026-09-04 12:35:29 | 49.23875 | 13.03639 | 139° | 18km/h | 32874m | 5.6m/s | 0°C | -1.0% | -1.0hPa | 2.7V | 00:00:00 | 00:00:00 | 00:00:00 | |
| PETON7-10 | 2026-09-04 12:35:27 | 49.23875 | 13.03639 | 140° | 20km/h | 32874m | 5.5m/s | -36.5°C | 1.9% | 8.1hPa | 2.7V | 03:32:00 | 02:32:48 | 00:00:00 | |
| EDDB2-12 | 2026-09-04 12:35:25 | 49.23883 | 13.03629 | 160° | 7km/h | 32857m | 6.4m/s | 0°C | -1.0% | -1.0hPa | 2.7V | 00:00:00 | 00:00:00 | 00:00:00 | |
| OE5WHR-10 | 2026-09-04 12:35:23 | 49.23885 | 13.03629 | 217° | 16km/h | 32851m | 6.9m/s | -36.8°C | 1.9% | 8.1hPa | 2.7V | 00:00:00 | 00:00:00 | 00:00:00 | |
| DF7PN | 2026-09-04 12:35:14 | 49.23920 | 13.03590 | 64° | 22km/h | 32788m | 6.0m/s | 0°C | -1.0% | -1.0hPa | 2.7V | 00:00:00 | 00:00:00 | 00:00:00 | |
| PETON7-10 | 2026-09-04 12:35:12 | 49.23920 | 13.03590 | 65° | 16km/h | 32788m | 6.0m/s | -37.1°C | 2.0% | 8.2hPa | 2.7V | 00:00:00 | 00:00:00 | 00:00:00 | |
| OE5MMP-10 | 2026-09-04 12:35:10 | 49.23912 | 13.03579 | 22° | 13km/h | 32776m | 5.3m/s | -37.1°C | 2.0% | 8.2hPa | 2.6V | 00:00:00 | 02:32:31 | 00:00:00 | |
| DO3MHA-11 | 2026-09-04 12:35:08 | 49.23904 | 13.03576 | 1° | 13km/h | 32765m | 6.2m/s | -37.2°C | 2.0% | 8.2hPa | 2.6V | 00:00:00 | 02:32:29 | 00:00:00 | |
| OE5REO-15 | 2026-09-04 12:35:07 | 49.23904 | 13.03576 | 1° | 9km/h | 32765m | 6.3m/s | -37.3°C | 0.3% | 8.3hPa | 2.6V | 00:00:00 | 00:00:00 | 00:00:00 | |
| DL6DJ-15 | 2026-09-04 12:35:03 | 49.23913 | 13.03566 | 102° | 15km/h | 32730m | 6.3m/s | -35.9°C | 0.3% | 8.3hPa | 2.6V | 00:00:00 | 00:00:00 | 00:00:00 | |
| SONDE2-11 | 2026-09-04 12:34:58 | 49.23905 | 13.03528 | 61° | 20km/h | 32699m | 6.0m/s | 0°C | -1.0% | -1.0hPa | 2.6V | 00:00:00 | 00:00:00 | 00:00:00 | |
| EDDB2-12 | 2026-09-04 12:34:54 | 49.23881 | 13.03504 | 16° | 18km/h | 32665m | 5.0m/s | 0°C | -1.0% | -1.0hPa | 2.6V | 00:00:00 | 00:00:00 | 00:00:00 | |
| DL1JEZ-13 | 2026-09-04 12:34:53 | 49.23895 | 13.03512 | 33° | 18km/h | 32684m | 5.7m/s | -37.7°C | 0.4% | 8.4hPa | 2.6V | 00:00:00 | 00:00:00 | 00:00:00 | |
| OE5MMP-10 | 2026-09-04 12:34:50 | 49.23877 | 13.03501 | 24° | 22km/h | 32661m | 4.4m/s | -37.7°C | 1.9% | 8.4hPa | 2.6V | 03:33:00 | 02:32:11 | 00:00:00 | |
| DO3MHA-11 | 2026-09-04 12:34:48 | 49.23874 | 13.03496 | 99° | 27km/h | 32650m | 6.5m/s | -37.8°C | 2.0% | 8.4hPa | 2.6V | 03:33:00 | 02:32:09 | 00:00:00 | |
| SP3BTT-10 | 2026-09-04 12:34:45 | 49.23882 | 13.03480 | 121° | 24km/h | 32631m | 4.8m/s | -38.0°C | 2.0% | 8.4hPa | 2.7V | 00:00:00 | 00:00:00 | 00:00:00 | |
| PETON7-10 | 2026-09-04 12:34:42 | 49.23884 | 13.03448 | 71° | 26km/h | 32614m | 6.7m/s | -38.2°C | 1.9% | 8.4hPa | 2.7V | 00:00:00 | 02:32:03 | 00:00:00 | |
| OE5MMP-10 | 2026-09-04 12:34:40 | 49.23873 | 13.03427 | 38° | 20km/h | 32603m | 4.2m/s | -38.1°C | 1.9% | 8.4hPa | 2.7V | 00:00:00 | 02:32:01 | 00:00:00 | |
| DO3MHA-11 | 2026-09-04 12:34:38 | 49.23859 | 13.03417 | 7° | 20km/h | 32594m | 5.2m/s | -38.0°C | 1.9% | 8.5hPa | 2.7V | 00:00:00 | 02:31:59 | 00:00:00 | |
| DL6DJ-15 | 2026-09-04 12:34:32 | 49.23863 | 13.03430 | 118° | 16km/h | 32553m | 5.9m/s | -38.1°C | 0.3% | 8.6hPa | 2.7V | 00:00:00 | 00:00:00 | 00:00:00 | |
| OE5MMP-10 | 2026-09-04 12:34:30 | 49.23864 | 13.03423 | 87° | 15km/h | 32547m | 5.9m/s | -38.5°C | 2.0% | 8.5hPa | 2.7V | 00:00:00 | 02:31:51 | 00:00:00 | |
| PETON7-10 | 2026-09-04 12:34:27 | 49.23855 | 13.03399 | 40° | 13km/h | 32530m | 5.3m/s | -38.5°C | 2.0% | 8.5hPa | 2.7V | 03:33:00 | 00:00:00 | 00:00:00 | |
| DL1XH-west | 2026-09-04 12:34:08 | 49.23842 | 13.03345 | 107° | 20km/h | 32416m | 6.6m/s | 0°C | 0% | 0hPa | 2.6V | 18:12:15 | 02:31:29 | 00:00:00 | |
| BAUMI2-15 | 2026-09-04 12:34:07 | 49.23843 | 13.03337 | 102° | 24km/h | 32410m | 6.0m/s | -39.4°C | 2.0% | 8.7hPa | 2.6V | 00:00:00 | 02:31:28 | 00:00:00 | |
| DO3MHA-11 | 2026-09-04 12:34:06 | 49.23844 | 13.03327 | 97° | 22km/h | 32404m | 5.5m/s | -39.4°C | 2.0% | 8.7hPa | 2.6V | 03:33:00 | 02:31:27 | 00:00:00 | |
| DL6DJ-15 | 2026-09-04 12:34:01 | 49.23844 | 13.03277 | 108° | 18km/h | 32369m | 6.8m/s | -39.3°C | 0.4% | 8.8hPa | 2.6V | 00:00:00 | 00:00:00 | 00:00:00 | |
| SONDE2-11 | 2026-09-04 12:33:55 | 49.23861 | 13.03246 | 137° | 16km/h | 32339m | 6.7m/s | 0°C | -1.0% | -1.0hPa | 2.6V | 00:00:00 | 00:00:00 | 00:00:00 | |
| EDDB2-12 | 2026-09-04 12:33:52 | 49.23865 | 13.03228 | 87° | 16km/h | 32316m | 4.8m/s | 0°C | -1.0% | -1.0hPa | 2.6V | 00:00:00 | 00:00:00 | 00:00:00 | |
| OE5MMP-10 | 2026-09-04 12:33:50 | 49.23865 | 13.03221 | 93° | 20km/h | 32311m | 6.1m/s | -39.9°C | 2.2% | 8.8hPa | 2.6V | 00:00:00 | 02:31:11 | 00:00:00 | |
| BAUMI2-15 | 2026-09-04 12:33:47 | 49.23870 | 13.03187 | 107° | 22km/h | 32292m | 4.6m/s | -39.6°C | 2.2% | 8.9hPa | 2.6V | 00:00:00 | 02:31:08 | 00:00:00 | |
| DO3MHA-11 | 2026-09-04 12:33:46 | 49.23872 | 13.03175 | 110° | 31km/h | 32288m | 4.1m/s | -39.5°C | 2.2% | 8.8hPa | 2.6V | 00:00:00 | 02:31:07 | 00:00:00 | |
| PETON7-10 | 2026-09-04 12:33:42 | 49.23878 | 13.03154 | 266° | 15km/h | 32263m | 6.0m/s | -39.7°C | 2.1% | 8.9hPa | 2.7V | 00:00:00 | 00:00:00 | 00:00:00 | |
| SP3BTT-10 | 2026-09-04 12:33:41 | 49.23878 | 13.03156 | 281° | 26km/h | 32258m | 4.8m/s | -39.5°C | 2.1% | 8.9hPa | 2.7V | 00:00:00 | 00:00:00 | 00:00:00 | |
| OE5MMP-10 | 2026-09-04 12:33:40 | 49.23878 | 13.03157 | 267° | 20km/h | 32253m | 4.7m/s | -39.2°C | 2.0% | 8.9hPa | 2.7V | 00:00:00 | 02:31:01 | 00:00:00 | |
| DL1JEZ-13 | 2026-09-04 12:33:38 | 49.23878 | 13.03156 | 130° | 5km/h | 32247m | 5.6m/s | -39.2°C | 0.4% | 8.9hPa | 2.7V | 00:00:00 | 00:00:00 | 00:00:00 | |
| BAUMI2-15 | 2026-09-04 12:33:37 | 49.23882 | 13.03147 | 121° | 31km/h | 32235m | 6.6m/s | -39.2°C | 2.0% | 8.9hPa | 2.7V | 00:00:00 | 02:30:58 | 00:00:00 | |
| DO3MHA-11 | 2026-09-04 12:33:33 | 49.23899 | 13.03105 | 124° | 20km/h | 32212m | 5.9m/s | -39.1°C | 1.9% | 8.9hPa | 2.6V | 00:00:00 | 02:30:54 | 00:00:00 | |
| BAUMI2-15 | 2026-09-04 12:33:32 | 49.23903 | 13.03097 | 122° | 16km/h | 32205m | 6.2m/s | -39.0°C | 1.9% | 9.0hPa | 2.6V | 03:34:00 | 02:30:53 | 00:00:00 | |
| DL6DJ-15 | 2026-09-04 12:33:30 | 49.23904 | 13.03084 | 60° | 9km/h | 32187m | 6.0m/s | -39.0°C | 0% | 9.0hPa | 2.6V | 00:00:00 | 00:00:00 | 00:00:00 | |
| PETON7-10 | 2026-09-04 12:33:27 | 49.23901 | 13.03075 | 70° | 29km/h | 32175m | 6.0m/s | -39.2°C | 1.9% | 9.0hPa | 2.6V | 03:34:00 | 00:00:00 | 00:00:00 | |
| BAUMI2-15 | 2026-09-04 12:33:25 | 49.23900 | 13.03062 | 99° | 31km/h | 32164m | 5.0m/s | -40.4°C | 2.1% | 9.0hPa | 2.6V | 00:00:00 | 02:30:46 | 00:00:00 | |
| SONDE2-11 | 2026-09-04 12:33:24 | 49.23905 | 13.03049 | 135° | 22km/h | 32152m | 6.8m/s | 0°C | -1.0% | -1.0hPa | 2.6V | 00:00:00 | 00:00:00 | 00:00:00 | |
| DO3MHA-11 | 2026-09-04 12:33:23 | 49.23905 | 13.03049 | 136° | 31km/h | 32152m | 6.8m/s | -40.6°C | 2.2% | 9.0hPa | 2.6V | 03:34:00 | 02:30:44 | 00:00:00 | |
| PG1ADW-2 | 2026-09-04 12:33:22 | 49.23910 | 13.03043 | 150° | 29km/h | 32145m | 6.4m/s | -40.7°C | 2.2% | 9.0hPa | 2.6V | 03:34:00 | 00:00:00 | 00:00:00 | |
| EDDB2-12 | 2026-09-04 12:33:21 | 49.23925 | 13.03032 | 151° | 37km/h | 32134m | 5.1m/s | 0°C | -1.0% | -1.0hPa | 2.6V | 00:00:00 | 00:00:00 | 00:00:00 | |
| OE5MMP-10 | 2026-09-04 12:33:20 | 49.23925 | 13.03032 | 152° | 29km/h | 32134m | 5.1m/s | -41.0°C | 2.3% | 9.0hPa | 2.6V | 00:00:00 | 02:30:41 | 00:00:00 | |
| BAUMI2-15 | 2026-09-04 12:33:18 | 49.23941 | 13.03014 | 135° | 29km/h | 32123m | 5.8m/s | -41.2°C | 2.3% | 9.1hPa | 2.6V | 00:00:00 | 02:30:39 | 00:00:00 | |
| BAUMI2-15 | 2026-09-04 12:33:13 | 49.23944 | 13.02969 | 20° | 20km/h | 32092m | 8.2m/s | -41.1°C | 2.2% | 9.1hPa | 2.6V | 00:00:00 | 02:30:34 | 00:00:00 | |
| DO3MHA-11 | 2026-09-04 12:33:11 | 49.23933 | 13.02968 | 358° | 27km/h | 32079m | 4.3m/s | -40.7°C | 2.2% | 9.1hPa | 2.6V | 00:00:00 | 02:30:32 | 00:00:00 | |
| OE5MMP-10 | 2026-09-04 12:33:10 | 49.23928 | 13.02967 | 9° | 27km/h | 32075m | 4.2m/s | -40.5°C | 2.1% | 9.1hPa | 2.7V | 00:00:00 | 02:30:31 | 00:00:00 | |
| BAUMI2-15 | 2026-09-04 12:33:08 | 49.23924 | 13.02960 | 99° | 31km/h | 32064m | 6.0m/s | -40.0°C | 2.0% | 9.1hPa | 2.7V | 03:34:00 | 02:30:29 | 00:00:00 | |
| OE5WHR-10 | 2026-09-04 12:33:05 | 49.23938 | 13.02934 | 140° | 35km/h | 32043m | 7.4m/s | -40.9°C | 2.2% | 9.2hPa | 2.7V | 00:00:00 | 02:30:26 | 00:00:00 | |
| BAUMI2-15 | 2026-09-04 12:33:03 | 49.23953 | 13.02915 | 139° | 27km/h | 32031m | 4.3m/s | -40.7°C | 2.2% | 9.2hPa | 2.7V | 00:00:00 | 02:30:24 | 00:00:00 | |
| DL6DJ-15 | 2026-09-04 12:32:59 | 49.23955 | 13.02872 | 44° | 29km/h | 32001m | 6.2m/s | -41.6°C | 0.5% | 9.3hPa | 2.7V | 00:00:00 | 00:00:00 | 00:00:00 | |
| BAUMI2-15 | 2026-09-04 12:32:58 | 49.23955 | 13.02872 | 45° | 22km/h | 32001m | 6.2m/s | -41.5°C | 2.4% | 9.2hPa | 2.7V | 00:00:00 | 02:30:19 | 00:00:00 | |
| PETON7-10 | 2026-09-04 12:32:56 | 49.23943 | 13.02859 | 31° | 26km/h | 31990m | 4.8m/s | -41.1°C | 2.3% | 9.3hPa | 2.7V | 00:00:00 | 00:00:00 | 00:00:00 | |
| BAUMI2-15 | 2026-09-04 12:32:53 | 49.23936 | 13.02853 | 175° | 18km/h | 31972m | 6.6m/s | -40.8°C | 2.3% | 9.3hPa | 2.6V | 00:00:00 | 02:30:14 | 00:00:00 | |
| DO3MHA-11 | 2026-09-04 12:32:51 | 49.23943 | 13.02849 | 155° | 33km/h | 31960m | 5.2m/s | -41.2°C | 2.4% | 9.3hPa | 2.6V | 00:00:00 | 02:30:12 | 00:00:00 | |
| OE5MMP-10 | 2026-09-04 12:32:50 | 49.23948 | 13.02843 | 139° | 31km/h | 31955m | 5.9m/s | -40.9°C | 2.3% | 9.3hPa | 2.6V | 03:35:00 | 02:30:11 | 00:00:00 | |
| BAUMI2-15 | 2026-09-04 12:32:48 | 49.23958 | 13.02821 | 110° | 38km/h | 31941m | 6.6m/s | -40.7°C | 2.3% | 9.3hPa | 2.6V | 03:35:00 | 02:30:09 | 00:00:00 | |
| BAUMI2-15 | 2026-09-04 12:32:43 | 49.23954 | 13.02752 | 55° | 16km/h | 31911m | 6.8m/s | -42.4°C | 2.7% | 9.4hPa | 2.7V | 00:00:00 | 02:30:04 | 00:00:00 | |
| PG1ADW-2 | 2026-09-04 12:32:42 | 49.23951 | 13.02747 | 37° | 20km/h | 31904m | 6.2m/s | -42.4°C | 2.6% | 9.4hPa | 2.7V | 00:00:00 | 02:30:03 | 00:00:00 | |
| PETON7-10 | 2026-09-04 12:32:41 | 49.23948 | 13.02744 | 22° | 27km/h | 31899m | 5.5m/s | -42.3°C | 2.7% | 9.4hPa | 2.6V | 00:00:00 | 00:00:00 | 00:00:00 | |
| OE5MMP-10 | 2026-09-04 12:32:40 | 49.23946 | 13.02742 | 27° | 27km/h | 31893m | 5.4m/s | -42.2°C | 2.6% | 9.4hPa | 2.6V | 00:00:00 | 02:30:01 | 00:00:00 | |
| BAUMI2-15 | 2026-09-04 12:32:38 | 49.23943 | 13.02736 | 82° | 31km/h | 31882m | 5.8m/s | -42.1°C | 2.5% | 9.4hPa | 2.6V | 00:00:00 | 02:29:59 | 00:00:00 | |
| BAUMI2-15 | 2026-09-04 12:32:33 | 49.23953 | 13.02678 | 115° | 35km/h | 31850m | 6.8m/s | -42.3°C | 2.7% | 9.4hPa | 2.6V | 00:00:00 | 02:29:54 | 00:00:00 | |
| DO3MHA-11 | 2026-09-04 12:32:31 | 49.23960 | 13.02651 | 109° | 27km/h | 31838m | 5.1m/s | -41.6°C | 2.5% | 9.4hPa | 2.7V | 00:00:00 | 02:29:52 | 00:00:00 | |
| OE5MMP-10 | 2026-09-04 12:32:30 | 49.23963 | 13.02638 | 100° | 22km/h | 31833m | 5.6m/s | -41.5°C | 2.4% | 9.5hPa | 2.7V | 00:00:00 | 02:29:51 | 00:00:00 | |
| DL6DJ-15 | 2026-09-04 12:32:28 | 49.23961 | 13.02602 | 74° | 27km/h | 31814m | 5.5m/s | -42.4°C | 0.5% | 9.6hPa | 2.6V | 00:00:00 | 00:00:00 | 00:00:00 | |
| BAUMI2-15 | 2026-09-04 12:32:27 | 49.23961 | 13.02601 | 75° | 29km/h | 31814m | 5.4m/s | -42.4°C | 2.6% | 9.5hPa | 2.6V | 03:35:00 | 02:29:48 | 00:00:00 | |
| PETON7-10 | 2026-09-04 12:32:26 | 49.23959 | 13.02592 | 76° | 20km/h | 31809m | 5.2m/s | -42.3°C | 2.6% | 9.5hPa | 2.6V | 03:35:00 | 02:29:47 | 00:00:00 | |
| BAUMI2-15 | 2026-09-04 12:32:22 | 49.23963 | 13.02570 | 150° | 18km/h | 31783m | 5.5m/s | -41.8°C | 2.5% | 9.5hPa | 2.6V | 00:00:00 | 02:29:43 | 00:00:00 | |
| OE5MMP-10 | 2026-09-04 12:32:20 | 49.23970 | 13.02562 | 126° | 24km/h | 31773m | 5.9m/s | -42.3°C | 2.7% | 9.5hPa | 2.6V | 00:00:00 | 02:29:41 | 00:00:00 | |
| DO3MHA-11 | 2026-09-04 12:32:18 | 49.23972 | 13.02547 | 86° | 29km/h | 31759m | 6.6m/s | -41.6°C | 2.5% | 9.6hPa | 2.6V | 00:00:00 | 02:29:39 | 00:00:00 | |
| BAUMI2-15 | 2026-09-04 12:32:17 | 49.23971 | 13.02537 | 77° | 27km/h | 31753m | 5.8m/s | -41.1°C | 2.4% | 9.6hPa | 2.6V | 00:00:00 | 02:29:38 | 00:00:00 | |
| DL1JEZ-13 | 2026-09-04 12:32:16 | 49.23971 | 13.02537 | 78° | 31km/h | 31753m | 5.8m/s | -41.2°C | 0.5% | 9.6hPa | 2.6V | 00:00:00 | 00:00:00 | 00:00:00 | |
| DM0DOS-11 | 2026-09-04 12:32:12 | 49.23979 | 13.02460 | 91° | 18km/h | 31692m | 6.3m/s | -41.5°C | 2.5% | 9.7hPa | 2.6V | 03:35:48 | 02:29:28 | 00:00:00 | |
| PETON7-10 | 2026-09-04 12:32:11 | 49.23971 | 13.02479 | 133° | 16km/h | 31717m | 5.6m/s | -41.7°C | 2.5% | 9.6hPa | 2.6V | 00:00:00 | 00:00:00 | 00:00:00 | |
| OE5MMP-10 | 2026-09-04 12:32:10 | 49.23973 | 13.02475 | 137° | 18km/h | 31711m | 5.4m/s | -41.5°C | 2.5% | 9.6hPa | 2.6V | 03:35:00 | 02:29:31 | 00:00:00 | |
| DO3MHA-11 | 2026-09-04 12:32:07 | 49.23979 | 13.02460 | 92° | 16km/h | 31692m | 6.3m/s | -41.4°C | 2.5% | 9.7hPa | 2.6V | 00:00:00 | 02:29:28 | 00:00:00 | |
| DL6DJ-15 | 2026-09-04 12:31:57 | 49.23975 | 13.02389 | 47° | 16km/h | 31624m | 5.4m/s | -41.4°C | 0.5% | 9.8hPa | 2.7V | 00:00:00 | 00:00:00 | 00:00:00 | |
| PETON7-10 | 2026-09-04 12:31:56 | 49.23975 | 13.02389 | 48° | 24km/h | 31624m | 5.3m/s | -41.4°C | 2.4% | 9.8hPa | 2.7V | 00:00:00 | 00:00:00 | 00:00:00 | |
| OE5MMP-10 | 2026-09-04 12:31:50 | 49.23975 | 13.02331 | 98° | 22km/h | 31586m | 6.7m/s | -42.2°C | 2.6% | 9.8hPa | 2.7V | 00:00:00 | 02:29:11 | 00:00:00 | |
| DO3MHA-11 | 2026-09-04 12:31:47 | 49.23975 | 13.02291 | 83° | 20km/h | 31568m | 5.4m/s | -41.6°C | 2.5% | 9.9hPa | 2.7V | 00:00:00 | 02:29:08 | 00:00:00 | |
| PETON7-10 | 2026-09-04 12:31:41 | 49.23971 | 13.02254 | 62° | 29km/h | 31530m | 6.4m/s | -42.2°C | 2.7% | 9.9hPa | 2.7V | 00:00:00 | 02:29:02 | 00:00:00 | |
| OE5MMP-10 | 2026-09-04 12:31:40 | 49.23969 | 13.02248 | 60° | 33km/h | 31523m | 6.5m/s | -42.1°C | 2.6% | 9.9hPa | 2.7V | 00:00:00 | 02:29:01 | 00:00:00 | |
| DO3MHA-11 | 2026-09-04 12:31:37 | 49.23961 | 13.02215 | 81° | 33km/h | 31505m | 6.0m/s | -43.1°C | 2.9% | 9.9hPa | 2.7V | 00:00:00 | 02:28:58 | 00:00:00 | |
| DF7PN | 2026-09-04 12:31:36 | 49.23966 | 13.02158 | 106° | 33km/h | 31479m | 4.7m/s | 0°C | -1.0% | -1.0hPa | 2.7V | 00:00:00 | 00:00:00 | 00:00:00 | |
| OE5MMP-10 | 2026-09-04 12:31:30 | 49.23967 | 13.02125 | 65° | 29km/h | 31461m | 7.4m/s | -42.4°C | 2.9% | 10.0hPa | 2.7V | 03:36:00 | 02:28:51 | 00:00:00 | |
| DO3MHA-11 | 2026-09-04 12:31:27 | 49.23952 | 13.02101 | 38° | 29km/h | 31442m | 6.0m/s | -40.8°C | 2.5% | 10.1hPa | 2.6V | 00:00:00 | 02:28:48 | 00:00:00 | |
| DL6DJ-15 | 2026-09-04 12:31:26 | 49.23942 | 13.02087 | 54° | 24km/h | 31429m | 6.1m/s | -41.3°C | 0.5% | 10.1hPa | 2.6V | 00:00:00 | 00:00:00 | 00:00:00 | |
| OE5MMP-10 | 2026-09-04 12:31:20 | 49.23932 | 13.02031 | 79° | 22km/h | 31398m | 5.3m/s | -42.5°C | 2.8% | 10.1hPa | 2.6V | 00:00:00 | 02:28:41 | 00:00:00 | |
| DO3MHA-11 | 2026-09-04 12:31:17 | 49.23929 | 13.02001 | 95° | 22km/h | 31381m | 7.4m/s | -43.0°C | 2.9% | 10.1hPa | 2.6V | 03:36:00 | 02:28:38 | 00:00:00 | |
| DM0DOS-11 | 2026-09-04 12:31:16 | 49.23930 | 13.01973 | 66° | 24km/h | 31349m | 7.5m/s | -42.9°C | 2.9% | 10.2hPa | 2.6V | 03:36:43 | 02:28:33 | 00:00:00 | |
| HSKMA3-T | 2026-09-04 12:30:56 | 49.23884 | 13.01840 | 64° | 20km/h | 31246m | 5.8m/s | 0°C | 0% | 0hPa | 2.7V | 18:12:15 | 02:28:17 | 00:00:00 | |
| HSKMA3-T | 2026-09-04 12:30:45 | 49.23832 | 13.01748 | 50° | 26km/h | 31178m | 6.1m/s | 0°C | 0% | 0hPa | 2.7V | 18:12:15 | 02:28:06 | 00:00:00 | |
| HSKMA3-T | 2026-09-04 12:30:32 | 49.23759 | 13.01640 | 42° | 33km/h | 31098m | 5.7m/s | 0°C | 0% | 0hPa | 2.6V | 18:12:15 | 02:27:53 | 00:00:00 | |
| OE5MMP-10 | 2026-09-04 12:30:30 | 49.23748 | 13.01626 | 37° | 29km/h | 31086m | 6.6m/s | -41.4°C | 2.5% | 10.6hPa | 2.6V | 00:00:00 | 02:27:51 | 00:00:00 | |
| DM0DOS-11 | 2026-09-04 12:30:28 | 49.23735 | 13.01610 | 42° | 26km/h | 31067m | 6.9m/s | -41.4°C | 2.4% | 10.7hPa | 2.7V | 03:37:28 | 02:27:48 | 00:00:00 | |
| DO3MHA-11 | 2026-09-04 12:30:27 | 49.23735 | 13.01610 | 43° | 31km/h | 31068m | 6.9m/s | -41.4°C | 2.4% | 10.6hPa | 2.7V | 00:00:00 | 02:27:48 | 00:00:00 | |
| PETON7-10 | 2026-09-04 12:30:26 | 49.23730 | 13.01602 | 46° | 26km/h | 31061m | 6.7m/s | -42.1°C | 2.6% | 10.7hPa | 2.7V | 03:37:00 | 00:00:00 | 00:00:00 | |
| EDDB2-11 | 2026-09-04 12:30:24 | 49.23717 | 13.01583 | 44° | 35km/h | 31049m | 5.2m/s | 0°C | -1.0% | -1.0hPa | 2.7V | 00:00:00 | 00:00:00 | 00:00:00 | |
| DL6DJ-15 | 2026-09-04 12:30:23 | 49.23711 | 13.01574 | 42° | 33km/h | 31043m | 6.6m/s | -42.5°C | 0.5% | 10.7hPa | 2.7V | 00:00:00 | 00:00:00 | 00:00:00 | |
| OE5MMP-10 | 2026-09-04 12:30:20 | 49.23693 | 13.01553 | 33° | 22km/h | 31024m | 5.5m/s | -41.8°C | 2.5% | 10.7hPa | 2.7V | 00:00:00 | 02:27:41 | 00:00:00 | |
| SONDE2-11 | 2026-09-04 12:30:18 | 49.23674 | 13.01534 | 36° | 31km/h | 31005m | 5.6m/s | -40.9°C | -1.0% | 10.8hPa | 2.7V | 00:00:00 | 00:00:00 | 00:00:00 | |
| DO3MHA-11 | 2026-09-04 12:30:16 | 49.23668 | 13.01527 | 39° | 20km/h | 31000m | 4.9m/s | -41.3°C | 2.4% | 10.8hPa | 2.7V | 00:00:00 | 02:27:37 | 00:00:00 | |
| PG1ADW-2 | 2026-09-04 12:30:12 | 49.23653 | 13.01507 | 52° | 11km/h | 30970m | 5.0m/s | -42.4°C | 2.6% | 10.8hPa | 2.7V | 00:00:00 | 00:00:00 | 00:00:00 | |
| PETON7-10 | 2026-09-04 12:30:11 | 49.23653 | 13.01507 | 52° | 16km/h | 30970m | 5.0m/s | -42.4°C | 2.6% | 10.8hPa | 2.7V | 00:00:00 | 02:27:32 | 00:00:00 | |
| OE5MMP-10 | 2026-09-04 12:30:10 | 49.23650 | 13.01503 | 52° | 20km/h | 30964m | 6.7m/s | -42.6°C | 2.6% | 10.8hPa | 2.7V | 03:37:00 | 02:27:31 | 00:00:00 | |
| DM0DOS-11 | 2026-09-04 12:30:08 | 49.23634 | 13.01474 | 46° | 24km/h | 30939m | 6.8m/s | -42.2°C | 2.6% | 10.9hPa | 2.7V | 03:37:49 | 02:27:27 | 00:00:00 | |
| DO3MHA-11 | 2026-09-04 12:30:06 | 49.23634 | 13.01474 | 47° | 15km/h | 30939m | 6.8m/s | -42.1°C | 2.6% | 10.8hPa | 2.7V | 00:00:00 | 02:27:27 | 00:00:00 | |
| BAUMI2-15 | 2026-09-04 12:30:05 | 49.23630 | 13.01468 | 43° | 16km/h | 30932m | 6.6m/s | -41.8°C | 2.6% | 10.9hPa | 2.6V | 03:37:00 | 02:27:26 | 00:00:00 | |
| OE5MMP-10 | 2026-09-04 12:30:00 | 49.23613 | 13.01451 | 26° | 9km/h | 30902m | 5.4m/s | -42.4°C | 2.7% | 10.9hPa | 2.6V | 00:00:00 | 02:27:21 | 00:00:00 | |
| DM0DOS-11 | 2026-09-04 12:29:56 | 49.23606 | 13.01456 | 269° | 7km/h | 30872m | 4.7m/s | -41.3°C | 2.4% | 11hPa | 2.6V | 03:38:00 | 02:27:16 | 00:00:00 | |
| DL6DJ-15 | 2026-09-04 12:29:52 | 49.23603 | 13.01456 | 41° | 13km/h | 30855m | 7.1m/s | -41.2°C | 0.5% | 11.0hPa | 2.6V | 00:00:00 | 00:00:00 | 00:00:00 | |
| DM0DOS-11 | 2026-09-04 12:29:50 | 49.23574 | 13.01426 | 53° | 5km/h | 30807m | 6.6m/s | -42.5°C | 2.7% | 11.1hPa | 2.6V | 03:38:11 | 02:27:05 | 00:00:00 | |
| OE5MMP-10 | 2026-09-04 12:29:50 | 49.23595 | 13.01445 | 44° | 15km/h | 30842m | 5.4m/s | -41.4°C | 2.4% | 11.0hPa | 2.7V | 00:00:00 | 02:27:11 | 00:00:00 | |
| OE5WHR-10 | 2026-09-04 12:29:48 | 49.23586 | 13.01433 | 32° | 13km/h | 30831m | 6.2m/s | -42.1°C | 2.5% | 11.0hPa | 2.7V | 00:00:00 | 02:27:09 | 00:00:00 | |
| DO3MHA-11 | 2026-09-04 12:29:46 | 49.23578 | 13.01428 | 15° | 7km/h | 30819m | 5.4m/s | -42.1°C | 2.6% | 11.1hPa | 2.7V | 00:00:00 | 02:27:07 | 00:00:00 | |
| BAUMI2-15 | 2026-09-04 12:29:45 | 49.23575 | 13.01427 | 20° | 7km/h | 30813m | 5.2m/s | -42.1°C | 2.5% | 11.0hPa | 2.7V | 03:38:00 | 02:27:06 | 00:00:00 | |
| EDDB2-12 | 2026-09-04 12:29:43 | 49.23574 | 13.01420 | 113° | 9km/h | 30795m | 5.4m/s | -43.3°C | -1.0% | 11.1hPa | 2.7V | 00:00:00 | 00:00:00 | 00:00:00 | |
| PETON7-10 | 2026-09-04 12:29:41 | 49.23575 | 13.01417 | 128° | 13km/h | 30790m | 5.0m/s | -43.2°C | 2.8% | 11.1hPa | 2.7V | 00:00:00 | 00:00:00 | 00:00:00 | |
| OE5MMP-10 | 2026-09-04 12:29:40 | 49.23577 | 13.01414 | 142° | 16km/h | 30784m | 6.3m/s | -42.9°C | 2.8% | 11.1hPa | 2.7V | 00:00:00 | 02:27:01 | 00:00:00 | |
| DO3MHA-11 | 2026-09-04 12:29:36 | 49.23576 | 13.01408 | 34° | 20km/h | 30761m | 6.7m/s | -41.2°C | 2.2% | 11.1hPa | 2.7V | 00:00:00 | 02:26:57 | 00:00:00 | |
| OE5MMP-10 | 2026-09-04 12:29:30 | 49.23547 | 13.01387 | 351° | 13km/h | 30726m | 6.5m/s | -43.4°C | 2.6% | 11.2hPa | 2.7V | 03:38:00 | 02:26:51 | 00:00:00 | |
| DL1JEZ-13 | 2026-09-04 12:29:28 | 49.23545 | 13.01389 | 308° | 7km/h | 30720m | 5.7m/s | -43.7°C | 0.6% | 11.3hPa | 2.6V | 00:00:00 | 00:00:00 | 00:00:00 | |
| PG1ADW-2 | 2026-09-04 12:29:27 | 49.23545 | 13.01392 | 200° | 15km/h | 30710m | 5.5m/s | -43.7°C | 2.8% | 11.2hPa | 2.6V | 03:38:00 | 00:00:00 | 00:00:00 | |
| OE5WHR-10 | 2026-09-04 12:29:26 | 49.23546 | 13.01392 | 131° | 20km/h | 30704m | 6.1m/s | -43.8°C | 2.8% | 11.2hPa | 2.7V | 00:00:00 | 00:00:00 | 00:00:00 | |
| PETON7-10 | 2026-09-04 12:29:25 | 49.23547 | 13.01388 | 101° | 13km/h | 30697m | 6.2m/s | -43.9°C | 2.8% | 11.3hPa | 2.7V | 03:38:00 | 02:26:46 | 00:00:00 | |
| DM0DOS-11 | 2026-09-04 12:29:23 | 49.23531 | 13.01350 | 23° | 22km/h | 30661m | 5.4m/s | -43.9°C | 2.9% | 11.4hPa | 2.7V | 03:38:36 | 02:26:40 | 00:00:00 | |
| DL6DJ-15 | 2026-09-04 12:29:21 | 49.23540 | 13.01360 | 48° | 22km/h | 30674m | 6.7m/s | -44.0°C | 0.6% | 11.3hPa | 2.6V | 00:00:00 | 00:00:00 | 00:00:00 | |
| OE5MMP-10 | 2026-09-04 12:29:20 | 49.23536 | 13.01354 | 35° | 20km/h | 30667m | 6.3m/s | -43.9°C | 2.9% | 11.3hPa | 2.6V | 00:00:00 | 02:26:41 | 00:00:00 | |
| BAUMI2-15 | 2026-09-04 12:29:15 | 49.23508 | 13.01335 | 29° | 15km/h | 30639m | 5.0m/s | -42.6°C | 2.7% | 11.4hPa | 2.6V | 00:00:00 | 02:26:36 | 00:00:00 | |
| DM0DOS-11 | 2026-09-04 12:29:12 | 49.23496 | 13.01306 | 91° | 20km/h | 30594m | 6.9m/s | -42.2°C | 2.6% | 11.5hPa | 2.6V | 03:38:48 | 02:26:28 | 00:00:00 | |
| EDDB2-12 | 2026-09-04 12:29:12 | 49.23495 | 13.01323 | 38° | 11km/h | 30624m | 6.9m/s | -43.5°C | -1.0% | 11.4hPa | 2.7V | 00:00:00 | 00:00:00 | 00:00:00 | |
| DO3MHA-11 | 2026-09-04 12:29:11 | 49.23494 | 13.01321 | 61° | 15km/h | 30617m | 6.5m/s | -43.4°C | 3.0% | 11.4hPa | 2.7V | 03:38:00 | 02:26:32 | 00:00:00 | |
| OE5MMP-10 | 2026-09-04 12:29:10 | 49.23494 | 13.01319 | 114° | 20km/h | 30611m | 5.3m/s | -43.3°C | 3.0% | 11.4hPa | 2.7V | 00:00:00 | 02:26:31 | 00:00:00 | |
| PETON7-10 | 2026-09-04 12:29:09 | 49.23495 | 13.01317 | 115° | 20km/h | 30606m | 4.9m/s | -42.9°C | 2.8% | 11.4hPa | 2.7V | 00:00:00 | 00:00:00 | 00:00:00 | |
| DL1JEZ-13 | 2026-09-04 12:29:06 | 49.23496 | 13.01306 | 92° | 20km/h | 30595m | 6.9m/s | -42.3°C | 0.6% | 11.5hPa | 2.6V | 00:00:00 | 00:00:00 | 00:00:00 | |
| OE5WHR-10 | 2026-09-04 12:29:05 | 49.23494 | 13.01286 | 76° | 22km/h | 30583m | 4.8m/s | -42.4°C | 2.7% | 11.5hPa | 2.6V | 03:38:00 | 00:00:00 | 00:00:00 | |
| DO3MHA-11 | 2026-09-04 12:29:01 | 49.23484 | 13.01253 | 46° | 18km/h | 30561m | 5.6m/s | -42.8°C | 2.8% | 11.5hPa | 2.6V | 00:00:00 | 02:26:22 | 00:00:00 | |
| OE5MMP-10 | 2026-09-04 12:29:00 | 49.23482 | 13.01249 | 36° | 18km/h | 30555m | 5.1m/s | -42.5°C | 2.6% | 11.5hPa | 2.6V | 00:00:00 | 02:26:21 | 00:00:00 | |
| DM0DOS-11 | 2026-09-04 12:28:56 | 49.23469 | 13.01233 | 48° | 22km/h | 30532m | 5.4m/s | -42.6°C | 2.7% | 11.6hPa | 2.6V | 03:38:59 | 02:26:17 | 00:00:00 | |
| BAUMI2-15 | 2026-09-04 12:28:55 | 49.23465 | 13.01226 | 50° | 22km/h | 30527m | 4.9m/s | -42.5°C | 2.6% | 11.5hPa | 2.7V | 00:00:00 | 02:26:16 | 00:00:00 | |
| PETON7-10 | 2026-09-04 12:28:54 | 49.23461 | 13.01219 | 49° | 20km/h | 30522m | 5.7m/s | -42.8°C | 2.6% | 11.6hPa | 2.7V | 00:00:00 | 00:00:00 | 00:00:00 | |
| DO3MHA-11 | 2026-09-04 12:28:51 | 49.23451 | 13.01203 | 44° | 24km/h | 30504m | 5.2m/s | -43.4°C | 2.9% | 11.6hPa | 2.7V | 00:00:00 | 02:26:12 | 00:00:00 | |
| DM0DOS-11 | 2026-09-04 12:28:50 | 49.23429 | 13.01151 | 64° | 26km/h | 30469m | 5.8m/s | -43.7°C | 3% | 11.7hPa | 2.7V | 03:39:10 | 02:26:06 | 00:00:00 | |
| OE5MMP-10 | 2026-09-04 12:28:50 | 49.23447 | 13.01197 | 49° | 22km/h | 30499m | 5.2m/s | -43.4°C | 2.9% | 11.6hPa | 2.7V | 03:39:00 | 02:26:11 | 00:00:00 | |
| BAUMI2-15 | 2026-09-04 12:28:45 | 49.23429 | 13.01151 | 65° | 18km/h | 30469m | 5.8m/s | -43.7°C | 3.0% | 11.7hPa | 2.7V | 03:39:00 | 02:26:06 | 00:00:00 | |
| OE5WHR-10 | 2026-09-04 12:28:44 | 49.23426 | 13.01142 | 64° | 29km/h | 30463m | 6.8m/s | -43.7°C | 3.0% | 11.7hPa | 2.7V | 00:00:00 | 02:26:05 | 00:00:00 | |
| DO3MHA-11 | 2026-09-04 12:28:41 | 49.23421 | 13.01128 | 54° | 31km/h | 30446m | 4.5m/s | -43.6°C | 2.9% | 11.7hPa | 2.7V | 00:00:00 | 02:26:02 | 00:00:00 | |
| OE5MMP-10 | 2026-09-04 12:28:40 | 49.23418 | 13.01123 | 55° | 33km/h | 30441m | 4.8m/s | -43.5°C | 2.8% | 11.7hPa | 2.7V | 00:00:00 | 02:26:01 | 00:00:00 | |
| PETON7-10 | 2026-09-04 12:28:39 | 49.23415 | 13.01115 | 57° | 33km/h | 30435m | 6.8m/s | -43.4°C | 2.8% | 11.7hPa | 2.7V | 00:00:00 | 02:26:00 | 00:00:00 | |
| BAUMI2-15 | 2026-09-04 12:28:35 | 49.23395 | 13.01066 | 59° | 31km/h | 30412m | 5.9m/s | -42.8°C | 2.7% | 11.8hPa | 2.7V | 00:00:00 | 02:25:56 | 00:00:00 | |
| DM0DOS-11 | 2026-09-04 12:28:33 | 49.23369 | 13.00996 | 65° | 33km/h | 30370m | 6.2m/s | -43.1°C | 2.8% | 11.9hPa | 2.7V | 03:39:27 | 02:25:49 | 00:00:00 | |
| DO3MHA-11 | 2026-09-04 12:28:31 | 49.23378 | 13.01024 | 62° | 29km/h | 30389m | 5.1m/s | -42.8°C | 2.8% | 11.8hPa | 2.6V | 03:39:00 | 02:25:52 | 00:00:00 | |
| OE5MMP-10 | 2026-09-04 12:28:30 | 49.23375 | 13.01016 | 64° | 29km/h | 30383m | 5.6m/s | -43.1°C | 2.8% | 11.8hPa | 2.6V | 00:00:00 | 02:25:51 | 00:00:00 | |
| PG1ADW-2 | 2026-09-04 12:28:25 | 49.23357 | 13.00962 | 57° | 29km/h | 30354m | 5.7m/s | -43.1°C | 2.8% | 11.9hPa | 2.6V | 00:00:00 | 02:25:46 | 00:00:00 | |
| PETON7-10 | 2026-09-04 12:28:24 | 49.23353 | 13.00953 | 52° | 26km/h | 30348m | 7.0m/s | -43.3°C | 2.9% | 11.9hPa | 2.6V | 03:39:00 | 00:00:00 | 00:00:00 | |
| OE5WHR-10 | 2026-09-04 12:28:23 | 49.23348 | 13.00945 | 45° | 27km/h | 30341m | 6.6m/s | -43.3°C | 2.8% | 11.9hPa | 2.6V | 00:00:00 | 00:00:00 | 00:00:00 | |
| DM0DOS-11 | 2026-09-04 12:28:22 | 49.23323 | 13.00906 | 50° | 35km/h | 30310m | 4.6m/s | -43.5°C | 2.9% | 11.9hPa | 2.6V | 03:39:37 | 02:25:39 | 00:00:00 | |
| DO3MHA-11 | 2026-09-04 12:28:21 | 49.23339 | 13.00932 | 42° | 27km/h | 30329m | 5.9m/s | -43.6°C | 2.8% | 11.9hPa | 2.7V | 00:00:00 | 02:25:42 | 00:00:00 | |
| OE5MMP-10 | 2026-09-04 12:28:20 | 49.23334 | 13.00925 | 45° | 26km/h | 30322m | 6.8m/s | -43.8°C | 2.9% | 11.9hPa | 2.7V | 00:00:00 | 02:25:41 | 00:00:00 | |
| DL6DJ-15 | 2026-09-04 12:28:19 | 49.23328 | 13.00916 | 47° | 33km/h | 30315m | 5.8m/s | -43.7°C | 0.6% | 11.9hPa | 2.7V | 00:00:00 | 00:00:00 | 00:00:00 | |
| BAUMI2-15 | 2026-09-04 12:28:15 | 49.23310 | 13.00878 | 63° | 20km/h | 30294m | 7.0m/s | -42.8°C | 2.7% | 12.0hPa | 2.7V | 00:00:00 | 02:25:36 | 00:00:00 | |
| SONDE2-11 | 2026-09-04 12:28:14 | 49.23302 | 13.00849 | 63° | 26km/h | 30270m | 6.9m/s | -43.7°C | -1.0% | 12.1hPa | 2.6V | 00:00:00 | 00:00:00 | 00:00:00 | |
| DM0DOS-11 | 2026-09-04 12:28:12 | 49.23288 | 13.00819 | 43° | 37km/h | 30251m | 5.7m/s | -43.4°C | 2.9% | 12.1hPa | 2.6V | 03:39:47 | 02:25:29 | 00:00:00 | |
| DO3MHA-11 | 2026-09-04 12:28:11 | 49.23302 | 13.00849 | 64° | 31km/h | 30270m | 6.8m/s | -43.7°C | 3.0% | 12.0hPa | 2.6V | 00:00:00 | 02:25:32 | 00:00:00 | |
| OE5MMP-10 | 2026-09-04 12:28:10 | 49.23299 | 13.00839 | 57° | 33km/h | 30264m | 6.4m/s | -43.6°C | 3.0% | 12.0hPa | 2.6V | 03:39:00 | 02:25:31 | 00:00:00 | |
| PETON7-10 | 2026-09-04 12:28:09 | 49.23294 | 13.00829 | 50° | 29km/h | 30257m | 5.5m/s | -43.5°C | 3.0% | 12.0hPa | 2.6V | 00:00:00 | 00:00:00 | 00:00:00 | |
| PG1ADW-2 | 2026-09-04 12:28:05 | 49.23267 | 13.00798 | 22° | 29km/h | 30232m | 5.9m/s | -42.8°C | 2.9% | 12.1hPa | 2.6V | 00:00:00 | 00:00:00 | 00:00:00 | |
| OE5WHR-10 | 2026-09-04 12:28:02 | 49.23246 | 13.00787 | 24° | 29km/h | 30215m | 6.5m/s | -41.7°C | 2.6% | 12.1hPa | 2.7V | 00:00:00 | 00:00:00 | 00:00:00 | |
| DO3MHA-11 | 2026-09-04 12:28:01 | 49.23239 | 13.00781 | 30° | 27km/h | 30208m | 6.3m/s | -41.2°C | 2.5% | 12.1hPa | 2.7V | 00:00:00 | 02:25:22 | 00:00:00 | |
| DM0DOS-11 | 2026-09-04 12:27:59 | 49.23219 | 13.00761 | 36° | 27km/h | 30191m | 6.2m/s | -41.8°C | 2.6% | 12.2hPa | 2.6V | 03:39:57 | 02:25:19 | 00:00:00 | |
| PETON7-10 | 2026-09-04 12:27:54 | 49.23201 | 13.00742 | 35° | 31km/h | 30166m | 5.4m/s | -42.2°C | 2.8% | 12.2hPa | 2.6V | 00:00:00 | 02:25:15 | 00:00:00 | |
| DM0DOS-11 | 2026-09-04 12:27:53 | 49.23162 | 13.00703 | 23° | 29km/h | 30127m | 6.6m/s | -40.9°C | 2.4% | 12.3hPa | 2.6V | 03:40:07 | 02:25:09 | 00:00:00 | |
| DL6DJ-15 | 2026-09-04 12:27:48 | 49.23162 | 13.00703 | 23° | 29km/h | 30128m | 6.6m/s | -40.9°C | 0.5% | 12.3hPa | 2.7V | 00:00:00 | 00:00:00 | 00:00:00 | |
| PG1ADW-2 | 2026-09-04 12:27:45 | 49.23142 | 13.00691 | 24° | 33km/h | 30111m | 6.7m/s | -42.2°C | 2.7% | 12.3hPa | 2.7V | 03:40:00 | 00:00:00 | 00:00:00 | |
| DM0DOS-11 | 2026-09-04 12:27:42 | 49.23096 | 13.00646 | 27° | 22km/h | 30065m | 5.5m/s | -42.3°C | 2.6% | 12.4hPa | 2.7V | 03:40:17 | 02:24:59 | 00:00:00 | |
| HSKMA3-T | 2026-09-04 12:27:35 | 49.23080 | 13.00631 | 37° | 31km/h | 30049m | 6.9m/s | 0°C | 0% | 0hPa | 2.6V | 18:12:15 | 02:24:56 | 00:00:00 | |
| DO3MHA-11 | 2026-09-04 12:27:31 | 49.23048 | 13.00592 | 37° | 35km/h | 30024m | 6.0m/s | -43.0°C | 2.8% | 12.5hPa | 2.6V | 00:00:00 | 02:24:52 | 00:00:00 | |
| OE5MMP-10 | 2026-09-04 12:27:30 | 49.23040 | 13.00582 | 33° | 33km/h | 30018m | 6.7m/s | -42.9°C | 2.8% | 12.5hPa | 2.7V | 03:40:00 | 02:24:51 | 00:00:00 | |
| DM0DOS-11 | 2026-09-04 12:27:27 | 49.23006 | 13.00551 | 41° | 33km/h | 29987m | 6.8m/s | -42.4°C | 2.9% | 12.6hPa | 2.7V | 03:40:30 | 02:24:46 | 00:00:00 | |
| PG1ADW-2 | 2026-09-04 12:27:25 | 49.23006 | 13.00551 | 42° | 31km/h | 29987m | 6.7m/s | -42.4°C | 2.9% | 12.5hPa | 2.7V | 00:00:00 | 00:00:00 | 00:00:00 | |
| PETON7-10 | 2026-09-04 12:27:24 | 49.23000 | 13.00542 | 47° | 33km/h | 29981m | 5.9m/s | -42.0°C | 2.8% | 12.5hPa | 2.7V | 03:40:00 | 00:00:00 | 00:00:00 | |
| DO3MHA-11 | 2026-09-04 12:27:20 | 49.22976 | 13.00505 | 41° | 33km/h | 29957m | 6.1m/s | -40.4°C | 2.4% | 12.6hPa | 2.7V | 00:00:00 | 02:24:41 | 00:00:00 | |
| OE5WHR-10 | 2026-09-04 12:27:19 | 49.22970 | 13.00498 | 39° | 33km/h | 29951m | 5.2m/s | -40.6°C | 2.5% | 12.6hPa | 2.7V | 00:00:00 | 00:00:00 | 00:00:00 | |
| DM0DOS-11 | 2026-09-04 12:27:17 | 49.22937 | 13.00450 | 46° | 37km/h | 29921m | 5.3m/s | -42°C | 2.7% | 12.7hPa | 2.7V | 03:40:41 | 02:24:35 | 00:00:00 | |
| DL6DJ-15 | 2026-09-04 12:27:17 | 49.22958 | 13.00481 | 42° | 35km/h | 29939m | 7.2m/s | -41.0°C | 0.6% | 12.7hPa | 2.6V | 00:00:00 | 00:00:00 | 00:00:00 | |
| OE5MMP-10 | 2026-09-04 12:27:10 | 49.22918 | 13.00419 | 57° | 27km/h | 29897m | 5.7m/s | -42.8°C | 2.8% | 12.7hPa | 2.6V | 00:00:00 | 02:24:31 | 00:00:00 | |
| PETON7-10 | 2026-09-04 12:27:09 | 49.22915 | 13.00411 | 64° | 29km/h | 29890m | 7.1m/s | -42.8°C | 2.9% | 12.7hPa | 2.6V | 00:00:00 | 02:24:30 | 00:00:00 | |
| DM0DOS-11 | 2026-09-04 12:27:07 | 49.22900 | 13.00363 | 52° | 26km/h | 29859m | 6.8m/s | -42.6°C | 2.8% | 12.8hPa | 2.6V | 03:40:51 | 02:24:25 | 00:00:00 | |
| PG1ADW-2 | 2026-09-04 12:27:05 | 49.22904 | 13.00372 | 61° | 29km/h | 29866m | 6.8m/s | -42.6°C | 2.8% | 12.8hPa | 2.6V | 00:00:00 | 02:24:26 | 00:00:00 | |
| OE5MMP-10 | 2026-09-04 12:27:00 | 49.22878 | 13.00330 | 46° | 27km/h | 29835m | 7.0m/s | -42.5°C | 2.7% | 12.8hPa | 2.7V | 00:00:00 | 02:24:21 | 00:00:00 | |
| DK5PH-5 | 2026-09-04 12:26:58 | 49.22865 | 13.00307 | 52° | 24km/h | 29823m | 4.8m/s | -41.9°C | 2.6% | 12.8hPa | 2.6V | 00:00:00 | 02:24:19 | 00:00:00 | |
| OE5WHR-10 | 2026-09-04 12:26:57 | 49.22860 | 13.00296 | 54° | 22km/h | 29818m | 6.0m/s | -42.1°C | 2.7% | 12.9hPa | 2.6V | 00:00:00 | 00:00:00 | 00:00:00 | |
| PETON7-10 | 2026-09-04 12:26:54 | 49.22849 | 13.00273 | 60° | 24km/h | 29799m | 5.2m/s | -42.7°C | 2.8% | 12.9hPa | 2.6V | 00:00:00 | 00:00:00 | 00:00:00 | |
| DM0DOS-11 | 2026-09-04 12:26:52 | 49.22841 | 13.00254 | 53° | 26km/h | 29781m | 7m/s | -42.5°C | 2.8% | 13hPa | 2.6V | 03:41:04 | 02:24:12 | 00:00:00 | |
| OE5DRO-10 | 2026-09-04 12:26:51 | 49.22837 | 13.00245 | 50° | 24km/h | 29775m | 6.4m/s | -42.2°C | 2.7% | 12.9hPa | 2.6V | 00:00:00 | 00:00:00 | 00:00:00 | |
| OE5MMP-10 | 2026-09-04 12:26:50 | 49.22837 | 13.00245 | 50° | 26km/h | 29775m | 6.4m/s | -42.2°C | 2.7% | 12.9hPa | 2.6V | 03:41:00 | 02:24:11 | 00:00:00 | |
| PG1ADW-2 | 2026-09-04 12:26:46 | 49.22805 | 13.00207 | 24° | 20km/h | 29745m | 6.6m/s | -41.1°C | 2.3% | 13.0hPa | 2.6V | 00:00:00 | 00:00:00 | 00:00:00 | |
| DM0DOS-11 | 2026-09-04 12:26:43 | 49.22789 | 13.00199 | 25° | 16km/h | 29721m | 6.6m/s | -42.3°C | 2.7% | 13.1hPa | 2.6V | 03:41:14 | 02:24:02 | 00:00:00 | |
| SONDE2-11 | 2026-09-04 12:26:41 | 49.22786 | 13.00196 | 33° | 18km/h | 29715m | 6.1m/s | -42.1°C | -1.0% | -1.0hPa | 2.7V | 00:00:00 | 00:00:00 | 00:00:00 | |
| OE5MMP-10 | 2026-09-04 12:26:40 | 49.22786 | 13.00195 | 34° | 22km/h | 29715m | 6.1m/s | -42.1°C | 2.6% | 13.0hPa | 2.7V | 00:00:00 | 02:24:01 | 00:00:00 | |
| PETON7-10 | 2026-09-04 12:26:39 | 49.22781 | 13.00191 | 38° | 20km/h | 29709m | 5.1m/s | -42.2°C | 2.6% | 13.1hPa | 2.7V | 00:00:00 | 00:00:00 | 00:00:00 | |
| OE5WHR-10 | 2026-09-04 12:26:35 | 49.22767 | 13.00172 | 45° | 20km/h | 29685m | 5.2m/s | -41.8°C | 2.5% | 13.1hPa | 2.7V | 00:00:00 | 02:23:56 | 00:00:00 | |
| DM0DOS-11 | 2026-09-04 12:26:33 | 49.22748 | 13.00144 | 37° | 29km/h | 29661m | 4.8m/s | -42.9°C | 2.8% | 13.2hPa | 2.7V | 03:41:24 | 02:23:52 | 00:00:00 | |
| OE5MMP-10 | 2026-09-04 12:26:30 | 49.22742 | 13.00138 | 32° | 16km/h | 29657m | 5.3m/s | -42.7°C | 2.8% | 13.2hPa | 2.6V | 00:00:00 | 02:23:51 | 00:00:00 | |
| DK5PH-5 | 2026-09-04 12:26:27 | 49.22729 | 13.00132 | 357° | 20km/h | 29638m | 6.1m/s | -42.5°C | 2.7% | 13.2hPa | 2.7V | 03:41:00 | 02:23:48 | 00:00:00 | |
| PG1ADW-2 | 2026-09-04 12:26:25 | 49.22723 | 13.00132 | 19° | 20km/h | 29625m | 6.7m/s | -42.0°C | 2.5% | 13.3hPa | 2.7V | 03:41:00 | 00:00:00 | 00:00:00 | |
| PETON7-10 | 2026-09-04 12:26:24 | 49.22720 | 13.00129 | 41° | 20km/h | 29619m | 6.2m/s | -41.6°C | 2.4% | 13.3hPa | 2.7V | 03:41:00 | 02:23:45 | 00:00:00 | |
| DM0DOS-11 | 2026-09-04 12:26:23 | 49.22709 | 13.00107 | 49° | 16km/h | 29595m | 6.7m/s | -41.1°C | 2.2% | 13.3hPa | 2.7V | 03:41:35 | 02:23:41 | 00:00:00 | |
| OE5MMP-10 | 2026-09-04 12:26:20 | 49.22709 | 13.00107 | 50° | 20km/h | 29595m | 6.6m/s | -41.0°C | 2.2% | 13.3hPa | 2.6V | 00:00:00 | 02:23:41 | 00:00:00 | |
| DL6DJ-15 | 2026-09-04 12:26:15 | 49.22689 | 13.00086 | 31° | 24km/h | 29565m | 5.6m/s | -41.2°C | 0.5% | 13.4hPa | 2.6V | 00:00:00 | 00:00:00 | 00:00:00 | |
| OE5WHR-10 | 2026-09-04 12:26:14 | 49.22684 | 13.00081 | 26° | 20km/h | 29560m | 4.6m/s | -41.6°C | 2.3% | 13.4hPa | 2.6V | 03:41:00 | 00:00:00 | 00:00:00 | |
| DM0DOS-11 | 2026-09-04 12:26:12 | 49.22658 | 13.00081 | 346° | 18km/h | 29531m | 4.6m/s | -43°C | 2.6% | 13.5hPa | 2.6V | 03:41:46 | 02:23:30 | 00:00:00 | |
| BAUMI2-15 | 2026-09-04 12:26:12 | 49.22672 | 13.00076 | 4° | 20km/h | 29549m | 6.8m/s | -42.8°C | 2.5% | 13.4hPa | 2.6V | 00:00:00 | 02:23:33 | 00:00:00 | |
| OE5MMP-10 | 2026-09-04 12:26:10 | 49.22662 | 13.00079 | 341° | 20km/h | 29537m | 5.2m/s | -43.1°C | 2.7% | 13.4hPa | 2.6V | 03:41:00 | 02:23:31 | 00:00:00 | |
| PETON7-10 | 2026-09-04 12:26:09 | 49.22658 | 13.00081 | 347° | 20km/h | 29531m | 4.6m/s | -43.0°C | 2.6% | 13.5hPa | 2.6V | 00:00:00 | 00:00:00 | 00:00:00 | |
| BAUMI2-15 | 2026-09-04 12:26:07 | 49.22649 | 13.00080 | 24° | 22km/h | 29520m | 6.7m/s | -42.3°C | 2.5% | 13.5hPa | 2.6V | 03:41:00 | 02:23:28 | 00:00:00 | |
| OE5DRO-10 | 2026-09-04 12:26:06 | 49.22645 | 13.00076 | 39° | 18km/h | 29513m | 6.3m/s | -42.1°C | 2.5% | 13.5hPa | 2.6V | 00:00:00 | 00:00:00 | 00:00:00 | |
| PG1ADW-2 | 2026-09-04 12:26:05 | 49.22640 | 13.00070 | 45° | 20km/h | 29507m | 5.9m/s | -42.6°C | 2.5% | 13.5hPa | 2.6V | 00:00:00 | 00:00:00 | 00:00:00 | |
| DM0DOS-11 | 2026-09-04 12:26:02 | 49.22606 | 13.00034 | 28° | 22km/h | 29461m | 5.2m/s | -43.2°C | 2.7% | 13.6hPa | 2.7V | 03:41:58 | 02:23:18 | 00:00:00 | |
| BAUMI2-15 | 2026-09-04 12:26:02 | 49.22627 | 13.00051 | 35° | 18km/h | 29489m | 5.9m/s | -43.4°C | 2.7% | 13.5hPa | 2.7V | 00:00:00 | 02:23:23 | 00:00:00 | |
| OE5MMP-10 | 2026-09-04 12:26:00 | 49.22619 | 13.00045 | 25° | 18km/h | 29479m | 4.8m/s | -43.4°C | 2.7% | 13.5hPa | 2.6V | 00:00:00 | 02:23:21 | 00:00:00 | |
| BAUMI2-15 | 2026-09-04 12:25:57 | 49.22605 | 13.00034 | 29° | 18km/h | 29462m | 5.2m/s | -43.2°C | 2.7% | 13.6hPa | 2.7V | 00:00:00 | 02:23:18 | 00:00:00 | |
| PETON7-10 | 2026-09-04 12:25:54 | 49.22591 | 13.00026 | 7° | 18km/h | 29444m | 6.8m/s | -43.1°C | 2.7% | 13.6hPa | 2.7V | 00:00:00 | 00:00:00 | 00:00:00 | |
| OE5WHR-10 | 2026-09-04 12:25:53 | 49.22588 | 13.00026 | 6° | 16km/h | 29438m | 5.4m/s | -42.9°C | 2.6% | 13.6hPa | 2.7V | 00:00:00 | 00:00:00 | 00:00:00 | |
| BAUMI2-15 | 2026-09-04 12:25:52 | 49.22584 | 13.00025 | 22° | 16km/h | 29433m | 4.9m/s | -42.7°C | 2.6% | 13.6hPa | 2.7V | 00:00:00 | 02:23:13 | 00:00:00 | |
| DM0DOS-11 | 2026-09-04 12:25:51 | 49.22572 | 12.99988 | 54° | 18km/h | 29398m | 6.5m/s | -42.7°C | 2.6% | 13.8hPa | 2.7V | 03:42:09 | 02:23:07 | 00:00:00 | |
| OE5MMP-10 | 2026-09-04 12:25:50 | 49.22580 | 13.00018 | 64° | 20km/h | 29421m | 6.8m/s | -42.8°C | 2.7% | 13.6hPa | 2.6V | 00:00:00 | 02:23:11 | 00:00:00 | |
| BAUMI2-15 | 2026-09-04 12:25:47 | 49.22574 | 12.99995 | 67° | 18km/h | 29404m | 5.3m/s | -42.8°C | 2.6% | 13.7hPa | 2.6V | 03:42:00 | 02:23:08 | 00:00:00 | |
| PG1ADW-2 | 2026-09-04 12:25:45 | 49.22569 | 12.99983 | 35° | 18km/h | 29392m | 5.9m/s | -42.6°C | 2.6% | 13.7hPa | 2.6V | 00:00:00 | 02:23:06 | 00:00:00 | |
| DL6DJ-15 | 2026-09-04 12:25:44 | 49.22560 | 12.99978 | 20° | 18km/h | 29381m | 5.3m/s | -43.3°C | 0.6% | 13.8hPa | 2.6V | 00:00:00 | 00:00:00 | 00:00:00 | |
| BAUMI2-15 | 2026-09-04 12:25:42 | 49.22556 | 12.99974 | 27° | 18km/h | 29375m | 6.6m/s | -43.2°C | 2.7% | 13.7hPa | 2.6V | 00:00:00 | 02:23:03 | 00:00:00 | |
| DM0DOS-11 | 2026-09-04 12:25:41 | 49.22539 | 12.99950 | 76° | 5km/h | 29340m | 5.6m/s | -43.4°C | 2.7% | 13.9hPa | 2.6V | 03:42:19 | 02:22:57 | 00:00:00 | |
| OE5MMP-10 | 2026-09-04 12:25:40 | 49.22547 | 12.99965 | 43° | 15km/h | 29364m | 4.9m/s | -42.5°C | 2.5% | 13.8hPa | 2.7V | 00:00:00 | 02:23:01 | 00:00:00 | |
| SONDE2-11 | 2026-09-04 12:25:39 | 49.22540 | 12.99953 | 57° | 7km/h | 29347m | 6.8m/s | -42.9°C | -1.0% | -1.0hPa | 2.7V | 00:00:00 | 00:00:00 | 00:00:00 | |
| BAUMI2-15 | 2026-09-04 12:25:37 | 49.22540 | 12.99953 | 58° | 9km/h | 29347m | 6.8m/s | -42.9°C | 2.6% | 13.8hPa | 2.7V | 00:00:00 | 02:22:58 | 00:00:00 | |
| EDDB2-12 | 2026-09-04 12:25:35 | 49.22539 | 12.99945 | 90° | 9km/h | 29331m | 4.9m/s | -43.5°C | -1.0% | -1.0hPa | 2.7V | 00:00:00 | 00:00:00 | 00:00:00 | |
| BAUMI2-15 | 2026-09-04 12:25:32 | 49.22537 | 12.99932 | 69° | 27km/h | 29320m | 6.0m/s | -43.3°C | 2.7% | 13.9hPa | 2.7V | 00:00:00 | 02:22:53 | 00:00:00 | |
| OE5REO-15 | 2026-09-04 12:25:31 | 49.22537 | 12.99932 | 70° | 22km/h | 29320m | 6.1m/s | -43.3°C | 0.6% | 13.9hPa | 2.6V | 00:00:00 | 00:00:00 | 00:00:00 | |
| DM0DOS-11 | 2026-09-04 12:25:31 | 49.22511 | 12.99893 | 12° | 7km/h | 29288m | 5.5m/s | -43.4°C | 0% | 14hPa | 2.7V | 03:42:29 | 02:22:47 | 00:00:00 | |
| OE5MMP-10 | 2026-09-04 12:25:30 | 49.22530 | 12.99914 | 51° | 20km/h | 29309m | 4.6m/s | -43.5°C | 2.7% | 13.9hPa | 2.6V | 03:42:00 | 02:22:51 | 00:00:00 | |
| BAUMI2-15 | 2026-09-04 12:25:27 | 49.22514 | 12.99895 | 24° | 11km/h | 29294m | 5.5m/s | -43.4°C | 2.7% | 13.9hPa | 2.6V | 03:42:00 | 02:22:48 | 00:00:00 | |
| PG1ADW-2 | 2026-09-04 12:25:25 | 49.22510 | 12.99892 | 169° | 16km/h | 29283m | 5.1m/s | -43.7°C | 2.8% | 13.9hPa | 2.6V | 00:00:00 | 00:00:00 | 00:00:00 | |
| PETON7-10 | 2026-09-04 12:25:24 | 49.22512 | 12.99892 | 157° | 20km/h | 29278m | 5.1m/s | -43.8°C | 2.8% | 13.9hPa | 2.6V | 03:42:00 | 00:00:00 | 00:00:00 | |
| BAUMI2-15 | 2026-09-04 12:25:22 | 49.22518 | 12.99883 | 127° | 26km/h | 29267m | 5.4m/s | -43.8°C | 2.9% | 14.0hPa | 2.6V | 00:00:00 | 02:22:43 | 00:00:00 | |
| OE5MMP-10 | 2026-09-04 12:25:20 | 49.22522 | 12.99864 | 93° | 18km/h | 29257m | 4.9m/s | -43.5°C | 2.8% | 14.0hPa | 2.6V | 00:00:00 | 02:22:41 | 00:00:00 | |
| DM0DOS-11 | 2026-09-04 12:25:17 | 49.22510 | 12.99832 | 19° | 22km/h | 29234m | 5.5m/s | -43.6°C | 0% | 14.1hPa | 2.6V | 03:42:39 | 02:22:37 | 00:00:00 | |
| BAUMI2-15 | 2026-09-04 12:25:17 | 49.22515 | 12.99837 | 40° | 18km/h | 29240m | 5.8m/s | -43.2°C | 2.8% | 14.0hPa | 2.6V | 00:00:00 | 02:22:38 | 00:00:00 | |
| OE5REO-15 | 2026-09-04 12:25:15 | 49.22510 | 12.99832 | 21° | 22km/h | 29235m | 5.5m/s | -43.6°C | 0.7% | 14.1hPa | 2.6V | 03:43:00 | 00:00:00 | 00:00:00 | |
| EDDB2-11 | 2026-09-04 12:25:14 | 49.22496 | 12.99829 | 34° | 7km/h | 29213m | 5.9m/s | -43.2°C | 0.6% | 14.1hPa | 2.6V | 00:00:00 | 00:00:00 | 00:00:00 | |
| DL6DJ-15 | 2026-09-04 12:25:13 | 49.22496 | 12.99829 | 34° | 7km/h | 29213m | 5.9m/s | -43.2°C | 0.6% | 14.1hPa | 2.6V | 00:00:00 | 00:00:00 | 00:00:00 | |
| DO3MHA-11 | 2026-09-04 12:25:12 | 49.22495 | 12.99829 | 35° | 13km/h | 29213m | 5.9m/s | -43.2°C | 2.7% | 14.1hPa | 2.6V | 00:00:00 | 02:22:33 | 00:00:00 | |
| OE5WHR-10 | 2026-09-04 12:25:11 | 49.22494 | 12.99826 | 68° | 13km/h | 29207m | 6.0m/s | -43.1°C | 2.7% | 14.1hPa | 2.7V | 00:00:00 | 00:00:00 | 00:00:00 | |
| OE5MMP-10 | 2026-09-04 12:25:10 | 49.22493 | 12.99821 | 82° | 15km/h | 29201m | 5.6m/s | -43.4°C | 2.8% | 14.1hPa | 2.7V | 00:00:00 | 02:22:31 | 00:00:00 | |
| PETON7-10 | 2026-09-04 12:25:09 | 49.22493 | 12.99816 | 85° | 13km/h | 29196m | 5.2m/s | -43.8°C | 2.9% | 14.1hPa | 2.7V | 00:00:00 | 00:00:00 | 00:00:00 | |
| DM0DOS-11 | 2026-09-04 12:25:07 | 49.22490 | 12.99802 | 44° | 11km/h | 29178m | 5.8m/s | -43.6°C | 0% | 14.2hPa | 2.7V | 03:42:49 | 02:22:27 | 00:00:00 | |
| BAUMI2-15 | 2026-09-04 12:25:07 | 49.22492 | 12.99806 | 70° | 13km/h | 29184m | 6.4m/s | -43.6°C | 2.8% | 14.2hPa | 2.7V | 03:42:00 | 02:22:28 | 00:00:00 | |
| OE5DRO-10 | 2026-09-04 12:25:06 | 49.22490 | 12.99802 | 45° | 13km/h | 29178m | 5.8m/s | -43.6°C | 2.8% | 14.2hPa | 2.7V | 00:00:00 | 00:00:00 | 00:00:00 | |
| PG1ADW-2 | 2026-09-04 12:25:05 | 49.22488 | 12.99799 | 32° | 15km/h | 29173m | 4.9m/s | -43.5°C | 2.8% | 14.2hPa | 2.7V | 03:42:00 | 00:00:00 | 00:00:00 | |
| EDDB2-12 | 2026-09-04 12:25:04 | 49.22473 | 12.99783 | 45° | 20km/h | 29150m | 4.6m/s | -43.6°C | -1.0% | -1.0hPa | 2.7V | 00:00:00 | 00:00:00 | 00:00:00 | |
| DO3MHA-11 | 2026-09-04 12:25:02 | 49.22477 | 12.99788 | 41° | 16km/h | 29155m | 5.7m/s | -43.5°C | 2.8% | 14.2hPa | 2.7V | 00:00:00 | 02:22:23 | 00:00:00 | |
| OE5MMP-10 | 2026-09-04 12:25:00 | 49.22470 | 12.99777 | 50° | 9km/h | 29145m | 4.5m/s | -43.4°C | 2.8% | 14.2hPa | 2.7V | 00:00:00 | 02:22:21 | 00:00:00 | |
| DM0DOS-11 | 2026-09-04 12:24:57 | 49.22467 | 12.99769 | 153° | 5km/h | 29122m | 5.1m/s | -42.8°C | 0% | 14.3hPa | 2.6V | 03:42:59 | 02:22:17 | 00:00:00 | |
| DK5PH-5 | 2026-09-04 12:24:57 | 49.22467 | 12.99769 | 140° | 9km/h | 29127m | 5.6m/s | -43.1°C | 2.7% | 14.3hPa | 2.6V | 00:00:00 | 02:22:18 | 00:00:00 | |
| PETON7-10 | 2026-09-04 12:24:54 | 49.22470 | 12.99764 | 112° | 11km/h | 29110m | 5.9m/s | -43.0°C | 2.7% | 14.3hPa | 2.6V | 00:00:00 | 02:22:15 | 00:00:00 | |
| BAUMI2-15 | 2026-09-04 12:24:52 | 49.22470 | 12.99756 | 75° | 11km/h | 29100m | 4.8m/s | -42.4°C | 2.6% | 14.3hPa | 2.6V | 00:00:00 | 02:22:13 | 00:00:00 | |
| DM0DOS-11 | 2026-09-04 12:24:51 | 49.22457 | 12.99744 | 35° | 11km/h | 29066m | 5.8m/s | -42.3°C | 0% | 14.4hPa | 2.6V | 03:43:09 | 02:22:07 | 00:00:00 | |
| DO3MHA-11 | 2026-09-04 12:24:51 | 49.22469 | 12.99751 | 56° | 13km/h | 29094m | 5.5m/s | -42.9°C | 2.6% | 14.3hPa | 2.7V | 03:43:00 | 02:22:12 | 00:00:00 | |
| OE5MMP-10 | 2026-09-04 12:24:50 | 49.22467 | 12.99748 | 35° | 11km/h | 29088m | 6.7m/s | -42.7°C | 2.6% | 14.4hPa | 2.7V | 03:43:00 | 02:22:11 | 00:00:00 | |
| OE5DRO-10 | 2026-09-04 12:24:47 | 49.22459 | 12.99745 | 15° | 7km/h | 29072m | 4.9m/s | -41.6°C | 2.3% | 14.4hPa | 2.7V | 00:00:00 | 00:00:00 | 00:00:00 | |
| PG1ADW-2 | 2026-09-04 12:24:45 | 49.22455 | 12.99740 | 57° | 11km/h | 29060m | 6.5m/s | -42.8°C | 2.6% | 14.4hPa | 2.7V | 00:00:00 | 00:00:00 | 00:00:00 | |
| EDDB2-11 | 2026-09-04 12:24:43 | 49.22452 | 12.99725 | 84° | 9km/h | 29044m | 5.3m/s | -43.9°C | 0.6% | 14.5hPa | 2.7V | 00:00:00 | 00:00:00 | 00:00:00 | |
| DL6DJ-15 | 2026-09-04 12:24:42 | 49.22452 | 12.99722 | 91° | 4km/h | 29038m | 6.7m/s | -43.9°C | 0.7% | 14.5hPa | 2.7V | 00:00:00 | 00:00:00 | 00:00:00 | |
| DO3MHA-11 | 2026-09-04 12:24:41 | 49.22451 | 12.99721 | 92° | 5km/h | 29038m | 6.6m/s | -43.9°C | 2.8% | 14.5hPa | 2.7V | 00:00:00 | 02:22:02 | 00:00:00 | |
| OE5MMP-10 | 2026-09-04 12:24:40 | 49.22452 | 12.99721 | 226° | 5km/h | 29032m | 6.1m/s | -43.9°C | 2.8% | 14.5hPa | 2.6V | 00:00:00 | 02:22:01 | 00:00:00 | |
| PETON7-10 | 2026-09-04 12:24:39 | 49.22452 | 12.99722 | 260° | 7km/h | 29026m | 5.2m/s | -43.8°C | 2.8% | 14.5hPa | 2.6V | 00:00:00 | 00:00:00 | 00:00:00 | |
| DM0DOS-11 | 2026-09-04 12:24:38 | 49.22451 | 12.99720 | 98° | 5km/h | 28993m | 5.4m/s | -43.4°C | 0% | 14.6hPa | 2.6V | 03:43:22 | 02:21:54 | 00:00:00 | |
| DL9SK-14 | 2026-09-04 12:24:37 | 49.22451 | 12.99725 | 73° | 5km/h | 29003m | 5.0m/s | 0°C | -1.0% | -1.0hPa | 2.7V | 00:00:00 | 00:00:00 | 00:00:00 | |
| DO3MHA-11 | 2026-09-04 12:24:31 | 49.22453 | 12.99717 | 158° | 7km/h | 28981m | 5.6m/s | -43.7°C | 2.7% | 14.6hPa | 2.7V | 00:00:00 | 02:21:52 | 00:00:00 | |
| OE5MMP-10 | 2026-09-04 12:24:30 | 49.22454 | 12.99716 | 154° | 7km/h | 28976m | 4.9m/s | -44.1°C | 2.8% | 14.6hPa | 2.7V | 00:00:00 | 02:21:51 | 00:00:00 | |
| OE5WHR-10 | 2026-09-04 12:24:29 | 49.22456 | 12.99714 | 140° | 5km/h | 28971m | 5.5m/s | -44.2°C | 2.9% | 14.6hPa | 2.7V | 00:00:00 | 02:21:50 | 00:00:00 | |
| DM0DOS-11 | 2026-09-04 12:24:28 | 49.22462 | 12.99694 | 229° | 0km/h | 28934m | 5.8m/s | -43.8°C | 0% | 14.7hPa | 2.7V | 03:43:32 | 02:21:44 | 00:00:00 | |
| DF8AY | 2026-09-04 12:24:20 | 49.22460 | 12.99695 | 20° | 7km/h | 28918m | 6.7m/s | 0°C | 0% | 0hPa | 2.6V | 18:12:15 | 02:21:41 | 00:00:00 | |
| OE5MMP-10 | 2026-09-04 12:24:20 | 49.22460 | 12.99695 | 21° | 5km/h | 28918m | 6.6m/s | -43.5°C | 2.6% | 14.7hPa | 2.7V | 00:00:00 | 02:21:41 | 00:00:00 | |
| PG1ADW-2 | 2026-09-04 12:24:19 | 49.22458 | 12.99693 | 36° | 4km/h | 28912m | 5.8m/s | -44.2°C | 2.8% | 14.7hPa | 2.7V | 00:00:00 | 02:21:40 | 00:00:00 | |
| DM0DOS-11 | 2026-09-04 12:24:18 | 49.22453 | 12.99688 | 138° | 4km/h | 28877m | 6.3m/s | -44.5°C | 0% | 14.8hPa | 2.7V | 03:43:42 | 02:21:34 | 00:00:00 | |
| DL6DJ-15 | 2026-09-04 12:24:11 | 49.22454 | 12.99684 | 7° | 2km/h | 28861m | 5.1m/s | -44.5°C | 0% | 14.9hPa | 2.6V | 00:00:00 | 00:00:00 | 00:00:00 | |
| OE5MMP-10 | 2026-09-04 12:24:10 | 49.22453 | 12.99684 | 8° | 9km/h | 28861m | 5.0m/s | -44.4°C | 2.8% | 14.9hPa | 2.6V | 03:43:00 | 02:21:31 | 00:00:00 | |
| PETON7-10 | 2026-09-04 12:24:09 | 49.22453 | 12.99685 | 309° | 7km/h | 28855m | 6.9m/s | -44.5°C | 2.9% | 14.9hPa | 2.6V | 00:00:00 | 02:21:30 | 00:00:00 | |
| DM0DOS-11 | 2026-09-04 12:24:08 | 49.22440 | 12.99699 | 14° | 9km/h | 28819m | 4.8m/s | -44.2°C | 0% | 15hPa | 2.6V | 03:43:52 | 02:21:24 | 00:00:00 | |
| OE5WHR-10 | 2026-09-04 12:24:08 | 49.22452 | 12.99688 | 300° | 7km/h | 28848m | 6.5m/s | -44.5°C | 2.9% | 14.9hPa | 2.6V | 00:00:00 | 00:00:00 | 00:00:00 | |
| DL9SK-14 | 2026-09-04 12:24:05 | 49.22439 | 12.99700 | 165° | 0km/h | 28785m | 6.7m/s | -44.9°C | 0.7% | 15.1hPa | 2.7V | 00:00:00 | 00:00:00 | 00:00:00 | |
| EDDB2-12 | 2026-09-04 12:24:02 | 49.22429 | 12.99717 | 335° | 5km/h | 28739m | 6.5m/s | -43.7°C | -1.0% | -1.0hPa | 2.7V | 00:00:00 | 00:00:00 | 00:00:00 | |
| DO3MHA-11 | 2026-09-04 12:24:01 | 49.22437 | 12.99698 | 360° | 5km/h | 28808m | 6.7m/s | -44.3°C | 2.8% | 15.0hPa | 2.7V | 00:00:00 | 02:21:22 | 00:00:00 | |
| OE5MMP-10 | 2026-09-04 12:24:00 | 49.22437 | 12.99698 | 239° | 5km/h | 28802m | 5.9m/s | -44.3°C | 2.8% | 15.0hPa | 2.7V | 00:00:00 | 02:21:21 | 00:00:00 | |
| PG1ADW-2 | 2026-09-04 12:23:57 | 49.22439 | 12.99700 | 166° | 9km/h | 28785m | 6.7m/s | -44.9°C | 2.9% | 15.0hPa | 2.6V | 00:00:00 | 00:00:00 | 00:00:00 | |
| PETON7-10 | 2026-09-04 12:23:54 | 49.22437 | 12.99701 | 322° | 7km/h | 28768m | 5.8m/s | -44.7°C | 2.9% | 15.1hPa | 2.7V | 00:00:00 | 00:00:00 | 00:00:00 | |
| OE5REO-15 | 2026-09-04 12:23:53 | 49.22437 | 12.99701 | 322° | 7km/h | 28768m | 5.8m/s | -44.8°C | 0.7% | 15.1hPa | 2.7V | 03:44:00 | 00:00:00 | 00:00:00 | |
| DO3MHA-11 | 2026-09-04 12:23:51 | 49.22432 | 12.99711 | 300° | 7km/h | 28750m | 4.9m/s | -44.0°C | 2.8% | 15.1hPa | 2.7V | 00:00:00 | 02:21:12 | 00:00:00 | |
| OE5MMP-10 | 2026-09-04 12:23:50 | 49.22431 | 12.99715 | 309° | 7km/h | 28745m | 5.2m/s | -43.7°C | 2.7% | 15.1hPa | 2.7V | 00:00:00 | 02:21:11 | 00:00:00 | |
| OE5WHR-10 | 2026-09-04 12:23:47 | 49.22426 | 12.99716 | 41° | 9km/h | 28728m | 4.5m/s | -44.8°C | 3.0% | 15.2hPa | 2.7V | 00:00:00 | 00:00:00 | 00:00:00 | |
| DM0DOS-11 | 2026-09-04 12:23:43 | 49.22429 | 12.99719 | 230° | 9km/h | 28699m | 5.1m/s | -45.2°C | 0% | 15.3hPa | 2.7V | 03:44:13 | 02:21:03 | 00:00:00 | |
| EDDB2-11 | 2026-09-04 12:23:41 | 49.22431 | 12.99724 | 247° | 4km/h | 28688m | 6.4m/s | -45.2°C | 0.7% | 15.3hPa | 2.6V | 00:00:00 | 00:00:00 | 00:00:00 | |
| DL6DJ-15 | 2026-09-04 12:23:40 | 49.22430 | 12.99725 | 316° | 2km/h | 28682m | 5.2m/s | -45.2°C | 0.7% | 15.3hPa | 2.6V | 00:00:00 | 00:00:00 | 00:00:00 | |
| PETON7-10 | 2026-09-04 12:23:39 | 49.22430 | 12.99725 | 317° | 13km/h | 28682m | 5.2m/s | -45.1°C | 2.9% | 15.3hPa | 2.6V | 00:00:00 | 00:00:00 | 00:00:00 | |
| SP3BTT-10 | 2026-09-04 12:23:38 | 49.22430 | 12.99725 | 329° | 16km/h | 28677m | 4.9m/s | -45.1°C | 2.9% | 15.3hPa | 2.6V | 00:00:00 | 00:00:00 | 00:00:00 | |
| DM0DOS-11 | 2026-09-04 12:23:37 | 49.22416 | 12.99745 | 325° | 9km/h | 28640m | 6m/s | -43.3°C | 0% | 15.4hPa | 2.6V | 03:44:23 | 02:20:53 | 00:00:00 | |
| OE5REO-15 | 2026-09-04 12:23:36 | 49.22428 | 12.99727 | 323° | 9km/h | 28671m | 6.6m/s | -45.0°C | 0.7% | 15.3hPa | 2.7V | 03:45:00 | 00:00:00 | 00:00:00 | |
| DO3MHA-11 | 2026-09-04 12:23:31 | 49.22415 | 12.99746 | 297° | 13km/h | 28634m | 5.0m/s | -43.3°C | 2.5% | 15.4hPa | 2.7V | 03:44:00 | 02:20:52 | 00:00:00 | |
| OE5MMP-10 | 2026-09-04 12:23:30 | 49.22415 | 12.99748 | 244° | 15km/h | 28629m | 5.6m/s | -43.3°C | 2.4% | 15.4hPa | 2.7V | 03:44:00 | 02:20:51 | 00:00:00 | |
| OE5WHR-10 | 2026-09-04 12:23:26 | 49.22427 | 12.99767 | 218° | 15km/h | 28604m | 5.1m/s | -43.7°C | 2.5% | 15.5hPa | 2.7V | 03:44:00 | 02:20:47 | 00:00:00 | |
| PETON7-10 | 2026-09-04 12:23:24 | 49.22434 | 12.99774 | 205° | 16km/h | 28592m | 6.1m/s | -44.5°C | 2.7% | 15.5hPa | 2.7V | 03:44:00 | 02:20:45 | 00:00:00 | |
| DM0DOS-11 | 2026-09-04 12:23:23 | 49.22436 | 12.99798 | 294° | 15km/h | 28555m | 6.3m/s | -44.2°C | 0% | 15.6hPa | 2.7V | 03:44:37 | 02:20:39 | 00:00:00 | |
| DO3MHA-11 | 2026-09-04 12:23:21 | 49.22439 | 12.99782 | 268° | 13km/h | 28574m | 7.1m/s | -44.9°C | 2.8% | 15.5hPa | 2.6V | 00:00:00 | 02:20:42 | 00:00:00 | |
| OE5MMP-10 | 2026-09-04 12:23:18 | 49.22436 | 12.99798 | 295° | 18km/h | 28556m | 6.3m/s | -44.1°C | 2.7% | 15.6hPa | 2.6V | 00:00:00 | 02:20:39 | 00:00:00 | |
| DM0DOS-11 | 2026-09-04 12:23:12 | 49.22454 | 12.99858 | 216° | 11km/h | 28496m | 6.8m/s | -45.5°C | 0% | 15.8hPa | 2.6V | 03:44:47 | 02:20:29 | 00:00:00 | |
| HSKMA3-T | 2026-09-04 12:23:02 | 49.22457 | 12.99881 | 255° | 27km/h | 28462m | 6.1m/s | 0°C | 0% | 0hPa | 2.6V | 18:12:15 | 02:20:23 | 00:00:00 | |
| DM0DOS-11 | 2026-09-04 12:23:01 | 49.22481 | 12.99921 | 184° | 13km/h | 28427m | 5.5m/s | 0°C | 0% | 0hPa | 2.6V | 03:44:59 | 02:20:17 | 00:00:00 | |
| EDDB2-12 | 2026-09-04 12:22:59 | 49.22477 | 12.99920 | 196° | 16km/h | 28433m | 5.6m/s | -45.0°C | -1.0% | -1.0hPa | 2.6V | 00:00:00 | 00:00:00 | 00:00:00 | |
| OE5MMP-10 | 2026-09-04 12:22:58 | 49.22473 | 12.99917 | 213° | 15km/h | 28439m | 6.4m/s | -44.8°C | 2.8% | 15.8hPa | 2.6V | 00:00:00 | 02:20:19 | 00:00:00 | |
| PETON7-10 | 2026-09-04 12:22:54 | 49.22485 | 12.99923 | 228° | 15km/h | 28416m | 6.3m/s | -44.7°C | 2.8% | 15.9hPa | 2.6V | 00:00:00 | 00:00:00 | 00:00:00 | |
| DM0DOS-11 | 2026-09-04 12:22:51 | 49.22492 | 12.99963 | 237° | 16km/h | 28367m | 6.5m/s | 0°C | 0% | 0hPa | 2.6V | 03:45:09 | 02:20:07 | 00:00:00 | |
| OE5DRO-10 | 2026-09-04 12:22:50 | 49.22486 | 12.99942 | 266° | 9km/h | 28391m | 6.4m/s | -45.2°C | 3.0% | 16.0hPa | 2.6V | 03:45:00 | 00:00:00 | 00:00:00 | |
| OE5REO-15 | 2026-09-04 12:22:49 | 49.22486 | 12.99942 | 266° | 16km/h | 28391m | 6.4m/s | -45.3°C | 0.7% | 16.0hPa | 2.7V | 03:45:00 | 00:00:00 | 00:00:00 | |
| OE5MMP-10 | 2026-09-04 12:22:48 | 49.22488 | 12.99953 | 248° | 15km/h | 28378m | 5.6m/s | -45.1°C | 3.0% | 16.0hPa | 2.7V | 03:45:00 | 02:20:09 | 00:00:00 | |
| DL1JEZ-13 | 2026-09-04 12:22:47 | 49.22488 | 12.99953 | 248° | 13km/h | 28378m | 5.6m/s | -45.1°C | 0.8% | 16.0hPa | 2.7V | 00:00:00 | 00:00:00 | 00:00:00 | |
| OE5WHR-10 | 2026-09-04 12:22:44 | 49.22497 | 12.99975 | 237° | 11km/h | 28354m | 5.5m/s | -45.0°C | 3.0% | 16.1hPa | 2.7V | 00:00:00 | 00:00:00 | 00:00:00 | |
| PG1ADW-2 | 2026-09-04 12:22:43 | 49.22499 | 12.99980 | 230° | 11km/h | 28349m | 5.0m/s | -45.0°C | 3.0% | 16.1hPa | 2.7V | 00:00:00 | 00:00:00 | 00:00:00 | |
| DM0DOS-11 | 2026-09-04 12:22:39 | 49.22506 | 12.99974 | 317° | 7km/h | 28307m | 7.1m/s | 0°C | 0% | 0hPa | 2.7V | 03:45:19 | 02:19:57 | 00:00:00 | |
| EDDB2-11 | 2026-09-04 12:22:39 | 49.22507 | 12.99973 | 41° | 4km/h | 28314m | 5.9m/s | -44.3°C | 0.6% | 16.2hPa | 2.6V | 00:00:00 | 00:00:00 | 00:00:00 | |
| DL6DJ-15 | 2026-09-04 12:22:38 | 49.22507 | 12.99973 | 41° | 4km/h | 28314m | 5.9m/s | -44.3°C | 0.6% | 16.2hPa | 2.6V | 00:00:00 | 00:00:00 | 00:00:00 | |
| OE5REO-15 | 2026-09-04 12:22:33 | 49.22503 | 12.99983 | 287° | 20km/h | 28295m | 5.5m/s | -45.3°C | 0.7% | 16.2hPa | 2.6V | 03:45:00 | 00:00:00 | 00:00:00 | |
| DL9SK-14 | 2026-09-04 12:22:32 | 49.22502 | 13.00004 | 258° | 11km/h | 28277m | 6.1m/s | -45.3°C | 0.7% | 16.3hPa | 2.6V | 00:00:00 | 00:00:00 | 00:00:00 | |
| OE5MMP-10 | 2026-09-04 12:22:28 | 49.22503 | 13.00009 | 5° | 5km/h | 28260m | 6.4m/s | -45.6°C | 2.9% | 16.3hPa | 2.6V | 00:00:00 | 02:19:49 | 00:00:00 | |
| OE5WHR-10 | 2026-09-04 12:22:23 | 49.22497 | 13.00003 | 92° | 7km/h | 28230m | 6.5m/s | -45.4°C | 3.0% | 16.3hPa | 2.6V | 00:00:00 | 02:19:44 | 00:00:00 | |
| PG1ADW-2 | 2026-09-04 12:22:22 | 49.22497 | 13.00001 | 97° | 9km/h | 28224m | 5.5m/s | -45.2°C | 2.9% | 16.4hPa | 2.6V | 00:00:00 | 02:19:43 | 00:00:00 | |
| DM0DOS-11 | 2026-09-04 12:22:21 | 49.22496 | 13.00001 | 292° | 5km/h | 28205m | 6.1m/s | 0°C | 0% | 0hPa | 2.7V | 03:45:36 | 02:19:40 | 00:00:00 | |
| OE5DRO-10 | 2026-09-04 12:22:19 | 49.22496 | 13.00001 | 293° | 9km/h | 28205m | 6.1m/s | -45.0°C | 2.9% | 16.4hPa | 2.6V | 00:00:00 | 00:00:00 | 00:00:00 | |
| OE5MMP-10 | 2026-09-04 12:22:18 | 49.22496 | 13.00004 | 270° | 9km/h | 28199m | 5.4m/s | -44.9°C | 2.8% | 16.4hPa | 2.6V | 00:00:00 | 02:19:39 | 00:00:00 | |
| OE5REO-15 | 2026-09-04 12:22:17 | 49.22496 | 13.00004 | 271° | 9km/h | 28199m | 5.5m/s | -45.0°C | 0.7% | 16.5hPa | 2.6V | 03:45:00 | 00:00:00 | 00:00:00 | |
| DM0DOS-11 | 2026-09-04 12:22:11 | 49.22503 | 13.00030 | 1° | 7km/h | 28145m | 6.1m/s | 0°C | 0% | 0hPa | 2.6V | 03:45:46 | 02:19:30 | 00:00:00 | |
| BAUMI2-15 | 2026-09-04 12:22:11 | 49.22506 | 13.00028 | 306° | 7km/h | 28156m | 5.7m/s | -45.1°C | 2.9% | 16.5hPa | 2.6V | 00:00:00 | 02:19:32 | 00:00:00 | |
| PETON7-10 | 2026-09-04 12:22:09 | 49.22503 | 13.00030 | 2° | 7km/h | 28145m | 6.0m/s | -45.7°C | 2.9% | 16.6hPa | 2.6V | 00:00:00 | 00:00:00 | 00:00:00 | |
| SP3BTT-10 | 2026-09-04 12:22:08 | 49.22502 | 13.00030 | 35° | 9km/h | 28139m | 6.7m/s | -45.8°C | 2.9% | 16.6hPa | 2.6V | 03:45:00 | 00:00:00 | 00:00:00 | |
| OE5MMP-10 | 2026-09-04 12:22:07 | 49.22501 | 13.00028 | 70° | 7km/h | 28132m | 6.2m/s | -45.7°C | 2.9% | 16.6hPa | 2.6V | 03:45:00 | 02:19:28 | 00:00:00 | |
| OE5HKT-10 | 2026-09-04 12:22:06 | 49.22501 | 13.00026 | 76° | 13km/h | 28126m | 5.6m/s | 0°C | 0% | 0hPa | 2.6V | 00:00:00 | 00:00:00 | 00:00:00 | |
| DL9SK-14 | 2026-09-04 12:22:01 | 49.22495 | 13.00034 | 262° | 11km/h | 28090m | 7.2m/s | -45.0°C | 0.7% | 16.8hPa | 2.6V | 00:00:00 | 00:00:00 | 00:00:00 | |
| OE5REO-15 | 2026-09-04 12:22:00 | 49.22495 | 13.00030 | 283° | 11km/h | 28096m | 5.8m/s | -44.8°C | 0.7% | 16.8hPa | 2.6V | 03:46:00 | 00:00:00 | 00:00:00 | |
| OE5MMP-10 | 2026-09-04 12:21:57 | 49.22498 | 13.00045 | 268° | 13km/h | 28072m | 5.3m/s | -45.4°C | 2.9% | 16.8hPa | 2.6V | 00:00:00 | 02:19:18 | 00:00:00 | |
| PG1ADW-2 | 2026-09-04 12:21:56 | 49.22497 | 13.00047 | 315° | 11km/h | 28066m | 6.9m/s | -45.4°C | 2.8% | 16.8hPa | 2.7V | 00:00:00 | 00:00:00 | 00:00:00 | |
| DO3MHA-11 | 2026-09-04 12:21:55 | 49.22495 | 13.00049 | 353° | 13km/h | 28060m | 6.2m/s | -46.0°C | 2.9% | 16.8hPa | 2.7V | 00:00:00 | 02:19:16 | 00:00:00 | |
| PETON7-10 | 2026-09-04 12:21:54 | 49.22492 | 13.00049 | 12° | 13km/h | 28054m | 5.5m/s | -46.2°C | 3.0% | 16.8hPa | 2.6V | 00:00:00 | 02:19:15 | 00:00:00 | |
| BAUMI2-15 | 2026-09-04 12:21:51 | 49.22482 | 13.00040 | 55° | 11km/h | 28036m | 5.9m/s | -45.9°C | 3.0% | 16.9hPa | 2.6V | 00:00:00 | 02:19:12 | 00:00:00 | |
| OE5MMP-10 | 2026-09-04 12:21:46 | 49.22474 | 13.00039 | 293° | 9km/h | 28006m | 5.0m/s | -45.6°C | 2.9% | 16.9hPa | 2.6V | 00:00:00 | 02:19:07 | 00:00:00 | |
| OE5REO-15 | 2026-09-04 12:21:44 | 49.22473 | 13.00045 | 279° | 16km/h | 28001m | 5.7m/s | -45.5°C | 0.7% | 17.0hPa | 2.6V | 03:46:00 | 00:00:00 | 00:00:00 | |
| OE5WHR-10 | 2026-09-04 12:21:41 | 49.22477 | 13.00066 | 245° | 7km/h | 27976m | 6.0m/s | -45.6°C | 2.9% | 17.0hPa | 2.6V | 00:00:00 | 00:00:00 | 00:00:00 | |
| OE5HKT-10 | 2026-09-04 12:21:40 | 49.22477 | 13.00068 | 266° | 7km/h | 27970m | 6.9m/s | 0°C | 0% | 0hPa | 2.6V | 00:00:00 | 02:19:01 | 00:00:00 | |
| PETON7-10 | 2026-09-04 12:21:39 | 49.22477 | 13.00069 | 350° | 7km/h | 27964m | 5.7m/s | -45.5°C | 2.9% | 17.1hPa | 2.6V | 00:00:00 | 00:00:00 | 00:00:00 | |
| OE5DRO-10 | 2026-09-04 12:21:38 | 49.22477 | 13.00068 | 68° | 9km/h | 27958m | 5.2m/s | -45.7°C | 2.9% | 17.0hPa | 2.6V | 00:00:00 | 00:00:00 | 00:00:00 | |
| OE5MMP-10 | 2026-09-04 12:21:36 | 49.22477 | 13.00062 | 102° | 7km/h | 27946m | 6.9m/s | -45.8°C | 3.0% | 17.1hPa | 2.7V | 00:00:00 | 02:18:57 | 00:00:00 | |
| DM0DOS-11 | 2026-09-04 12:21:35 | 49.22481 | 13.00050 | 284° | 7km/h | 27915m | 6.2m/s | 0°C | 0% | 0hPa | 2.7V | 03:46:24 | 02:18:52 | 00:00:00 | |
| DL1JEZ-13 | 2026-09-04 12:21:34 | 49.22479 | 13.00052 | 120° | 11km/h | 27934m | 5.1m/s | -45.7°C | 0.7% | 17.2hPa | 2.7V | 00:00:00 | 00:00:00 | 00:00:00 | |
| BAUMI2-15 | 2026-09-04 12:21:31 | 49.22480 | 13.00050 | 285° | 7km/h | 27915m | 6.1m/s | -46.1°C | 3.0% | 17.2hPa | 2.7V | 00:00:00 | 02:18:52 | 00:00:00 | |
| OE5REO-15 | 2026-09-04 12:21:29 | 49.22480 | 13.00053 | 280° | 9km/h | 27909m | 5.5m/s | -46.0°C | 0.7% | 17.2hPa | 2.7V | 03:46:00 | 00:00:00 | 00:00:00 | |
| BAUMI2-15 | 2026-09-04 12:21:26 | 49.22483 | 13.00062 | 188° | 5km/h | 27886m | 4.9m/s | -46.4°C | 3.0% | 17.3hPa | 2.7V | 03:46:00 | 02:18:47 | 00:00:00 | |
| OE5MMP-10 | 2026-09-04 12:21:25 | 49.22484 | 13.00062 | 131° | 7km/h | 27880m | 6.3m/s | -46.4°C | 3.0% | 17.3hPa | 2.7V | 03:46:00 | 02:18:46 | 00:00:00 | |
| PETON7-10 | 2026-09-04 12:21:24 | 49.22483 | 13.00061 | 58° | 11km/h | 27874m | 6.7m/s | -46.4°C | 3.1% | 17.3hPa | 2.7V | 03:46:00 | 00:00:00 | 00:00:00 | |
| BAUMI2-15 | 2026-09-04 12:21:21 | 49.22482 | 13.00053 | 100° | 11km/h | 27856m | 6.8m/s | -46.3°C | 3.1% | 17.3hPa | 2.7V | 00:00:00 | 02:18:42 | 00:00:00 | |
| DM0DOS-11 | 2026-09-04 12:21:20 | 49.22488 | 13.00041 | 150° | 11km/h | 27838m | 5.2m/s | 0°C | 0% | 0hPa | 2.7V | 03:46:37 | 02:18:39 | 00:00:00 | |
| OE5WHR-10 | 2026-09-04 12:21:20 | 49.22483 | 13.00048 | 117° | 11km/h | 27849m | 6.4m/s | -46.1°C | 3.1% | 17.3hPa | 2.6V | 00:00:00 | 02:18:41 | 00:00:00 | |
| OE5DRO-10 | 2026-09-04 12:21:18 | 49.22487 | 13.00041 | 151° | 11km/h | 27839m | 5.1m/s | -45.9°C | 3.0% | 17.4hPa | 2.6V | 03:46:00 | 00:00:00 | 00:00:00 | |
| BAUMI2-15 | 2026-09-04 12:21:16 | 49.22491 | 13.00042 | 235° | 13km/h | 27826m | 6.5m/s | -45.7°C | 3.0% | 17.4hPa | 2.6V | 00:00:00 | 02:18:37 | 00:00:00 | |
| OE5MMP-10 | 2026-09-04 12:21:14 | 49.22493 | 13.00051 | 258° | 11km/h | 27815m | 4.9m/s | -46.1°C | 3.1% | 17.4hPa | 2.7V | 00:00:00 | 02:18:35 | 00:00:00 | |
| BAUMI2-15 | 2026-09-04 12:21:11 | 49.22498 | 13.00064 | 209° | 9km/h | 27797m | 5.4m/s | -45.9°C | 3.1% | 17.5hPa | 2.7V | 00:00:00 | 02:18:32 | 00:00:00 | |
| DM0DOS-11 | 2026-09-04 12:21:09 | 49.22505 | 13.00060 | 83° | 7km/h | 27774m | 6.7m/s | 0°C | 0% | 0hPa | 2.7V | 03:46:48 | 02:18:28 | 00:00:00 | |
| PETON7-10 | 2026-09-04 12:21:09 | 49.22503 | 13.00065 | 154° | 9km/h | 27787m | 5.2m/s | -46.1°C | 3.0% | 17.5hPa | 2.7V | 00:00:00 | 02:18:30 | 00:00:00 | |
| BAUMI2-15 | 2026-09-04 12:21:06 | 49.22504 | 13.00057 | 61° | 9km/h | 27768m | 5.6m/s | -45.7°C | 3.0% | 17.5hPa | 2.7V | 03:46:00 | 02:18:27 | 00:00:00 | |
| OE5MMP-10 | 2026-09-04 12:21:04 | 49.22502 | 13.00050 | 81° | 11km/h | 27758m | 5.5m/s | -46.1°C | 3.0% | 17.6hPa | 2.7V | 00:00:00 | 02:18:25 | 00:00:00 | |
| BAUMI2-15 | 2026-09-04 12:21:01 | 49.22507 | 13.00042 | 171° | 11km/h | 27740m | 5.5m/s | -45.3°C | 2.8% | 17.6hPa | 2.7V | 00:00:00 | 02:18:22 | 00:00:00 | |
| OE5WHR-10 | 2026-09-04 12:20:59 | 49.22512 | 13.00043 | 207° | 15km/h | 27727m | 6.5m/s | -45.4°C | 2.9% | 17.7hPa | 2.7V | 00:00:00 | 00:00:00 | 00:00:00 | |
| OE5REO-15 | 2026-09-04 12:20:58 | 49.22512 | 13.00043 | 208° | 11km/h | 27727m | 6.5m/s | -45.5°C | 0.7% | 17.7hPa | 2.7V | 03:47:00 | 00:00:00 | 00:00:00 | |
| OE5HKT-10 | 2026-09-04 12:20:56 | 49.22519 | 13.00048 | 175° | 16km/h | 27712m | 5.5m/s | 0°C | 0% | 0hPa | 2.7V | 00:00:00 | 00:00:00 | 00:00:00 | |
| SP3BTT-10 | 2026-09-04 12:20:55 | 49.22521 | 13.00046 | 145° | 11km/h | 27706m | 6.7m/s | -45.6°C | 2.9% | 17.7hPa | 2.7V | 00:00:00 | 00:00:00 | 00:00:00 | |
| PETON7-10 | 2026-09-04 12:20:54 | 49.22523 | 13.00043 | 125° | 16km/h | 27699m | 6.0m/s | -46.3°C | 3.1% | 17.7hPa | 2.7V | 00:00:00 | 00:00:00 | 00:00:00 | |
| OE5MMP-10 | 2026-09-04 12:20:52 | 49.22526 | 13.00030 | 100° | 16km/h | 27688m | 6.4m/s | -46.7°C | 3.1% | 17.8hPa | 2.6V | 00:00:00 | 02:18:13 | 00:00:00 | |
| BAUMI2-15 | 2026-09-04 12:20:51 | 49.22526 | 13.00025 | 91° | 11km/h | 27681m | 6.2m/s | -46.5°C | 3.1% | 17.8hPa | 2.6V | 00:00:00 | 02:18:12 | 00:00:00 | |
| DM0DOS-11 | 2026-09-04 12:20:45 | 49.22541 | 13.00018 | 206° | 22km/h | 27646m | 6m/s | 0°C | 0% | 0hPa | 2.6V | 03:47:10 | 02:18:06 | 00:00:00 | |
| OE5REO-15 | 2026-09-04 12:20:43 | 49.22545 | 13.00023 | 216° | 22km/h | 27640m | 6.6m/s | -45.4°C | 0.7% | 17.9hPa | 2.6V | 03:47:00 | 00:00:00 | 00:00:00 | |
| OE5MMP-10 | 2026-09-04 12:20:42 | 49.22553 | 13.00032 | 218° | 11km/h | 27630m | 4.0m/s | -45.3°C | 3.0% | 17.9hPa | 2.6V | 03:47:00 | 02:18:03 | 00:00:00 | |
| BAUMI2-15 | 2026-09-04 12:20:41 | 49.22556 | 13.00035 | 201° | 13km/h | 27625m | 5.3m/s | -44.8°C | 2.9% | 17.9hPa | 2.6V | 00:00:00 | 02:18:02 | 00:00:00 | |
| PETON7-10 | 2026-09-04 12:20:39 | 49.22562 | 13.00033 | 142° | 9km/h | 27613m | 5.9m/s | -44.3°C | 2.8% | 18.0hPa | 2.6V | 00:00:00 | 00:00:00 | 00:00:00 | |
| OE5WHR-10 | 2026-09-04 12:20:38 | 49.22564 | 13.00029 | 119° | 13km/h | 27608m | 5.0m/s | -44.7°C | 2.9% | 18.0hPa | 2.6V | 03:47:00 | 00:00:00 | 00:00:00 | |
| BAUMI2-15 | 2026-09-04 12:20:36 | 49.22565 | 13.00020 | 83° | 9km/h | 27595m | 6.6m/s | -45.1°C | 2.9% | 18.0hPa | 2.6V | 00:00:00 | 02:17:57 | 00:00:00 | |
| EDDB2-11 | 2026-09-04 12:20:35 | 49.22564 | 13.00012 | 78° | 7km/h | 27584m | 5.3m/s | -45.8°C | 0.8% | 18.1hPa | 2.6V | 00:00:00 | 00:00:00 | 00:00:00 | |
| DL6DJ-15 | 2026-09-04 12:20:34 | 49.22564 | 13.00009 | 105° | 7km/h | 27578m | 6.7m/s | -45.7°C | 0.7% | 18.1hPa | 2.6V | 00:00:00 | 00:00:00 | 00:00:00 | |
| OE5DRO-10 | 2026-09-04 12:20:33 | 49.22564 | 13.00009 | 106° | 15km/h | 27578m | 6.7m/s | -45.7°C | 3.1% | 18.1hPa | 2.6V | 00:00:00 | 00:00:00 | 00:00:00 | |
| OE5MMP-10 | 2026-09-04 12:20:32 | 49.22565 | 13.00006 | 138° | 15km/h | 27571m | 6.4m/s | -46.2°C | 3.3% | 18.1hPa | 2.6V | 00:00:00 | 02:17:53 | 00:00:00 | |
| DL9SK-14 | 2026-09-04 12:20:28 | 49.22577 | 13.00008 | 220° | 5km/h | 27543m | 4.7m/s | -46.2°C | 0.8% | 18.2hPa | 2.6V | 00:00:00 | 00:00:00 | 00:00:00 | |
| BAUMI2-15 | 2026-09-04 12:20:26 | 49.22578 | 13.00009 | 188° | 7km/h | 27538m | 4.8m/s | -45.8°C | 3.1% | 18.2hPa | 2.6V | 03:47:00 | 02:17:47 | 00:00:00 | |
| DM0DOS-11 | 2026-09-04 12:20:25 | 49.22578 | 12.99977 | 60° | 22km/h | 27502m | 6.1m/s | 0°C | 0% | 0hPa | 2.6V | 03:47:35 | 02:17:41 | 00:00:00 | |
| DF8AY | 2026-09-04 12:20:18 | 49.22572 | 12.99965 | 57° | 16km/h | 27492m | 4.7m/s | 0°C | 0% | 0hPa | 2.7V | 18:12:15 | 02:17:39 | 00:00:00 | |
| OE5WHR-10 | 2026-09-04 12:20:17 | 49.22571 | 12.99960 | 72° | 13km/h | 27487m | 6.0m/s | -46.5°C | 3.4% | 18.3hPa | 2.6V | 00:00:00 | 02:17:38 | 00:00:00 | |
| PG1ADW-2 | 2026-09-04 12:20:16 | 49.22570 | 12.99956 | 94° | 13km/h | 27481m | 6.1m/s | -46.5°C | 3.3% | 18.4hPa | 2.6V | 03:47:00 | 00:00:00 | 00:00:00 | |
| OE5DRO-10 | 2026-09-04 12:20:14 | 49.22571 | 12.99948 | 110° | 13km/h | 27470m | 5.1m/s | -46.5°C | 3.3% | 18.4hPa | 2.6V | 00:00:00 | 00:00:00 | 00:00:00 | |
| OE5REO-15 | 2026-09-04 12:20:12 | 49.22572 | 12.99945 | 94° | 7km/h | 27464m | 6.7m/s | -46.5°C | 0.8% | 18.5hPa | 2.6V | 03:48:00 | 00:00:00 | 00:00:00 | |
| PETON7-10 | 2026-09-04 12:20:09 | 49.22568 | 12.99934 | 63° | 15km/h | 27441m | 6.6m/s | -45.8°C | 3.1% | 18.5hPa | 2.6V | 00:00:00 | 00:00:00 | 00:00:00 | |
| OE5MMP-10 | 2026-09-04 12:20:06 | 49.22563 | 12.99922 | 47° | 16km/h | 27423m | 6.1m/s | -45.4°C | 3.0% | 18.5hPa | 2.6V | 00:00:00 | 02:17:27 | 00:00:00 | |
| EDDB2-11 | 2026-09-04 12:20:03 | 49.22553 | 12.99911 | 37° | 16km/h | 27406m | 4.4m/s | -45.9°C | 0.7% | 18.6hPa | 2.6V | 00:00:00 | 00:00:00 | 00:00:00 | |
| DL6DJ-15 | 2026-09-04 12:20:02 | 49.22549 | 12.99906 | 49° | 16km/h | 27402m | 5.5m/s | -46.3°C | 0.8% | 18.6hPa | 2.6V | 00:00:00 | 00:00:00 | 00:00:00 | |
| OE5WHR-10 | 2026-09-04 12:19:56 | 49.22541 | 12.99871 | 46° | 15km/h | 27367m | 5.6m/s | -46.1°C | 3.0% | 18.7hPa | 2.6V | 00:00:00 | 00:00:00 | 00:00:00 | |
| OE5DRO-10 | 2026-09-04 12:19:55 | 49.22538 | 12.99867 | 38° | 13km/h | 27361m | 5.4m/s | -46.6°C | 3.2% | 18.7hPa | 2.7V | 03:48:00 | 00:00:00 | 00:00:00 | |
| PETON7-10 | 2026-09-04 12:19:54 | 49.22536 | 12.99864 | 37° | 16km/h | 27355m | 6.1m/s | -47.0°C | 3.2% | 18.7hPa | 2.7V | 00:00:00 | 00:00:00 | 00:00:00 | |
| DM0DOS-11 | 2026-09-04 12:19:45 | 49.22492 | 12.99828 | 22° | 15km/h | 27281m | 6.5m/s | 0°C | 0% | 0hPa | 2.7V | 03:48:14 | 02:17:02 | 00:00:00 | |
| OE5REO-15 | 2026-09-04 12:19:40 | 49.22492 | 12.99828 | 23° | 15km/h | 27282m | 6.5m/s | -47.6°C | 0.8% | 19.0hPa | 2.7V | 03:48:00 | 00:00:00 | 00:00:00 | |
| PETON7-10 | 2026-09-04 12:19:39 | 49.22484 | 12.99826 | 2° | 13km/h | 27270m | 5.1m/s | -47.0°C | 3.1% | 19.0hPa | 2.7V | 00:00:00 | 02:17:00 | 00:00:00 | |
| PG1ADW-2 | 2026-09-04 12:19:36 | 49.22472 | 12.99824 | 15° | 11km/h | 27253m | 5.1m/s | -47.6°C | 3.2% | 19.0hPa | 2.7V | 00:00:00 | 02:16:57 | 00:00:00 | |
| OE5WHR-10 | 2026-09-04 12:19:35 | 49.22469 | 12.99823 | 14° | 11km/h | 27249m | 4.6m/s | -47.7°C | 3.2% | 19.0hPa | 2.7V | 00:00:00 | 00:00:00 | 00:00:00 | |
| DM0DOS-11 | 2026-09-04 12:19:32 | 49.22446 | 12.99821 | 49° | 9km/h | 27210m | 5.9m/s | 0°C | 0% | 0hPa | 2.7V | 03:48:27 | 02:16:49 | 00:00:00 | |
| DL6DJ-15 | 2026-09-04 12:19:31 | 49.22454 | 12.99824 | 351° | 15km/h | 27226m | 4.4m/s | -47.7°C | 0.8% | 19.1hPa | 2.6V | 00:00:00 | 00:00:00 | 00:00:00 | |
| OE5MMP-10 | 2026-09-04 12:19:26 | 49.22443 | 12.99816 | 33° | 11km/h | 27200m | 5.3m/s | -46.8°C | 3.1% | 19.1hPa | 2.6V | 00:00:00 | 02:16:47 | 00:00:00 | |
| DL9SK-14 | 2026-09-04 12:19:25 | 49.22441 | 12.99815 | 359° | 7km/h | 27194m | 6.6m/s | -47.2°C | 0.8% | 19.2hPa | 2.7V | 00:00:00 | 00:00:00 | 00:00:00 | |
| PETON7-10 | 2026-09-04 12:19:24 | 49.22439 | 12.99817 | 331° | 11km/h | 27188m | 5.3m/s | -46.9°C | 3.2% | 19.2hPa | 2.7V | 03:48:00 | 00:00:00 | 00:00:00 | |
| OE5WHR-10 | 2026-09-04 12:19:14 | 49.22423 | 12.99850 | 296° | 9km/h | 27133m | 5.9m/s | -46.6°C | 3.0% | 19.3hPa | 2.6V | 03:48:00 | 02:16:35 | 00:00:00 | |
| PG1ADW-2 | 2026-09-04 12:19:13 | 49.22423 | 12.99852 | 245° | 11km/h | 27127m | 5.9m/s | -46.3°C | 2.9% | 19.4hPa | 2.6V | 00:00:00 | 00:00:00 | 00:00:00 | |
| PETON7-10 | 2026-09-04 12:19:09 | 49.22429 | 12.99865 | 263° | 9km/h | 27106m | 6.2m/s | -47.4°C | 3.3% | 19.4hPa | 2.7V | 00:00:00 | 00:00:00 | 00:00:00 | |
| OE5DRO-10 | 2026-09-04 12:19:03 | 49.22426 | 12.99889 | 286° | 7km/h | 27073m | 4.7m/s | -47.2°C | 3.3% | 19.5hPa | 2.7V | 00:00:00 | 00:00:00 | 00:00:00 | |
| EDDB2-11 | 2026-09-04 12:19:01 | 49.22426 | 12.99899 | 221° | 9km/h | 27045m | 6.7m/s | -46.9°C | 0.8% | 19.6hPa | 2.6V | 00:00:00 | 00:00:00 | 00:00:00 | |
| DM0DOS-11 | 2026-09-04 12:19:00 | 49.22433 | 12.99908 | 233° | 13km/h | 27028m | 5.6m/s | 0°C | 0% | 0hPa | 2.6V | 03:49:00 | 02:16:16 | 00:00:00 | |
| DL6DJ-15 | 2026-09-04 12:19:00 | 49.22424 | 12.99894 | 272° | 5km/h | 27056m | 4.3m/s | -46.8°C | 0.8% | 19.6hPa | 2.7V | 00:00:00 | 00:00:00 | 00:00:00 | |
| DL9SK-14 | 2026-09-04 12:18:54 | 49.22435 | 12.99913 | 254° | 11km/h | 27023m | 6.4m/s | -46.0°C | -1.0% | 19.7hPa | 2.7V | 00:00:00 | 00:00:00 | 00:00:00 | |
| HSKMA3-T | 2026-09-04 12:18:41 | 49.22442 | 12.99946 | 221° | 11km/h | 26951m | 5.8m/s | 0°C | 0% | 0hPa | 2.7V | 18:12:15 | 02:16:02 | 00:00:00 | |
| PETON7-10 | 2026-09-04 12:18:39 | 49.22446 | 12.99949 | 186° | 7km/h | 26942m | 4.5m/s | -46.8°C | 3.0% | 19.9hPa | 2.6V | 00:00:00 | 00:00:00 | 00:00:00 | |
| OE5REO-15 | 2026-09-04 12:18:38 | 49.22446 | 12.99949 | 186° | 7km/h | 26942m | 4.6m/s | -46.9°C | 0.8% | 19.9hPa | 2.7V | 03:49:00 | 00:00:00 | 00:00:00 | |
| OE5MMP-10 | 2026-09-04 12:18:34 | 49.22448 | 12.99942 | 109° | 7km/h | 26914m | 5.8m/s | -47.0°C | 3.1% | 20.0hPa | 2.7V | 03:49:00 | 02:15:55 | 00:00:00 | |
| OE5WHR-10 | 2026-09-04 12:18:32 | 49.22451 | 12.99937 | 158° | 7km/h | 26902m | 4.9m/s | -46.9°C | 3.1% | 20.0hPa | 2.6V | 00:00:00 | 00:00:00 | 00:00:00 | |
| PG1ADW-2 | 2026-09-04 12:18:31 | 49.22454 | 12.99936 | 170° | 7km/h | 26897m | 4.3m/s | -47.4°C | 3.2% | 20.0hPa | 2.6V | 00:00:00 | 00:00:00 | 00:00:00 | |
| DL6DJ-15 | 2026-09-04 12:18:29 | 49.22460 | 12.99936 | 197° | 7km/h | 26886m | 6.2m/s | -47.2°C | 0.8% | 20.1hPa | 2.6V | 00:00:00 | 00:00:00 | 00:00:00 | |
| OE5DRO-10 | 2026-09-04 12:18:25 | 49.22465 | 12.99939 | 172° | 5km/h | 26864m | 6.5m/s | -47.9°C | 3.4% | 20.2hPa | 2.6V | 00:00:00 | 00:00:00 | 00:00:00 | |
| DL9SK-14 | 2026-09-04 12:18:24 | 49.22470 | 12.99936 | 146° | 13km/h | 26853m | 4.7m/s | 0°C | -1.0% | -1.0hPa | 2.6V | 00:00:00 | 00:00:00 | 00:00:00 | |
| OE5MMP-10 | 2026-09-04 12:18:21 | 49.22474 | 12.99930 | 119° | 9km/h | 26843m | 6.5m/s | -48.2°C | 3.3% | 20.2hPa | 2.6V | 00:00:00 | 02:15:42 | 00:00:00 | |
| DO3MHA-11 | 2026-09-04 12:18:13 | 49.22473 | 12.99931 | 306° | 9km/h | 26798m | 6.4m/s | -48.5°C | 3.4% | 20.4hPa | 2.6V | 00:00:00 | 02:15:34 | 00:00:00 | |
| OE5WHR-10 | 2026-09-04 12:18:11 | 49.22469 | 12.99934 | 352° | 7km/h | 26787m | 4.4m/s | -48.3°C | 3.5% | 20.4hPa | 2.6V | 00:00:00 | 02:15:32 | 00:00:00 | |
| PETON7-10 | 2026-09-04 12:18:09 | 49.22467 | 12.99933 | 73° | 7km/h | 26777m | 6.5m/s | -48.2°C | 3.5% | 20.4hPa | 2.6V | 00:00:00 | 02:15:30 | 00:00:00 | |
| OE5REO-15 | 2026-09-04 12:18:07 | 49.22467 | 12.99931 | 132° | 7km/h | 26770m | 6.5m/s | -48.1°C | 0.9% | 20.5hPa | 2.6V | 03:50:00 | 00:00:00 | 00:00:00 | |
| SP3BTT-10 | 2026-09-04 12:18:06 | 49.22471 | 12.99927 | 143° | 13km/h | 26759m | 5.2m/s | -47.4°C | 3.3% | 20.5hPa | 2.6V | 03:49:00 | 00:00:00 | 00:00:00 | |
| BAUMI2-15 | 2026-09-04 12:18:04 | 49.22474 | 12.99922 | 117° | 4km/h | 26747m | 6.1m/s | -47.2°C | 3.1% | 20.5hPa | 2.6V | 00:00:00 | 02:15:25 | 00:00:00 | |
| EDDB2-11 | 2026-09-04 12:17:59 | 49.22472 | 12.99925 | 279° | 5km/h | 26719m | 5.0m/s | -48.2°C | 0.9% | 20.7hPa | 2.7V | 00:00:00 | 00:00:00 | 00:00:00 | |
| DL6DJ-15 | 2026-09-04 12:17:58 | 49.22472 | 12.99928 | 299° | 7km/h | 26715m | 4.5m/s | -48.0°C | 0.9% | 20.7hPa | 2.7V | 00:00:00 | 00:00:00 | 00:00:00 | |
| DL9SK-14 | 2026-09-04 12:17:52 | 49.22451 | 12.99937 | 22° | 5km/h | 26664m | 6.2m/s | 0°C | -1.0% | -1.0hPa | 2.7V | 00:00:00 | 00:00:00 | 00:00:00 | |
| DO3MHA-11 | 2026-09-04 12:17:49 | 49.22451 | 12.99937 | 23° | 11km/h | 26664m | 6.2m/s | -48.3°C | 3.6% | 20.8hPa | 2.7V | 03:50:00 | 02:15:10 | 00:00:00 | |
| DL1JEZ-13 | 2026-09-04 12:17:47 | 49.22449 | 12.99936 | 20° | 9km/h | 26658m | 6.3m/s | -48.2°C | 0.9% | 20.9hPa | 2.6V | 03:50:00 | 00:00:00 | 00:00:00 | |
| BAUMI2-15 | 2026-09-04 12:17:44 | 49.22438 | 12.99936 | 331° | 13km/h | 26634m | 6.0m/s | -47.8°C | 3.4% | 20.9hPa | 2.6V | 00:00:00 | 02:15:05 | 00:00:00 | |
| PETON7-10 | 2026-09-04 12:17:39 | 49.22424 | 12.99945 | 358° | 16km/h | 26607m | 5.2m/s | -47.7°C | 3.4% | 21.0hPa | 2.6V | 00:00:00 | 00:00:00 | 00:00:00 | |
| OE5REO-15 | 2026-09-04 12:17:36 | 49.22417 | 12.99944 | 10° | 13km/h | 26596m | 6.4m/s | -48.6°C | 0.9% | 21.0hPa | 2.6V | 03:50:00 | 00:00:00 | 00:00:00 | |
| BAUMI2-15 | 2026-09-04 12:17:34 | 49.22411 | 12.99941 | 22° | 15km/h | 26579m | 4.9m/s | -48.5°C | 3.6% | 21.0hPa | 2.6V | 03:50:00 | 02:14:55 | 00:00:00 | |
| DO3MHA-11 | 2026-09-04 12:17:29 | 49.22391 | 12.99938 | 353° | 22km/h | 26552m | 5.9m/s | -48.4°C | 3.5% | 21.1hPa | 2.7V | 00:00:00 | 02:14:50 | 00:00:00 | |
| EDDB2-11 | 2026-09-04 12:17:28 | 49.22387 | 12.99939 | 353° | 16km/h | 26546m | 5.3m/s | -48.5°C | 0.9% | 21.2hPa | 2.7V | 00:00:00 | 00:00:00 | 00:00:00 | |
| DL6DJ-15 | 2026-09-04 12:17:27 | 49.22377 | 12.99939 | 11° | 20km/h | 26536m | 6.2m/s | -48.5°C | 0.9% | 21.2hPa | 2.7V | 00:00:00 | 00:00:00 | 00:00:00 | |
| PETON7-10 | 2026-09-04 12:17:24 | 49.22366 | 12.99932 | 24° | 20km/h | 26523m | 5.2m/s | -48.5°C | 3.5% | 21.2hPa | 2.7V | 03:50:00 | 02:14:45 | 00:00:00 | |
| DL9SK-14 | 2026-09-04 12:17:21 | 49.22338 | 12.99917 | 10° | 20km/h | 26495m | 5.7m/s | 0°C | -1.0% | -1.0hPa | 2.7V | 00:00:00 | 00:00:00 | 00:00:00 | |
| BAUMI2-15 | 2026-09-04 12:17:19 | 49.22338 | 12.99917 | 11° | 22km/h | 26495m | 5.7m/s | -48.3°C | 3.4% | 21.3hPa | 2.7V | 00:00:00 | 02:14:40 | 00:00:00 | |
| PG1ADW-2 | 2026-09-04 12:17:18 | 49.22333 | 12.99916 | 8° | 18km/h | 26489m | 6.5m/s | -48.0°C | 3.3% | 21.3hPa | 2.6V | 03:50:00 | 00:00:00 | 00:00:00 | |
| DM0DOS-11 | 2026-09-04 12:17:15 | 49.22311 | 12.99915 | 352° | 15km/h | 26465m | 6.2m/s | 0°C | 0% | 0hPa | 2.6V | 03:50:41 | 02:14:35 | 00:00:00 | |
| BAUMI2-15 | 2026-09-04 12:17:14 | 49.22311 | 12.99915 | 353° | 16km/h | 26466m | 6.1m/s | -47.8°C | 3.3% | 21.4hPa | 2.6V | 03:50:00 | 02:14:35 | 00:00:00 | |
| PETON7-10 | 2026-09-04 12:17:09 | 49.22292 | 12.99908 | 34° | 16km/h | 26437m | 5.5m/s | -48.0°C | 3.3% | 21.5hPa | 2.6V | 00:00:00 | 00:00:00 | 00:00:00 | |
| OE5WHR-10 | 2026-09-04 12:17:08 | 49.22287 | 12.99903 | 38° | 16km/h | 26432m | 5.3m/s | -47.6°C | 3.1% | 21.5hPa | 2.6V | 00:00:00 | 02:14:29 | 00:00:00 | |
| BAUMI2-15 | 2026-09-04 12:17:04 | 49.22273 | 12.99888 | 22° | 18km/h | 26411m | 4.9m/s | -48.9°C | 3.4% | 21.6hPa | 2.6V | 00:00:00 | 02:14:25 | 00:00:00 | |
| EDDB2-11 | 2026-09-04 12:16:57 | 49.22246 | 12.99878 | 18° | 9km/h | 26371m | 4.4m/s | -47.8°C | 0.8% | 21.8hPa | 2.7V | 00:00:00 | 00:00:00 | 00:00:00 | |
| DL6DJ-15 | 2026-09-04 12:16:56 | 49.22240 | 12.99875 | 23° | 16km/h | 26360m | 6.4m/s | -48.7°C | 0.9% | 21.8hPa | 2.7V | 00:00:00 | 00:00:00 | 00:00:00 | |
| PETON7-10 | 2026-09-04 12:16:54 | 49.22236 | 12.99872 | 22° | 15km/h | 26354m | 4.7m/s | -49.0°C | 3.5% | 21.8hPa | 2.7V | 00:00:00 | 00:00:00 | 00:00:00 | |
| BAUMI2-15 | 2026-09-04 12:16:53 | 49.22232 | 12.99869 | 21° | 16km/h | 26349m | 5.5m/s | -49.2°C | 3.5% | 21.8hPa | 2.7V | 03:51:00 | 02:14:14 | 00:00:00 | |
| SP3BTT-10 | 2026-09-04 12:16:49 | 49.22216 | 12.99866 | 2° | 18km/h | 26326m | 6.4m/s | -49.2°C | 3.6% | 21.9hPa | 2.7V | 00:00:00 | 00:00:00 | 00:00:00 | |
| BAUMI2-15 | 2026-09-04 12:16:48 | 49.22211 | 12.99865 | 360° | 15km/h | 26319m | 5.7m/s | -49.0°C | 3.7% | 21.9hPa | 2.7V | 00:00:00 | 02:14:09 | 00:00:00 | |
| OE5WHR-10 | 2026-09-04 12:16:47 | 49.22206 | 12.99866 | 356° | 13km/h | 26314m | 4.6m/s | -48.9°C | 3.7% | 21.9hPa | 2.7V | 00:00:00 | 00:00:00 | 00:00:00 | |
| DO3MHA-11 | 2026-09-04 12:16:46 | 49.22202 | 12.99867 | 349° | 15km/h | 26309m | 5.3m/s | -48.8°C | 3.6% | 21.9hPa | 2.7V | 00:00:00 | 02:14:07 | 00:00:00 | |
| OE5DXL-15 | 2026-09-04 12:16:45 | 49.22199 | 12.99868 | 338° | 13km/h | 26303m | 6.7m/s | -48.7°C | 3.6% | 22.0hPa | 2.7V | 00:00:00 | 00:00:00 | 00:00:00 | |
| BAUMI2-15 | 2026-09-04 12:16:43 | 49.22195 | 12.99872 | 314° | 11km/h | 26293m | 4.4m/s | -48.3°C | 3.4% | 22.0hPa | 2.7V | 00:00:00 | 02:14:04 | 00:00:00 | |
| PETON7-10 | 2026-09-04 12:16:39 | 49.22183 | 12.99873 | 13° | 13km/h | 26270m | 4.9m/s | -48.9°C | 3.4% | 22.1hPa | 2.7V | 00:00:00 | 02:14:00 | 00:00:00 | |
| BAUMI2-15 | 2026-09-04 12:16:38 | 49.22178 | 12.99872 | 14° | 13km/h | 26265m | 4.7m/s | -49.2°C | 3.5% | 22.1hPa | 2.7V | 00:00:00 | 02:13:59 | 00:00:00 | |
| PG1ADW-2 | 2026-09-04 12:16:37 | 49.22174 | 12.99870 | 10° | 13km/h | 26260m | 5.2m/s | -49.1°C | 3.4% | 22.1hPa | 2.7V | 00:00:00 | 02:13:58 | 00:00:00 | |
| DO3MHA-11 | 2026-09-04 12:16:35 | 49.22167 | 12.99870 | 338° | 11km/h | 26249m | 5.2m/s | -48.4°C | 3.2% | 22.1hPa | 2.7V | 00:00:00 | 02:13:56 | 00:00:00 | |
| DL1JEZ-13 | 2026-09-04 12:16:34 | 49.22167 | 12.99870 | 339° | 9km/h | 26249m | 5.3m/s | -48.4°C | 0.9% | 22.2hPa | 2.6V | 00:00:00 | 00:00:00 | 00:00:00 | |
| BAUMI2-15 | 2026-09-04 12:16:33 | 49.22165 | 12.99874 | 295° | 7km/h | 26239m | 4.8m/s | -49.2°C | 3.5% | 22.2hPa | 2.6V | 03:51:00 | 02:13:54 | 00:00:00 | |
| BAUMI2-15 | 2026-09-04 12:16:28 | 49.22155 | 12.99885 | 322° | 15km/h | 26212m | 5.9m/s | -48.7°C | 3.4% | 22.3hPa | 2.7V | 00:00:00 | 02:13:49 | 00:00:00 | |
| OE5WHR-10 | 2026-09-04 12:16:26 | 49.22150 | 12.99892 | 309° | 16km/h | 26201m | 4.6m/s | -49.1°C | 3.6% | 22.3hPa | 2.7V | 03:51:00 | 00:00:00 | 00:00:00 | |
| DL6DJ-15 | 2026-09-04 12:16:25 | 49.22145 | 12.99900 | 327° | 13km/h | 26191m | 6.1m/s | -49.4°C | 1.0% | 22.4hPa | 2.7V | 00:00:00 | 00:00:00 | 00:00:00 | |
| PETON7-10 | 2026-09-04 12:16:24 | 49.22145 | 12.99900 | 328° | 16km/h | 26191m | 6.0m/s | -49.4°C | 3.7% | 22.3hPa | 2.7V | 03:51:00 | 00:00:00 | 00:00:00 | |
| DO3MHA-11 | 2026-09-04 12:16:23 | 49.22142 | 12.99902 | 343° | 15km/h | 26185m | 6.1m/s | -49.4°C | 3.7% | 22.4hPa | 2.7V | 00:00:00 | 02:13:44 | 00:00:00 | |
| BAUMI2-15 | 2026-09-04 12:16:18 | 49.22127 | 12.99913 | 291° | 18km/h | 26157m | 5.2m/s | -49.0°C | 3.3% | 22.5hPa | 2.7V | 00:00:00 | 02:13:39 | 00:00:00 | |
| PG1ADW-2 | 2026-09-04 12:16:17 | 49.22126 | 12.99919 | 288° | 16km/h | 26153m | 4.2m/s | -49.3°C | 3.4% | 22.5hPa | 2.6V | 00:00:00 | 00:00:00 | 00:00:00 | |
| OE5DXL-15 | 2026-09-04 12:16:15 | 49.22122 | 12.99930 | 308° | 15km/h | 26142m | 6.0m/s | -49.7°C | 3.6% | 22.5hPa | 2.6V | 03:51:00 | 00:00:00 | 00:00:00 | |
| DO3MHA-11 | 2026-09-04 12:16:13 | 49.22115 | 12.99941 | 318° | 16km/h | 26131m | 4.6m/s | -49.7°C | 3.5% | 22.5hPa | 2.7V | 03:51:00 | 02:13:34 | 00:00:00 | |
| PETON7-10 | 2026-09-04 12:16:09 | 49.22102 | 12.99967 | 306° | 15km/h | 26109m | 4.8m/s | -49.6°C | 3.7% | 22.6hPa | 2.7V | 00:00:00 | 00:00:00 | 00:00:00 | |
| OE5WHR-10 | 2026-09-04 12:16:05 | 49.22092 | 12.99984 | 299° | 15km/h | 26088m | 4.8m/s | -48.8°C | 3.6% | 22.7hPa | 2.7V | 00:00:00 | 02:13:26 | 00:00:00 | |
| SP3BTT-10 | 2026-09-04 12:16:04 | 49.22091 | 12.99988 | 278° | 11km/h | 26083m | 6.0m/s | -48.9°C | 3.6% | 22.7hPa | 2.7V | 00:00:00 | 00:00:00 | 00:00:00 | |
| DO3MHA-11 | 2026-09-04 12:16:03 | 49.22091 | 12.99993 | 263° | 13km/h | 26077m | 5.9m/s | -48.6°C | 3.4% | 22.7hPa | 2.7V | 00:00:00 | 02:13:24 | 00:00:00 | |
| EDDB2-11 | 2026-09-04 12:15:55 | 49.22087 | 13.00031 | 283° | 9km/h | 26033m | 6.2m/s | -49.7°C | 0.9% | 22.9hPa | 2.6V | 00:00:00 | 00:00:00 | 00:00:00 | |
| PETON7-10 | 2026-09-04 12:15:54 | 49.22086 | 13.00035 | 263° | 13km/h | 26028m | 5.2m/s | -49.5°C | 3.8% | 22.9hPa | 2.6V | 00:00:00 | 02:13:15 | 00:00:00 | |
| DO3MHA-11 | 2026-09-04 12:15:53 | 49.22087 | 13.00040 | 254° | 13km/h | 26023m | 4.9m/s | -49.4°C | 3.8% | 22.9hPa | 2.6V | 00:00:00 | 02:13:14 | 00:00:00 | |
| OE5MMP-10 | 2026-09-04 12:15:46 | 49.22100 | 13.00077 | 240° | 11km/h | 25985m | 4.1m/s | -49.1°C | 3.6% | 23.1hPa | 2.6V | 00:00:00 | 02:13:07 | 00:00:00 | |
| OE5WHR-10 | 2026-09-04 12:15:44 | 49.22103 | 13.00086 | 261° | 7km/h | 25976m | 6.4m/s | -49.4°C | 3.7% | 23.1hPa | 2.6V | 00:00:00 | 00:00:00 | 00:00:00 | |
| OE5DXL-15 | 2026-09-04 12:15:43 | 49.22103 | 13.00088 | 329° | 7km/h | 25969m | 5.8m/s | -49.0°C | 3.6% | 23.1hPa | 2.6V | 00:00:00 | 00:00:00 | 00:00:00 | |
| DO3MHA-11 | 2026-09-04 12:15:41 | 49.22100 | 13.00087 | 33° | 5km/h | 25960m | 4.3m/s | -49.4°C | 3.7% | 23.1hPa | 2.6V | 00:00:00 | 02:13:02 | 00:00:00 | |
| PETON7-10 | 2026-09-04 12:15:39 | 49.22099 | 13.00086 | 230° | 7km/h | 25949m | 5.4m/s | -49.0°C | 3.7% | 23.2hPa | 2.6V | 00:00:00 | 00:00:00 | 00:00:00 | |
| PG1ADW-2 | 2026-09-04 12:15:37 | 49.22101 | 13.00090 | 231° | 7km/h | 25939m | 4.6m/s | -48.8°C | 3.5% | 23.2hPa | 2.7V | 00:00:00 | 00:00:00 | 00:00:00 | |
| OE5MMP-10 | 2026-09-04 12:15:32 | 49.22107 | 13.00101 | 229° | 7km/h | 25913m | 4.5m/s | -48.9°C | 3.6% | 23.3hPa | 2.7V | 00:00:00 | 02:12:53 | 00:00:00 | |
| DO3MHA-11 | 2026-09-04 12:15:31 | 49.22108 | 13.00103 | 223° | 9km/h | 25908m | 5.3m/s | -49.0°C | 3.7% | 23.3hPa | 2.6V | 03:52:00 | 02:12:52 | 00:00:00 | |
| OE5REO-15 | 2026-09-04 12:15:28 | 49.22111 | 13.00107 | 218° | 13km/h | 25896m | 5.6m/s | -49.1°C | 1.0% | 23.4hPa | 2.7V | 03:52:00 | 00:00:00 | 00:00:00 | |
| PETON7-10 | 2026-09-04 12:15:24 | 49.22115 | 13.00121 | 309° | 9km/h | 25870m | 4.0m/s | -49.0°C | 3.6% | 23.5hPa | 2.7V | 03:52:00 | 00:00:00 | 00:00:00 | |
| OE5WHR-10 | 2026-09-04 12:15:23 | 49.22114 | 13.00123 | 292° | 9km/h | 25865m | 5.4m/s | -48.7°C | 3.5% | 23.5hPa | 2.7V | 00:00:00 | 00:00:00 | 00:00:00 | |
| OE5MMP-10 | 2026-09-04 12:15:22 | 49.22114 | 13.00126 | 263° | 9km/h | 25860m | 6.0m/s | -48.6°C | 3.5% | 23.5hPa | 2.7V | 03:52:00 | 02:12:43 | 00:00:00 | |
| DO3MHA-11 | 2026-09-04 12:15:21 | 49.22114 | 13.00129 | 245° | 9km/h | 25854m | 5.2m/s | -48.9°C | 3.6% | 23.5hPa | 2.7V | 00:00:00 | 02:12:42 | 00:00:00 | |
| SP3BTT-10 | 2026-09-04 12:15:19 | 49.22117 | 13.00135 | 240° | 9km/h | 25843m | 6.1m/s | -48.7°C | 3.5% | 23.6hPa | 2.7V | 00:00:00 | 00:00:00 | 00:00:00 | |
| PG1ADW-2 | 2026-09-04 12:15:17 | 49.22118 | 13.00140 | 243° | 9km/h | 25832m | 4.2m/s | -48.5°C | 3.5% | 23.6hPa | 2.7V | 00:00:00 | 02:12:38 | 00:00:00 | |
| OE5DXL-15 | 2026-09-04 12:15:13 | 49.22126 | 13.00151 | 216° | 9km/h | 25812m | 4.2m/s | -48.7°C | 3.5% | 23.7hPa | 2.7V | 00:00:00 | 00:00:00 | 00:00:00 | |
| DO3MHA-11 | 2026-09-04 12:15:11 | 49.22130 | 13.00157 | 244° | 7km/h | 25803m | 5.4m/s | -48.7°C | 3.5% | 23.7hPa | 2.7V | 00:00:00 | 02:12:32 | 00:00:00 | |
| OE5MMP-10 | 2026-09-04 12:15:10 | 49.22130 | 13.00159 | 286° | 7km/h | 25797m | 5.8m/s | -48.5°C | 3.4% | 23.7hPa | 2.7V | 00:00:00 | 02:12:31 | 00:00:00 | |
| PETON7-10 | 2026-09-04 12:15:09 | 49.22130 | 13.00161 | 338° | 11km/h | 25792m | 5.2m/s | -48.7°C | 3.5% | 23.8hPa | 2.7V | 00:00:00 | 02:12:30 | 00:00:00 | |
| DL1JEZ-13 | 2026-09-04 12:15:08 | 49.22130 | 13.00161 | 339° | 5km/h | 25792m | 5.3m/s | -48.8°C | 0.9% | 23.8hPa | 2.7V | 00:00:00 | 00:00:00 | 00:00:00 | |
| OE5WHR-10 | 2026-09-04 12:15:02 | 49.22138 | 13.00159 | 196° | 9km/h | 25755m | 5.5m/s | -48.6°C | 3.5% | 23.9hPa | 2.7V | 03:52:00 | 02:12:23 | 00:00:00 | |
| DO3MHA-11 | 2026-09-04 12:15:01 | 49.22141 | 13.00160 | 208° | 11km/h | 25750m | 4.5m/s | -48.5°C | 3.4% | 23.9hPa | 2.7V | 00:00:00 | 02:12:22 | 00:00:00 | |
| OE5MMP-10 | 2026-09-04 12:15:00 | 49.22144 | 13.00162 | 208° | 11km/h | 25745m | 5.0m/s | -48.7°C | 3.5% | 23.9hPa | 2.6V | 00:00:00 | 02:12:21 | 00:00:00 | |
| PG1ADW-2 | 2026-09-04 12:14:57 | 49.22153 | 13.00170 | 216° | 9km/h | 25729m | 4.1m/s | -48.6°C | 3.5% | 24.0hPa | 2.7V | 00:00:00 | 00:00:00 | 00:00:00 | |
| PETON7-10 | 2026-09-04 12:14:54 | 49.22156 | 13.00181 | 288° | 9km/h | 25712m | 5.5m/s | -48.6°C | 3.4% | 24.0hPa | 2.6V | 00:00:00 | 00:00:00 | 00:00:00 | |
| DO3MHA-11 | 2026-09-04 12:14:51 | 49.22155 | 13.00187 | 202° | 9km/h | 25696m | 5.5m/s | -48.6°C | 3.4% | 24.1hPa | 2.7V | 03:53:00 | 02:12:12 | 00:00:00 | |
| OE5MMP-10 | 2026-09-04 12:14:50 | 49.22156 | 13.00187 | 173° | 9km/h | 25691m | 4.5m/s | -48.2°C | 3.3% | 24.1hPa | 2.7V | 00:00:00 | 02:12:11 | 00:00:00 | |
| SP3BTT-10 | 2026-09-04 12:14:49 | 49.22158 | 13.00187 | 180° | 7km/h | 25686m | 4.4m/s | -48.1°C | 3.3% | 24.1hPa | 2.7V | 03:53:00 | 00:00:00 | 00:00:00 | |
| OE5DXL-15 | 2026-09-04 12:14:43 | 49.22171 | 13.00199 | 209° | 9km/h | 25656m | 5.8m/s | -48.6°C | 3.4% | 24.2hPa | 2.7V | 00:00:00 | 00:00:00 | 00:00:00 | |
| DO3MHA-11 | 2026-09-04 12:14:41 | 49.22174 | 13.00202 | 235° | 11km/h | 25646m | 4.4m/s | -48.5°C | 3.4% | 24.3hPa | 2.7V | 00:00:00 | 02:12:02 | 00:00:00 | |
| OE5MMP-10 | 2026-09-04 12:14:40 | 49.22175 | 13.00205 | 260° | 7km/h | 25640m | 5.6m/s | -48.9°C | 3.5% | 24.3hPa | 2.7V | 03:53:00 | 02:12:01 | 00:00:00 | |
| PETON7-10 | 2026-09-04 12:14:39 | 49.22175 | 13.00210 | 272° | 9km/h | 25635m | 6.0m/s | -49.1°C | 3.6% | 24.3hPa | 2.7V | 00:00:00 | 00:00:00 | 00:00:00 | |
| PG1ADW-2 | 2026-09-04 12:14:37 | 49.22175 | 13.00221 | 270° | 9km/h | 25625m | 4.2m/s | -48.9°C | 3.6% | 24.4hPa | 2.7V | 03:53:00 | 00:00:00 | 00:00:00 | |
| DO3MHA-11 | 2026-09-04 12:14:31 | 49.22184 | 13.00230 | 204° | 9km/h | 25594m | 5.2m/s | -48.5°C | 3.6% | 24.5hPa | 2.7V | 00:00:00 | 02:11:52 | 00:00:00 | |
| OE5REO-15 | 2026-09-04 12:14:25 | 49.22188 | 13.00238 | 247° | 9km/h | 25567m | 5.2m/s | -48.7°C | 1.0% | 24.7hPa | 2.6V | 03:53:00 | 00:00:00 | 00:00:00 | |
| DM0DOS-11 | 2026-09-04 12:14:24 | 49.22193 | 13.00251 | 232° | 15km/h | 25550m | 4.2m/s | 0°C | 0% | 0hPa | 2.6V | 03:53:32 | 02:11:44 | 00:00:00 | |
| OE5MMP-10 | 2026-09-04 12:14:24 | 49.22191 | 13.00246 | 238° | 7km/h | 25556m | 4.9m/s | 0°C | 0% | 0hPa | 2.7V | 00:00:00 | 02:11:45 | 00:00:00 | |
| EDDB2-11 | 2026-09-04 12:14:22 | 49.22195 | 13.00254 | 224° | 9km/h | 25546m | 5.3m/s | -48.3°C | 1.0% | 24.7hPa | 2.6V | 00:00:00 | 00:00:00 | 00:00:00 | |
| DO3MHA-11 | 2026-09-04 12:14:21 | 49.22197 | 13.00256 | 199° | 5km/h | 25540m | 6.1m/s | -47.9°C | 3.5% | 24.7hPa | 2.6V | 00:00:00 | 02:11:42 | 00:00:00 | |
| OE5WHR-10 | 2026-09-04 12:14:20 | 49.22197 | 13.00255 | 108° | 5km/h | 25535m | 5.2m/s | -47.6°C | 3.3% | 24.7hPa | 2.6V | 00:00:00 | 00:00:00 | 00:00:00 | |
| PG1ADW-2 | 2026-09-04 12:14:17 | 49.22197 | 13.00247 | 95° | 5km/h | 25518m | 5.6m/s | -47.9°C | 3.5% | 24.8hPa | 2.6V | 00:00:00 | 00:00:00 | 00:00:00 | |
| DM0DOS-11 | 2026-09-04 12:14:13 | 49.22198 | 13.00237 | 91° | 9km/h | 25491m | 5.3m/s | 0°C | 0% | 0hPa | 2.6V | 03:53:43 | 02:11:33 | 00:00:00 | |
| OE5DXL-15 | 2026-09-04 12:14:13 | 49.22199 | 13.00240 | 95° | 7km/h | 25497m | 6.4m/s | -47.7°C | 3.5% | 24.9hPa | 2.7V | 03:53:00 | 00:00:00 | 00:00:00 | |
| OE5MMP-10 | 2026-09-04 12:14:12 | 49.22199 | 13.00237 | 92° | 5km/h | 25491m | 5.3m/s | -47.6°C | 3.5% | 24.9hPa | 2.7V | 00:00:00 | 02:11:33 | 00:00:00 | |
| DO3MHA-11 | 2026-09-04 12:14:11 | 49.22199 | 13.00234 | 101° | 5km/h | 25486m | 4.8m/s | -48.4°C | 3.7% | 24.9hPa | 2.7V | 03:53:00 | 02:11:32 | 00:00:00 | |
| OE5REO-15 | 2026-09-04 12:14:10 | 49.22199 | 13.00234 | 101° | 9km/h | 25486m | 4.9m/s | -48.5°C | 1.0% | 24.9hPa | 2.7V | 03:54:00 | 00:00:00 | 00:00:00 | |
| PETON7-10 | 2026-09-04 12:14:09 | 49.22201 | 13.00229 | 156° | 5km/h | 25475m | 5.9m/s | -48.5°C | 3.7% | 25.0hPa | 2.7V | 00:00:00 | 00:00:00 | 00:00:00 | |
| BAUMI2-15 | 2026-09-04 12:14:06 | 49.22204 | 13.00227 | 119° | 4km/h | 25458m | 6.6m/s | -48.5°C | 3.7% | 25.0hPa | 2.7V | 00:00:00 | 02:11:27 | 00:00:00 | |
| SP3BTT-10 | 2026-09-04 12:14:04 | 49.22203 | 13.00225 | 43° | 7km/h | 25447m | 5.3m/s | -48.3°C | 3.6% | 25.0hPa | 2.7V | 00:00:00 | 00:00:00 | 00:00:00 | |
| OE5MMP-10 | 2026-09-04 12:14:02 | 49.22202 | 13.00224 | 330° | 7km/h | 25435m | 5.2m/s | -47.6°C | 3.4% | 25.1hPa | 2.7V | 00:00:00 | 02:11:23 | 00:00:00 | |
| DO3MHA-11 | 2026-09-04 12:14:01 | 49.22202 | 13.00224 | 37° | 5km/h | 25430m | 3.7m/s | -48.0°C | 3.6% | 25.1hPa | 2.7V | 00:00:00 | 02:11:22 | 00:00:00 | |
| OE5WHR-10 | 2026-09-04 12:13:59 | 49.22201 | 13.00221 | 63° | 9km/h | 25419m | 6.6m/s | -48.3°C | 3.6% | 25.1hPa | 2.6V | 00:00:00 | 02:11:20 | 00:00:00 | |
| PG1ADW-2 | 2026-09-04 12:13:57 | 49.22199 | 13.00215 | 62° | 11km/h | 25408m | 5.0m/s | -47.8°C | 3.5% | 25.2hPa | 2.6V | 00:00:00 | 02:11:18 | 00:00:00 | |
| BAUMI2-15 | 2026-09-04 12:13:56 | 49.22198 | 13.00213 | 57° | 4km/h | 25403m | 6.5m/s | -47.6°C | 3.4% | 25.2hPa | 2.7V | 00:00:00 | 02:11:17 | 00:00:00 | |
| OE5REO-15 | 2026-09-04 12:13:55 | 49.22198 | 13.00213 | 58° | 5km/h | 25403m | 6.5m/s | -47.7°C | 0.9% | 25.3hPa | 2.7V | 03:54:00 | 00:00:00 | 00:00:00 | |
| PETON7-10 | 2026-09-04 12:13:54 | 49.22197 | 13.00211 | 58° | 9km/h | 25392m | 4.9m/s | -48.1°C | 3.6% | 25.3hPa | 2.7V | 00:00:00 | 00:00:00 | 00:00:00 | |
| BAUMI2-15 | 2026-09-04 12:13:51 | 49.22194 | 13.00203 | 65° | 9km/h | 25375m | 5.1m/s | -47.6°C | 3.2% | 25.3hPa | 2.7V | 03:54:00 | 02:11:12 | 00:00:00 | |
| OE5MMP-10 | 2026-09-04 12:13:49 | 49.22192 | 13.00196 | 52° | 11km/h | 25363m | 6.0m/s | -47.9°C | 3.2% | 25.4hPa | 2.7V | 03:54:00 | 02:11:10 | 00:00:00 | |
| BAUMI2-15 | 2026-09-04 12:13:46 | 49.22188 | 13.00189 | 58° | 13km/h | 25348m | 6.1m/s | -48.7°C | 3.5% | 25.4hPa | 2.6V | 00:00:00 | 02:11:07 | 00:00:00 | |
| OE5DXL-15 | 2026-09-04 12:13:43 | 49.22184 | 13.00174 | 75° | 13km/h | 25332m | 4.4m/s | -48.3°C | 3.4% | 25.5hPa | 2.6V | 00:00:00 | 00:00:00 | 00:00:00 | |
| DO3MHA-11 | 2026-09-04 12:13:41 | 49.22183 | 13.00165 | 103° | 15km/h | 25320m | 6.0m/s | -48.4°C | 3.4% | 25.5hPa | 2.6V | 00:00:00 | 02:11:02 | 00:00:00 | |
| EDDB2-12 | 2026-09-04 12:13:40 | 49.22184 | 13.00160 | 112° | 5km/h | 25310m | 4.8m/s | -48.7°C | 0.9% | 25.6hPa | 2.6V | 00:00:00 | 00:00:00 | 00:00:00 | |
| PETON7-10 | 2026-09-04 12:13:39 | 49.22184 | 13.00160 | 113° | 11km/h | 25310m | 4.7m/s | -48.6°C | 3.3% | 25.6hPa | 2.6V | 00:00:00 | 02:11:00 | 00:00:00 | |
| OE5WHR-10 | 2026-09-04 12:13:38 | 49.22185 | 13.00158 | 102° | 13km/h | 25304m | 6.3m/s | -48.9°C | 3.5% | 25.6hPa | 2.6V | 03:54:00 | 00:00:00 | 00:00:00 | |
| BAUMI2-15 | 2026-09-04 12:13:36 | 49.22185 | 13.00150 | 88° | 7km/h | 25294m | 4.6m/s | -48.7°C | 3.4% | 25.6hPa | 2.7V | 00:00:00 | 02:10:57 | 00:00:00 | |
| BAUMI2-15 | 2026-09-04 12:13:30 | 49.22186 | 13.00130 | 94° | 16km/h | 25260m | 5.9m/s | -48.8°C | 3.5% | 25.8hPa | 2.7V | 03:54:00 | 02:10:51 | 00:00:00 | |
| OE5MMP-10 | 2026-09-04 12:13:29 | 49.22186 | 13.00123 | 95° | 16km/h | 25255m | 5.2m/s | -48.8°C | 3.5% | 25.8hPa | 2.7V | 00:00:00 | 02:10:50 | 00:00:00 | |
| BAUMI2-15 | 2026-09-04 12:13:25 | 49.22190 | 13.00100 | 117° | 16km/h | 25233m | 4.4m/s | -48.4°C | 3.4% | 25.9hPa | 2.7V | 00:00:00 | 02:10:46 | 00:00:00 | |
| PETON7-10 | 2026-09-04 12:13:24 | 49.22191 | 13.00095 | 116° | 15km/h | 25228m | 5.2m/s | -48.3°C | 3.3% | 25.9hPa | 2.7V | 03:54:00 | 00:00:00 | 00:00:00 | |
| DO3MHA-11 | 2026-09-04 12:13:22 | 49.22194 | 13.00084 | 104° | 16km/h | 25216m | 5.4m/s | -47.8°C | 3.1% | 25.9hPa | 2.6V | 03:54:00 | 02:10:43 | 00:00:00 | |
| BAUMI2-15 | 2026-09-04 12:13:20 | 49.22195 | 13.00071 | 96° | 16km/h | 25205m | 6.4m/s | -48.6°C | 3.3% | 26.0hPa | 2.7V | 00:00:00 | 02:10:41 | 00:00:00 | |
| OE5MMP-10 | 2026-09-04 12:13:19 | 49.22195 | 13.00065 | 91° | 15km/h | 25199m | 5.7m/s | -48.3°C | 3.3% | 26.0hPa | 2.7V | 00:00:00 | 02:10:40 | 00:00:00 | |
| DL6DJ-15 | 2026-09-04 12:13:18 | 49.22195 | 13.00060 | 84° | 13km/h | 25194m | 5.0m/s | -48.0°C | 0.9% | 26.1hPa | 2.7V | 00:00:00 | 00:00:00 | 00:00:00 | |
| OE5WHR-10 | 2026-09-04 12:13:17 | 49.22195 | 13.00054 | 85° | 13km/h | 25189m | 5.6m/s | -47.7°C | 3.0% | 26.1hPa | 2.7V | 00:00:00 | 00:00:00 | 00:00:00 | |
| BAUMI2-15 | 2026-09-04 12:13:15 | 49.22195 | 13.00039 | 92° | 18km/h | 25177m | 5.0m/s | -48.1°C | 3.2% | 26.1hPa | 2.7V | 00:00:00 | 02:10:36 | 00:00:00 | |
| OE5DXL-15 | 2026-09-04 12:13:13 | 49.22195 | 13.00024 | 97° | 9km/h | 25167m | 5.9m/s | -48.6°C | 3.4% | 26.1hPa | 2.7V | 00:00:00 | 00:00:00 | 00:00:00 | |
| DO3MHA-11 | 2026-09-04 12:13:12 | 49.22195 | 13.00019 | 100° | 7km/h | 25161m | 6.2m/s | -48.5°C | 3.3% | 26.2hPa | 2.6V | 00:00:00 | 02:10:33 | 00:00:00 | |
| BAUMI2-15 | 2026-09-04 12:13:10 | 49.22197 | 13.00013 | 122° | 7km/h | 25150m | 5.2m/s | -48.2°C | 3.2% | 26.2hPa | 2.6V | 03:54:00 | 02:10:31 | 00:00:00 | |
| OE5MMP-10 | 2026-09-04 12:13:09 | 49.22198 | 13.00010 | 128° | 9km/h | 25144m | 6.2m/s | -48.8°C | 3.5% | 26.2hPa | 2.6V | 03:54:00 | 02:10:30 | 00:00:00 | |
| OE5REO-15 | 2026-09-04 12:13:08 | 49.22198 | 13.00010 | 129° | 9km/h | 25144m | 6.2m/s | -48.8°C | 0.9% | 26.3hPa | 2.6V | 03:55:00 | 00:00:00 | 00:00:00 | |
| BAUMI2-15 | 2026-09-04 12:13:05 | 49.22202 | 13.00001 | 108° | 7km/h | 25123m | 6.1m/s | -49.1°C | 3.5% | 26.3hPa | 2.6V | 00:00:00 | 02:10:26 | 00:00:00 | |
| PG1ADW-2 | 2026-09-04 12:13:04 | 49.22202 | 12.99999 | 65° | 9km/h | 25117m | 5.1m/s | -49.1°C | 3.5% | 26.3hPa | 2.6V | 03:54:00 | 00:00:00 | 00:00:00 | |
| SP3BTT-10 | 2026-09-04 12:13:03 | 49.22201 | 12.99998 | 59° | 13km/h | 25112m | 5.1m/s | -49.2°C | 3.5% | 26.4hPa | 2.6V | 00:00:00 | 00:00:00 | 00:00:00 | |
| DO3MHA-11 | 2026-09-04 12:13:02 | 49.22200 | 12.99995 | 62° | 11km/h | 25106m | 6.4m/s | -49.3°C | 3.4% | 26.4hPa | 2.6V | 00:00:00 | 02:10:23 | 00:00:00 | |
| BAUMI2-15 | 2026-09-04 12:13:00 | 49.22196 | 12.99985 | 55° | 15km/h | 25095m | 4.4m/s | -49.4°C | 3.5% | 26.4hPa | 2.6V | 00:00:00 | 02:10:21 | 00:00:00 | |
| OE5MMP-10 | 2026-09-04 12:12:59 | 49.22193 | 12.99980 | 46° | 9km/h | 25090m | 5.1m/s | -49.3°C | 3.4% | 26.5hPa | 2.7V | 00:00:00 | 02:10:20 | 00:00:00 | |
| OE5WHR-10 | 2026-09-04 12:12:56 | 49.22184 | 12.99972 | 7° | 9km/h | 25074m | 4.3m/s | -48.7°C | 3.3% | 26.5hPa | 2.7V | 00:00:00 | 02:10:17 | 00:00:00 | |
| BAUMI2-15 | 2026-09-04 12:12:55 | 49.22183 | 12.99972 | 17° | 7km/h | 25069m | 4.8m/s | -49.1°C | 3.4% | 26.6hPa | 2.7V | 00:00:00 | 02:10:16 | 00:00:00 | |
| PETON7-10 | 2026-09-04 12:12:54 | 49.22182 | 12.99971 | 70° | 9km/h | 25064m | 6.1m/s | -49.1°C | 3.5% | 26.6hPa | 2.7V | 00:00:00 | 02:10:15 | 00:00:00 | |
| DO3MHA-11 | 2026-09-04 12:12:52 | 49.22182 | 12.99966 | 108° | 7km/h | 25052m | 4.9m/s | -48.8°C | 3.4% | 26.6hPa | 2.7V | 00:00:00 | 02:10:13 | 00:00:00 | |
| DM0DOS-11 | 2026-09-04 12:12:51 | 49.22180 | 12.99956 | 3° | 5km/h | 25020m | 5.3m/s | 0°C | 0% | 0hPa | 2.7V | 03:55:09 | 02:10:07 | 00:00:00 | |
| EDDB2-11 | 2026-09-04 12:12:49 | 49.22181 | 12.99956 | 350° | 5km/h | 25025m | 5.1m/s | -49.1°C | 0.9% | 26.8hPa | 2.6V | 00:00:00 | 00:00:00 | 00:00:00 | |
| DL6DJ-15 | 2026-09-04 12:12:47 | 49.22181 | 12.99956 | 350° | 5km/h | 25025m | 5.1m/s | -49.1°C | 0.9% | 26.8hPa | 2.6V | 00:00:00 | 00:00:00 | 00:00:00 | |
| BAUMI2-15 | 2026-09-04 12:12:45 | 49.22178 | 12.99955 | 27° | 9km/h | 25014m | 6.5m/s | -48.9°C | 3.4% | 26.8hPa | 2.6V | 00:00:00 | 02:10:06 | 00:00:00 | |
| PG1ADW-2 | 2026-09-04 12:12:44 | 49.22177 | 12.99954 | 42° | 11km/h | 25008m | 5.1m/s | -48.9°C | 3.3% | 26.8hPa | 2.6V | 00:00:00 | 00:00:00 | 00:00:00 | |
| OE5DXL-15 | 2026-09-04 12:12:43 | 49.22175 | 12.99951 | 38° | 9km/h | 25003m | 4.6m/s | -49.2°C | 3.5% | 26.8hPa | 2.6V | 00:00:00 | 00:00:00 | 00:00:00 | |
| DO3MHA-11 | 2026-09-04 12:12:42 | 49.22172 | 12.99949 | 24° | 11km/h | 24998m | 6.5m/s | -48.9°C | 3.4% | 26.8hPa | 2.6V | 03:55:00 | 02:10:03 | 00:00:00 | |
| BAUMI2-15 | 2026-09-04 12:12:40 | 49.22166 | 12.99947 | 15° | 13km/h | 24986m | 4.9m/s | -48.8°C | 3.4% | 26.9hPa | 2.6V | 00:00:00 | 02:10:01 | 00:00:00 | |
| PETON7-10 | 2026-09-04 12:12:39 | 49.22163 | 12.99945 | 23° | 11km/h | 24981m | 5.2m/s | -49.3°C | 3.6% | 26.9hPa | 2.6V | 00:00:00 | 00:00:00 | 00:00:00 | |
| EDDB2-12 | 2026-09-04 12:12:38 | 49.22160 | 12.99942 | 35° | 13km/h | 24975m | 6.6m/s | -49.1°C | 0.9% | 27.0hPa | 2.6V | 00:00:00 | 00:00:00 | 00:00:00 | |
| OE5REO-15 | 2026-09-04 12:12:36 | 49.22158 | 12.99939 | 51° | 13km/h | 24969m | 5.5m/s | -48.8°C | 0.9% | 27.0hPa | 2.6V | 03:56:00 | 00:00:00 | 00:00:00 | |
| OE5WHR-10 | 2026-09-04 12:12:35 | 49.22154 | 12.99933 | 38° | 9km/h | 24959m | 5.0m/s | -49.6°C | 3.6% | 27.0hPa | 2.6V | 00:00:00 | 00:00:00 | 00:00:00 | |
| DO3MHA-11 | 2026-09-04 12:12:32 | 49.22147 | 12.99934 | 335° | 13km/h | 24942m | 5.1m/s | -49.1°C | 3.3% | 27.1hPa | 2.6V | 00:00:00 | 02:09:53 | 00:00:00 | |
| BAUMI2-15 | 2026-09-04 12:12:30 | 49.22143 | 12.99936 | 358° | 13km/h | 24931m | 5.7m/s | -49.1°C | 3.2% | 27.1hPa | 2.6V | 03:55:00 | 02:09:51 | 00:00:00 | |
| OE5MMP-10 | 2026-09-04 12:12:29 | 49.22140 | 12.99936 | 14° | 11km/h | 24925m | 5.3m/s | -49.8°C | 3.4% | 27.1hPa | 2.6V | 03:55:00 | 02:09:50 | 00:00:00 | |
| BAUMI2-15 | 2026-09-04 12:12:25 | 49.22127 | 12.99934 | 350° | 9km/h | 24903m | 4.9m/s | -50.0°C | 3.6% | 27.2hPa | 2.6V | 00:00:00 | 02:09:46 | 00:00:00 | |
| PETON7-10 | 2026-09-04 12:12:24 | 49.22123 | 12.99936 | 346° | 7km/h | 24899m | 4.5m/s | -49.9°C | 3.6% | 27.3hPa | 2.6V | 03:55:00 | 00:00:00 | 00:00:00 | |
| DO3MHA-11 | 2026-09-04 12:12:22 | 49.22118 | 12.99938 | 336° | 5km/h | 24887m | 6.1m/s | -49.6°C | 3.6% | 27.3hPa | 2.6V | 00:00:00 | 02:09:43 | 00:00:00 | |
| BAUMI2-15 | 2026-09-04 12:12:20 | 49.22119 | 12.99939 | 207° | 7km/h | 24876m | 5.0m/s | -49.7°C | 3.6% | 27.3hPa | 2.6V | 00:00:00 | 02:09:41 | 00:00:00 | |
| OE5MMP-10 | 2026-09-04 12:12:19 | 49.22121 | 12.99941 | 218° | 7km/h | 24871m | 6.2m/s | -49.8°C | 3.6% | 27.4hPa | 2.6V | 00:00:00 | 02:09:40 | 00:00:00 | |
| EDDB2-11 | 2026-09-04 12:12:18 | 49.22123 | 12.99944 | 227° | 9km/h | 24865m | 5.2m/s | -49.8°C | 1.0% | 27.4hPa | 2.6V | 00:00:00 | 00:00:00 | 00:00:00 | |
| DL6DJ-15 | 2026-09-04 12:12:16 | 49.22125 | 12.99948 | 228° | 4km/h | 24855m | 5.5m/s | -49.3°C | 0.9% | 27.5hPa | 2.6V | 00:00:00 | 00:00:00 | 00:00:00 | |
| BAUMI2-15 | 2026-09-04 12:12:15 | 49.22126 | 12.99948 | 109° | 5km/h | 24849m | 6.6m/s | -49.7°C | 3.7% | 27.4hPa | 2.6V | 00:00:00 | 02:09:36 | 00:00:00 | |
| OE5WHR-10 | 2026-09-04 12:12:14 | 49.22125 | 12.99947 | 74° | 13km/h | 24843m | 5.4m/s | -49.9°C | 3.7% | 27.5hPa | 2.6V | 03:55:00 | 00:00:00 | 00:00:00 | |
| OE5DXL-15 | 2026-09-04 12:12:13 | 49.22125 | 12.99945 | 61° | 15km/h | 24838m | 4.6m/s | -50.1°C | 3.7% | 27.5hPa | 2.6V | 03:55:00 | 00:00:00 | 00:00:00 | |
| DO3MHA-11 | 2026-09-04 12:12:12 | 49.22124 | 12.99943 | 35° | 15km/h | 24833m | 5.6m/s | -50.3°C | 3.7% | 27.5hPa | 2.6V | 00:00:00 | 02:09:33 | 00:00:00 | |
| SONDE2-11 | 2026-09-04 12:12:11 | 49.22123 | 12.99942 | 344° | 4km/h | 24827m | 5.6m/s | -50.2°C | 1.0% | 27.6hPa | 2.6V | 00:00:00 | 00:00:00 | 00:00:00 | |
| PETON7-10 | 2026-09-04 12:12:09 | 49.22122 | 12.99946 | 235° | 15km/h | 24818m | 4.2m/s | -49.8°C | 3.4% | 27.6hPa | 2.6V | 00:00:00 | 02:09:30 | 00:00:00 | |
| EDDB2-12 | 2026-09-04 12:12:07 | 49.22132 | 12.99950 | 182° | 20km/h | 24801m | 5.4m/s | -49.0°C | 0.8% | 27.7hPa | 2.6V | 00:00:00 | 00:00:00 | 00:00:00 | |
| OE5REO-15 | 2026-09-04 12:12:05 | 49.22132 | 12.99950 | 184° | 20km/h | 24801m | 5.4m/s | -49.0°C | 0.8% | 27.7hPa | 2.6V | 03:56:00 | 00:00:00 | 00:00:00 | |
| PG1ADW-2 | 2026-09-04 12:12:04 | 49.22143 | 12.99951 | 186° | 15km/h | 24790m | 6.1m/s | -50.0°C | 3.6% | 27.7hPa | 2.6V | 00:00:00 | 00:00:00 | 00:00:00 | |
| SP3BTT-10 | 2026-09-04 12:12:03 | 49.22149 | 12.99952 | 190° | 20km/h | 24785m | 5.6m/s | -50.1°C | 3.6% | 27.7hPa | 2.6V | 00:00:00 | 00:00:00 | 00:00:00 | |
| EDDB2-11 | 2026-09-04 12:11:47 | 49.22211 | 12.99949 | 173° | 9km/h | 24695m | 5.0m/s | -50.6°C | 1.0% | 28.2hPa | 2.7V | 00:00:00 | 00:00:00 | 00:00:00 | |
| DL6DJ-15 | 2026-09-04 12:11:45 | 49.22214 | 12.99948 | 152° | 7km/h | 24689m | 6.1m/s | -50.4°C | 1.0% | 28.2hPa | 2.7V | 00:00:00 | 00:00:00 | 00:00:00 | |
| PG1ADW-2 | 2026-09-04 12:11:44 | 49.22216 | 12.99946 | 134° | 13km/h | 24684m | 5.1m/s | -49.9°C | 3.6% | 28.2hPa | 2.7V | 03:56:00 | 00:00:00 | 00:00:00 | |
| OE5DXL-15 | 2026-09-04 12:11:43 | 49.22217 | 12.99943 | 130° | 18km/h | 24679m | 4.0m/s | -49.6°C | 3.5% | 28.2hPa | 2.7V | 00:00:00 | 00:00:00 | 00:00:00 | |
| DO3MHA-11 | 2026-09-04 12:11:42 | 49.22219 | 12.99941 | 146° | 13km/h | 24675m | 4.4m/s | -49.9°C | 3.5% | 28.2hPa | 2.7V | 00:00:00 | 02:09:03 | 00:00:00 | |
| SONDE2-11 | 2026-09-04 12:11:40 | 49.22223 | 12.99941 | 199° | 11km/h | 24664m | 5.5m/s | -50.4°C | 1.0% | 28.3hPa | 2.7V | 00:00:00 | 00:00:00 | 00:00:00 | |
| OE5MMP-10 | 2026-09-04 12:11:39 | 49.22225 | 12.99943 | 206° | 15km/h | 24659m | 4.3m/s | -50.2°C | 3.6% | 28.3hPa | 2.7V | 00:00:00 | 02:09:00 | 00:00:00 | |
| EDDB2-12 | 2026-09-04 12:11:36 | 49.22235 | 12.99947 | 180° | 11km/h | 24643m | 5.4m/s | -50.3°C | 1.0% | 28.4hPa | 2.7V | 00:00:00 | 00:00:00 | 00:00:00 | |
| OE5REO-15 | 2026-09-04 12:11:34 | 49.22238 | 12.99947 | 175° | 13km/h | 24638m | 5.0m/s | -50.5°C | 1.0% | 28.4hPa | 2.7V | 03:56:00 | 00:00:00 | 00:00:00 | |
| OE5WHR-10 | 2026-09-04 12:11:32 | 49.22249 | 12.99945 | 174° | 22km/h | 24622m | 5.0m/s | -50.3°C | 3.7% | 28.4hPa | 2.7V | 00:00:00 | 00:00:00 | 00:00:00 | |
| PETON7-10 | 2026-09-04 12:11:24 | 49.22279 | 12.99924 | 168° | 24km/h | 24579m | 4.8m/s | -50.7°C | 3.7% | 28.6hPa | 2.7V | 03:56:00 | 02:08:45 | 00:00:00 | |
| DO3MHA-11 | 2026-09-04 12:11:22 | 49.22290 | 12.99919 | 159° | 26km/h | 24567m | 5.7m/s | -50.2°C | 3.6% | 28.7hPa | 2.7V | 03:56:00 | 02:08:43 | 00:00:00 | |
| DM0DOS-11 | 2026-09-04 12:11:19 | 49.22309 | 12.99909 | 165° | 26km/h | 24551m | 5.2m/s | 0°C | 0% | 0hPa | 2.6V | 03:56:36 | 02:08:40 | 00:00:00 | |
| OE5MMP-10 | 2026-09-04 12:11:19 | 49.22309 | 12.99909 | 166° | 24km/h | 24551m | 5.2m/s | -49.8°C | 3.4% | 28.7hPa | 2.6V | 00:00:00 | 02:08:40 | 00:00:00 | |
| SP3BTT-10 | 2026-09-04 12:11:18 | 49.22316 | 12.99906 | 162° | 26km/h | 24546m | 4.4m/s | -50.3°C | 3.6% | 28.8hPa | 2.6V | 03:56:00 | 00:00:00 | 00:00:00 | |
| EDDB2-11 | 2026-09-04 12:11:16 | 49.22332 | 12.99891 | 138° | 24km/h | 24530m | 4.5m/s | -50.4°C | 1.0% | 28.9hPa | 2.6V | 00:00:00 | 00:00:00 | 00:00:00 | |
| DL6DJ-15 | 2026-09-04 12:11:14 | 49.22341 | 12.99880 | 143° | 22km/h | 24520m | 6.2m/s | -50.2°C | 0.9% | 28.9hPa | 2.6V | 00:00:00 | 00:00:00 | 00:00:00 | |
| OE5DXL-15 | 2026-09-04 12:11:13 | 49.22341 | 12.99880 | 144° | 24km/h | 24520m | 6.2m/s | -50.1°C | 3.5% | 28.9hPa | 2.6V | 00:00:00 | 00:00:00 | 00:00:00 | |
| DO3MHA-11 | 2026-09-04 12:11:12 | 49.22346 | 12.99875 | 150° | 24km/h | 24514m | 5.2m/s | -50.4°C | 3.6% | 28.9hPa | 2.6V | 00:00:00 | 02:08:33 | 00:00:00 | |
| OE5WHR-10 | 2026-09-04 12:11:11 | 49.22350 | 12.99870 | 149° | 26km/h | 24509m | 4.6m/s | -50.6°C | 3.7% | 28.9hPa | 2.6V | 00:00:00 | 00:00:00 | 00:00:00 | |
| PETON7-10 | 2026-09-04 12:11:09 | 49.22359 | 12.99859 | 134° | 24km/h | 24498m | 6.0m/s | -50.6°C | 3.7% | 29.0hPa | 2.6V | 00:00:00 | 00:00:00 | 00:00:00 | |
| EDDB2-12 | 2026-09-04 12:11:05 | 49.22382 | 12.99825 | 145° | 24km/h | 24472m | 4.9m/s | -50.9°C | 1.0% | 29.1hPa | 2.6V | 00:00:00 | 00:00:00 | 00:00:00 | |
| PG1ADW-2 | 2026-09-04 12:11:04 | 49.22382 | 12.99825 | 146° | 26km/h | 24472m | 4.8m/s | -50.8°C | 3.9% | 29.1hPa | 2.6V | 00:00:00 | 02:08:25 | 00:00:00 | |
| OE5REO-15 | 2026-09-04 12:11:03 | 49.22382 | 12.99825 | 147° | 24km/h | 24472m | 4.9m/s | -50.9°C | 1.0% | 29.1hPa | 2.6V | 03:56:00 | 00:00:00 | 00:00:00 | |
| DO3MHA-11 | 2026-09-04 12:11:02 | 49.22392 | 12.99814 | 137° | 24km/h | 24462m | 6.1m/s | -50.8°C | 3.8% | 29.2hPa | 2.6V | 00:00:00 | 02:08:23 | 00:00:00 | |
| OE5MMP-10 | 2026-09-04 12:10:59 | 49.22402 | 12.99792 | 124° | 26km/h | 24447m | 4.4m/s | -50.5°C | 3.6% | 29.2hPa | 2.6V | 00:00:00 | 02:08:20 | 00:00:00 | |
| PETON7-10 | 2026-09-04 12:10:54 | 49.22421 | 12.99762 | 133° | 24km/h | 24422m | 5.6m/s | -51.3°C | 3.7% | 29.3hPa | 2.6V | 00:00:00 | 00:00:00 | 00:00:00 | |
| DO3MHA-11 | 2026-09-04 12:10:52 | 49.22429 | 12.99744 | 119° | 26km/h | 24411m | 4.7m/s | -51.5°C | 3.7% | 29.4hPa | 2.6V | 00:00:00 | 02:08:13 | 00:00:00 | |
| OE5WHR-10 | 2026-09-04 12:10:50 | 49.22437 | 12.99721 | 121° | 22km/h | 24401m | 5.9m/s | -51.4°C | 3.8% | 29.5hPa | 2.7V | 03:57:00 | 02:08:11 | 00:00:00 | |
| OE5MMP-10 | 2026-09-04 12:10:49 | 49.22441 | 12.99712 | 124° | 20km/h | 24395m | 5.3m/s | -51.3°C | 3.8% | 29.5hPa | 2.7V | 00:00:00 | 02:08:10 | 00:00:00 | |
| SP3BTT-10 | 2026-09-04 12:10:48 | 49.22445 | 12.99703 | 122° | 15km/h | 24390m | 4.7m/s | -51.4°C | 3.9% | 29.5hPa | 2.7V | 00:00:00 | 00:00:00 | 00:00:00 | |
| EDDB2-11 | 2026-09-04 12:10:45 | 49.22451 | 12.99672 | 93° | 18km/h | 24369m | 4.6m/s | -51.3°C | 1.0% | 29.6hPa | 2.7V | 00:00:00 | 00:00:00 | 00:00:00 | |
| PG1ADW-2 | 2026-09-04 12:10:44 | 49.22451 | 12.99672 | 94° | 18km/h | 24369m | 4.5m/s | -51.2°C | 3.8% | 29.6hPa | 2.7V | 00:00:00 | 00:00:00 | 00:00:00 | |
| DL6DJ-15 | 2026-09-04 12:10:43 | 49.22452 | 12.99659 | 105° | 13km/h | 24358m | 5.6m/s | -51.1°C | 1.0% | 29.7hPa | 2.6V | 00:00:00 | 00:00:00 | 00:00:00 | |
| DO3MHA-11 | 2026-09-04 12:10:42 | 49.22452 | 12.99659 | 106° | 24km/h | 24358m | 5.6m/s | -51.1°C | 3.6% | 29.6hPa | 2.6V | 03:57:00 | 02:08:03 | 00:00:00 | |
| PETON7-10 | 2026-09-04 12:10:39 | 49.22458 | 12.99640 | 116° | 18km/h | 24343m | 6.2m/s | -51.8°C | 3.8% | 29.7hPa | 2.6V | 00:00:00 | 02:08:00 | 00:00:00 | |
| SONDE2-11 | 2026-09-04 12:10:38 | 49.22461 | 12.99631 | 113° | 29km/h | 24337m | 5.6m/s | -51.8°C | 1.0% | 29.8hPa | 2.6V | 00:00:00 | 00:00:00 | 00:00:00 | |
| EDDB2-12 | 2026-09-04 12:10:34 | 49.22472 | 12.99590 | 107° | 22km/h | 24315m | 4.4m/s | -52.0°C | 1.1% | 29.9hPa | 2.6V | 00:00:00 | 00:00:00 | 00:00:00 | |
| DO3MHA-11 | 2026-09-04 12:10:32 | 49.22473 | 12.99575 | 87° | 13km/h | 24306m | 5.9m/s | -51.5°C | 3.9% | 29.9hPa | 2.6V | 00:00:00 | 02:07:53 | 00:00:00 | |
| OE5WHR-10 | 2026-09-04 12:10:29 | 49.22469 | 12.99556 | 64° | 11km/h | 24290m | 5.5m/s | -51.6°C | 3.9% | 29.9hPa | 2.6V | 00:00:00 | 00:00:00 | 00:00:00 | |
| PETON7-10 | 2026-09-04 12:10:24 | 49.22466 | 12.99540 | 82° | 13km/h | 24263m | 4.6m/s | -51.8°C | 4.0% | 30.0hPa | 2.6V | 03:57:00 | 00:00:00 | 00:00:00 | |
| DO3MHA-11 | 2026-09-04 12:10:22 | 49.22464 | 12.99530 | 76° | 13km/h | 24254m | 6.0m/s | -50.8°C | 3.7% | 30.1hPa | 2.7V | 00:00:00 | 02:07:43 | 00:00:00 | |
| OE5MMP-10 | 2026-09-04 12:10:19 | 49.22460 | 12.99518 | 58° | 13km/h | 24238m | 5.6m/s | -50.8°C | 3.6% | 30.2hPa | 2.6V | 00:00:00 | 02:07:40 | 00:00:00 | |
| OE5REO-15 | 2026-09-04 12:10:17 | 49.22458 | 12.99512 | 61° | 16km/h | 24233m | 5.8m/s | -51.6°C | 1.0% | 30.2hPa | 2.6V | 03:57:00 | 00:00:00 | 00:00:00 | |
| OE5DXL-15 | 2026-09-04 12:10:13 | 49.22454 | 12.99492 | 116° | 9km/h | 24208m | 4.4m/s | -51.9°C | 4.2% | 30.3hPa | 2.6V | 03:57:00 | 00:00:00 | 00:00:00 | |
| DM0DOS-11 | 2026-09-04 12:10:11 | 49.22458 | 12.99480 | 109° | 11km/h | 24192m | 4.2m/s | 0°C | 0% | 0hPa | 2.6V | 03:57:45 | 02:07:31 | 00:00:00 | |
| BAUMI2-15 | 2026-09-04 12:10:11 | 49.22456 | 12.99484 | 112° | 9km/h | 24197m | 4.8m/s | -52.0°C | 4.2% | 30.4hPa | 2.6V | 03:57:00 | 02:07:32 | 00:00:00 | |
| OE5MMP-10 | 2026-09-04 12:10:09 | 49.22458 | 12.99476 | 109° | 7km/h | 24188m | 5.5m/s | -51.8°C | 3.8% | 30.4hPa | 2.6V | 00:00:00 | 02:07:30 | 00:00:00 | |
| OE5WHR-10 | 2026-09-04 12:10:08 | 49.22458 | 12.99474 | 99° | 9km/h | 24182m | 5.5m/s | -51.8°C | 3.7% | 30.4hPa | 2.6V | 00:00:00 | 00:00:00 | 00:00:00 | |
| SONDE2-11 | 2026-09-04 12:10:07 | 49.22458 | 12.99472 | 62° | 4km/h | 24177m | 4.5m/s | -52.5°C | 1.0% | 30.5hPa | 2.6V | 00:00:00 | 00:00:00 | 00:00:00 | |
| BAUMI2-15 | 2026-09-04 12:10:06 | 49.22458 | 12.99470 | 46° | 11km/h | 24172m | 5.1m/s | -52.7°C | 3.9% | 30.5hPa | 2.6V | 00:00:00 | 02:07:27 | 00:00:00 | |
| PG1ADW-2 | 2026-09-04 12:10:04 | 49.22454 | 12.99464 | 48° | 9km/h | 24161m | 4.4m/s | -52.5°C | 4.0% | 30.5hPa | 2.6V | 00:00:00 | 00:00:00 | 00:00:00 | |
| EDDB2-12 | 2026-09-04 12:10:03 | 49.22452 | 12.99461 | 47° | 13km/h | 24157m | 3.8m/s | -52.6°C | 1.1% | 30.6hPa | 2.6V | 00:00:00 | 00:00:00 | 00:00:00 | |
| DO3MHA-11 | 2026-09-04 12:10:02 | 49.22449 | 12.99458 | 42° | 7km/h | 24153m | 4.5m/s | -52.5°C | 4.0% | 30.6hPa | 2.6V | 03:57:00 | 02:07:23 | 00:00:00 | |
| OE5REO-15 | 2026-09-04 12:10:01 | 49.22449 | 12.99458 | 43° | 11km/h | 24153m | 4.5m/s | -52.5°C | 1.1% | 30.6hPa | 2.6V | 03:58:00 | 00:00:00 | 00:00:00 | |
| DM0DOS-11 | 2026-09-04 12:09:59 | 49.22446 | 12.99456 | 255° | 4km/h | 24139m | 4.2m/s | 0°C | 0% | 0hPa | 2.6V | 03:57:56 | 02:07:20 | 00:00:00 | |
| OE5MMP-10 | 2026-09-04 12:09:59 | 49.22447 | 12.99456 | 256° | 9km/h | 24139m | 4.1m/s | -51.8°C | 3.9% | 30.6hPa | 2.6V | 00:00:00 | 02:07:20 | 00:00:00 | |
| PETON7-10 | 2026-09-04 12:09:54 | 49.22451 | 12.99446 | 115° | 15km/h | 24115m | 4.9m/s | -51.8°C | 4.0% | 30.8hPa | 2.6V | 00:00:00 | 02:07:15 | 00:00:00 | |
| DO3MHA-11 | 2026-09-04 12:09:52 | 49.22455 | 12.99436 | 128° | 13km/h | 24104m | 5.0m/s | -51.8°C | 3.9% | 30.8hPa | 2.6V | 00:00:00 | 02:07:13 | 00:00:00 | |
| BAUMI2-15 | 2026-09-04 12:09:51 | 49.22456 | 12.99432 | 122° | 13km/h | 24099m | 4.2m/s | -52.3°C | 4.0% | 30.8hPa | 2.7V | 03:58:00 | 02:07:12 | 00:00:00 | |
| OE5MMP-10 | 2026-09-04 12:09:49 | 49.22459 | 12.99423 | 102° | 13km/h | 24088m | 5.5m/s | -52.4°C | 4.1% | 30.9hPa | 2.7V | 03:58:00 | 02:07:10 | 00:00:00 | |
| OE5WHR-10 | 2026-09-04 12:09:47 | 49.22460 | 12.99414 | 108° | 16km/h | 24078m | 5.5m/s | -52.2°C | 4.0% | 30.9hPa | 2.6V | 00:00:00 | 02:07:08 | 00:00:00 | |
| BAUMI2-15 | 2026-09-04 12:09:46 | 49.22461 | 12.99411 | 126° | 15km/h | 24072m | 5.5m/s | -52.0°C | 4.0% | 31.0hPa | 2.6V | 00:00:00 | 02:07:07 | 00:00:00 | |
| PG1ADW-2 | 2026-09-04 12:09:44 | 49.22465 | 12.99404 | 125° | 15km/h | 24064m | 4.2m/s | -52.3°C | 4.1% | 31.0hPa | 2.7V | 00:00:00 | 02:07:05 | 00:00:00 | |
| EDDB2-11 | 2026-09-04 12:09:43 | 49.22468 | 12.99392 | 107° | 18km/h | 24053m | 5.2m/s | -52.4°C | 1.2% | 31.1hPa | 2.6V | 00:00:00 | 00:00:00 | 00:00:00 | |
| DO3MHA-11 | 2026-09-04 12:09:42 | 49.22468 | 12.99392 | 108° | 20km/h | 24053m | 5.2m/s | -52.4°C | 4.3% | 31.1hPa | 2.6V | 00:00:00 | 02:07:03 | 00:00:00 | |
| DL6DJ-15 | 2026-09-04 12:09:41 | 49.22472 | 12.99377 | 111° | 20km/h | 24042m | 5.7m/s | -52.1°C | 1.2% | 31.2hPa | 2.6V | 00:00:00 | 00:00:00 | 00:00:00 | |
| OE5MMP-10 | 2026-09-04 12:09:39 | 49.22474 | 12.99370 | 117° | 18km/h | 24037m | 5.4m/s | -51.8°C | 4.0% | 31.1hPa | 2.6V | 00:00:00 | 02:07:00 | 00:00:00 | |
| BAUMI2-15 | 2026-09-04 12:09:36 | 49.22480 | 12.99348 | 108° | 18km/h | 24023m | 5.7m/s | -51.3°C | 3.6% | 31.2hPa | 2.6V | 00:00:00 | 02:06:57 | 00:00:00 | |
| DL9SK-14 | 2026-09-04 12:09:35 | 49.22481 | 12.99341 | 98° | 18km/h | 24017m | 5.5m/s | 0°C | -1.0% | -1.0hPa | 2.6V | 00:00:00 | 00:00:00 | 00:00:00 | |
| DO3MHA-11 | 2026-09-04 12:09:32 | 49.22483 | 12.99320 | 100° | 15km/h | 24001m | 5.4m/s | -51.7°C | 3.8% | 31.3hPa | 2.6V | 00:00:00 | 02:06:53 | 00:00:00 | |
| BAUMI2-15 | 2026-09-04 12:09:31 | 49.22484 | 12.99315 | 106° | 15km/h | 23996m | 4.6m/s | -52.1°C | 4.0% | 31.3hPa | 2.6V | 03:58:00 | 02:06:52 | 00:00:00 | |
| OE5REO-15 | 2026-09-04 12:09:29 | 49.22484 | 12.99310 | 96° | 13km/h | 23991m | 3.8m/s | -52.2°C | 1.1% | 31.4hPa | 2.6V | 03:58:00 | 00:00:00 | 00:00:00 | |
| OE5WHR-10 | 2026-09-04 12:09:26 | 49.22480 | 12.99286 | 73° | 15km/h | 23971m | 4.8m/s | -51.8°C | 3.9% | 31.5hPa | 2.6V | 03:58:00 | 00:00:00 | 00:00:00 | |
| PETON7-10 | 2026-09-04 12:09:24 | 49.22478 | 12.99273 | 85° | 15km/h | 23960m | 4.2m/s | -51.9°C | 4.0% | 31.5hPa | 2.7V | 03:58:00 | 00:00:00 | 00:00:00 | |
| DM0DOS-11 | 2026-09-04 12:09:23 | 49.22472 | 12.99246 | 48° | 7km/h | 23929m | 5.6m/s | 0°C | 0% | 0hPa | 2.7V | 03:58:37 | 02:06:39 | 00:00:00 | |
| DO3MHA-11 | 2026-09-04 12:09:22 | 49.22477 | 12.99262 | 77° | 13km/h | 23951m | 6.1m/s | -51.7°C | 3.9% | 31.6hPa | 2.7V | 03:58:00 | 02:06:43 | 00:00:00 | |
| BAUMI2-15 | 2026-09-04 12:09:21 | 49.22476 | 12.99256 | 68° | 9km/h | 23945m | 5.0m/s | -51.7°C | 3.9% | 31.6hPa | 2.7V | 00:00:00 | 02:06:42 | 00:00:00 | |
| OE5MMP-10 | 2026-09-04 12:09:19 | 49.22473 | 12.99248 | 57° | 13km/h | 23935m | 5.8m/s | -51.8°C | 4.0% | 31.6hPa | 2.7V | 00:00:00 | 02:06:40 | 00:00:00 | |
| OE5REO-15 | 2026-09-04 12:09:15 | 49.22466 | 12.99240 | 35° | 15km/h | 23913m | 5.9m/s | -51.9°C | 1.1% | 31.8hPa | 2.7V | 00:00:00 | 00:00:00 | 00:00:00 | |
| OE5DXL-15 | 2026-09-04 12:09:13 | 49.22458 | 12.99231 | 41° | 15km/h | 23904m | 4.4m/s | -52.0°C | 4.0% | 31.8hPa | 2.7V | 00:00:00 | 00:00:00 | 00:00:00 | |
| EDDB2-11 | 2026-09-04 12:09:12 | 49.22452 | 12.99222 | 48° | 15km/h | 23892m | 5.5m/s | -52.0°C | 1.1% | 31.9hPa | 2.7V | 00:00:00 | 00:00:00 | 00:00:00 | |
| DL6DJ-15 | 2026-09-04 12:09:10 | 49.22447 | 12.99212 | 55° | 16km/h | 23882m | 5.3m/s | -51.9°C | 1.1% | 32.0hPa | 2.7V | 00:00:00 | 00:00:00 | 00:00:00 | |
| PETON7-10 | 2026-09-04 12:09:09 | 49.22447 | 12.99212 | 56° | 15km/h | 23882m | 5.2m/s | -51.9°C | 3.9% | 31.9hPa | 2.7V | 00:00:00 | 02:06:30 | 00:00:00 | |
| DM0DOS-11 | 2026-09-04 12:09:07 | 49.22433 | 12.99186 | 20° | 11km/h | 23851m | 5.3m/s | 0°C | 0% | 0hPa | 2.7V | 03:58:52 | 02:06:24 | 00:00:00 | |
| OE5WHR-10 | 2026-09-04 12:09:05 | 49.22437 | 12.99191 | 50° | 13km/h | 23862m | 5.7m/s | -52.2°C | 4.0% | 32.0hPa | 2.6V | 00:00:00 | 00:00:00 | 00:00:00 | |
| EDDB2-12 | 2026-09-04 12:09:01 | 49.22427 | 12.99183 | 19° | 15km/h | 23840m | 6.1m/s | -52.4°C | 1.1% | 32.1hPa | 2.6V | 00:00:00 | 00:00:00 | 00:00:00 | |
| BAUMI2-15 | 2026-09-04 12:09:00 | 49.22423 | 12.99180 | 22° | 18km/h | 23835m | 4.7m/s | -52.2°C | 4.0% | 32.1hPa | 2.6V | 00:00:00 | 02:06:21 | 00:00:00 | |
| OE5MMP-10 | 2026-09-04 12:08:59 | 49.22418 | 12.99177 | 25° | 15km/h | 23831m | 3.7m/s | -51.9°C | 3.9% | 32.2hPa | 2.7V | 00:00:00 | 02:06:20 | 00:00:00 | |
| OE5REO-15 | 2026-09-04 12:08:58 | 49.22418 | 12.99177 | 26° | 20km/h | 23831m | 3.8m/s | -51.9°C | 1.1% | 32.2hPa | 2.7V | 00:00:00 | 00:00:00 | 00:00:00 | |
| DM0DOS-11 | 2026-09-04 12:08:57 | 49.22390 | 12.99145 | 60° | 7km/h | 23773m | 4.5m/s | 0°C | 0% | 0hPa | 2.7V | 03:59:07 | 02:06:09 | 00:00:00 | |
| BAUMI2-15 | 2026-09-04 12:08:55 | 49.22403 | 12.99167 | 29° | 13km/h | 23810m | 4.6m/s | -52.1°C | 3.9% | 32.3hPa | 2.6V | 00:00:00 | 02:06:16 | 00:00:00 | |
| PETON7-10 | 2026-09-04 12:08:54 | 49.22400 | 12.99164 | 32° | 13km/h | 23805m | 5.7m/s | -52.4°C | 4.1% | 32.3hPa | 2.6V | 00:00:00 | 00:00:00 | 00:00:00 | |
| DO3MHA-11 | 2026-09-04 12:08:52 | 49.22395 | 12.99158 | 47° | 11km/h | 23795m | 4.6m/s | -52.1°C | 3.9% | 32.4hPa | 2.7V | 00:00:00 | 02:06:13 | 00:00:00 | |
| BAUMI2-15 | 2026-09-04 12:08:50 | 49.22391 | 12.99150 | 64° | 9km/h | 23784m | 6.3m/s | -51.8°C | 3.9% | 32.4hPa | 2.7V | 03:59:00 | 02:06:11 | 00:00:00 | |
| OE5MMP-10 | 2026-09-04 12:08:49 | 49.22390 | 12.99147 | 72° | 13km/h | 23778m | 4.6m/s | -52.2°C | 4.0% | 32.4hPa | 2.7V | 00:00:00 | 02:06:10 | 00:00:00 | |
| DF2AP-13 | 2026-09-04 12:08:48 | 49.22390 | 12.99145 | 61° | 11km/h | 23773m | 4.4m/s | 0°C | 0% | 0hPa | 2.6V | 00:00:00 | 02:06:09 | 00:00:00 | |
| SP3BTT-10 | 2026-09-04 12:08:47 | 49.22388 | 12.99142 | 47° | 16km/h | 23768m | 6.4m/s | -52.1°C | 4.0% | 32.5hPa | 2.6V | 00:00:00 | 00:00:00 | 00:00:00 | |
| BAUMI2-15 | 2026-09-04 12:08:45 | 49.22383 | 12.99137 | 29° | 13km/h | 23757m | 4.6m/s | -52.3°C | 4.2% | 32.5hPa | 2.6V | 00:00:00 | 02:06:06 | 00:00:00 | |
| OE5WHR-10 | 2026-09-04 12:08:44 | 49.22380 | 12.99134 | 26° | 15km/h | 23752m | 6.2m/s | -52.2°C | 4.2% | 32.6hPa | 2.7V | 00:00:00 | 02:06:05 | 00:00:00 | |
| OE5DXL-15 | 2026-09-04 12:08:43 | 49.22377 | 12.99132 | 26° | 15km/h | 23746m | 5.7m/s | -52.0°C | 4.2% | 32.6hPa | 2.7V | 00:00:00 | 00:00:00 | 00:00:00 | |
| DO3MHA-11 | 2026-09-04 12:08:42 | 49.22375 | 12.99130 | 29° | 15km/h | 23741m | 4.5m/s | -51.8°C | 4.0% | 32.6hPa | 2.6V | 03:59:00 | 02:06:03 | 00:00:00 | |
| BAUMI2-15 | 2026-09-04 12:08:40 | 49.22368 | 12.99124 | 35° | 15km/h | 23730m | 5.8m/s | -52.5°C | 4.1% | 32.7hPa | 2.6V | 00:00:00 | 02:06:01 | 00:00:00 | |
| OE5MMP-10 | 2026-09-04 12:08:39 | 49.22364 | 12.99120 | 40° | 16km/h | 23725m | 4.3m/s | -52.5°C | 4.1% | 32.7hPa | 2.6V | 00:00:00 | 02:06:00 | 00:00:00 | |
| DL6DJ-15 | 2026-09-04 12:08:38 | 49.22362 | 12.99115 | 48° | 15km/h | 23720m | 4.7m/s | -52.4°C | 1.1% | 32.8hPa | 2.6V | 00:00:00 | 00:00:00 | 00:00:00 | |
| BAUMI2-15 | 2026-09-04 12:08:35 | 49.22358 | 12.99102 | 89° | 16km/h | 23703m | 4.8m/s | -52.1°C | 3.9% | 32.8hPa | 2.6V | 00:00:00 | 02:05:56 | 00:00:00 | |
| SONDE2-11 | 2026-09-04 12:08:34 | 49.22357 | 12.99091 | 78° | 16km/h | 23692m | 5.6m/s | -52.5°C | 1.1% | 32.9hPa | 2.6V | 00:00:00 | 00:00:00 | 00:00:00 | |
| DO3MHA-11 | 2026-09-04 12:08:32 | 49.22356 | 12.99084 | 74° | 16km/h | 23687m | 4.5m/s | -52.4°C | 4.1% | 32.9hPa | 2.6V | 00:00:00 | 02:05:53 | 00:00:00 | |
| BAUMI2-15 | 2026-09-04 12:08:30 | 49.22353 | 12.99071 | 71° | 15km/h | 23677m | 6.1m/s | -52.2°C | 4.1% | 33.0hPa | 2.6V | 03:59:00 | 02:05:51 | 00:00:00 | |
| OE5MMP-10 | 2026-09-04 12:08:29 | 49.22352 | 12.99065 | 68° | 15km/h | 23671m | 5.8m/s | -52.2°C | 4.0% | 33.0hPa | 2.7V | 03:59:00 | 02:05:50 | 00:00:00 | |
| PG1ADW-2 | 2026-09-04 12:08:28 | 49.22350 | 12.99060 | 62° | 16km/h | 23666m | 5.1m/s | -52.3°C | 4.0% | 33.0hPa | 2.7V | 00:00:00 | 00:00:00 | 00:00:00 | |
| OE5REO-15 | 2026-09-04 12:08:27 | 49.22350 | 12.99060 | 62° | 13km/h | 23666m | 5.2m/s | -52.3°C | 1.1% | 33.0hPa | 2.7V | 00:00:00 | 00:00:00 | 00:00:00 | |
| BAUMI2-15 | 2026-09-04 12:08:25 | 49.22343 | 12.99046 | 46° | 15km/h | 23649m | 5.2m/s | -51.8°C | 3.9% | 33.1hPa | 2.7V | 00:00:00 | 02:05:46 | 00:00:00 | |
| PETON7-10 | 2026-09-04 12:08:24 | 49.22340 | 12.99041 | 50° | 16km/h | 23644m | 4.7m/s | -52.3°C | 4.0% | 33.1hPa | 2.7V | 03:59:00 | 02:05:45 | 00:00:00 | |
| OE5WHR-10 | 2026-09-04 12:08:23 | 49.22337 | 12.99036 | 58° | 16km/h | 23639m | 6.2m/s | -52.2°C | 4.0% | 33.1hPa | 2.7V | 00:00:00 | 00:00:00 | 00:00:00 | |
| DO3MHA-11 | 2026-09-04 12:08:22 | 49.22336 | 12.99031 | 76° | 15km/h | 23633m | 6.4m/s | -52.4°C | 4.0% | 33.2hPa | 2.7V | 00:00:00 | 02:05:43 | 00:00:00 | |
| BAUMI2-15 | 2026-09-04 12:08:20 | 49.22336 | 12.99021 | 105° | 16km/h | 23622m | 5.6m/s | -52.4°C | 4.0% | 33.2hPa | 2.7V | 00:00:00 | 02:05:41 | 00:00:00 | |
| OE5MMP-10 | 2026-09-04 12:08:19 | 49.22337 | 12.99015 | 104° | 18km/h | 23616m | 6.3m/s | -52.5°C | 4.1% | 33.3hPa | 2.7V | 00:00:00 | 02:05:40 | 00:00:00 | |
| BAUMI2-15 | 2026-09-04 12:08:15 | 49.22340 | 12.98989 | 86° | 16km/h | 23593m | 5.0m/s | -51.9°C | 3.9% | 33.4hPa | 2.6V | 00:00:00 | 02:05:36 | 00:00:00 | |
| OE5DXL-15 | 2026-09-04 12:08:13 | 49.22338 | 12.98980 | 49° | 18km/h | 23583m | 6.5m/s | -51.3°C | 3.5% | 33.4hPa | 2.7V | 03:59:00 | 00:00:00 | 00:00:00 | |
| DO3MHA-11 | 2026-09-04 12:08:12 | 49.22334 | 12.98975 | 39° | 18km/h | 23577m | 5.7m/s | -51.8°C | 3.7% | 33.4hPa | 2.7V | 00:00:00 | 02:05:33 | 00:00:00 | |
| OE5REO-15 | 2026-09-04 12:08:10 | 49.22325 | 12.98966 | 29° | 20km/h | 23567m | 6.0m/s | -53.1°C | 1.2% | 33.5hPa | 2.7V | 04:00:00 | 00:00:00 | 00:00:00 | |
| PG1ADW-2 | 2026-09-04 12:08:09 | 49.22317 | 12.98960 | 38° | 18km/h | 23555m | 4.8m/s | -52.9°C | 4.2% | 33.6hPa | 2.7V | 00:00:00 | 02:05:29 | 00:00:00 | |
| DL6DJ-15 | 2026-09-04 12:08:07 | 49.22314 | 12.98955 | 50° | 15km/h | 23550m | 5.8m/s | -52.9°C | 1.2% | 33.6hPa | 2.7V | 00:00:00 | 00:00:00 | 00:00:00 | |
| SONDE2-11 | 2026-09-04 12:08:03 | 49.22308 | 12.98924 | 88° | 13km/h | 23522m | 5.1m/s | -52.9°C | 1.1% | 33.8hPa | 2.7V | 00:00:00 | 00:00:00 | 00:00:00 | |
| OE5WHR-10 | 2026-09-04 12:08:02 | 49.22308 | 12.98923 | 89° | 20km/h | 23522m | 5.1m/s | -52.9°C | 4.1% | 33.8hPa | 2.7V | 03:59:00 | 00:00:00 | 00:00:00 | |
| OE5MMP-10 | 2026-09-04 12:07:59 | 49.22305 | 12.98906 | 64° | 20km/h | 23506m | 6.4m/s | -52.9°C | 4.2% | 33.8hPa | 2.7V | 00:00:00 | 02:05:20 | 00:00:00 | |
| PETON7-10 | 2026-09-04 12:07:54 | 49.22287 | 12.98873 | 42° | 20km/h | 23477m | 4.6m/s | -51.8°C | 3.8% | 34.0hPa | 2.7V | 04:00:00 | 00:00:00 | 00:00:00 | |
| DO3MHA-11 | 2026-09-04 12:07:52 | 49.22282 | 12.98864 | 67° | 20km/h | 23468m | 5.7m/s | -52.8°C | 4.2% | 34.0hPa | 2.7V | 00:00:00 | 02:05:13 | 00:00:00 | |
| OE5MMP-10 | 2026-09-04 12:07:49 | 49.22281 | 12.98843 | 97° | 22km/h | 23451m | 5.0m/s | -53.0°C | 4.0% | 34.1hPa | 2.7V | 00:00:00 | 02:05:10 | 00:00:00 | |
| PG1ADW-2 | 2026-09-04 12:07:48 | 49.22282 | 12.98836 | 98° | 18km/h | 23446m | 6.1m/s | -53.1°C | 4.0% | 34.2hPa | 2.7V | 00:00:00 | 00:00:00 | 00:00:00 | |
| SP3BTT-10 | 2026-09-04 12:07:46 | 49.22282 | 12.98822 | 81° | 20km/h | 23435m | 4.6m/s | -53.1°C | 4.2% | 34.2hPa | 2.7V | 04:00:00 | 00:00:00 | 00:00:00 | |
| OE5DXL-15 | 2026-09-04 12:07:43 | 49.22275 | 12.98796 | 62° | 20km/h | 23419m | 4.6m/s | -52.4°C | 4.1% | 34.3hPa | 2.7V | 00:00:00 | 00:00:00 | 00:00:00 | |
| DO3MHA-11 | 2026-09-04 12:07:42 | 49.22272 | 12.98788 | 57° | 18km/h | 23414m | 4.6m/s | -51.9°C | 4.0% | 34.3hPa | 2.7V | 04:00:00 | 02:05:03 | 00:00:00 | |
| OE5WHR-10 | 2026-09-04 12:07:41 | 49.22269 | 12.98780 | 52° | 18km/h | 23408m | 6.3m/s | -52.0°C | 4.0% | 34.3hPa | 2.7V | 00:00:00 | 02:05:02 | 00:00:00 | |
| EDDB2-11 | 2026-09-04 12:07:38 | 49.22262 | 12.98768 | 64° | 7km/h | 23393m | 5.0m/s | -52.7°C | 1.1% | 34.5hPa | 2.7V | 00:00:00 | 00:00:00 | 00:00:00 | |
| DL6DJ-15 | 2026-09-04 12:07:36 | 49.22262 | 12.98761 | 97° | 11km/h | 23382m | 5.4m/s | -52.4°C | 1.1% | 34.5hPa | 2.7V | 00:00:00 | 00:00:00 | 00:00:00 | |
| SONDE2-11 | 2026-09-04 12:07:31 | 49.22263 | 12.98733 | 85° | 18km/h | 23355m | 5.4m/s | -52.6°C | 1.1% | 34.7hPa | 2.7V | 00:00:00 | 00:00:00 | 00:00:00 | |
| OE5MMP-10 | 2026-09-04 12:07:29 | 49.22262 | 12.98716 | 87° | 24km/h | 23344m | 5.5m/s | -52.8°C | 4.0% | 34.7hPa | 2.7V | 00:00:00 | 02:04:50 | 00:00:00 | |
| PG1ADW-2 | 2026-09-04 12:07:28 | 49.22261 | 12.98706 | 84° | 22km/h | 23338m | 5.3m/s | -52.9°C | 4.1% | 34.7hPa | 2.7V | 04:00:00 | 00:00:00 | 00:00:00 | |
| PETON7-10 | 2026-09-04 12:07:24 | 49.22256 | 12.98672 | 74° | 22km/h | 23316m | 5.3m/s | -52.8°C | 4.2% | 34.8hPa | 2.6V | 00:00:00 | 00:00:00 | 00:00:00 | |
| OE5REO-15 | 2026-09-04 12:07:22 | 49.22254 | 12.98664 | 78° | 22km/h | 23310m | 6.4m/s | -52.7°C | 1.2% | 34.9hPa | 2.6V | 00:00:00 | 00:00:00 | 00:00:00 | |
| OE5WHR-10 | 2026-09-04 12:07:20 | 49.22251 | 12.98638 | 75° | 20km/h | 23294m | 6.1m/s | -52.5°C | 4.1% | 35.0hPa | 2.6V | 04:00:00 | 00:00:00 | 00:00:00 | |
| OE5MMP-10 | 2026-09-04 12:07:19 | 49.22249 | 12.98629 | 70° | 22km/h | 23288m | 6.0m/s | -52.5°C | 4.1% | 35.0hPa | 2.6V | 04:00:00 | 02:04:40 | 00:00:00 | |
| OE5DXL-15 | 2026-09-04 12:07:13 | 49.22239 | 12.98575 | 79° | 20km/h | 23256m | 6.1m/s | -52.4°C | 4.0% | 35.2hPa | 2.6V | 00:00:00 | 00:00:00 | 00:00:00 | |
| OE5MMP-10 | 2026-09-04 12:07:09 | 49.22234 | 12.98546 | 76° | 18km/h | 23234m | 5.6m/s | -52.3°C | 4.1% | 35.3hPa | 2.6V | 00:00:00 | 02:04:30 | 00:00:00 | |
| PG1ADW-2 | 2026-09-04 12:07:08 | 49.22232 | 12.98538 | 75° | 22km/h | 23229m | 3.9m/s | -52.1°C | 4.0% | 35.3hPa | 2.6V | 00:00:00 | 00:00:00 | 00:00:00 | |
| EDDB2-11 | 2026-09-04 12:07:07 | 49.22231 | 12.98530 | 71° | 20km/h | 23225m | 4.3m/s | -52.1°C | 1.1% | 35.4hPa | 2.6V | 00:00:00 | 00:00:00 | 00:00:00 | |
| DL6DJ-15 | 2026-09-04 12:07:05 | 49.22227 | 12.98516 | 54° | 16km/h | 23214m | 6.3m/s | -52.6°C | 1.2% | 35.5hPa | 2.6V | 00:00:00 | 00:00:00 | 00:00:00 | |
| SONDE2-11 | 2026-09-04 12:07:00 | 49.22216 | 12.98489 | 75° | 18km/h | 23186m | 5.0m/s | -52.9°C | 1.2% | 35.6hPa | 2.6V | 00:00:00 | 00:00:00 | 00:00:00 | |
| EDDB2-12 | 2026-09-04 12:06:57 | 49.22200 | 12.98449 | 49° | 27km/h | 23159m | 5.2m/s | -52.9°C | 1.2% | 35.7hPa | 2.6V | 00:00:00 | 00:00:00 | 00:00:00 | |
| PETON7-10 | 2026-09-04 12:06:54 | 49.22195 | 12.98441 | 49° | 20km/h | 23154m | 5.7m/s | -52.5°C | 4.1% | 35.7hPa | 2.6V | 00:00:00 | 02:04:15 | 00:00:00 | |
| DO3MHA-11 | 2026-09-04 12:06:53 | 49.22191 | 12.98433 | 49° | 20km/h | 23148m | 4.9m/s | -52.4°C | 4.0% | 35.7hPa | 2.6V | 00:00:00 | 02:04:14 | 00:00:00 | |
| OE5REO-15 | 2026-09-04 12:06:50 | 49.22183 | 12.98422 | 35° | 22km/h | 23137m | 6.4m/s | -52.7°C | 1.2% | 35.9hPa | 2.6V | 00:00:00 | 00:00:00 | 00:00:00 | |
| OE5MMP-10 | 2026-09-04 12:06:49 | 49.22173 | 12.98415 | 19° | 20km/h | 23125m | 5.0m/s | -52.5°C | 4.0% | 35.9hPa | 2.6V | 00:00:00 | 02:04:10 | 00:00:00 | |
| PG1ADW-2 | 2026-09-04 12:06:48 | 49.22169 | 12.98412 | 21° | 20km/h | 23120m | 5.5m/s | -52.3°C | 3.9% | 35.9hPa | 2.6V | 00:00:00 | 02:04:09 | 00:00:00 | |
| DF8AY | 2026-09-04 12:06:30 | 49.22078 | 12.98357 | 356° | 16km/h | 23014m | 3.9m/s | -53.2°C | 0.7% | 36.5hPa | 2.6V | 04:02:52 | 02:03:49 | 00:00:00 | |
| DF8AY | 2026-09-04 12:06:18 | 49.22031 | 12.98354 | 339° | 13km/h | 22965m | 5.9m/s | -53.4°C | 0.9% | 36.8hPa | 2.6V | 04:02:52 | 02:03:39 | 00:00:00 | |
| OE5WHR-10 | 2026-09-04 12:06:17 | 49.22028 | 12.98356 | 327° | 11km/h | 22960m | 5.1m/s | -53.2°C | 4.2% | 36.8hPa | 2.6V | 00:00:00 | 00:00:00 | 00:00:00 | |
| DO3MHA-11 | 2026-09-04 12:06:15 | 49.22024 | 12.98361 | 314° | 15km/h | 22949m | 5.8m/s | -53.1°C | 4.1% | 36.9hPa | 2.6V | 00:00:00 | 02:03:36 | 00:00:00 | |
| DF8AY | 2026-09-04 12:05:58 | 49.21983 | 12.98401 | 12° | 5km/h | 22858m | 4.5m/s | -53.1°C | 0.8% | 37.5hPa | 2.6V | 04:02:52 | 02:03:18 | 00:00:00 | |
| DF8AY | 2026-09-04 12:05:47 | 49.21967 | 12.98414 | 27° | 7km/h | 22807m | 3.9m/s | -53.2°C | 0.9% | 37.8hPa | 2.6V | 04:02:52 | 02:03:08 | 00:00:00 | |
| DF8AY | 2026-09-04 12:05:37 | 49.21956 | 12.98428 | 98° | 9km/h | 22721m | 4.2m/s | -52.9°C | 0.8% | 38.2hPa | 2.7V | 04:02:52 | 02:02:51 | 00:00:00 | |
| DF8AY | 2026-09-04 12:05:24 | 49.21954 | 12.98412 | 171° | 2km/h | 22691m | 4.2m/s | -52.5°C | 0.8% | 38.5hPa | 2.7V | 04:02:52 | 02:02:45 | 00:00:00 | |
| DF8AY | 2026-09-04 12:05:14 | 49.21950 | 12.98382 | 82° | 9km/h | 22631m | 5.5m/s | -53.3°C | 1.1% | 38.8hPa | 2.7V | 04:02:52 | 02:02:33 | 00:00:00 | |
| DF8AY | 2026-09-04 12:05:03 | 49.21945 | 12.98365 | 39° | 5km/h | 22586m | 4.7m/s | -52.8°C | 0.9% | 39.1hPa | 2.7V | 04:02:52 | 02:02:24 | 00:00:00 | |
| DF8AY | 2026-09-04 12:04:52 | 49.21932 | 12.98352 | 317° | 5km/h | 22530m | 5.2m/s | -52.7°C | 1% | 39.4hPa | 2.7V | 04:04:34 | 02:02:13 | 00:00:00 | |
| DF8AY | 2026-09-04 12:04:42 | 49.21923 | 12.98348 | 322° | 7km/h | 22479m | 4.4m/s | -52.3°C | 0.9% | 39.8hPa | 2.7V | 04:04:34 | 02:02:03 | 00:00:00 | |
| DF8AY | 2026-09-04 12:04:31 | 49.21903 | 12.98372 | 343° | 9km/h | 22417m | 5.6m/s | -52.5°C | 0.8% | 40.1hPa | 2.6V | 04:04:34 | 02:01:50 | 00:00:00 | |
| DF8AY | 2026-09-04 12:04:18 | 49.21888 | 12.98407 | 289° | 7km/h | 22355m | 4.3m/s | -51.6°C | 0.7% | 40.5hPa | 2.7V | 04:04:34 | 02:01:38 | 00:00:00 | |
| DF8AY | 2026-09-04 12:04:03 | 49.21890 | 12.98459 | 237° | 13km/h | 22280m | 4.7m/s | -52.2°C | 0.8% | 41hPa | 2.6V | 04:04:34 | 02:01:23 | 00:00:00 | |
| EDDB2-11 | 2026-09-04 12:04:01 | 49.21892 | 12.98464 | 228° | 15km/h | 22275m | 6.1m/s | -52.5°C | 1.2% | 41.0hPa | 2.7V | 00:00:00 | 00:00:00 | 00:00:00 | |
| DL6DJ-15 | 2026-09-04 12:03:59 | 49.21902 | 12.98474 | 201° | 15km/h | 22258m | 6.0m/s | -52.5°C | 1.2% | 41.1hPa | 2.7V | 00:00:00 | 00:00:00 | 00:00:00 | |
| SONDE2-11 | 2026-09-04 12:03:54 | 49.21914 | 12.98479 | 208° | 11km/h | 22236m | 6.2m/s | -52.5°C | 1.2% | 41.3hPa | 2.7V | 00:00:00 | 00:00:00 | 00:00:00 | |
| EDDB2-12 | 2026-09-04 12:03:51 | 49.21920 | 12.98491 | 240° | 5km/h | 22215m | 5.6m/s | -52.4°C | 1.1% | 41.4hPa | 2.7V | 00:00:00 | 00:00:00 | 00:00:00 | |
| DM0DOS-11 | 2026-09-04 12:03:50 | 49.21932 | 12.98496 | 169° | 16km/h | 22189m | 5.9m/s | 0°C | 0% | 0hPa | 2.7V | 04:04:10 | 02:01:06 | 00:00:00 | |
| DF8AY | 2026-09-04 12:03:49 | 49.21944 | 12.98488 | 156° | 18km/h | 22173m | 4.5m/s | -52.4°C | 0.7% | 41.7hPa | 2.6V | 04:04:34 | 02:01:03 | 00:00:00 | |
| PG1ADW-2 | 2026-09-04 12:03:48 | 49.21923 | 12.98494 | 209° | 9km/h | 22206m | 5.3m/s | -52.3°C | 4.0% | 41.4hPa | 2.7V | 00:00:00 | 00:00:00 | 00:00:00 | |
| DO3MHA-11 | 2026-09-04 12:03:43 | 49.21940 | 12.98491 | 153° | 15km/h | 22178m | 4.1m/s | -52.4°C | 4.0% | 41.6hPa | 2.7V | 00:00:00 | 02:01:04 | 00:00:00 | |
| PETON7-10 | 2026-09-04 12:03:39 | 49.21957 | 12.98481 | 162° | 11km/h | 22158m | 4.6m/s | -52.6°C | 4.1% | 41.7hPa | 2.7V | 00:00:00 | 00:00:00 | 00:00:00 | |
| DK5PH-5 | 2026-09-04 12:03:38 | 49.21960 | 12.98479 | 154° | 11km/h | 22153m | 6.0m/s | -52.6°C | 4.0% | 41.8hPa | 2.7V | 00:00:00 | 02:00:59 | 00:00:00 | |
| DF8AY | 2026-09-04 12:03:30 | 49.22008 | 12.98428 | 134° | 26km/h | 22061m | 4.5m/s | -53.9°C | 1% | 42.4hPa | 2.7V | 04:05:25 | 02:00:41 | 00:00:00 | |
| DF8AY | 2026-09-04 12:03:16 | 49.22021 | 12.98401 | 124° | 16km/h | 22042m | 4.2m/s | -54.1°C | 1% | 42.5hPa | 2.6V | 04:05:25 | 02:00:37 | 00:00:00 | |
| DF8AY | 2026-09-04 12:03:05 | 49.22049 | 12.98350 | 122° | 24km/h | 21982m | 4m/s | -53.7°C | 0.8% | 42.9hPa | 2.6V | 04:05:25 | 02:00:25 | 00:00:00 | |
| DF8AY | 2026-09-04 12:02:53 | 49.22070 | 12.98287 | 135° | 13km/h | 21922m | 4.8m/s | -54.4°C | 1.1% | 43.4hPa | 2.7V | 04:05:25 | 02:00:13 | 00:00:00 | |
| SONDE2-11 | 2026-09-04 12:02:52 | 49.22070 | 12.98287 | 135° | 13km/h | 21922m | 4.8m/s | -54.4°C | 1.4% | 43.4hPa | 2.7V | 00:00:00 | 00:00:00 | 00:00:00 | |
| EDDB2-12 | 2026-09-04 12:02:48 | 49.22077 | 12.98266 | 103° | 15km/h | 21903m | 3.8m/s | -54.1°C | 1.4% | 43.5hPa | 2.7V | 00:00:00 | 00:00:00 | 00:00:00 | |
| DF8AY | 2026-09-04 12:02:42 | 49.22081 | 12.98253 | 90° | 5km/h | 21873m | 5.8m/s | -54°C | 1% | 43.7hPa | 2.7V | 04:05:25 | 02:00:03 | 00:00:00 | |
| OE5MMP-10 | 2026-09-04 12:02:39 | 49.22080 | 12.98245 | 97° | 9km/h | 21859m | 5.4m/s | -53.4°C | 4.3% | 43.7hPa | 2.6V | 00:00:00 | 02:00:00 | 00:00:00 | |
| OE5REO-15 | 2026-09-04 12:02:37 | 49.22081 | 12.98243 | 123° | 5km/h | 21854m | 5.7m/s | -53.8°C | 1.3% | 43.8hPa | 2.6V | 04:05:00 | 00:00:00 | 00:00:00 | |
| DM0DOS-11 | 2026-09-04 12:02:33 | 49.22095 | 12.98227 | 185° | 9km/h | 21812m | 4.8m/s | 0°C | 0% | 0hPa | 2.6V | 04:05:25 | 01:59:51 | 00:00:00 | |
| DF8AY | 2026-09-04 12:02:30 | 49.22096 | 12.98227 | 186° | 9km/h | 21812m | 4.8m/s | -53.9°C | 0.9% | 44.1hPa | 2.6V | 04:05:25 | 01:59:51 | 00:00:00 | |
| DF8AY | 2026-09-04 12:02:19 | 49.22112 | 12.98232 | 179° | 11km/h | 21754m | 5.7m/s | -53.4°C | 0.9% | 44.5hPa | 2.6V | 04:06:16 | 01:59:40 | 00:00:00 | |
| OE5MMP-10 | 2026-09-04 12:02:19 | 49.22112 | 12.98232 | 180° | 13km/h | 21755m | 5.7m/s | -53.3°C | 4.3% | 44.4hPa | 2.6V | 04:05:00 | 01:59:40 | 00:00:00 | |
| EDDB2-12 | 2026-09-04 12:02:17 | 49.22118 | 12.98234 | 196° | 13km/h | 21744m | 4.2m/s | -52.4°C | 1.1% | 44.5hPa | 2.6V | 00:00:00 | 00:00:00 | 00:00:00 | |
| SP3BTT-10 | 2026-09-04 12:02:14 | 49.22126 | 12.98238 | 190° | 20km/h | 21729m | 4.2m/s | -53.5°C | 4.3% | 44.6hPa | 2.6V | 00:00:00 | 00:00:00 | 00:00:00 | |
| DO3MHA-11 | 2026-09-04 12:02:13 | 49.22129 | 12.98238 | 191° | 11km/h | 21725m | 3.9m/s | -53.7°C | 4.4% | 44.6hPa | 2.6V | 04:05:00 | 01:59:34 | 00:00:00 | |
| DM0DOS-11 | 2026-09-04 12:02:10 | 49.22147 | 12.98237 | 151° | 16km/h | 21701m | 5.1m/s | 0°C | 0% | 0hPa | 2.6V | 00:00:00 | 01:59:29 | 00:00:00 | |
| DF8AY | 2026-09-04 12:02:09 | 49.22143 | 12.98239 | 167° | 16km/h | 21706m | 4.8m/s | -53.6°C | 0.9% | 44.8hPa | 2.6V | 04:06:16 | 01:59:30 | 00:00:00 | |
| DF8AY | 2026-09-04 12:01:57 | 49.22197 | 12.98206 | 144° | 24km/h | 21619m | 4.9m/s | -53.6°C | 0.8% | 45.4hPa | 2.6V | 04:06:16 | 01:59:13 | 00:00:00 | |
| DF8AY | 2026-09-04 12:01:45 | 49.22223 | 12.98176 | 151° | 13km/h | 21584m | 4.4m/s | -53.9°C | 1% | 45.7hPa | 2.7V | 04:06:16 | 01:59:06 | 00:00:00 | |
| DF8AY | 2026-09-04 12:01:35 | 49.22267 | 12.98101 | 137° | 11km/h | 21513m | 4.3m/s | -53.9°C | 0.9% | 46.2hPa | 2.6V | 04:07:07 | 01:58:51 | 00:00:00 | |
| DF8AY | 2026-09-04 12:01:23 | 49.22269 | 12.98059 | 107° | 26km/h | 21480m | 4.7m/s | -54.2°C | 1% | 46.5hPa | 2.7V | 04:07:07 | 01:58:44 | 00:00:00 | |
| DF8AY | 2026-09-04 12:01:12 | 49.22283 | 12.97975 | 71° | 15km/h | 21426m | 4.7m/s | -54.2°C | 1% | 46.8hPa | 2.7V | 04:07:07 | 01:58:33 | 00:00:00 | |
| DF8AY | 2026-09-04 12:01:01 | 49.22272 | 12.97890 | 90° | 16km/h | 21371m | 5.4m/s | -53.9°C | 1% | 47.2hPa | 2.7V | 04:07:07 | 01:58:22 | 00:00:00 | |
| EDDB2-11 | 2026-09-04 12:00:55 | 49.22263 | 12.97855 | 64° | 13km/h | 21338m | 6.0m/s | -53.9°C | 1.3% | 47.5hPa | 2.6V | 00:00:00 | 00:00:00 | 00:00:00 | |
| DL6DJ-15 | 2026-09-04 12:00:52 | 49.22260 | 12.97845 | 73° | 16km/h | 21328m | 4.6m/s | -53.8°C | 1.2% | 47.6hPa | 2.6V | 00:00:00 | 00:00:00 | 00:00:00 | |
| DF8AY | 2026-09-04 12:00:49 | 49.22237 | 12.97758 | 58° | 18km/h | 21257m | 5.8m/s | -54.3°C | 1.1% | 48.1hPa | 2.6V | 04:08:49 | 01:57:58 | 00:00:00 | |
| SONDE2-11 | 2026-09-04 12:00:48 | 49.22255 | 12.97806 | 79° | 15km/h | 21305m | 4.9m/s | -53.8°C | 1.2% | 47.8hPa | 2.6V | 00:00:00 | 00:00:00 | 00:00:00 | |
| DO3MHA-11 | 2026-09-04 12:00:47 | 49.22255 | 12.97806 | 80° | 15km/h | 21305m | 4.8m/s | -53.7°C | 4.2% | 47.7hPa | 2.6V | 04:07:00 | 01:58:08 | 00:00:00 | |
| PG1ADW-2 | 2026-09-04 12:00:46 | 49.22255 | 12.97800 | 78° | 16km/h | 21300m | 4.9m/s | -53.9°C | 4.3% | 47.7hPa | 2.6V | 04:07:00 | 00:00:00 | 00:00:00 | |
| EDDB2-12 | 2026-09-04 12:00:45 | 49.22253 | 12.97792 | 66° | 11km/h | 21291m | 5.3m/s | -54.0°C | 1.3% | 47.9hPa | 2.6V | 00:00:00 | 00:00:00 | 00:00:00 | |
| OE5DXL-15 | 2026-09-04 12:00:43 | 49.22251 | 12.97787 | 63° | 20km/h | 21285m | 5.0m/s | -53.8°C | 4.3% | 47.8hPa | 2.6V | 00:00:00 | 00:00:00 | 00:00:00 | |
| OE5WHR-10 | 2026-09-04 12:00:41 | 49.22247 | 12.97777 | 53° | 20km/h | 21277m | 4.4m/s | -53.9°C | 4.4% | 47.9hPa | 2.6V | 00:00:00 | 00:00:00 | 00:00:00 | |
| BAUMI2-15 | 2026-09-04 12:00:40 | 49.22244 | 12.97772 | 48° | 16km/h | 21272m | 5.6m/s | 0°C | 0% | 0hPa | 2.6V | 04:07:00 | 01:58:01 | 00:00:00 | |
| OE5MMP-10 | 2026-09-04 12:00:39 | 49.22242 | 12.97768 | 46° | 18km/h | 21267m | 4.7m/s | -53.6°C | 4.3% | 48.0hPa | 2.6V | 04:07:00 | 01:58:00 | 00:00:00 | |
| DO3MHA-11 | 2026-09-04 12:00:37 | 49.22236 | 12.97758 | 58° | 20km/h | 21258m | 5.8m/s | -54.2°C | 4.6% | 48.1hPa | 2.6V | 00:00:00 | 01:57:58 | 00:00:00 | |
| BAUMI2-15 | 2026-09-04 12:00:35 | 49.22231 | 12.97744 | 59° | 18km/h | 21249m | 3.3m/s | 0°C | 0% | 0hPa | 2.6V | 00:00:00 | 01:57:56 | 00:00:00 | |
| DF8AY | 2026-09-04 12:00:20 | 49.22156 | 12.97663 | 20° | 22km/h | 21158m | 5.5m/s | -53.6°C | 0.9% | 48.9hPa | 2.6V | 04:08:49 | 01:57:37 | 00:00:00 | |
| DF8AY | 2026-09-04 12:00:08 | 49.22110 | 12.97641 | 27° | 20km/h | 21120m | 5.8m/s | -53.3°C | 1% | 49.1hPa | 2.6V | 04:08:49 | 01:57:29 | 00:00:00 | |
| DF8AY | 2026-09-04 11:59:52 | 49.22065 | 12.97616 | 31° | 13km/h | 21034m | 5.9m/s | -53.1°C | 0.9% | 49.8hPa | 2.7V | 04:08:49 | 01:57:12 | 00:00:00 | |
| DL6DJ-15 | 2026-09-04 11:59:50 | 49.22062 | 12.97614 | 21° | 11km/h | 21029m | 4.5m/s | -52.9°C | 1.2% | 49.9hPa | 2.6V | 00:00:00 | 00:00:00 | 00:00:00 | |
| DF8AY | 2026-09-04 11:59:41 | 49.22048 | 12.97615 | 69° | 7km/h | 20983m | 4.7m/s | -52.9°C | 0.8% | 50.2hPa | 2.6V | 04:08:49 | 01:57:02 | 00:00:00 | |
| OE5MMP-10 | 2026-09-04 11:59:39 | 49.22047 | 12.97611 | 118° | 7km/h | 20973m | 4.7m/s | -52.7°C | 4.1% | 50.2hPa | 2.6V | 00:00:00 | 01:57:00 | 00:00:00 | |
| DF8AY | 2026-09-04 11:59:31 | 49.22066 | 12.97574 | 125° | 11km/h | 20885m | 6m/s | -53.6°C | 0.9% | 50.9hPa | 2.6V | 04:08:49 | 01:56:42 | 00:00:00 | |
| DF8AY | 2026-09-04 11:59:24 | 49.22070 | 12.97564 | 116° | 16km/h | 20875m | 4.2m/s | -53.5°C | 0.8% | 51hPa | 2.6V | 04:08:49 | 01:56:40 | 00:00:00 | |
| DF8AY | 2026-09-04 11:59:09 | 49.22099 | 12.97487 | 116° | 26km/h | 20826m | 4.8m/s | -54.1°C | 1% | 51.4hPa | 2.6V | 04:08:49 | 01:56:30 | 00:00:00 | |
| DF8AY | 2026-09-04 11:58:59 | 49.22114 | 12.97410 | 110° | 20km/h | 20779m | 4.6m/s | -54.3°C | 0.9% | 51.8hPa | 2.6V | 04:09:40 | 01:56:20 | 00:00:00 | |
| DF8AY | 2026-09-04 11:58:48 | 49.22128 | 12.97348 | 118° | 20km/h | 20726m | 5.4m/s | -55°C | 1.1% | 52.2hPa | 2.6V | 04:09:40 | 01:56:09 | 00:00:00 | |
| DF8AY | 2026-09-04 11:58:37 | 49.22184 | 12.97271 | 127° | 20km/h | 20654m | 4.3m/s | -55.3°C | 1.1% | 52.8hPa | 2.7V | 04:09:40 | 01:55:54 | 00:00:00 | |
| DF8AY | 2026-09-04 11:58:26 | 49.22201 | 12.97242 | 140° | 13km/h | 20621m | 4.2m/s | -55.4°C | 1.2% | 53.1hPa | 2.6V | 04:09:40 | 01:55:47 | 00:00:00 | |
| DF8AY | 2026-09-04 11:58:15 | 49.22216 | 12.97204 | 108° | 15km/h | 20564m | 5.5m/s | -55.3°C | 1.1% | 53.6hPa | 2.6V | 04:10:31 | 01:55:35 | 00:00:00 | |
| DF8AY | 2026-09-04 11:58:03 | 49.22226 | 12.97166 | 121° | 7km/h | 20509m | 3.8m/s | -55.2°C | 1.2% | 54hPa | 2.6V | 04:10:31 | 01:55:24 | 00:00:00 | |
| DF8AY | 2026-09-04 11:57:52 | 49.22244 | 12.97107 | 114° | 9km/h | 20454m | 5.7m/s | -55°C | 1.1% | 54.5hPa | 2.6V | 04:10:31 | 01:55:13 | 00:00:00 | |
| EDDB2-11 | 2026-09-04 11:57:48 | 49.22248 | 12.97098 | 129° | 9km/h | 20434m | 4.9m/s | -55.1°C | 1.5% | 54.7hPa | 2.6V | 00:00:00 | 00:00:00 | 00:00:00 | |
| DL6DJ-15 | 2026-09-04 11:57:46 | 49.22251 | 12.97091 | 118° | 11km/h | 20426m | 4.4m/s | -55.2°C | 1.5% | 54.8hPa | 2.6V | 00:00:00 | 00:00:00 | 00:00:00 | |
| DF8AY | 2026-09-04 11:57:43 | 49.22254 | 12.97075 | 109° | 11km/h | 20407m | 5.2m/s | -55.1°C | 1.1% | 55hPa | 2.6V | 04:10:31 | 01:55:03 | 00:00:00 | |
| DF8AY | 2026-09-04 11:57:31 | 49.22269 | 12.97039 | 99° | 5km/h | 20355m | 5.8m/s | -55.1°C | 1.2% | 55.4hPa | 2.6V | 04:10:31 | 01:54:52 | 00:00:00 | |
| DF8AY | 2026-09-04 11:57:26 | 49.22268 | 12.97008 | 111° | 11km/h | 20302m | 4.4m/s | -55.1°C | 1.1% | 55.9hPa | 2.6V | 04:11:22 | 01:54:41 | 00:00:00 | |
| DF8AY | 2026-09-04 11:57:10 | 49.22276 | 12.96985 | 129° | 9km/h | 20252m | 4.3m/s | -55.6°C | 1.2% | 56.3hPa | 2.7V | 04:11:22 | 01:54:31 | 00:00:00 | |
| DF8AY | 2026-09-04 11:57:01 | 49.22301 | 12.96953 | 150° | 16km/h | 20201m | 4.8m/s | -55.4°C | 1.2% | 56.8hPa | 2.7V | 04:11:22 | 01:54:21 | 00:00:00 | |
| DF8AY | 2026-09-04 11:56:50 | 49.22338 | 12.96894 | 134° | 18km/h | 20151m | 4.5m/s | -55.3°C | 1.1% | 57.2hPa | 2.6V | 04:11:22 | 01:54:11 | 00:00:00 | |
| EDDB2-11 | 2026-09-04 11:56:46 | 49.22352 | 12.96872 | 124° | 20km/h | 20131m | 5.2m/s | -55.3°C | 1.5% | 57.4hPa | 2.6V | 00:00:00 | 00:00:00 | 00:00:00 | |
| DF8AY | 2026-09-04 11:56:40 | 49.22373 | 12.96806 | 119° | 31km/h | 20095m | 4.2m/s | -55°C | 1.1% | 57.7hPa | 2.6V | 04:11:22 | 01:54:00 | 00:00:00 | |
| DF8AY | 2026-09-04 11:56:29 | 49.22395 | 12.96710 | 95° | 38km/h | 20046m | 5.4m/s | -55.2°C | 1.2% | 58.1hPa | 2.6V | 04:12:13 | 01:53:50 | 00:00:00 | |
| OE5MMP-10 | 2026-09-04 11:56:29 | 49.22395 | 12.96710 | 96° | 29km/h | 20046m | 5.3m/s | -55.2°C | 4.8% | 58.1hPa | 2.6V | 04:11:00 | 01:53:50 | 00:00:00 | |
| DL1JEZ-13 | 2026-09-04 11:56:25 | 49.22399 | 12.96667 | 105° | 35km/h | 20031m | 5.1m/s | -54.8°C | 1.4% | 58.3hPa | 2.6V | 00:00:00 | 00:00:00 | 00:00:00 | |
| PETON7-10 | 2026-09-04 11:56:24 | 49.22403 | 12.96644 | 106° | 31km/h | 20022m | 5.1m/s | -54.7°C | 4.4% | 58.3hPa | 2.6V | 00:00:00 | 01:53:45 | 00:00:00 | |
| DK5PH-5 | 2026-09-04 11:56:22 | 49.22406 | 12.96626 | 94° | 31km/h | 20012m | 4.3m/s | -55.0°C | 4.7% | 58.4hPa | 2.6V | 00:00:00 | 01:53:43 | 00:00:00 | |
| BAUMI2-15 | 2026-09-04 11:56:21 | 49.22406 | 12.96618 | 88° | 27km/h | 20008m | 3.3m/s | 0°C | 0% | 0hPa | 2.6V | 00:00:00 | 01:53:42 | 00:00:00 | |
| OE5REO-15 | 2026-09-04 11:56:20 | 49.22406 | 12.96618 | 88° | 20km/h | 20008m | 3.3m/s | -55.1°C | 1.4% | 58.5hPa | 2.6V | 04:12:00 | 00:00:00 | 00:00:00 | |
| DF8AY | 2026-09-04 11:56:03 | 49.22398 | 12.96412 | 74° | 29km/h | 19921m | 4.1m/s | -55.2°C | 1.1% | 59.3hPa | 2.6V | 04:12:13 | 01:53:24 | 00:00:00 | |
| DF8AY | 2026-09-04 11:55:48 | 49.22376 | 12.96245 | 56° | 22km/h | 19851m | 5.4m/s | -54.8°C | 1% | 59.9hPa | 2.7V | 04:12:13 | 01:53:09 | 00:00:00 | |
| DF8AY | 2026-09-04 11:55:37 | 49.22357 | 12.96139 | 72° | 13km/h | 19801m | 5.5m/s | -54.8°C | 1.1% | 60.5hPa | 2.7V | 04:13:04 | 01:52:58 | 00:00:00 | |
| DF8AY | 2026-09-04 11:55:26 | 49.22312 | 12.96082 | 62° | 22km/h | 19748m | 5.6m/s | -55°C | 1.2% | 60.9hPa | 2.7V | 04:13:04 | 01:52:47 | 00:00:00 | |
| DF8AY | 2026-09-04 11:55:16 | 49.22282 | 12.96054 | 21° | 13km/h | 19700m | 4.8m/s | -54.7°C | 1.2% | 61.4hPa | 2.7V | 04:13:04 | 01:52:37 | 00:00:00 | |
| DF8AY | 2026-09-04 11:55:05 | 49.22252 | 12.96031 | 335° | 13km/h | 19647m | 5m/s | -54.2°C | 0.9% | 61.9hPa | 2.7V | 04:13:04 | 01:52:26 | 00:00:00 | |
| DF8AY | 2026-09-04 11:54:55 | 49.22222 | 12.96033 | 13° | 5km/h | 19600m | 4.9m/s | -54.4°C | 1% | 62.3hPa | 2.6V | 04:13:04 | 01:52:16 | 00:00:00 | |
| DF8AY | 2026-09-04 11:54:44 | 49.22193 | 12.96041 | 18° | 5km/h | 19545m | 5.4m/s | -55.2°C | 1.1% | 62.9hPa | 2.7V | 04:13:55 | 01:52:04 | 00:00:00 | |
| DF8AY | 2026-09-04 11:54:32 | 49.22207 | 12.96013 | 27° | 13km/h | 19490m | 3.7m/s | -55.3°C | 1% | 63.4hPa | 2.7V | 04:13:55 | 01:51:53 | 00:00:00 | |
| DF8AY | 2026-09-04 11:54:21 | 49.22221 | 12.95963 | 162° | 11km/h | 19435m | 5.1m/s | -55.2°C | 1.1% | 64hPa | 2.7V | 04:13:55 | 01:51:42 | 00:00:00 | |
| DF8AY | 2026-09-04 11:54:10 | 49.22228 | 12.95905 | 117° | 18km/h | 19379m | 4.3m/s | -54.9°C | 1% | 64.5hPa | 2.7V | 04:13:55 | 01:51:31 | 00:00:00 | |
| DF8AY | 2026-09-04 11:53:59 | 49.22252 | 12.95828 | 99° | 18km/h | 19322m | 5.5m/s | -54.9°C | 1.1% | 65.1hPa | 2.7V | 04:14:46 | 01:51:20 | 00:00:00 | |
| DF8AY | 2026-09-04 11:53:48 | 49.22277 | 12.95721 | 112° | 27km/h | 19267m | 4.7m/s | -54.9°C | 1% | 65.7hPa | 2.7V | 04:14:46 | 01:51:09 | 00:00:00 | |
| DF8AY | 2026-09-04 11:53:38 | 49.22300 | 12.95610 | 106° | 31km/h | 19211m | 5.3m/s | -54.3°C | 1% | 66.3hPa | 2.6V | 04:14:46 | 01:50:58 | 00:00:00 | |
| DF8AY | 2026-09-04 11:53:27 | 49.22304 | 12.95516 | 106° | 22km/h | 19164m | 5.4m/s | -54.1°C | 0.9% | 66.7hPa | 2.6V | 04:14:46 | 01:50:48 | 00:00:00 | |
| DF8AY | 2026-09-04 11:53:16 | 49.22312 | 12.95421 | 77° | 26km/h | 19111m | 4.5m/s | -54.7°C | 1% | 67.3hPa | 2.6V | 04:14:46 | 01:50:37 | 00:00:00 | |
| DF8AY | 2026-09-04 11:53:01 | 49.22297 | 12.95277 | 59° | 27km/h | 19039m | 5.2m/s | -55.6°C | 1.1% | 68hPa | 2.7V | 04:15:37 | 01:50:22 | 00:00:00 | |
| DF8AY | 2026-09-04 11:52:48 | 49.22261 | 12.95141 | 59° | 18km/h | 18977m | 4.6m/s | -55.2°C | 1.1% | 0hPa | 2.6V | 04:15:37 | 01:50:09 | 00:00:00 | |
| DF8AY | 2026-09-04 11:52:38 | 49.22245 | 12.95055 | 77° | 20km/h | 18933m | 4.9m/s | -55°C | 1.1% | 0hPa | 2.7V | 04:15:37 | 01:49:59 | 00:00:00 | |
| DF8AY | 2026-09-04 11:52:28 | 49.22238 | 12.94992 | 83° | 20km/h | 18885m | 4.2m/s | -54.6°C | 1% | 0hPa | 2.7V | 04:15:37 | 01:49:49 | 00:00:00 | |
| DF8AY | 2026-09-04 11:52:18 | 49.22227 | 12.94914 | 62° | 16km/h | 18836m | 3.9m/s | 0°C | 0% | 0hPa | 2.7V | 18:12:15 | 01:49:38 | 00:00:00 | |
| DF8AY | 2026-09-04 11:52:07 | 49.22227 | 12.94852 | 106° | 9km/h | 18789m | 4.8m/s | 0°C | 0% | 0hPa | 2.6V | 18:12:15 | 01:49:28 | 00:00:00 | |
| DF8AY | 2026-09-04 11:51:57 | 49.22237 | 12.94817 | 105° | 9km/h | 18745m | 5.1m/s | 0°C | 0% | 0hPa | 2.7V | 18:12:15 | 01:49:18 | 00:00:00 | |
| DF8AY | 2026-09-04 11:51:46 | 49.22242 | 12.94773 | 117° | 18km/h | 18693m | 3.8m/s | 0°C | 0% | 0hPa | 2.7V | 18:12:15 | 01:49:07 | 00:00:00 | |
| OM5KV | 2026-09-04 11:51:45 | 49.22242 | 12.94773 | 117° | 18km/h | 18693m | 3.8m/s | -53.6°C | 1.3% | 71.9hPa | 2.7V | 04:16:00 | 00:00:00 | 00:00:00 | |
| OM5KV | 2026-09-04 11:51:44 | 49.22244 | 12.94766 | 113° | 18km/h | 18689m | 4.6m/s | -53.7°C | 1.3% | 71.9hPa | 2.7V | 04:16:00 | 00:00:00 | 00:00:00 | |
| PG1ADW-2 | 2026-09-04 11:51:43 | 49.22246 | 12.94754 | 99° | 16km/h | 18679m | 3.9m/s | -53.7°C | 4.2% | 72.0hPa | 2.7V | 00:00:00 | 00:00:00 | 00:00:00 | |
| DK5PH-5 | 2026-09-04 11:51:42 | 49.22247 | 12.94749 | 100° | 18km/h | 18675m | 4.3m/s | 0°C | 0% | 0hPa | 2.7V | 00:00:00 | 01:49:03 | 00:00:00 | |
| OM5KV | 2026-09-04 11:51:40 | 49.22247 | 12.94745 | 107° | 11km/h | 18671m | 5.3m/s | -53.8°C | 1.3% | 72.2hPa | 2.7V | 04:16:00 | 00:00:00 | 00:00:00 | |
| OE5MMP-10 | 2026-09-04 11:51:39 | 49.22249 | 12.94736 | 111° | 13km/h | 18662m | 3.6m/s | -53.4°C | 4.0% | 72.2hPa | 2.7V | 00:00:00 | 01:49:00 | 00:00:00 | |
| EDDB2-11 | 2026-09-04 11:51:36 | 49.22250 | 12.94723 | 85° | 11km/h | 18649m | 3.7m/s | -54.8°C | 1.3% | 72.4hPa | 2.7V | 00:00:00 | 00:00:00 | 00:00:00 | |
| OE5WHR-10 | 2026-09-04 11:51:35 | 49.22250 | 12.94719 | 91° | 24km/h | 18645m | 3.8m/s | -54.9°C | 4.3% | 72.4hPa | 2.7V | 04:16:00 | 00:00:00 | 00:00:00 | |
| OM5KV | 2026-09-04 11:51:34 | 49.22250 | 12.94719 | 92° | 11km/h | 18645m | 3.8m/s | -54.9°C | 1.3% | 72.4hPa | 2.7V | 04:16:00 | 00:00:00 | 00:00:00 | |
| DL6DJ-15 | 2026-09-04 11:51:33 | 49.22251 | 12.94710 | 110° | 11km/h | 18635m | 5.0m/s | -55.0°C | 1.4% | 72.6hPa | 2.7V | 00:00:00 | 00:00:00 | 00:00:00 | |
| SONCRA | 2026-09-04 11:51:29 | 49.22259 | 12.94673 | 108° | 27km/h | 18612m | 3.5m/s | -55.2°C | 1.5% | 72.8hPa | 2.7V | 00:00:00 | 00:00:00 | 00:00:00 | |
| DO3MHA-11 | 2026-09-04 11:51:28 | 49.22259 | 12.94673 | 109° | 26km/h | 18612m | 3.5m/s | -55.1°C | 4.6% | 72.8hPa | 2.7V | 00:00:00 | 01:48:49 | 00:00:00 | |
| OE5REO-15 | 2026-09-04 11:51:26 | 49.22262 | 12.94663 | 114° | 27km/h | 18608m | 5.2m/s | -55.1°C | 1.5% | 72.8hPa | 2.7V | 04:16:00 | 00:00:00 | 00:00:00 | |
| EDDB2-12 | 2026-09-04 11:51:25 | 49.22268 | 12.94646 | 122° | 24km/h | 18597m | 5.0m/s | -55.2°C | 1.4% | 73.0hPa | 2.7V | 00:00:00 | 00:00:00 | 00:00:00 | |
| PETON7-10 | 2026-09-04 11:51:24 | 49.22271 | 12.94638 | 124° | 29km/h | 18593m | 3.9m/s | -55.1°C | 4.6% | 73.0hPa | 2.7V | 00:00:00 | 00:00:00 | 00:00:00 | |
| PG1ADW-2 | 2026-09-04 11:51:23 | 49.22274 | 12.94630 | 122° | 29km/h | 18588m | 5.5m/s | -55.2°C | 4.6% | 73.0hPa | 2.7V | 00:00:00 | 00:00:00 | 00:00:00 | |
| OM5KV | 2026-09-04 11:51:22 | 49.22274 | 12.94630 | 122° | 26km/h | 18588m | 5.6m/s | -55.3°C | 1.5% | 73.1hPa | 2.7V | 04:17:00 | 00:00:00 | 00:00:00 | |
| OM5KV | 2026-09-04 11:51:21 | 49.22277 | 12.94622 | 121° | 27km/h | 18583m | 5.1m/s | -55.2°C | 1.5% | 73.1hPa | 2.7V | 04:17:00 | 00:00:00 | 00:00:00 | |
| OE5MMP-10 | 2026-09-04 11:51:19 | 49.22287 | 12.94595 | 114° | 29km/h | 18568m | 4.1m/s | -55.3°C | 4.7% | 73.3hPa | 2.7V | 00:00:00 | 01:48:40 | 00:00:00 | |
| DO3MHA-11 | 2026-09-04 11:51:18 | 49.22290 | 12.94584 | 108° | 31km/h | 18564m | 4.8m/s | -55.5°C | 4.7% | 73.3hPa | 2.6V | 00:00:00 | 01:48:39 | 00:00:00 | |
| OM5KV | 2026-09-04 11:51:16 | 49.22291 | 12.94573 | 100° | 33km/h | 18558m | 5.2m/s | -55.4°C | 1.5% | 73.4hPa | 2.6V | 04:17:00 | 00:00:00 | 00:00:00 | |
| OM5KV | 2026-09-04 11:51:15 | 49.22293 | 12.94560 | 99° | 35km/h | 18554m | 3.5m/s | -55.6°C | 1.5% | 73.5hPa | 2.6V | 04:17:00 | 00:00:00 | 00:00:00 | |
| OE5WHR-10 | 2026-09-04 11:51:14 | 49.22295 | 12.94534 | 101° | 35km/h | 18545m | 5.2m/s | -55.5°C | 4.7% | 73.5hPa | 2.6V | 00:00:00 | 00:00:00 | 00:00:00 | |
| OE5DXL-15 | 2026-09-04 11:51:13 | 49.22297 | 12.94523 | 106° | 37km/h | 18540m | 5.6m/s | -55.5°C | 4.7% | 73.6hPa | 2.6V | 00:00:00 | 00:00:00 | 00:00:00 | |
| DK5PH-5 | 2026-09-04 11:51:12 | 49.22299 | 12.94513 | 113° | 35km/h | 18534m | 5.1m/s | 0°C | 0% | 0hPa | 2.6V | 04:16:00 | 01:48:33 | 00:00:00 | |
| OE5DRO-10 | 2026-09-04 11:51:10 | 49.22305 | 12.94495 | 123° | 40km/h | 18524m | 5.4m/s | -55.6°C | 4.6% | 73.8hPa | 2.6V | 00:00:00 | 00:00:00 | 00:00:00 | |
| OE5MMP-10 | 2026-09-04 11:51:09 | 49.22309 | 12.94485 | 125° | 35km/h | 18518m | 5.1m/s | -55.4°C | 4.5% | 73.8hPa | 2.7V | 00:00:00 | 01:48:30 | 00:00:00 | |
| DO3MHA-11 | 2026-09-04 11:51:08 | 49.22314 | 12.94475 | 124° | 37km/h | 18514m | 4.9m/s | -55.5°C | 4.6% | 73.9hPa | 2.7V | 00:00:00 | 01:48:29 | 00:00:00 | |
| EDDB2-11 | 2026-09-04 11:51:05 | 49.22327 | 12.94444 | 124° | 31km/h | 18500m | 5.1m/s | -55.0°C | 1.5% | 74.1hPa | 2.7V | 00:00:00 | 00:00:00 | 00:00:00 | |
| OM5KV | 2026-09-04 11:51:04 | 49.22327 | 12.94444 | 125° | 33km/h | 18500m | 5.1m/s | -55.0°C | 1.5% | 74.1hPa | 2.7V | 04:17:00 | 00:00:00 | 00:00:00 | |
| PG1ADW-2 | 2026-09-04 11:51:03 | 49.22336 | 12.94421 | 115° | 40km/h | 18491m | 4.6m/s | -55.7°C | 4.8% | 74.1hPa | 2.7V | 00:00:00 | 00:00:00 | 00:00:00 | |
| DL6DJ-15 | 2026-09-04 11:51:02 | 49.22339 | 12.94407 | 108° | 38km/h | 18486m | 5.6m/s | -55.8°C | 1.6% | 74.2hPa | 2.7V | 00:00:00 | 00:00:00 | 00:00:00 | |
| SONCRA | 2026-09-04 11:50:58 | 49.22354 | 12.94333 | 116° | 37km/h | 18464m | 3.9m/s | -55.9°C | 1.6% | 74.5hPa | 2.7V | 00:00:00 | 00:00:00 | 00:00:00 | |
| OE5REO-15 | 2026-09-04 11:50:55 | 49.22358 | 12.94320 | 124° | 38km/h | 18460m | 4.0m/s | -55.7°C | 1.5% | 74.5hPa | 2.7V | 04:17:00 | 00:00:00 | 00:00:00 | |
| PETON7-10 | 2026-09-04 11:50:54 | 49.22371 | 12.94295 | 132° | 40km/h | 18450m | 4.6m/s | -56.0°C | 4.8% | 74.6hPa | 2.7V | 00:00:00 | 00:00:00 | 00:00:00 | |
| OE5WHR-10 | 2026-09-04 11:50:53 | 49.22379 | 12.94282 | 134° | 42km/h | 18445m | 4.5m/s | -55.6°C | 4.6% | 74.7hPa | 2.7V | 00:00:00 | 01:48:14 | 00:00:00 | |
| OM5KV | 2026-09-04 11:50:52 | 49.22379 | 12.94282 | 135° | 46km/h | 18445m | 4.5m/s | -55.7°C | 1.5% | 74.7hPa | 2.7V | 04:17:00 | 00:00:00 | 00:00:00 | |
| OE5MMP-10 | 2026-09-04 11:50:49 | 49.22408 | 12.94235 | 127° | 40km/h | 18426m | 5.1m/s | -56.1°C | 4.8% | 74.9hPa | 2.7V | 00:00:00 | 01:48:10 | 00:00:00 | |
| DO3MHA-11 | 2026-09-04 11:50:48 | 49.22413 | 12.94222 | 122° | 40km/h | 18421m | 4.7m/s | -56.3°C | 4.9% | 75.0hPa | 2.7V | 04:17:00 | 01:48:09 | 00:00:00 | |
| OM5KV | 2026-09-04 11:50:46 | 49.22419 | 12.94208 | 118° | 42km/h | 18417m | 4.0m/s | -56.3°C | 1.5% | 75.1hPa | 2.7V | 04:17:00 | 00:00:00 | 00:00:00 | |
| PG1ADW-2 | 2026-09-04 11:50:43 | 49.22436 | 12.94154 | 118° | 38km/h | 18398m | 4.0m/s | -56.0°C | 4.9% | 75.2hPa | 2.7V | 04:17:00 | 01:48:04 | 00:00:00 | |
| OM5KV | 2026-09-04 11:50:42 | 49.22440 | 12.94141 | 119° | 40km/h | 18394m | 5.3m/s | -56.0°C | 1.6% | 75.3hPa | 2.7V | 04:17:00 | 00:00:00 | 00:00:00 | |
| OE5REO-15 | 2026-09-04 11:50:40 | 49.22445 | 12.94127 | 121° | 40km/h | 18389m | 4.0m/s | -56.0°C | 1.6% | 75.4hPa | 2.7V | 04:17:00 | 00:00:00 | 00:00:00 | |
| OE5MMP-10 | 2026-09-04 11:50:39 | 49.22456 | 12.94101 | 126° | 44km/h | 18380m | 5.6m/s | -56.1°C | 5.1% | 75.5hPa | 2.7V | 04:17:00 | 01:48:00 | 00:00:00 | |
| DO3MHA-11 | 2026-09-04 11:50:38 | 49.22462 | 12.94089 | 126° | 44km/h | 18375m | 4.7m/s | -56.1°C | 5.0% | 75.5hPa | 2.7V | 00:00:00 | 01:47:59 | 00:00:00 | |
| OM5KV | 2026-09-04 11:50:35 | 49.22473 | 12.94063 | 122° | 42km/h | 18366m | 4.5m/s | -55.9°C | 1.6% | 75.7hPa | 2.7V | 04:17:00 | 00:00:00 | 00:00:00 | |
| EDDB2-11 | 2026-09-04 11:50:34 | 49.22484 | 12.94032 | 114° | 47km/h | 18356m | 4.7m/s | -55.7°C | 1.5% | 75.8hPa | 2.7V | 00:00:00 | 00:00:00 | 00:00:00 | |
| OE5WHR-10 | 2026-09-04 11:50:32 | 49.22495 | 12.93997 | 114° | 44km/h | 18348m | 4.2m/s | -56.0°C | 4.7% | 75.8hPa | 2.7V | 00:00:00 | 00:00:00 | 00:00:00 | |
| DL6DJ-15 | 2026-09-04 11:50:31 | 49.22500 | 12.93980 | 114° | 47km/h | 18343m | 5.4m/s | -55.9°C | 1.5% | 75.9hPa | 2.6V | 00:00:00 | 00:00:00 | 00:00:00 | |
| SP3BTT-10 | 2026-09-04 11:50:30 | 49.22504 | 12.93964 | 115° | 40km/h | 18338m | 3.7m/s | -55.9°C | 4.7% | 76.0hPa | 2.6V | 04:17:00 | 00:00:00 | 00:00:00 | |
| OE5MMP-10 | 2026-09-04 11:50:29 | 49.22508 | 12.93949 | 113° | 40km/h | 18334m | 4.2m/s | -55.8°C | 4.7% | 76.0hPa | 2.6V | 00:00:00 | 01:47:50 | 00:00:00 | |
| DO3MHA-11 | 2026-09-04 11:50:28 | 49.22512 | 12.93934 | 109° | 42km/h | 18330m | 4.9m/s | -55.9°C | 4.7% | 76.0hPa | 2.6V | 00:00:00 | 01:47:49 | 00:00:00 | |
| OM5KV | 2026-09-04 11:50:27 | 49.22512 | 12.93934 | 109° | 38km/h | 18330m | 4.9m/s | -55.9°C | 1.5% | 76.1hPa | 2.7V | 04:18:00 | 00:00:00 | 00:00:00 | |
| DF8AY | 2026-09-04 11:50:10 | 49.22570 | 12.93644 | 103° | 44km/h | 18244m | 4.4m/s | -56.4°C | 1.2% | 77.2hPa | 2.7V | 04:18:10 | 01:47:31 | 00:00:00 | |
| OE5DRO-10 | 2026-09-04 11:50:10 | 49.22569 | 12.93644 | 103° | 40km/h | 18244m | 4.3m/s | -56.4°C | 4.6% | 77.1hPa | 2.7V | 00:00:00 | 00:00:00 | 00:00:00 | |
| PETON7-10 | 2026-09-04 11:50:09 | 49.22572 | 12.93627 | 102° | 40km/h | 18240m | 5.3m/s | -56.6°C | 4.7% | 77.2hPa | 2.7V | 00:00:00 | 00:00:00 | 00:00:00 | |
| DO3MHA-11 | 2026-09-04 11:50:08 | 49.22574 | 12.93609 | 101° | 42km/h | 18235m | 4.9m/s | -56.6°C | 4.8% | 77.2hPa | 2.6V | 00:00:00 | 01:47:29 | 00:00:00 | |
| OM5KV | 2026-09-04 11:50:07 | 49.22574 | 12.93609 | 101° | 49km/h | 18235m | 4.9m/s | -56.7°C | 1.6% | 77.3hPa | 2.6V | 04:18:00 | 00:00:00 | 00:00:00 | |
| EDDB2-11 | 2026-09-04 11:50:03 | 49.22592 | 12.93508 | 107° | 40km/h | 18206m | 5.5m/s | -57.0°C | 1.7% | 77.6hPa | 2.6V | 00:00:00 | 00:00:00 | 00:00:00 | |
| DL6DJ-15 | 2026-09-04 11:50:00 | 49.22597 | 12.93479 | 105° | 37km/h | 18197m | 4.7m/s | -56.9°C | 1.7% | 77.7hPa | 2.6V | 00:00:00 | 00:00:00 | 00:00:00 | |
| SONDE2-11 | 2026-09-04 11:49:56 | 49.22606 | 12.93417 | 97° | 35km/h | 18172m | 4.6m/s | -56.6°C | 1.6% | 78.0hPa | 2.6V | 00:00:00 | 00:00:00 | 00:00:00 | |
| SONCRA | 2026-09-04 11:49:55 | 49.22606 | 12.93417 | 97° | 35km/h | 18172m | 4.6m/s | 0°C | -1.0% | -1.0hPa | 2.6V | 00:00:00 | 00:00:00 | 00:00:00 | |
| EDDB2-12 | 2026-09-04 11:49:52 | 49.22610 | 12.93377 | 100° | 33km/h | 18158m | 4.7m/s | -57.3°C | 1.7% | 78.2hPa | 2.6V | 00:00:00 | 00:00:00 | 00:00:00 | |
| DF8AY | 2026-09-04 11:49:44 | 49.22635 | 12.93269 | 113° | 35km/h | 18120m | 4.4m/s | -56.8°C | 1.4% | 78.7hPa | 2.6V | 04:19:01 | 01:47:05 | 00:00:00 | |
| DF8AY | 2026-09-04 11:49:34 | 49.22669 | 12.93137 | 119° | 35km/h | 18072m | 5.5m/s | -57.4°C | 1.6% | 79.3hPa | 2.7V | 04:19:01 | 01:46:55 | 00:00:00 | |
| DF8AY | 2026-09-04 11:49:24 | 49.22698 | 12.93027 | 106° | 31km/h | 18026m | 4.4m/s | -57°C | 1.4% | 0hPa | 2.6V | 04:19:01 | 01:46:45 | 00:00:00 | |
| DF8AY | 2026-09-04 11:49:13 | 49.22717 | 12.92902 | 103° | 33km/h | 17977m | 4.4m/s | -56.9°C | 1.6% | 0hPa | 2.6V | 04:19:01 | 01:46:34 | 00:00:00 | |
| DF8AY | 2026-09-04 11:49:02 | 49.22757 | 12.92721 | 104° | 31km/h | 17903m | 4.1m/s | 0°C | 0% | 0hPa | 2.6V | 04:19:01 | 01:46:18 | 00:00:00 | |
| DF8AY | 2026-09-04 11:48:49 | 49.22777 | 12.92619 | 109° | 35km/h | 17867m | 5.7m/s | 0°C | 0% | 0hPa | 2.6V | 18:12:15 | 01:46:10 | 00:00:00 | |
| DF8AY | 2026-09-04 11:48:38 | 49.22810 | 12.92498 | 113° | 29km/h | 17816m | 5.3m/s | 0°C | 0% | 0hPa | 2.6V | 18:12:15 | 01:45:59 | 00:00:00 | |
| DF8AY | 2026-09-04 11:48:28 | 49.22838 | 12.92396 | 124° | 31km/h | 17769m | 4.3m/s | 0°C | 0% | 0hPa | 2.6V | 18:12:15 | 01:45:49 | 00:00:00 | |
| DF8AY | 2026-09-04 11:48:17 | 49.22879 | 12.92279 | 111° | 31km/h | 17717m | 4m/s | 0°C | 0% | 0hPa | 2.6V | 18:12:15 | 01:45:38 | 00:00:00 | |
| OE5DRO-10 | 2026-09-04 11:48:16 | 49.22881 | 12.92267 | 110° | 37km/h | 17713m | 5.1m/s | -56.6°C | 5.2% | 83.8hPa | 2.6V | 00:00:00 | 00:00:00 | 00:00:00 | |
| OE5REO-15 | 2026-09-04 11:48:15 | 49.22881 | 12.92267 | 110° | 31km/h | 17713m | 5.2m/s | -56.7°C | 1.8% | 83.9hPa | 2.7V | 04:19:00 | 00:00:00 | 00:00:00 | |
| OM5KV | 2026-09-04 11:48:14 | 49.22886 | 12.92243 | 105° | 35km/h | 17702m | 4.4m/s | -56.4°C | 0% | 0hPa | 2.7V | 04:19:00 | 00:00:00 | 00:00:00 | |
| OE5DXL-15 | 2026-09-04 11:48:13 | 49.22888 | 12.92230 | 103° | 38km/h | 17697m | 5.0m/s | -56.6°C | 5.2% | 84.1hPa | 2.7V | 00:00:00 | 00:00:00 | 00:00:00 | |
| PETON7-10 | 2026-09-04 11:48:09 | 49.22896 | 12.92181 | 105° | 40km/h | 17676m | 5.1m/s | -56.6°C | 5.2% | 84.4hPa | 2.7V | 00:00:00 | 01:45:30 | 00:00:00 | |
| OM5KV | 2026-09-04 11:48:06 | 49.22900 | 12.92152 | 104° | 38km/h | 17667m | 4.1m/s | 0°C | 0% | 0hPa | 2.7V | 04:19:00 | 00:00:00 | 00:00:00 | |
| OE5WHR-10 | 2026-09-04 11:48:05 | 49.22905 | 12.92124 | 105° | 40km/h | 17657m | 5.3m/s | -56.3°C | 5.0% | 84.6hPa | 2.7V | 04:19:00 | 00:00:00 | 00:00:00 | |
| DO3MHA-11 | 2026-09-04 11:48:04 | 49.22907 | 12.92110 | 106° | 40km/h | 17652m | 3.3m/s | -56.5°C | 5.2% | 84.6hPa | 2.7V | 00:00:00 | 01:45:25 | 00:00:00 | |
| EDDB2-11 | 2026-09-04 11:47:59 | 49.22918 | 12.92014 | 94° | 40km/h | 17625m | 4.5m/s | -56.3°C | 1.7% | 85.1hPa | 2.7V | 00:00:00 | 00:00:00 | 00:00:00 | |
| DL6DJ-15 | 2026-09-04 11:47:56 | 49.22919 | 12.91970 | 91° | 38km/h | 17612m | 4.8m/s | -56.1°C | 1.6% | 85.2hPa | 2.7V | 00:00:00 | 00:00:00 | 00:00:00 | |
| SONDE2-11 | 2026-09-04 11:47:52 | 49.22920 | 12.91909 | 96° | 35km/h | 17594m | 4.6m/s | -56.4°C | 1.7% | 85.5hPa | 2.7V | 00:00:00 | 00:00:00 | 00:00:00 | |
| EDDB2-12 | 2026-09-04 11:47:48 | 49.22925 | 12.91866 | 101° | 38km/h | 17580m | 4.7m/s | -56.6°C | 1.8% | 85.7hPa | 2.7V | 00:00:00 | 00:00:00 | 00:00:00 | |
| PG1ADW-2 | 2026-09-04 11:47:45 | 49.22932 | 12.91821 | 106° | 37km/h | 17567m | 4.8m/s | -56.9°C | 5.2% | 85.8hPa | 2.7V | 04:20:00 | 00:00:00 | 00:00:00 | |
| DO3MHA-11 | 2026-09-04 11:47:44 | 49.22934 | 12.91808 | 106° | 38km/h | 17563m | 3.4m/s | -56.7°C | 5.2% | 85.9hPa | 2.7V | 00:00:00 | 01:45:05 | 00:00:00 | |
| OE5DXL-15 | 2026-09-04 11:47:43 | 49.22936 | 12.91794 | 103° | 35km/h | 17560m | 3.2m/s | -56.5°C | 5.0% | 85.9hPa | 2.7V | 00:00:00 | 00:00:00 | 00:00:00 | |
| PETON7-10 | 2026-09-04 11:47:39 | 49.22940 | 12.91731 | 88° | 35km/h | 17542m | 4.7m/s | -57.3°C | 5.3% | 86.1hPa | 2.6V | 00:00:00 | 00:00:00 | 00:00:00 | |
| OE5DRO-10 | 2026-09-04 11:47:38 | 49.22939 | 12.91716 | 87° | 35km/h | 17537m | 4.6m/s | -57.1°C | 5.3% | 86.2hPa | 2.6V | 00:00:00 | 00:00:00 | 00:00:00 | |
| DO3MHA-11 | 2026-09-04 11:47:34 | 49.22939 | 12.91663 | 99° | 35km/h | 17520m | 4.5m/s | -57.3°C | 5.4% | 86.4hPa | 2.6V | 00:00:00 | 01:44:55 | 00:00:00 | |
| OE5MMP-10 | 2026-09-04 11:47:29 | 49.22951 | 12.91601 | 112° | 35km/h | 17497m | 3.5m/s | -57.1°C | 5.1% | 86.8hPa | 2.6V | 00:00:00 | 01:44:50 | 00:00:00 | |
| EDDB2-11 | 2026-09-04 11:47:28 | 49.22958 | 12.91576 | 113° | 38km/h | 17487m | 5.5m/s | -57.3°C | 1.8% | 86.9hPa | 2.6V | 00:00:00 | 00:00:00 | 00:00:00 | |
| PG1ADW-2 | 2026-09-04 11:47:25 | 49.22966 | 12.91548 | 112° | 37km/h | 17478m | 4.7m/s | -57.1°C | 5.1% | 87.0hPa | 2.6V | 00:00:00 | 00:00:00 | 00:00:00 | |
| DO3MHA-11 | 2026-09-04 11:47:24 | 49.22969 | 12.91535 | 111° | 33km/h | 17473m | 4.9m/s | -57.3°C | 5.2% | 87.1hPa | 2.6V | 04:20:00 | 01:44:45 | 00:00:00 | |
| SONDE2-11 | 2026-09-04 11:47:20 | 49.22985 | 12.91477 | 115° | 31km/h | 17451m | 4.1m/s | -57.0°C | 1.8% | 87.4hPa | 2.6V | 00:00:00 | 00:00:00 | 00:00:00 | |
| OE5MMP-10 | 2026-09-04 11:47:19 | 49.22985 | 12.91477 | 116° | 35km/h | 17451m | 4.0m/s | -56.9°C | 5.2% | 87.4hPa | 2.6V | 04:20:00 | 01:44:40 | 00:00:00 | |
| EDDB2-12 | 2026-09-04 11:47:17 | 49.22991 | 12.91456 | 116° | 29km/h | 17442m | 3.4m/s | -57.3°C | 2.0% | 87.6hPa | 2.6V | 00:00:00 | 00:00:00 | 00:00:00 | |
| DO3MHA-11 | 2026-09-04 11:47:14 | 49.23003 | 12.91421 | 121° | 37km/h | 17430m | 4.6m/s | -57.4°C | 5.4% | 87.7hPa | 2.6V | 00:00:00 | 01:44:35 | 00:00:00 | |
| OE5DXL-15 | 2026-09-04 11:47:13 | 49.23008 | 12.91409 | 123° | 42km/h | 17425m | 3.9m/s | -57.3°C | 5.4% | 87.7hPa | 2.6V | 00:00:00 | 00:00:00 | 00:00:00 | |
| OE5MMP-10 | 2026-09-04 11:47:09 | 49.23029 | 12.91362 | 129° | 40km/h | 17408m | 4.3m/s | -57.5°C | 5.1% | 88.0hPa | 2.6V | 00:00:00 | 01:44:30 | 00:00:00 | |
| DO3MHA-11 | 2026-09-04 11:47:04 | 49.23056 | 12.91309 | 122° | 44km/h | 17385m | 3.6m/s | -57.4°C | 5.4% | 88.3hPa | 2.6V | 00:00:00 | 01:44:25 | 00:00:00 | |
| EDDB2-11 | 2026-09-04 11:46:56 | 49.23098 | 12.91181 | 118° | 38km/h | 17351m | 4.1m/s | -57.1°C | 1.8% | 88.8hPa | 2.6V | 00:00:00 | 00:00:00 | 00:00:00 | |
| DL6DJ-15 | 2026-09-04 11:46:54 | 49.23111 | 12.91142 | 113° | 37km/h | 17339m | 3.2m/s | -57.6°C | 2.0% | 89.0hPa | 2.6V | 00:00:00 | 00:00:00 | 00:00:00 | |
| SONCRA | 2026-09-04 11:46:49 | 49.23123 | 12.91086 | 107° | 38km/h | 17323m | 3.6m/s | -57.7°C | 1.9% | 89.2hPa | 2.6V | 00:00:00 | 00:00:00 | 00:00:00 | |
| EDDB2-12 | 2026-09-04 11:46:46 | 49.23138 | 12.91039 | 119° | 49km/h | 17311m | 4.0m/s | -57.5°C | 1.8% | 89.4hPa | 2.6V | 00:00:00 | 00:00:00 | 00:00:00 | |
| DO3MHA-11 | 2026-09-04 11:46:44 | 49.23151 | 12.91003 | 117° | 53km/h | 17302m | 4.5m/s | -57.5°C | 5.6% | 89.5hPa | 2.6V | 00:00:00 | 01:44:05 | 00:00:00 | |
| OE5DXL-15 | 2026-09-04 11:46:43 | 49.23156 | 12.90984 | 114° | 57km/h | 17297m | 3.8m/s | -57.5°C | 5.7% | 89.5hPa | 2.6V | 04:21:00 | 00:00:00 | 00:00:00 | |
| OE5REO-15 | 2026-09-04 11:46:42 | 49.23156 | 12.90984 | 114° | 55km/h | 17297m | 3.9m/s | -57.5°C | 2.0% | 89.6hPa | 2.6V | 04:21:00 | 00:00:00 | 00:00:00 | |
| OE5WHR-10 | 2026-09-04 11:46:41 | 49.23166 | 12.90945 | 110° | 55km/h | 17289m | 4.3m/s | -57.4°C | 5.6% | 89.7hPa | 2.6V | 00:00:00 | 01:44:02 | 00:00:00 | |
| DL1JEZ-13 | 2026-09-04 11:46:40 | 49.23166 | 12.90945 | 110° | 53km/h | 17289m | 4.4m/s | -57.5°C | 0% | 89.7hPa | 2.6V | 00:00:00 | 00:00:00 | 00:00:00 | |
| OE5MMP-10 | 2026-09-04 11:46:39 | 49.23175 | 12.90907 | 108° | 53km/h | 17281m | 3.9m/s | -57.2°C | 5.5% | 89.8hPa | 2.6V | 00:00:00 | 01:44:00 | 00:00:00 | |
| DO3MHA-11 | 2026-09-04 11:46:34 | 49.23187 | 12.90807 | 99° | 53km/h | 17259m | 5.1m/s | -56.7°C | 5.2% | 90.1hPa | 2.6V | 04:21:00 | 01:43:55 | 00:00:00 | |
| OE5MMP-10 | 2026-09-04 11:46:29 | 49.23199 | 12.90707 | 99° | 58km/h | 17236m | 3.4m/s | -56.6°C | 4.9% | 90.4hPa | 2.6V | 04:21:00 | 01:43:50 | 00:00:00 | |
| OE5REO-15 | 2026-09-04 11:46:26 | 49.23204 | 12.90667 | 104° | 53km/h | 17228m | 5.2m/s | -56.9°C | 1.8% | 90.6hPa | 2.6V | 04:21:00 | 00:00:00 | 00:00:00 | |
| EDDB2-11 | 2026-09-04 11:46:25 | 49.23211 | 12.90627 | 104° | 55km/h | 17220m | 3.9m/s | -57.1°C | 1.8% | 90.7hPa | 2.6V | 00:00:00 | 00:00:00 | 00:00:00 | |
| DO3MHA-11 | 2026-09-04 11:46:24 | 49.23214 | 12.90605 | 104° | 64km/h | 17216m | 4.8m/s | -57.3°C | 5.1% | 90.7hPa | 2.6V | 00:00:00 | 01:43:45 | 00:00:00 | |
| DL6DJ-15 | 2026-09-04 11:46:23 | 49.23221 | 12.90558 | 101° | 64km/h | 17207m | 4.2m/s | -57.4°C | 1.9% | 90.9hPa | 2.7V | 00:00:00 | 00:00:00 | 00:00:00 | |
| PG1ADW-2 | 2026-09-04 11:46:22 | 49.23221 | 12.90558 | 102° | 60km/h | 17207m | 4.1m/s | -57.3°C | 5.2% | 90.8hPa | 2.7V | 00:00:00 | 00:00:00 | 00:00:00 | |
| OE5WHR-10 | 2026-09-04 11:46:20 | 49.23228 | 12.90509 | 103° | 62km/h | 17198m | 3.8m/s | -57.7°C | 5.6% | 90.9hPa | 2.6V | 04:21:00 | 00:00:00 | 00:00:00 | |
| OE5MMP-10 | 2026-09-04 11:46:19 | 49.23231 | 12.90484 | 101° | 62km/h | 17195m | 2.8m/s | -57.7°C | 5.6% | 91.0hPa | 2.6V | 00:00:00 | 01:43:40 | 00:00:00 | |
| SONDE2-11 | 2026-09-04 11:46:18 | 49.23234 | 12.90460 | 98° | 64km/h | 17192m | 3.6m/s | -57.5°C | 1.9% | 91.1hPa | 2.6V | 00:00:00 | 00:00:00 | 00:00:00 | |
| EDDB2-12 | 2026-09-04 11:46:15 | 49.23238 | 12.90384 | 91° | 62km/h | 17180m | 3.3m/s | -57.5°C | 1.8% | 91.3hPa | 2.6V | 00:00:00 | 00:00:00 | 00:00:00 | |
| DO3MHA-11 | 2026-09-04 11:46:14 | 49.23238 | 12.90361 | 94° | 60km/h | 17176m | 4.2m/s | -57.9°C | 5.3% | 91.3hPa | 2.6V | 00:00:00 | 01:43:35 | 00:00:00 | |
| OE5DXL-15 | 2026-09-04 11:46:13 | 49.23240 | 12.90338 | 98° | 55km/h | 17172m | 4.1m/s | -58.3°C | 5.5% | 91.3hPa | 2.6V | 00:00:00 | 00:00:00 | 00:00:00 | |
| OE5REO-15 | 2026-09-04 11:46:11 | 49.23242 | 12.90317 | 102° | 55km/h | 17168m | 3.4m/s | -58.3°C | 1.9% | 91.4hPa | 2.7V | 04:22:00 | 00:00:00 | 00:00:00 | |
| OE5MMP-10 | 2026-09-04 11:46:09 | 49.23250 | 12.90251 | 99° | 62km/h | 17156m | 4.4m/s | -57.8°C | 5.3% | 91.6hPa | 2.7V | 00:00:00 | 01:43:30 | 00:00:00 | |
| DO3MHA-11 | 2026-09-04 11:46:04 | 49.23250 | 12.90130 | 83° | 57km/h | 17133m | 4.2m/s | -57.8°C | 5.5% | 91.9hPa | 2.7V | 00:00:00 | 01:43:25 | 00:00:00 | |
| OE5DRO-10 | 2026-09-04 11:46:03 | 49.23247 | 12.90108 | 81° | 53km/h | 17129m | 3.8m/s | -57.6°C | 5.5% | 92.0hPa | 2.7V | 00:00:00 | 00:00:00 | 00:00:00 | |
| OE5MMP-10 | 2026-09-04 11:45:59 | 49.23238 | 12.90018 | 80° | 51km/h | 17113m | 4.3m/s | -57.4°C | 5.8% | 92.2hPa | 2.7V | 00:00:00 | 01:43:20 | 00:00:00 | |
| PG1ADW-2 | 2026-09-04 11:45:57 | 49.23232 | 12.89976 | 77° | 53km/h | 17104m | 3.9m/s | -57.8°C | 6.0% | 92.3hPa | 2.7V | 00:00:00 | 01:43:18 | 00:00:00 | |
| OE5REO-15 | 2026-09-04 11:45:55 | 49.23230 | 12.89958 | 79° | 49km/h | 17100m | 3.9m/s | -57.9°C | 2.1% | 92.5hPa | 2.7V | 04:22:00 | 00:00:00 | 00:00:00 | |
| DO3MHA-11 | 2026-09-04 11:45:54 | 49.23226 | 12.89920 | 83° | 51km/h | 17091m | 4.0m/s | -57.7°C | 5.7% | 92.5hPa | 2.7V | 00:00:00 | 01:43:15 | 00:00:00 | |
| DO8TBO-1 | 2026-09-04 11:45:51 | 49.23220 | 12.89862 | 81° | 47km/h | 17078m | 4.7m/s | -57.8°C | 5.5% | 92.7hPa | 2.6V | 04:22:00 | 01:43:12 | 00:00:00 | |
| OE5MMP-10 | 2026-09-04 11:45:49 | 49.23216 | 12.89823 | 83° | 51km/h | 17069m | 5.0m/s | -57.6°C | 5.2% | 92.9hPa | 2.7V | 00:00:00 | 01:43:10 | 00:00:00 | |
| PETON7-10 | 2026-09-04 11:45:47 | 49.23214 | 12.89783 | 86° | 47km/h | 17060m | 3.6m/s | -57.5°C | 5.3% | 93.0hPa | 2.6V | 00:00:00 | 00:00:00 | 00:00:00 | |
| DO3MHA-11 | 2026-09-04 11:45:44 | 49.23209 | 12.89721 | 82° | 49km/h | 17047m | 3.6m/s | -57.4°C | 5.4% | 93.2hPa | 2.6V | 04:22:00 | 01:43:05 | 00:00:00 | |
| OE5DXL-15 | 2026-09-04 11:45:43 | 49.23207 | 12.89702 | 82° | 46km/h | 17043m | 4.3m/s | -57.2°C | 5.4% | 93.2hPa | 2.6V | 00:00:00 | 00:00:00 | 00:00:00 | |
| OE5REO-15 | 2026-09-04 11:45:40 | 49.23205 | 12.89664 | 85° | 49km/h | 17035m | 3.6m/s | -57.2°C | 2.0% | 93.4hPa | 2.6V | 04:22:00 | 00:00:00 | 00:00:00 | |
| OE5MMP-10 | 2026-09-04 11:45:39 | 49.23201 | 12.89627 | 79° | 47km/h | 17026m | 4.6m/s | -56.6°C | 5.5% | 93.5hPa | 2.6V | 04:22:00 | 01:43:00 | 00:00:00 | |
| OE5WHR-10 | 2026-09-04 11:45:38 | 49.23198 | 12.89609 | 78° | 46km/h | 17022m | 4.3m/s | -56.8°C | 5.6% | 93.5hPa | 2.6V | 00:00:00 | 01:42:59 | 00:00:00 | |
| OE5MMP-10 | 2026-09-04 11:45:29 | 49.23180 | 12.89448 | 84° | 46km/h | 16981m | 3.9m/s | -57.1°C | 5.3% | 94.2hPa | 2.6V | 00:00:00 | 01:42:50 | 00:00:00 | |
| PETON7-10 | 2026-09-04 11:45:26 | 49.23175 | 12.89393 | 80° | 46km/h | 16969m | 4.2m/s | -57.3°C | 5.3% | 94.3hPa | 2.6V | 00:00:00 | 01:42:47 | 00:00:00 | |
| DO3MHA-11 | 2026-09-04 11:45:25 | 49.23171 | 12.89358 | 83° | 44km/h | 16960m | 4.9m/s | -57.1°C | 5.4% | 94.4hPa | 2.6V | 00:00:00 | 01:42:45 | 00:00:00 | |
| EDDB2-11 | 2026-09-04 11:45:23 | 49.23170 | 12.89342 | 86° | 42km/h | 16955m | 4.8m/s | -57.2°C | 2.0% | 94.6hPa | 2.7V | 00:00:00 | 00:00:00 | 00:00:00 | |
| DO8TBO-1 | 2026-09-04 11:45:20 | 49.23168 | 12.89292 | 86° | 44km/h | 16944m | 5.1m/s | -57.0°C | 5.4% | 94.7hPa | 2.7V | 00:00:00 | 01:42:41 | 00:00:00 | |
| OE5MMP-10 | 2026-09-04 11:45:19 | 49.23167 | 12.89275 | 84° | 44km/h | 16939m | 4.1m/s | -56.7°C | 5.3% | 94.8hPa | 2.7V | 00:00:00 | 01:42:40 | 00:00:00 | |
| SONDE2-11 | 2026-09-04 11:45:17 | 49.23163 | 12.89223 | 84° | 44km/h | 16926m | 4.9m/s | -57.0°C | 2.0% | 95.0hPa | 2.6V | 00:00:00 | 00:00:00 | 00:00:00 | |
| DO3MHA-11 | 2026-09-04 11:45:14 | 49.23162 | 12.89190 | 87° | 44km/h | 16917m | 3.6m/s | -56.8°C | 5.4% | 95.1hPa | 2.6V | 00:00:00 | 01:42:35 | 00:00:00 | |
| OE5DXL-15 | 2026-09-04 11:45:13 | 49.23161 | 12.89174 | 84° | 42km/h | 16913m | 4.8m/s | -56.7°C | 5.3% | 95.2hPa | 2.6V | 00:00:00 | 00:00:00 | 00:00:00 | |
| OE5MMP-10 | 2026-09-04 11:45:09 | 49.23156 | 12.89109 | 90° | 44km/h | 16894m | 4.5m/s | -56.8°C | 5.3% | 95.4hPa | 2.6V | 00:00:00 | 01:42:30 | 00:00:00 | |
| PETON7-10 | 2026-09-04 11:45:06 | 49.23156 | 12.89056 | 89° | 44km/h | 16880m | 4.4m/s | -57.3°C | 5.8% | 95.6hPa | 2.6V | 00:00:00 | 00:00:00 | 00:00:00 | |
| DO3MHA-11 | 2026-09-04 11:45:04 | 49.23156 | 12.89021 | 91° | 42km/h | 16872m | 5.1m/s | -57.2°C | 5.5% | 95.8hPa | 2.6V | 00:00:00 | 01:42:25 | 00:00:00 | |
| EDDB2-11 | 2026-09-04 11:44:52 | 49.23154 | 12.88824 | 83° | 44km/h | 16817m | 4.6m/s | -57.2°C | 2.1% | 96.7hPa | 2.6V | 00:00:00 | 00:00:00 | 00:00:00 | |
| DL6DJ-15 | 2026-09-04 11:44:49 | 49.23150 | 12.88776 | 80° | 38km/h | 16804m | 3.8m/s | -57.3°C | 2.1% | 96.9hPa | 2.6V | 00:00:00 | 00:00:00 | 00:00:00 | |
| SONCRA | 2026-09-04 11:44:45 | 49.23140 | 12.88718 | 73° | 37km/h | 16785m | 4.7m/s | -57.5°C | -1.0% | 97.2hPa | 2.6V | 00:00:00 | 00:00:00 | 00:00:00 | |
| DO3MHA-11 | 2026-09-04 11:44:44 | 49.23137 | 12.88704 | 75° | 40km/h | 16781m | 3.5m/s | -57.2°C | 5.6% | 97.2hPa | 2.6V | 00:00:00 | 01:42:05 | 00:00:00 | |
| OE5DXL-15 | 2026-09-04 11:44:43 | 49.23134 | 12.88690 | 73° | 38km/h | 16777m | 4.6m/s | -57.0°C | 5.4% | 97.2hPa | 2.6V | 00:00:00 | 00:00:00 | 00:00:00 | |
| EDDB2-12 | 2026-09-04 11:44:42 | 49.23128 | 12.88660 | 70° | 42km/h | 16768m | 3.8m/s | -57.7°C | 2.1% | 97.4hPa | 2.7V | 00:00:00 | 00:00:00 | 00:00:00 | |
| OE5MMP-10 | 2026-09-04 11:44:39 | 49.23121 | 12.88629 | 77° | 40km/h | 16759m | 5.6m/s | -57.6°C | 5.7% | 97.5hPa | 2.7V | 00:00:00 | 01:42:00 | 00:00:00 | |
| OE5REO-15 | 2026-09-04 11:44:37 | 49.23119 | 12.88613 | 82° | 40km/h | 16754m | 4.6m/s | -57.5°C | 2.2% | 97.7hPa | 2.7V | 04:24:00 | 00:00:00 | 00:00:00 | |
| OE5WHR-10 | 2026-09-04 11:44:35 | 49.23114 | 12.88569 | 77° | 37km/h | 16741m | 4.6m/s | -57.1°C | 5.4% | 97.8hPa | 2.7V | 04:23:00 | 01:41:56 | 00:00:00 | |
| DO3MHA-11 | 2026-09-04 11:44:34 | 49.23112 | 12.88555 | 77° | 38km/h | 16737m | 3.9m/s | -57.6°C | 5.6% | 97.9hPa | 2.7V | 00:00:00 | 01:41:55 | 00:00:00 | |
| OE5MMP-10 | 2026-09-04 11:44:29 | 49.23108 | 12.88479 | 90° | 35km/h | 16713m | 4.6m/s | -57.0°C | 5.5% | 98.2hPa | 2.7V | 00:00:00 | 01:41:50 | 00:00:00 | |
| OE5DRO-10 | 2026-09-04 11:44:28 | 49.23108 | 12.88465 | 88° | 37km/h | 16709m | 4.5m/s | -56.9°C | 5.4% | 98.3hPa | 2.7V | 00:00:00 | 00:00:00 | 00:00:00 | |
| PETON7-10 | 2026-09-04 11:44:25 | 49.23107 | 12.88425 | 93° | 38km/h | 16695m | 5.4m/s | -57.4°C | 5.5% | 98.5hPa | 2.6V | 04:23:00 | 00:00:00 | 00:00:00 | |
| DO3MHA-11 | 2026-09-04 11:44:24 | 49.23108 | 12.88412 | 95° | 35km/h | 16690m | 4.0m/s | -57.2°C | 5.4% | 98.6hPa | 2.6V | 00:00:00 | 01:41:45 | 00:00:00 | |
| SP3BTT-10 | 2026-09-04 11:44:23 | 49.23108 | 12.88399 | 94° | 42km/h | 16686m | 4.0m/s | -57.5°C | 5.4% | 98.6hPa | 2.6V | 00:00:00 | 00:00:00 | 00:00:00 | |
| OE5REO-15 | 2026-09-04 11:44:22 | 49.23109 | 12.88386 | 91° | 33km/h | 16681m | 5.3m/s | -57.8°C | 2.1% | 98.8hPa | 2.6V | 04:24:00 | 00:00:00 | 00:00:00 | |
| EDDB2-11 | 2026-09-04 11:44:21 | 49.23108 | 12.88373 | 88° | 31km/h | 16677m | 3.5m/s | -57.6°C | 2.1% | 98.8hPa | 2.6V | 00:00:00 | 00:00:00 | 00:00:00 | |
| OE5MMP-10 | 2026-09-04 11:44:19 | 49.23108 | 12.88347 | 95° | 40km/h | 16669m | 5.0m/s | -58.0°C | 5.6% | 98.9hPa | 2.6V | 00:00:00 | 01:41:40 | 00:00:00 | |
| DL6DJ-15 | 2026-09-04 11:44:18 | 49.23109 | 12.88334 | 97° | 35km/h | 16664m | 4.5m/s | -58.2°C | 2.2% | 99.1hPa | 2.7V | 00:00:00 | 00:00:00 | 00:00:00 | |
| DO8TBO-1 | 2026-09-04 11:44:17 | 49.23111 | 12.88320 | 99° | 46km/h | 16660m | 4.0m/s | -58.5°C | 6.1% | 99.1hPa | 2.7V | 00:00:00 | 01:41:38 | 00:00:00 | |
| OE5WHR-10 | 2026-09-04 11:44:14 | 49.23114 | 12.88277 | 95° | 47km/h | 16647m | 3.9m/s | -58.2°C | 6.0% | 99.3hPa | 2.6V | 00:00:00 | 00:00:00 | 00:00:00 | |
| OE5DXL-15 | 2026-09-04 11:44:13 | 49.23114 | 12.88261 | 97° | 47km/h | 16642m | 5.5m/s | -58.3°C | 5.9% | 99.3hPa | 2.7V | 04:23:00 | 00:00:00 | 00:00:00 | |
| EDDB2-12 | 2026-09-04 11:44:11 | 49.23118 | 12.88208 | 92° | 46km/h | 16628m | 5.3m/s | -58.2°C | 2.3% | 99.7hPa | 2.7V | 00:00:00 | 00:00:00 | 00:00:00 | |
| OE5MMP-10 | 2026-09-04 11:44:09 | 49.23118 | 12.88190 | 91° | 47km/h | 16623m | 4.6m/s | -58.0°C | 5.9% | 99.7hPa | 2.7V | 00:00:00 | 01:41:30 | 00:00:00 | |
| PETON7-10 | 2026-09-04 11:44:07 | 49.23118 | 12.88153 | 92° | 47km/h | 16614m | 5.3m/s | -58.2°C | 5.9% | 99.8hPa | 2.7V | 00:00:00 | 01:41:28 | 00:00:00 | |
| OE5REO-15 | 2026-09-04 11:44:06 | 49.23118 | 12.88153 | 92° | 47km/h | 16614m | 5.4m/s | -58.3°C | 2.3% | 99.8hPa | 2.7V | 04:24:00 | 00:00:00 | 00:00:00 | |
| DO3MHA-11 | 2026-09-04 11:44:04 | 49.23120 | 12.88099 | 92° | 47km/h | 16601m | 5.2m/s | -58.2°C | 5.8% | 100.0hPa | 2.7V | 04:23:00 | 01:41:25 | 00:00:00 | |
| OE5MMP-10 | 2026-09-04 11:43:59 | 49.23123 | 12.88006 | 96° | 47km/h | 16578m | 4.0m/s | -57.9°C | 6.0% | 100.4hPa | 2.7V | 04:23:00 | 01:41:20 | 00:00:00 | |
| DO3MHA-11 | 2026-09-04 11:43:54 | 49.23125 | 12.87913 | 93° | 47km/h | 16556m | 5.1m/s | -58.3°C | 5.7% | 100.7hPa | 2.7V | 00:00:00 | 01:41:15 | 00:00:00 | |
| OE5WHR-10 | 2026-09-04 11:43:53 | 49.23126 | 12.87894 | 94° | 46km/h | 16552m | 4.0m/s | -58.2°C | 5.8% | 100.8hPa | 2.7V | 00:00:00 | 00:00:00 | 00:00:00 | |
| OE5REO-15 | 2026-09-04 11:43:51 | 49.23127 | 12.87857 | 92° | 47km/h | 16543m | 5.6m/s | -57.8°C | 2.3% | 101.0hPa | 2.7V | 04:24:00 | 00:00:00 | 00:00:00 | |
| OE5DRO-10 | 2026-09-04 11:43:50 | 49.23127 | 12.87839 | 89° | 46km/h | 16538m | 3.9m/s | -57.9°C | 5.7% | 101.0hPa | 2.7V | 00:00:00 | 00:00:00 | 00:00:00 | |
| OE5MMP-10 | 2026-09-04 11:43:49 | 49.23127 | 12.87822 | 89° | 46km/h | 16534m | 3.2m/s | -58.2°C | 5.8% | 101.1hPa | 2.7V | 00:00:00 | 01:41:10 | 00:00:00 | |
| DO8TBO-1 | 2026-09-04 11:43:47 | 49.23128 | 12.87786 | 95° | 47km/h | 16525m | 5.7m/s | -58.5°C | 6.1% | 101.2hPa | 2.7V | 00:00:00 | 01:41:08 | 00:00:00 | |
| DO3MHA-11 | 2026-09-04 11:43:44 | 49.23133 | 12.87731 | 100° | 46km/h | 16512m | 5.0m/s | -58.4°C | 6.1% | 101.5hPa | 2.7V | 00:00:00 | 01:41:05 | 00:00:00 | |
| SONCRA | 2026-09-04 11:43:43 | 49.23137 | 12.87695 | 99° | 44km/h | 16503m | 3.9m/s | -58.4°C | -1.0% | 101.7hPa | 2.7V | 00:00:00 | 00:00:00 | 00:00:00 | |
| EDDB2-12 | 2026-09-04 11:43:40 | 49.23144 | 12.87647 | 104° | 44km/h | 16489m | 4.1m/s | -58.6°C | 2.4% | 101.9hPa | 2.7V | 00:00:00 | 00:00:00 | 00:00:00 | |
| OE5MMP-10 | 2026-09-04 11:43:39 | 49.23144 | 12.87647 | 105° | 46km/h | 16489m | 4.0m/s | -58.5°C | 6.0% | 101.8hPa | 2.7V | 00:00:00 | 01:41:00 | 00:00:00 | |
| SP3BTT-10 | 2026-09-04 11:43:37 | 49.23149 | 12.87612 | 99° | 51km/h | 16480m | 5.2m/s | -58.4°C | 5.9% | 102.0hPa | 2.7V | 00:00:00 | 00:00:00 | 00:00:00 | |
| OE5REO-15 | 2026-09-04 11:43:35 | 49.23151 | 12.87594 | 98° | 47km/h | 16476m | 4.1m/s | -58.5°C | 2.4% | 102.1hPa | 2.6V | 04:24:00 | 00:00:00 | 00:00:00 | |
| DO3MHA-11 | 2026-09-04 11:43:34 | 49.23154 | 12.87558 | 101° | 46km/h | 16466m | 5.1m/s | -58.3°C | 6.0% | 102.2hPa | 2.6V | 00:00:00 | 01:40:55 | 00:00:00 | |
| PETON7-10 | 2026-09-04 11:43:33 | 49.23157 | 12.87540 | 103° | 47km/h | 16461m | 4.2m/s | -58.3°C | 6.0% | 102.3hPa | 2.6V | 00:00:00 | 00:00:00 | 00:00:00 | |
| OE5WHR-10 | 2026-09-04 11:43:32 | 49.23159 | 12.87522 | 101° | 49km/h | 16456m | 5.4m/s | -58.3°C | 6.0% | 102.4hPa | 2.6V | 00:00:00 | 01:40:53 | 00:00:00 | |
| OE5MMP-10 | 2026-09-04 11:43:29 | 49.23166 | 12.87471 | 103° | 47km/h | 16442m | 5.4m/s | -58.3°C | 6.1% | 102.6hPa | 2.6V | 00:00:00 | 01:40:50 | 00:00:00 | |
| DO3MHA-11 | 2026-09-04 11:43:24 | 49.23180 | 12.87383 | 101° | 49km/h | 16420m | 3.9m/s | -58.6°C | 5.8% | 102.9hPa | 2.6V | 00:00:00 | 01:40:45 | 00:00:00 | |
| OE5MMP-10 | 2026-09-04 11:43:19 | 49.23193 | 12.87292 | 104° | 53km/h | 16398m | 5.1m/s | -58.2°C | 6.1% | 103.3hPa | 2.6V | 00:00:00 | 01:40:40 | 00:00:00 | |
| PETON7-10 | 2026-09-04 11:43:18 | 49.23196 | 12.87274 | 103° | 55km/h | 16392m | 5.0m/s | -58.1°C | 6.0% | 103.4hPa | 2.6V | 00:00:00 | 01:40:39 | 00:00:00 | |
| DO8TBO-1 | 2026-09-04 11:43:17 | 49.23199 | 12.87254 | 104° | 55km/h | 16388m | 3.8m/s | -58.5°C | 6.0% | 103.5hPa | 2.6V | 04:24:00 | 01:40:38 | 00:00:00 | |
| DL6DJ-15 | 2026-09-04 11:43:16 | 49.23202 | 12.87234 | 104° | 53km/h | 16384m | 5.0m/s | -59.0°C | 2.4% | 103.6hPa | 2.6V | 00:00:00 | 00:00:00 | 00:00:00 | |
| OE5REO-15 | 2026-09-04 11:43:15 | 49.23203 | 12.87234 | 106° | 53km/h | 16384m | 5.0m/s | -59.0°C | 2.4% | 103.6hPa | 2.6V | 04:24:00 | 00:00:00 | 00:00:00 | |
| DO3MHA-11 | 2026-09-04 11:43:14 | 49.23210 | 12.87195 | 107° | 55km/h | 16374m | 4.1m/s | -59.0°C | 6.2% | 103.7hPa | 2.6V | 04:24:00 | 01:40:35 | 00:00:00 | |
| OE5DXL-15 | 2026-09-04 11:43:13 | 49.23214 | 12.87174 | 106° | 55km/h | 16370m | 5.3m/s | -59.0°C | 6.2% | 103.8hPa | 2.6V | 00:00:00 | 00:00:00 | 00:00:00 | |
| OE5DRO-10 | 2026-09-04 11:43:12 | 49.23217 | 12.87154 | 106° | 55km/h | 16365m | 4.2m/s | -59.0°C | 6.3% | 103.8hPa | 2.6V | 00:00:00 | 00:00:00 | 00:00:00 | |
| OE5WHR-10 | 2026-09-04 11:43:11 | 49.23221 | 12.87134 | 107° | 55km/h | 16360m | 4.3m/s | -58.8°C | 6.2% | 103.9hPa | 2.6V | 00:00:00 | 00:00:00 | 00:00:00 | |
| EDDB2-12 | 2026-09-04 11:43:09 | 49.23233 | 12.87077 | 110° | 51km/h | 16346m | 4.6m/s | -58.7°C | 2.5% | 104.2hPa | 2.7V | 00:00:00 | 00:00:00 | 00:00:00 | |
| SP3BTT-10 | 2026-09-04 11:43:07 | 49.23238 | 12.87057 | 112° | 57km/h | 16342m | 5.0m/s | -58.8°C | 6.4% | 104.2hPa | 2.7V | 00:00:00 | 00:00:00 | 00:00:00 | |
| DL1JEZ-13 | 2026-09-04 11:43:05 | 49.23243 | 12.87037 | 112° | 57km/h | 16337m | 4.0m/s | -58.8°C | 0% | 104.4hPa | 2.7V | 00:00:00 | 00:00:00 | 00:00:00 | |
| DO3MHA-11 | 2026-09-04 11:43:04 | 49.23253 | 12.86996 | 109° | 55km/h | 16328m | 5.5m/s | -58.7°C | 6.2% | 104.5hPa | 2.7V | 00:00:00 | 01:40:25 | 00:00:00 | |
| PETON7-10 | 2026-09-04 11:43:03 | 49.23258 | 12.86975 | 108° | 55km/h | 16323m | 4.5m/s | -58.6°C | 6.0% | 104.5hPa | 2.7V | 04:24:00 | 00:00:00 | 00:00:00 | |
| EDDB2-11 | 2026-09-04 11:42:49 | 49.23308 | 12.86668 | 106° | 51km/h | 16257m | 5.6m/s | -58.7°C | 2.5% | 105.7hPa | 2.7V | 00:00:00 | 00:00:00 | 00:00:00 | |
| DL6DJ-15 | 2026-09-04 11:42:45 | 49.23321 | 12.86610 | 109° | 51km/h | 16242m | 5.6m/s | -58.4°C | 2.6% | 105.9hPa | 2.7V | 00:00:00 | 00:00:00 | 00:00:00 | |
| DO3MHA-11 | 2026-09-04 11:42:44 | 49.23325 | 12.86592 | 108° | 51km/h | 16238m | 4.3m/s | -58.4°C | 6.5% | 106.0hPa | 2.7V | 00:00:00 | 01:40:05 | 00:00:00 | |
| OE5DXL-15 | 2026-09-04 11:42:43 | 49.23328 | 12.86574 | 108° | 57km/h | 16234m | 3.4m/s | -58.5°C | 6.5% | 106.0hPa | 2.7V | 00:00:00 | 00:00:00 | 00:00:00 | |
| SONCRA | 2026-09-04 11:42:41 | 49.23345 | 12.86496 | 109° | 53km/h | 16216m | 4.2m/s | -58.8°C | -1.0% | -1.0hPa | 2.7V | 00:00:00 | 00:00:00 | 00:00:00 | |
| OE5MMP-10 | 2026-09-04 11:42:39 | 49.23345 | 12.86496 | 110° | 53km/h | 16216m | 4.2m/s | -58.8°C | 6.4% | 106.3hPa | 2.7V | 00:00:00 | 01:40:00 | 00:00:00 | |
| EDDB2-12 | 2026-09-04 11:42:38 | 49.23354 | 12.86458 | 109° | 49km/h | 16207m | 4.2m/s | -58.6°C | 2.6% | 106.5hPa | 2.7V | 00:00:00 | 00:00:00 | 00:00:00 | |
| DO3MHA-11 | 2026-09-04 11:42:34 | 49.23367 | 12.86401 | 111° | 55km/h | 16193m | 4.8m/s | -58.5°C | 6.1% | 106.7hPa | 2.7V | 00:00:00 | 01:39:55 | 00:00:00 | |
| PETON7-10 | 2026-09-04 11:42:33 | 49.23372 | 12.86382 | 111° | 55km/h | 16189m | 3.8m/s | -58.7°C | 6.2% | 106.8hPa | 2.7V | 00:00:00 | 01:39:54 | 00:00:00 | |
| OE5MMP-10 | 2026-09-04 11:42:29 | 49.23392 | 12.86304 | 112° | 58km/h | 16171m | 4.2m/s | -58.3°C | 6.1% | 107.1hPa | 2.7V | 00:00:00 | 01:39:50 | 00:00:00 | |
| OE5REO-15 | 2026-09-04 11:42:28 | 49.23392 | 12.86304 | 113° | 55km/h | 16171m | 4.2m/s | -58.4°C | 2.5% | 107.1hPa | 2.7V | 04:25:00 | 00:00:00 | 00:00:00 | |
| DO3MHA-11 | 2026-09-04 11:42:24 | 49.23420 | 12.86204 | 114° | 62km/h | 16149m | 3.4m/s | -58.6°C | 6.3% | 107.5hPa | 2.7V | 04:25:00 | 01:39:45 | 00:00:00 | |
| SP3BTT-10 | 2026-09-04 11:42:22 | 49.23432 | 12.86162 | 113° | 58km/h | 16139m | 4.7m/s | -58.7°C | 6.4% | 107.6hPa | 2.7V | 04:25:00 | 00:00:00 | 00:00:00 | |
| OE5MMP-10 | 2026-09-04 11:42:19 | 49.23449 | 12.86092 | 108° | 62km/h | 16126m | 4.7m/s | -58.6°C | 6.7% | 107.9hPa | 2.7V | 04:25:00 | 01:39:40 | 00:00:00 | |
| EDDB2-11 | 2026-09-04 11:42:17 | 49.23458 | 12.86046 | 106° | 62km/h | 16118m | 4.3m/s | -58.7°C | 2.7% | 108.0hPa | 2.7V | 00:00:00 | 00:00:00 | 00:00:00 | |
| DO8TBO-1 | 2026-09-04 11:42:16 | 49.23463 | 12.86022 | 108° | 60km/h | 16114m | 4.8m/s | -58.6°C | 6.6% | 108.0hPa | 2.7V | 00:00:00 | 01:39:37 | 00:00:00 | |
| OE5DRO-10 | 2026-09-04 11:42:15 | 49.23468 | 12.85999 | 108° | 60km/h | 16109m | 3.7m/s | -58.7°C | 6.5% | 108.1hPa | 2.7V | 00:00:00 | 00:00:00 | 00:00:00 | |
| DO3MHA-11 | 2026-09-04 11:42:14 | 49.23473 | 12.85976 | 108° | 60km/h | 16105m | 4.7m/s | -58.7°C | 6.4% | 108.2hPa | 2.7V | 00:00:00 | 01:39:35 | 00:00:00 | |
| OE5DXL-15 | 2026-09-04 11:42:13 | 49.23477 | 12.85954 | 108° | 60km/h | 16100m | 4.7m/s | -58.6°C | 6.3% | 108.3hPa | 2.7V | 00:00:00 | 00:00:00 | 00:00:00 | |
| SONDE2-11 | 2026-09-04 11:42:10 | 49.23492 | 12.85890 | 110° | 58km/h | 16086m | 4.2m/s | -58.5°C | 2.5% | 108.6hPa | 2.7V | 00:00:00 | 00:00:00 | 00:00:00 | |
| OE5MMP-10 | 2026-09-04 11:42:09 | 49.23497 | 12.85868 | 111° | 62km/h | 16083m | 3.4m/s | -58.3°C | 6.0% | 108.6hPa | 2.7V | 00:00:00 | 01:39:30 | 00:00:00 | |
| OE5WHR-10 | 2026-09-04 11:42:08 | 49.23502 | 12.85846 | 110° | 60km/h | 16079m | 4.9m/s | -58.3°C | 6.1% | 108.7hPa | 2.7V | 00:00:00 | 00:00:00 | 00:00:00 | |
| EDDB2-12 | 2026-09-04 11:42:07 | 49.23511 | 12.85802 | 105° | 62km/h | 16070m | 3.8m/s | -58.0°C | 2.6% | 108.9hPa | 2.6V | 00:00:00 | 00:00:00 | 00:00:00 | |
| DO3MHA-11 | 2026-09-04 11:42:04 | 49.23520 | 12.85753 | 105° | 62km/h | 16061m | 4.1m/s | -58.0°C | 6.2% | 109.0hPa | 2.6V | 00:00:00 | 01:39:25 | 00:00:00 | |
| OE5MMP-10 | 2026-09-04 11:41:59 | 49.23538 | 12.85636 | 105° | 58km/h | 16041m | 4.5m/s | -58.7°C | 6.3% | 109.3hPa | 2.6V | 00:00:00 | 01:39:20 | 00:00:00 | |
| OE5REO-15 | 2026-09-04 11:41:57 | 49.23542 | 12.85614 | 107° | 58km/h | 16036m | 4.3m/s | -58.7°C | 2.7% | 109.5hPa | 2.6V | 04:26:00 | 00:00:00 | 00:00:00 | |
| OE5DRO-10 | 2026-09-04 11:41:56 | 49.23549 | 12.85570 | 103° | 57km/h | 16028m | 4.5m/s | -59.2°C | 6.5% | 109.6hPa | 2.6V | 00:00:00 | 00:00:00 | 00:00:00 | |
| DO3MHA-11 | 2026-09-04 11:41:54 | 49.23555 | 12.85527 | 101° | 60km/h | 16019m | 3.4m/s | -59.1°C | 6.5% | 109.7hPa | 2.6V | 00:00:00 | 01:39:15 | 00:00:00 | |
| OE5MMP-10 | 2026-09-04 11:41:49 | 49.23573 | 12.85413 | 103° | 60km/h | 15999m | 4.9m/s | -59.1°C | 6.7% | 110.1hPa | 2.6V | 00:00:00 | 01:39:10 | 00:00:00 | |
| OE5WHR-10 | 2026-09-04 11:41:47 | 49.23579 | 12.85364 | 100° | 58km/h | 15990m | 4.0m/s | -59.1°C | 6.6% | 110.2hPa | 2.6V | 00:00:00 | 00:00:00 | 00:00:00 | |
| DO8TBO-1 | 2026-09-04 11:41:46 | 49.23581 | 12.85341 | 100° | 57km/h | 15986m | 4.5m/s | -59.1°C | 6.5% | 110.3hPa | 2.6V | 00:00:00 | 01:39:07 | 00:00:00 | |
| OE5DXL-15 | 2026-09-04 11:41:43 | 49.23590 | 12.85272 | 101° | 57km/h | 15973m | 3.9m/s | -59.3°C | 7.0% | 110.5hPa | 2.6V | 04:26:00 | 00:00:00 | 00:00:00 | |
| OE5REO-15 | 2026-09-04 11:41:42 | 49.23590 | 12.85272 | 102° | 58km/h | 15973m | 3.9m/s | -59.4°C | 3.0% | 110.6hPa | 2.7V | 04:26:00 | 00:00:00 | 00:00:00 | |
| SONDE2-11 | 2026-09-04 11:41:39 | 49.23600 | 12.85158 | 96° | 60km/h | 15951m | 3.6m/s | -59.3°C | 2.9% | 111.0hPa | 2.7V | 00:00:00 | 00:00:00 | 00:00:00 | |
| PG1ADW-2 | 2026-09-04 11:41:34 | 49.23605 | 12.85064 | 98° | 55km/h | 15934m | 5.0m/s | -59.4°C | 7.0% | 111.2hPa | 2.7V | 00:00:00 | 00:00:00 | 00:00:00 | |
| DO3MHA-11 | 2026-09-04 11:41:29 | 49.23616 | 12.84954 | 99° | 55km/h | 15912m | 3.9m/s | -59.6°C | 7.0% | 111.6hPa | 2.6V | 04:26:00 | 01:38:50 | 00:00:00 | |
| OE5REO-15 | 2026-09-04 11:41:27 | 49.23619 | 12.84933 | 102° | 57km/h | 15908m | 5.3m/s | -59.5°C | 3.0% | 111.7hPa | 2.6V | 04:26:00 | 00:00:00 | 00:00:00 | |
| OE5WHR-10 | 2026-09-04 11:41:26 | 49.23625 | 12.84891 | 103° | 53km/h | 15899m | 3.7m/s | -59.4°C | 6.8% | 111.8hPa | 2.6V | 00:00:00 | 01:38:47 | 00:00:00 | |
| OE5DRO-10 | 2026-09-04 11:41:25 | 49.23627 | 12.84870 | 101° | 60km/h | 15894m | 4.8m/s | -59.4°C | 6.6% | 111.9hPa | 2.6V | 00:00:00 | 00:00:00 | 00:00:00 | |
| SP3BTT-10 | 2026-09-04 11:41:23 | 49.23632 | 12.84829 | 100° | 51km/h | 15886m | 3.6m/s | -59.2°C | 6.5% | 112.1hPa | 2.7V | 00:00:00 | 00:00:00 | 00:00:00 | |
| OE5MMP-10 | 2026-09-04 11:41:19 | 49.23644 | 12.84750 | 105° | 51km/h | 15868m | 4.7m/s | -59.1°C | 6.9% | 112.4hPa | 2.7V | 00:00:00 | 01:38:40 | 00:00:00 | |
| DO3MHA-11 | 2026-09-04 11:41:18 | 49.23647 | 12.84730 | 103° | 51km/h | 15864m | 4.3m/s | -59.1°C | 7.0% | 112.4hPa | 2.7V | 00:00:00 | 01:38:39 | 00:00:00 | |
| DO8TBO-1 | 2026-09-04 11:41:16 | 49.23653 | 12.84692 | 106° | 49km/h | 15856m | 4.8m/s | -59.3°C | 7.3% | 112.6hPa | 2.6V | 00:00:00 | 01:38:37 | 00:00:00 | |
| EDDB2-11 | 2026-09-04 11:41:15 | 49.23657 | 12.84673 | 107° | 53km/h | 15851m | 4.6m/s | -59.3°C | 3.1% | 112.7hPa | 2.6V | 00:00:00 | 00:00:00 | 00:00:00 | |
| PG1ADW-2 | 2026-09-04 11:41:14 | 49.23661 | 12.84653 | 109° | 51km/h | 15847m | 3.8m/s | -59.2°C | 7.2% | 112.8hPa | 2.6V | 00:00:00 | 00:00:00 | 00:00:00 | |
| OE5DXL-15 | 2026-09-04 11:41:13 | 49.23665 | 12.84634 | 108° | 49km/h | 15843m | 4.1m/s | -59.0°C | 6.8% | 112.8hPa | 2.6V | 00:00:00 | 00:00:00 | 00:00:00 | |
| OE5REO-15 | 2026-09-04 11:41:11 | 49.23669 | 12.84615 | 106° | 51km/h | 15839m | 4.5m/s | -58.9°C | 2.9% | 113.0hPa | 2.6V | 04:27:00 | 00:00:00 | 00:00:00 | |
| OE5MMP-10 | 2026-09-04 11:41:09 | 49.23678 | 12.84556 | 105° | 51km/h | 15826m | 4.4m/s | -59.4°C | 6.7% | 113.1hPa | 2.6V | 00:00:00 | 01:38:30 | 00:00:00 | |
| SONDE2-11 | 2026-09-04 11:41:08 | 49.23685 | 12.84516 | 104° | 53km/h | 15819m | 3.6m/s | -59.2°C | 3.0% | 113.3hPa | 2.6V | 00:00:00 | 00:00:00 | 00:00:00 | |
| SONCRA | 2026-09-04 11:41:07 | 49.23685 | 12.84516 | 104° | 53km/h | 15819m | 3.6m/s | 0°C | -1.0% | -1.0hPa | 2.6V | 00:00:00 | 00:00:00 | 00:00:00 | |
| OE5WHR-10 | 2026-09-04 11:41:05 | 49.23692 | 12.84477 | 103° | 47km/h | 15810m | 4.2m/s | -58.5°C | 6.6% | 113.4hPa | 2.6V | 04:26:00 | 00:00:00 | 00:00:00 | |
| EDDB2-12 | 2026-09-04 11:41:04 | 49.23694 | 12.84458 | 103° | 47km/h | 15806m | 3.4m/s | -58.8°C | 2.9% | 113.5hPa | 2.6V | 00:00:00 | 00:00:00 | 00:00:00 | |
| OE5MMP-10 | 2026-09-04 11:40:59 | 49.23715 | 12.84369 | 111° | 47km/h | 15786m | 5.0m/s | -59.2°C | 7.2% | 113.9hPa | 2.6V | 00:00:00 | 01:38:20 | 00:00:00 | |
| DO3MHA-11 | 2026-09-04 11:40:58 | 49.23719 | 12.84352 | 110° | 47km/h | 15782m | 3.8m/s | -59.3°C | 7.2% | 113.9hPa | 2.6V | 00:00:00 | 01:38:19 | 00:00:00 | |
| OE5REO-15 | 2026-09-04 11:40:55 | 49.23727 | 12.84318 | 111° | 49km/h | 15773m | 4.7m/s | -59.3°C | 3.2% | 114.2hPa | 2.6V | 04:27:00 | 00:00:00 | 00:00:00 | |
| PG1ADW-2 | 2026-09-04 11:40:54 | 49.23735 | 12.84283 | 108° | 47km/h | 15765m | 5.0m/s | -59.5°C | 7.2% | 114.3hPa | 2.6V | 04:27:00 | 00:00:00 | 00:00:00 | |
| OE5MMP-10 | 2026-09-04 11:40:49 | 49.23756 | 12.84199 | 119° | 44km/h | 15744m | 3.6m/s | -58.9°C | 6.7% | 114.6hPa | 2.6V | 00:00:00 | 01:38:10 | 00:00:00 | |
| DO3MHA-11 | 2026-09-04 11:40:48 | 49.23761 | 12.84184 | 119° | 46km/h | 15740m | 4.4m/s | -58.9°C | 6.6% | 114.7hPa | 2.6V | 00:00:00 | 01:38:09 | 00:00:00 | |
| DO8TBO-1 | 2026-09-04 11:40:46 | 49.23772 | 12.84154 | 120° | 53km/h | 15731m | 3.9m/s | -59.2°C | 6.6% | 114.9hPa | 2.7V | 04:27:00 | 01:38:07 | 00:00:00 | |
| OE5WHR-10 | 2026-09-04 11:40:44 | 49.23783 | 12.84125 | 121° | 51km/h | 15722m | 4.0m/s | -59.4°C | 6.7% | 115.0hPa | 2.7V | 00:00:00 | 00:00:00 | 00:00:00 | |
| OE5DXL-15 | 2026-09-04 11:40:43 | 49.23788 | 12.84110 | 118° | 53km/h | 15719m | 3.3m/s | -59.5°C | 6.9% | 115.1hPa | 2.7V | 00:00:00 | 00:00:00 | 00:00:00 | |
| OE5REO-15 | 2026-09-04 11:40:40 | 49.23797 | 12.84079 | 110° | 46km/h | 15710m | 3.9m/s | -58.9°C | 3.1% | 115.3hPa | 2.7V | 04:27:00 | 00:00:00 | 00:00:00 | |
| OE5MMP-10 | 2026-09-04 11:40:39 | 49.23805 | 12.84045 | 110° | 53km/h | 15703m | 4.4m/s | -59.4°C | 7.1% | 115.4hPa | 2.7V | 04:27:00 | 01:38:00 | 00:00:00 | |
| DO3MHA-11 | 2026-09-04 11:40:38 | 49.23810 | 12.84026 | 112° | 53km/h | 15699m | 4.0m/s | -59.4°C | 7.3% | 115.5hPa | 2.7V | 04:27:00 | 01:37:59 | 00:00:00 | |
| PG1ADW-2 | 2026-09-04 11:40:34 | 49.23831 | 12.83951 | 115° | 55km/h | 15682m | 4.1m/s | -59.1°C | 6.9% | 115.8hPa | 2.7V | 00:00:00 | 01:37:55 | 00:00:00 | |
| EDDB2-12 | 2026-09-04 11:40:33 | 49.23837 | 12.83933 | 114° | 51km/h | 15678m | 3.5m/s | -59.6°C | 3.1% | 115.9hPa | 2.6V | 00:00:00 | 00:00:00 | 00:00:00 | |
| OE5MMP-10 | 2026-09-04 11:40:29 | 49.23860 | 12.83857 | 113° | 55km/h | 15662m | 4.7m/s | -59.4°C | 7.1% | 116.2hPa | 2.6V | 00:00:00 | 01:37:50 | 00:00:00 | |
| DO3MHA-11 | 2026-09-04 11:40:28 | 49.23865 | 12.83837 | 111° | 57km/h | 15658m | 4.4m/s | -59.1°C | 7.1% | 116.2hPa | 2.6V | 00:00:00 | 01:37:49 | 00:00:00 | |
| PETON7-10 | 2026-09-04 11:40:27 | 49.23870 | 12.83817 | 109° | 57km/h | 15654m | 3.5m/s | -58.9°C | 6.9% | 116.3hPa | 2.6V | 00:00:00 | 00:00:00 | 00:00:00 | |
| OE5REO-15 | 2026-09-04 11:40:24 | 49.23880 | 12.83776 | 114° | 57km/h | 15644m | 4.8m/s | -59.7°C | 3.3% | 116.5hPa | 2.6V | 04:27:00 | 00:00:00 | 00:00:00 | |
| SP3BTT-10 | 2026-09-04 11:40:23 | 49.23892 | 12.83737 | 118° | 60km/h | 15636m | 4.9m/s | -59.2°C | 7.3% | 116.6hPa | 2.6V | 00:00:00 | 00:00:00 | 00:00:00 | |
| OE5MMP-10 | 2026-09-04 11:40:19 | 49.23922 | 12.83664 | 125° | 58km/h | 15619m | 4.0m/s | -59.6°C | 7.3% | 116.9hPa | 2.6V | 00:00:00 | 01:37:40 | 00:00:00 | |
| DO3MHA-11 | 2026-09-04 11:40:18 | 49.23930 | 12.83645 | 123° | 58km/h | 15615m | 3.7m/s | -59.5°C | 7.1% | 117.0hPa | 2.7V | 00:00:00 | 01:37:39 | 00:00:00 | |
| DO8TBO-1 | 2026-09-04 11:40:16 | 49.23945 | 12.83606 | 119° | 64km/h | 15607m | 3.8m/s | -60.0°C | 7.2% | 117.2hPa | 2.7V | 00:00:00 | 01:37:37 | 00:00:00 | |
| PG1ADW-2 | 2026-09-04 11:40:14 | 49.23958 | 12.83569 | 119° | 60km/h | 15599m | 4.2m/s | -59.5°C | 7.2% | 117.3hPa | 2.7V | 00:00:00 | 00:00:00 | 00:00:00 | |
| OE5DXL-15 | 2026-09-04 11:40:13 | 49.23964 | 12.83550 | 118° | 62km/h | 15595m | 4.5m/s | -59.3°C | 7.2% | 117.4hPa | 2.7V | 00:00:00 | 00:00:00 | 00:00:00 | |
| PETON7-10 | 2026-09-04 11:40:11 | 49.23978 | 12.83509 | 118° | 60km/h | 15586m | 3.8m/s | -59.6°C | 7.3% | 117.6hPa | 2.7V | 00:00:00 | 00:00:00 | 00:00:00 | |
| DL6DJ-15 | 2026-09-04 11:40:10 | 49.23992 | 12.83468 | 118° | 58km/h | 15578m | 4.6m/s | -59.4°C | 3.5% | 117.8hPa | 2.7V | 00:00:00 | 00:00:00 | 00:00:00 | |
| OE5MMP-10 | 2026-09-04 11:40:09 | 49.23992 | 12.83468 | 119° | 60km/h | 15578m | 4.5m/s | -59.3°C | 7.5% | 117.7hPa | 2.7V | 00:00:00 | 01:37:30 | 00:00:00 | |
| DO3MHA-11 | 2026-09-04 11:40:08 | 49.23999 | 12.83448 | 119° | 60km/h | 15574m | 4.0m/s | -58.9°C | 7.3% | 117.8hPa | 2.7V | 00:00:00 | 01:37:29 | 00:00:00 | |
| SONDE2-11 | 2026-09-04 11:40:06 | 49.24020 | 12.83386 | 116° | 60km/h | 15561m | 4.2m/s | -59.0°C | 3.3% | 118.1hPa | 2.7V | 00:00:00 | 00:00:00 | 00:00:00 | |
| OE5WHR-10 | 2026-09-04 11:40:02 | 49.24041 | 12.83325 | 120° | 64km/h | 15548m | 3.8m/s | -59.5°C | 7.2% | 118.3hPa | 2.7V | 00:00:00 | 00:00:00 | 00:00:00 | |
| OE5MMP-10 | 2026-09-04 11:39:59 | 49.24064 | 12.83266 | 123° | 66km/h | 15535m | 3.6m/s | -59.4°C | 7.1% | 118.5hPa | 2.7V | 00:00:00 | 01:37:20 | 00:00:00 | |
| DO3MHA-11 | 2026-09-04 11:39:58 | 49.24073 | 12.83245 | 124° | 66km/h | 15532m | 4.2m/s | -59.6°C | 7.3% | 118.6hPa | 2.7V | 00:00:00 | 01:37:19 | 00:00:00 | |
| PETON7-10 | 2026-09-04 11:39:56 | 49.24091 | 12.83205 | 126° | 64km/h | 15523m | 3.4m/s | -59.8°C | 7.7% | 118.8hPa | 2.7V | 04:27:00 | 01:37:17 | 00:00:00 | |
| PG1ADW-2 | 2026-09-04 11:39:54 | 49.24110 | 12.83162 | 123° | 66km/h | 15514m | 5.3m/s | -59.8°C | 7.7% | 118.9hPa | 2.7V | 00:00:00 | 00:00:00 | 00:00:00 | |
| SP3BTT-10 | 2026-09-04 11:39:53 | 49.24119 | 12.83140 | 121° | 71km/h | 15510m | 4.0m/s | -59.8°C | 7.7% | 119.0hPa | 2.7V | 00:00:00 | 00:00:00 | 00:00:00 | |
| OE5DRO-10 | 2026-09-04 11:39:52 | 49.24128 | 12.83117 | 120° | 66km/h | 15506m | 3.5m/s | -59.7°C | 7.7% | 119.1hPa | 2.7V | 00:00:00 | 00:00:00 | 00:00:00 | |
| OE5MMP-10 | 2026-09-04 11:39:49 | 49.24151 | 12.83051 | 119° | 64km/h | 15493m | 3.4m/s | -59.8°C | 7.4% | 119.3hPa | 2.7V | 04:28:00 | 01:37:10 | 00:00:00 | |
| DO3MHA-11 | 2026-09-04 11:39:48 | 49.24159 | 12.83030 | 119° | 64km/h | 15489m | 4.8m/s | -60.1°C | 7.5% | 119.4hPa | 2.6V | 04:28:00 | 01:37:09 | 00:00:00 | |
| OE5DXL-15 | 2026-09-04 11:39:43 | 49.24199 | 12.82926 | 122° | 75km/h | 15466m | 3.9m/s | -59.4°C | 7.4% | 119.9hPa | 2.7V | 00:00:00 | 00:00:00 | 00:00:00 | |
| EDDB2-11 | 2026-09-04 11:39:42 | 49.24216 | 12.82883 | 118° | 66km/h | 15457m | 4.2m/s | -60.1°C | 3.7% | 120.1hPa | 2.7V | 00:00:00 | 00:00:00 | 00:00:00 | |
| PETON7-10 | 2026-09-04 11:39:41 | 49.24216 | 12.82883 | 119° | 71km/h | 15457m | 4.2m/s | -60.1°C | 7.9% | 120.0hPa | 2.7V | 00:00:00 | 00:00:00 | 00:00:00 | |
| DL6DJ-15 | 2026-09-04 11:39:39 | 49.24238 | 12.82812 | 113° | 68km/h | 15443m | 3.6m/s | -59.5°C | 3.7% | 120.3hPa | 2.6V | 00:00:00 | 00:00:00 | 00:00:00 | |
| DO3MHA-11 | 2026-09-04 11:39:38 | 49.24238 | 12.82812 | 114° | 71km/h | 15443m | 3.5m/s | -59.5°C | 7.8% | 120.3hPa | 2.6V | 00:00:00 | 01:36:59 | 00:00:00 | |
| DO8TBO-1 | 2026-09-04 11:39:37 | 49.24245 | 12.82787 | 114° | 77km/h | 15439m | 4.7m/s | 0°C | 0% | 0hPa | 2.6V | 00:00:00 | 01:36:58 | 00:00:00 | |
| SONDE2-11 | 2026-09-04 11:39:35 | 49.24269 | 12.82711 | 117° | 71km/h | 15424m | 5.3m/s | -60.0°C | 3.7% | 120.7hPa | 2.7V | 00:00:00 | 00:00:00 | 00:00:00 | |
| PG1ADW-2 | 2026-09-04 11:39:34 | 49.24269 | 12.82711 | 118° | 77km/h | 15424m | 5.2m/s | -60.0°C | 7.8% | 120.7hPa | 2.7V | 00:00:00 | 00:00:00 | 00:00:00 | |
| S52SK | 2026-09-04 11:39:32 | 49.24278 | 12.82687 | 120° | 69km/h | 15419m | 5.5m/s | -59.6°C | 3.5% | 120.8hPa | 2.7V | 04:28:00 | 00:00:00 | 00:00:00 | |
| EDDB2-12 | 2026-09-04 11:39:31 | 49.24296 | 12.82640 | 121° | 69km/h | 15410m | 4.4m/s | -60.3°C | 3.6% | 121.0hPa | 2.7V | 00:00:00 | 00:00:00 | 00:00:00 | |
| OE5MMP-10 | 2026-09-04 11:39:29 | 49.24315 | 12.82593 | 123° | 78km/h | 15400m | 5.1m/s | -60.0°C | 7.6% | 121.1hPa | 2.7V | 00:00:00 | 01:36:50 | 00:00:00 | |
| DO3MHA-11 | 2026-09-04 11:39:28 | 49.24325 | 12.82568 | 122° | 78km/h | 15395m | 4.3m/s | -60.0°C | 7.7% | 121.2hPa | 2.7V | 00:00:00 | 01:36:49 | 00:00:00 | |
| S52SK | 2026-09-04 11:39:27 | 49.24325 | 12.82568 | 123° | 77km/h | 15395m | 4.3m/s | -60.1°C | 3.6% | 121.3hPa | 2.7V | 00:00:00 | 00:00:00 | 00:00:00 | |
| PETON7-10 | 2026-09-04 11:39:26 | 49.24345 | 12.82517 | 120° | 80km/h | 15386m | 3.8m/s | 0°C | 0% | 0hPa | 2.7V | 00:00:00 | 00:00:00 | 00:00:00 | |
| S52SK | 2026-09-04 11:39:22 | 49.24372 | 12.82437 | 118° | 82km/h | 15372m | 4.3m/s | -59.7°C | 3.9% | 121.7hPa | 2.7V | 00:00:00 | 00:00:00 | 00:00:00 | |
| OE5REO-15 | 2026-09-04 11:39:21 | 49.24382 | 12.82409 | 117° | 80km/h | 15368m | 4.4m/s | -59.7°C | 3.8% | 121.8hPa | 2.7V | 04:29:00 | 00:00:00 | 00:00:00 | |
| OE5WHR-10 | 2026-09-04 11:39:20 | 49.24399 | 12.82353 | 115° | 78km/h | 15359m | 4.0m/s | -59.7°C | 8.0% | 121.9hPa | 2.7V | 04:28:00 | 01:36:41 | 00:00:00 | |
| OE5MMP-10 | 2026-09-04 11:39:19 | 49.24407 | 12.82325 | 116° | 80km/h | 15355m | 3.9m/s | -59.9°C | 7.9% | 122.0hPa | 2.7V | 00:00:00 | 01:36:40 | 00:00:00 | |
| DO3MHA-11 | 2026-09-04 11:39:18 | 49.24416 | 12.82297 | 117° | 80km/h | 15350m | 5.4m/s | -59.6°C | 7.6% | 122.1hPa | 2.7V | 00:00:00 | 01:36:39 | 00:00:00 | |
| PG1ADW-2 | 2026-09-04 11:39:14 | 49.24455 | 12.82188 | 118° | 77km/h | 15332m | 4.4m/s | -59.8°C | 8.2% | 122.5hPa | 2.6V | 04:28:00 | 01:36:35 | 00:00:00 | |
| OE5DXL-15 | 2026-09-04 11:39:13 | 49.24464 | 12.82161 | 117° | 75km/h | 15327m | 4.3m/s | -59.6°C | 8.0% | 122.5hPa | 2.6V | 04:28:00 | 00:00:00 | 00:00:00 | |
| PETON7-10 | 2026-09-04 11:39:11 | 49.24481 | 12.82106 | 116° | 77km/h | 15318m | 4.3m/s | 0°C | 0% | 0hPa | 2.6V | 00:00:00 | 01:36:32 | 00:00:00 | |
| OE5MMP-10 | 2026-09-04 11:39:09 | 49.24498 | 12.82050 | 114° | 77km/h | 15308m | 5.1m/s | -59.3°C | 8.1% | 122.9hPa | 2.6V | 00:00:00 | 01:36:30 | 00:00:00 | |
| DL6DJ-15 | 2026-09-04 11:39:08 | 49.24514 | 12.81996 | 114° | 77km/h | 15299m | 4.5m/s | -59.1°C | 3.7% | 123.1hPa | 2.6V | 00:00:00 | 00:00:00 | 00:00:00 | |
| DO8TBO-1 | 2026-09-04 11:39:07 | 49.24514 | 12.81995 | 115° | 73km/h | 15300m | 4.4m/s | -59.1°C | 7.5% | 123.1hPa | 2.6V | 00:00:00 | 01:36:28 | 00:00:00 | |
| OE5DRO-10 | 2026-09-04 11:39:06 | 49.24522 | 12.81968 | 117° | 73km/h | 15295m | 5.1m/s | -59.1°C | 7.4% | 123.2hPa | 2.6V | 00:00:00 | 00:00:00 | 00:00:00 | |
| EDDB2-12 | 2026-09-04 11:39:00 | 49.24573 | 12.81812 | 115° | 71km/h | 15269m | 4.6m/s | -59.7°C | 3.8% | 123.8hPa | 2.7V | 00:00:00 | 00:00:00 | 00:00:00 | |
| OE5WHR-10 | 2026-09-04 11:38:59 | 49.24581 | 12.81787 | 117° | 73km/h | 15265m | 4.7m/s | -59.5°C | 7.6% | 123.8hPa | 2.7V | 00:00:00 | 00:00:00 | 00:00:00 | |
| DO3MHA-11 | 2026-09-04 11:38:58 | 49.24590 | 12.81762 | 118° | 73km/h | 15260m | 4.4m/s | -59.7°C | 7.8% | 123.9hPa | 2.6V | 04:28:00 | 01:36:19 | 00:00:00 | |
| PETON7-10 | 2026-09-04 11:38:56 | 49.24607 | 12.81711 | 117° | 75km/h | 15251m | 5.0m/s | 0°C | 0% | 0hPa | 2.6V | 00:00:00 | 00:00:00 | 00:00:00 | |
| PG1ADW-2 | 2026-09-04 11:38:54 | 49.24623 | 12.81660 | 115° | 71km/h | 15242m | 4.2m/s | -59.9°C | 8.1% | 124.3hPa | 2.6V | 00:00:00 | 00:00:00 | 00:00:00 | |
| SP3BTT-10 | 2026-09-04 11:38:51 | 49.24645 | 12.81581 | 114° | 69km/h | 15229m | 3.3m/s | -60.2°C | 8.0% | 124.5hPa | 2.6V | 00:00:00 | 00:00:00 | 00:00:00 | |
| OE5MMP-10 | 2026-09-04 11:38:49 | 49.24659 | 12.81530 | 113° | 71km/h | 15220m | 4.4m/s | -60.0°C | 8.2% | 124.7hPa | 2.6V | 00:00:00 | 01:36:10 | 00:00:00 | |
| DO3MHA-11 | 2026-09-04 11:38:48 | 49.24666 | 12.81506 | 113° | 71km/h | 15215m | 3.9m/s | -60.1°C | 8.3% | 124.8hPa | 2.7V | 00:00:00 | 01:36:09 | 00:00:00 | |
| OE5DRO-10 | 2026-09-04 11:38:47 | 49.24672 | 12.81482 | 114° | 71km/h | 15211m | 5.0m/s | -60.2°C | 8.3% | 124.9hPa | 2.6V | 00:00:00 | 00:00:00 | 00:00:00 | |
| OE5REO-15 | 2026-09-04 11:38:45 | 49.24680 | 12.81458 | 116° | 71km/h | 15206m | 4.9m/s | -60.3°C | 4.0% | 125.0hPa | 2.6V | 04:29:00 | 00:00:00 | 00:00:00 | |
| OE5DXL-15 | 2026-09-04 11:38:43 | 49.24703 | 12.81382 | 114° | 68km/h | 15193m | 4.9m/s | -60.2°C | 8.6% | 125.2hPa | 2.6V | 00:00:00 | 00:00:00 | 00:00:00 | |
| EDDB2-11 | 2026-09-04 11:38:40 | 49.24731 | 12.81279 | 113° | 71km/h | 15175m | 4.0m/s | -60.4°C | 4.3% | 125.6hPa | 2.6V | 00:00:00 | 00:00:00 | 00:00:00 | |
| OE5MMP-10 | 2026-09-04 11:38:39 | 49.24731 | 12.81279 | 114° | 71km/h | 15175m | 4.0m/s | -60.3°C | 8.7% | 125.6hPa | 2.6V | 00:00:00 | 01:36:00 | 00:00:00 | |
| OE5WHR-10 | 2026-09-04 11:38:38 | 49.24738 | 12.81253 | 113° | 68km/h | 15170m | 5.1m/s | -60.3°C | 8.5% | 125.7hPa | 2.6V | 00:00:00 | 00:00:00 | 00:00:00 | |
| DO8TBO-1 | 2026-09-04 11:38:37 | 49.24745 | 12.81228 | 113° | 68km/h | 15166m | 4.3m/s | -60.5°C | 8.7% | 125.8hPa | 2.6V | 00:00:00 | 01:35:58 | 00:00:00 | |
| DL6DJ-15 | 2026-09-04 11:38:36 | 49.24752 | 12.81204 | 111° | 68km/h | 15161m | 3.6m/s | -60.5°C | 4.4% | 125.9hPa | 2.6V | 00:00:00 | 00:00:00 | 00:00:00 | |
| PG1ADW-2 | 2026-09-04 11:38:34 | 49.24765 | 12.81154 | 112° | 68km/h | 15153m | 4.2m/s | -60.5°C | 8.7% | 126.0hPa | 2.6V | 00:00:00 | 00:00:00 | 00:00:00 | |
| SONDE2-11 | 2026-09-04 11:38:32 | 49.24777 | 12.81101 | 109° | 71km/h | 15144m | 4.7m/s | -60.8°C | 4.3% | 126.2hPa | 2.6V | 00:00:00 | 00:00:00 | 00:00:00 | |
| S52SK | 2026-09-04 11:38:31 | 49.24777 | 12.81101 | 110° | 71km/h | 15145m | 4.7m/s | -60.8°C | 4.3% | 126.2hPa | 2.6V | 00:00:00 | 00:00:00 | 00:00:00 | |
| OE5REO-15 | 2026-09-04 11:38:30 | 49.24783 | 12.81075 | 108° | 69km/h | 15140m | 4.7m/s | -60.8°C | 4.5% | 126.3hPa | 2.6V | 04:30:00 | 00:00:00 | 00:00:00 | |
| OE5MMP-10 | 2026-09-04 11:38:29 | 49.24792 | 12.81025 | 106° | 64km/h | 15131m | 4.2m/s | -60.7°C | 9.2% | 126.4hPa | 2.6V | 00:00:00 | 01:35:50 | 00:00:00 | |
| DO3MHA-11 | 2026-09-04 11:38:28 | 49.24797 | 12.81000 | 107° | 64km/h | 15127m | 4.8m/s | -60.8°C | 9.4% | 126.5hPa | 2.6V | 00:00:00 | 01:35:49 | 00:00:00 | |
| S52SK | 2026-09-04 11:38:26 | 49.24802 | 12.80974 | 107° | 68km/h | 15123m | 3.6m/s | -60.8°C | 0% | 0hPa | 2.6V | 00:00:00 | 00:00:00 | 00:00:00 | |
| OE5MMP-10 | 2026-09-04 11:38:19 | 49.24838 | 12.80786 | 106° | 68km/h | 15088m | 3.9m/s | -59.7°C | 9.1% | 127.4hPa | 2.6V | 00:00:00 | 01:35:40 | 00:00:00 | |
| DO3MHA-11 | 2026-09-04 11:38:18 | 49.24843 | 12.80762 | 105° | 68km/h | 15083m | 4.3m/s | -60.0°C | 9.3% | 127.4hPa | 2.7V | 00:00:00 | 01:35:39 | 00:00:00 | |
| OE5WHR-10 | 2026-09-04 11:38:17 | 49.24847 | 12.80738 | 105° | 69km/h | 15079m | 4.9m/s | -59.7°C | 9.0% | 127.5hPa | 2.7V | 00:00:00 | 01:35:38 | 00:00:00 | |
| PG1ADW-2 | 2026-09-04 11:38:14 | 49.24859 | 12.80658 | 102° | 69km/h | 15066m | 4.9m/s | -59.9°C | 8.9% | 127.8hPa | 2.7V | 00:00:00 | 00:00:00 | 00:00:00 | |
| OE5DXL-15 | 2026-09-04 11:38:13 | 49.24863 | 12.80633 | 103° | 71km/h | 15062m | 3.3m/s | -59.7°C | 8.8% | 127.9hPa | 2.7V | 00:00:00 | 00:00:00 | 00:00:00 | |
| EDDB2-11 | 2026-09-04 11:38:09 | 49.24886 | 12.80509 | 109° | 66km/h | 15040m | 4.4m/s | -59.5°C | 4.5% | 128.4hPa | 2.7V | 00:00:00 | 00:00:00 | 00:00:00 | |
| DO3MHA-11 | 2026-09-04 11:38:08 | 49.24886 | 12.80509 | 110° | 69km/h | 15040m | 4.3m/s | -59.4°C | 8.5% | 128.3hPa | 2.7V | 04:29:00 | 01:35:29 | 00:00:00 | |
| DO8TBO-1 | 2026-09-04 11:38:07 | 49.24892 | 12.80485 | 109° | 73km/h | 15036m | 4.6m/s | -59.5°C | 8.9% | 128.4hPa | 2.7V | 04:29:00 | 01:35:28 | 00:00:00 | |
| DL6DJ-15 | 2026-09-04 11:38:05 | 49.24902 | 12.80436 | 108° | 68km/h | 15027m | 4.8m/s | -59.8°C | 5.0% | 128.6hPa | 2.6V | 00:00:00 | 00:00:00 | 00:00:00 | |
| SONDE2-11 | 2026-09-04 11:38:01 | 49.24925 | 12.80331 | 106° | 71km/h | 15010m | 4.0m/s | -59.8°C | 5.2% | 129.0hPa | 2.6V | 00:00:00 | 00:00:00 | 00:00:00 | |
| OE5MMP-10 | 2026-09-04 11:37:59 | 49.24935 | 12.80277 | 109° | 69km/h | 15003m | 4.2m/s | -59.7°C | 9.0% | 129.1hPa | 2.6V | 00:00:00 | 01:35:20 | 00:00:00 | |
| DO3MHA-11 | 2026-09-04 11:37:58 | 49.24942 | 12.80251 | 112° | 69km/h | 14999m | 4.5m/s | -59.7°C | 8.9% | 129.2hPa | 2.6V | 00:00:00 | 01:35:19 | 00:00:00 | |
| OE5WHR-10 | 2026-09-04 11:37:56 | 49.24955 | 12.80202 | 115° | 75km/h | 14991m | 3.6m/s | -59.8°C | 9.1% | 129.3hPa | 2.6V | 00:00:00 | 00:00:00 | 00:00:00 | |
| PG1ADW-2 | 2026-09-04 11:37:54 | 49.24968 | 12.80155 | 111° | 77km/h | 14983m | 3.6m/s | -60.0°C | 9.5% | 129.5hPa | 2.6V | 00:00:00 | 01:35:15 | 00:00:00 | |
| SP3BTT-10 | 2026-09-04 11:37:51 | 49.24986 | 12.80082 | 113° | 86km/h | 14971m | 4.7m/s | -60.4°C | 9.9% | 129.8hPa | 2.6V | 04:30:00 | 00:00:00 | 00:00:00 | |
| OE5DRO-10 | 2026-09-04 11:37:50 | 49.24993 | 12.80056 | 115° | 78km/h | 14966m | 4.5m/s | -60.3°C | 9.8% | 129.9hPa | 2.6V | 04:30:00 | 00:00:00 | 00:00:00 | |
| OE5MMP-10 | 2026-09-04 11:37:49 | 49.25002 | 12.80029 | 117° | 78km/h | 14962m | 4.1m/s | -60.4°C | 9.8% | 129.9hPa | 2.6V | 00:00:00 | 01:35:10 | 00:00:00 | |
| DO3MHA-11 | 2026-09-04 11:37:48 | 49.25011 | 12.80002 | 118° | 78km/h | 14957m | 4.8m/s | -60.6°C | 10.0% | 130.0hPa | 2.7V | 00:00:00 | 01:35:09 | 00:00:00 | |
| ANDY1245 | 2026-09-04 11:37:47 | 49.25011 | 12.80002 | 119° | 78km/h | 14957m | 4.9m/s | -60.6°C | 5.5% | 130.1hPa | 2.6V | 00:00:00 | 00:00:00 | 00:00:00 | |
| OE5DXL-15 | 2026-09-04 11:37:43 | 49.25055 | 12.79862 | 114° | 84km/h | 14936m | 5.0m/s | -60.6°C | 10.6% | 130.5hPa | 2.6V | 00:00:00 | 00:00:00 | 00:00:00 | |
| OE5MMP-10 | 2026-09-04 11:37:39 | 49.25085 | 12.79752 | 111° | 80km/h | 14919m | 4.2m/s | -60.8°C | 10.6% | 130.9hPa | 2.6V | 00:00:00 | 01:35:00 | 00:00:00 | |
| EDDB2-11 | 2026-09-04 11:37:38 | 49.25099 | 12.79695 | 111° | 77km/h | 14911m | 4.4m/s | -60.9°C | 5.9% | 131.1hPa | 2.6V | 00:00:00 | 00:00:00 | 00:00:00 | |
| DO8TBO-1 | 2026-09-04 11:37:37 | 49.25099 | 12.79695 | 112° | 88km/h | 14911m | 4.4m/s | -60.8°C | 10.5% | 131.0hPa | 2.6V | 00:00:00 | 01:34:58 | 00:00:00 | |
| OE5WHR-10 | 2026-09-04 11:37:35 | 49.25114 | 12.79640 | 115° | 88km/h | 14903m | 3.3m/s | -61.2°C | 11.1% | 131.2hPa | 2.6V | 04:30:00 | 00:00:00 | 00:00:00 | |
| PG1ADW-2 | 2026-09-04 11:37:34 | 49.25123 | 12.79612 | 115° | 88km/h | 14899m | 4.6m/s | -61.2°C | 11.1% | 131.3hPa | 2.6V | 04:30:00 | 00:00:00 | 00:00:00 | |
| S52SK | 2026-09-04 11:37:33 | 49.25123 | 12.79612 | 116° | 80km/h | 14899m | 4.6m/s | -61.3°C | 0% | 0hPa | 2.7V | 00:00:00 | 00:00:00 | 00:00:00 | |
| OE5DRO-10 | 2026-09-04 11:37:31 | 49.25147 | 12.79523 | 112° | 89km/h | 14886m | 4.6m/s | -60.8°C | 10.7% | 131.5hPa | 2.7V | 00:00:00 | 00:00:00 | 00:00:00 | |
| SONDE2-11 | 2026-09-04 11:37:30 | 49.25155 | 12.79494 | 111° | 80km/h | 14882m | 4.3m/s | -61.2°C | 6.2% | 131.7hPa | 2.7V | 00:00:00 | 00:00:00 | 00:00:00 | |
| OE5MMP-10 | 2026-09-04 11:37:29 | 49.25163 | 12.79464 | 113° | 88km/h | 14878m | 2.8m/s | -61.2°C | 10.9% | 131.7hPa | 2.7V | 00:00:00 | 01:34:50 | 00:00:00 | |
| DO3MHA-11 | 2026-09-04 11:37:28 | 49.25171 | 12.79435 | 114° | 91km/h | 14875m | 4.3m/s | -61.1°C | 10.8% | 131.8hPa | 2.7V | 00:00:00 | 01:34:49 | 00:00:00 | |
| EDDB2-12 | 2026-09-04 11:37:27 | 49.25180 | 12.79405 | 114° | 86km/h | 14870m | 4.8m/s | -61.2°C | 6.0% | 132.0hPa | 2.7V | 00:00:00 | 00:00:00 | 00:00:00 | |
| OE5MMP-10 | 2026-09-04 11:37:19 | 49.25259 | 12.79158 | 115° | 91km/h | 14837m | 3.2m/s | -61.5°C | 12.5% | 132.6hPa | 2.7V | 04:30:00 | 01:34:40 | 00:00:00 | |
| DO3MHA-11 | 2026-09-04 11:37:15 | 49.25296 | 12.79027 | 113° | 89km/h | 14821m | 4.7m/s | -61.2°C | 11.2% | 132.9hPa | 2.6V | 04:30:00 | 01:34:36 | 00:00:00 | |
| PG1ADW-2 | 2026-09-04 11:37:14 | 49.25305 | 12.78994 | 114° | 88km/h | 14817m | 3.8m/s | -61.2°C | 10.9% | 133.1hPa | 2.7V | 00:00:00 | 00:00:00 | 00:00:00 | |
| OE5DXL-15 | 2026-09-04 11:37:13 | 49.25314 | 12.78962 | 114° | 86km/h | 14813m | 4.3m/s | -61.4°C | 11.0% | 133.1hPa | 2.7V | 00:00:00 | 00:00:00 | 00:00:00 | |
| OE5DRO-10 | 2026-09-04 11:37:12 | 49.25323 | 12.78931 | 114° | 88km/h | 14808m | 4.4m/s | -61.5°C | 11.1% | 133.2hPa | 2.7V | 00:00:00 | 00:00:00 | 00:00:00 | |
| OE5MMP-10 | 2026-09-04 11:37:09 | 49.25351 | 12.78839 | 116° | 89km/h | 14797m | 4.1m/s | -61.5°C | 11.0% | 133.5hPa | 2.7V | 00:00:00 | 01:34:30 | 00:00:00 | |
| EDDB2-11 | 2026-09-04 11:37:07 | 49.25379 | 12.78742 | 111° | 89km/h | 14785m | 4.4m/s | -62.0°C | 7.1% | 133.8hPa | 2.7V | 00:00:00 | 00:00:00 | 00:00:00 | |
| DO3MHA-11 | 2026-09-04 11:37:05 | 49.25387 | 12.78709 | 110° | 86km/h | 14782m | 3.7m/s | -61.9°C | 12.6% | 133.8hPa | 2.7V | 00:00:00 | 01:34:26 | 00:00:00 | |
| DL6DJ-15 | 2026-09-04 11:37:03 | 49.25402 | 12.78644 | 110° | 89km/h | 14773m | 4.7m/s | -62.2°C | 7.5% | 134.1hPa | 2.7V | 00:00:00 | 00:00:00 | 00:00:00 | |
| SONDE2-11 | 2026-09-04 11:36:59 | 49.25432 | 12.78518 | 108° | 82km/h | 14757m | 3.8m/s | -62.2°C | 7.4% | 134.4hPa | 2.7V | 00:00:00 | 00:00:00 | 00:00:00 | |
| EDDB2-12 | 2026-09-04 11:36:56 | 49.25454 | 12.78428 | 111° | 82km/h | 14744m | 3.1m/s | -62.2°C | 7.6% | 134.7hPa | 2.7V | 00:00:00 | 00:00:00 | 00:00:00 | |
| DO3MHA-11 | 2026-09-04 11:36:55 | 49.25461 | 12.78398 | 111° | 84km/h | 14741m | 4.9m/s | -62.2°C | 13.0% | 134.7hPa | 2.7V | 00:00:00 | 01:34:16 | 00:00:00 | |
| PETON7-10 | 2026-09-04 11:36:54 | 49.25468 | 12.78369 | 110° | 82km/h | 14736m | 4.0m/s | 0°C | 0% | 0hPa | 2.7V | 04:31:00 | 00:00:00 | 00:00:00 | |
| OE5WHR-10 | 2026-09-04 11:36:53 | 49.25475 | 12.78339 | 111° | 80km/h | 14732m | 3.8m/s | -62.1°C | 12.8% | 134.9hPa | 2.7V | 00:00:00 | 00:00:00 | 00:00:00 | |
| SP3BTT-10 | 2026-09-04 11:36:51 | 49.25491 | 12.78279 | 112° | 71km/h | 14724m | 3.6m/s | 0°C | 0% | 0hPa | 2.6V | 00:00:00 | 00:00:00 | 00:00:00 | |
| OE5MMP-10 | 2026-09-04 11:36:49 | 49.25505 | 12.78218 | 109° | 82km/h | 14716m | 4.6m/s | -62.3°C | 12.6% | 135.3hPa | 2.6V | 00:00:00 | 01:34:10 | 00:00:00 | |
| S52SK | 2026-09-04 11:36:48 | 49.25505 | 12.78218 | 110° | 86km/h | 14716m | 4.6m/s | -62.3°C | 0% | 0hPa | 2.6V | 00:00:00 | 00:00:00 | 00:00:00 | |
| DO3MHA-11 | 2026-09-04 11:36:45 | 49.25531 | 12.78091 | 108° | 78km/h | 14701m | 3.2m/s | -62.5°C | 12.8% | 135.5hPa | 2.6V | 00:00:00 | 01:34:06 | 00:00:00 | |
| OE5DXL-15 | 2026-09-04 11:36:43 | 49.25542 | 12.78030 | 106° | 75km/h | 14693m | 3.7m/s | -62.8°C | 13.8% | 135.7hPa | 2.7V | 04:31:00 | 00:00:00 | 00:00:00 | |
| S52SK | 2026-09-04 11:36:42 | 49.25542 | 12.78030 | 107° | 80km/h | 14693m | 3.8m/s | -62.9°C | 0% | 0hPa | 2.7V | 00:00:00 | 00:00:00 | 00:00:00 | |
| OE5REO-15 | 2026-09-04 11:36:41 | 49.25548 | 12.78001 | 109° | 78km/h | 14690m | 2.8m/s | 0°C | 0% | 135.8hPa | 2.7V | 04:31:00 | 00:00:00 | 00:00:00 | |
| OE5MMP-10 | 2026-09-04 11:36:39 | 49.25571 | 12.77918 | 118° | 77km/h | 14678m | 3.3m/s | -62.9°C | 13.7% | 136.1hPa | 2.7V | 00:00:00 | 01:34:00 | 00:00:00 | |
| PETON7-10 | 2026-09-04 11:36:38 | 49.25580 | 12.77892 | 118° | 77km/h | 14674m | 3.6m/s | 0°C | 0% | 0hPa | 2.7V | 00:00:00 | 01:33:59 | 00:00:00 | |
| DO8TBO-1 | 2026-09-04 11:36:37 | 49.25589 | 12.77865 | 116° | 75km/h | 14670m | 4.3m/s | -62.8°C | 13.9% | 136.2hPa | 2.7V | 00:00:00 | 01:33:58 | 00:00:00 | |
| EDDB2-11 | 2026-09-04 11:36:36 | 49.25605 | 12.77811 | 113° | 75km/h | 14662m | 4.0m/s | -63.1°C | 8.0% | 136.4hPa | 2.6V | 00:00:00 | 00:00:00 | 00:00:00 | |
| DO3MHA-11 | 2026-09-04 11:36:35 | 49.25605 | 12.77811 | 114° | 75km/h | 14662m | 3.9m/s | -63.0°C | 13.4% | 136.4hPa | 2.6V | 00:00:00 | 01:33:56 | 00:00:00 | |
| PG1ADW-2 | 2026-09-04 11:36:34 | 49.25612 | 12.77784 | 114° | 75km/h | 14658m | 5.1m/s | -63.2°C | 13.4% | 136.5hPa | 2.6V | 00:00:00 | 01:33:55 | 00:00:00 | |
| OE5WHR-10 | 2026-09-04 11:36:32 | 49.25628 | 12.77733 | 115° | 75km/h | 14649m | 3.2m/s | -63.1°C | 13.4% | 136.7hPa | 2.6V | 00:00:00 | 00:00:00 | 00:00:00 | |
| OE5MMP-10 | 2026-09-04 11:36:29 | 49.25651 | 12.77652 | 113° | 77km/h | 14638m | 3.1m/s | -63.4°C | 14.3% | 136.9hPa | 2.6V | 04:31:00 | 01:33:50 | 00:00:00 | |
| SONDE2-11 | 2026-09-04 11:36:28 | 49.25659 | 12.77624 | 113° | 77km/h | 14634m | 4.0m/s | -63.4°C | 8.6% | 137.1hPa | 2.6V | 00:00:00 | 00:00:00 | 00:00:00 | |
| OE5REO-15 | 2026-09-04 11:36:26 | 49.25666 | 12.77597 | 116° | 77km/h | 14630m | 4.3m/s | 0°C | 0% | 137.2hPa | 2.6V | 04:31:00 | 00:00:00 | 00:00:00 | |
| EDDB2-12 | 2026-09-04 11:36:25 | 49.25683 | 12.77545 | 116° | 73km/h | 14623m | 3.6m/s | -63.3°C | 8.7% | 137.3hPa | 2.6V | 00:00:00 | 00:00:00 | 00:00:00 | |
| PETON7-10 | 2026-09-04 11:36:23 | 49.25700 | 12.77491 | 114° | 73km/h | 14614m | 4.3m/s | 0°C | 0% | 0hPa | 2.6V | 00:00:00 | 00:00:00 | 00:00:00 | |
| OE5MMP-10 | 2026-09-04 11:36:19 | 49.25728 | 12.77382 | 109° | 71km/h | 14598m | 3.6m/s | -63.8°C | 15.7% | 137.8hPa | 2.6V | 00:00:00 | 01:33:40 | 00:00:00 | |
| DO3MHA-11 | 2026-09-04 11:36:18 | 49.25734 | 12.77355 | 108° | 73km/h | 14594m | 4.6m/s | -63.9°C | 15.3% | 137.9hPa | 2.7V | 04:31:00 | 01:33:39 | 00:00:00 | |
| OE5DRO-10 | 2026-09-04 11:36:15 | 49.25751 | 12.77275 | 111° | 69km/h | 14582m | 4.7m/s | -64.0°C | 15.0% | 138.2hPa | 2.7V | 04:31:00 | 00:00:00 | 00:00:00 | |
| PG1ADW-2 | 2026-09-04 11:36:14 | 49.25758 | 12.77250 | 112° | 69km/h | 14578m | 3.9m/s | -63.9°C | 15.0% | 138.3hPa | 2.6V | 00:00:00 | 00:00:00 | 00:00:00 | |
| OE5DXL-15 | 2026-09-04 11:36:13 | 49.25764 | 12.77225 | 112° | 68km/h | 14574m | 3.3m/s | -64.2°C | 15.4% | 138.4hPa | 2.6V | 00:00:00 | 00:00:00 | 00:00:00 | |
| OE5WHR-10 | 2026-09-04 11:36:11 | 49.25777 | 12.77174 | 109° | 69km/h | 14565m | 4.4m/s | -64.3°C | 16.0% | 138.6hPa | 2.6V | 00:00:00 | 01:33:32 | 00:00:00 | |
| OE5REO-15 | 2026-09-04 11:36:10 | 49.25777 | 12.77174 | 110° | 73km/h | 14565m | 4.5m/s | 0°C | 0% | 138.6hPa | 2.6V | 04:31:00 | 00:00:00 | 00:00:00 | |
| OE5MMP-10 | 2026-09-04 11:36:09 | 49.25789 | 12.77119 | 108° | 71km/h | 14558m | 3.2m/s | -64.6°C | 17.6% | 138.8hPa | 2.6V | 00:00:00 | 01:33:30 | 00:00:00 | |
| DO8TBO-1 | 2026-09-04 11:36:08 | 49.25801 | 12.77064 | 108° | 66km/h | 14551m | 3.3m/s | -64.0°C | 16.7% | 138.9hPa | 2.6V | 00:00:00 | 01:33:28 | 00:00:00 | |
| EDDB2-11 | 2026-09-04 11:36:04 | 49.25816 | 12.76983 | 104° | 69km/h | 14538m | 4.1m/s | -64.5°C | 11.3% | 139.3hPa | 2.6V | 00:00:00 | 00:00:00 | 00:00:00 | |
| DL6DJ-15 | 2026-09-04 11:36:01 | 49.25829 | 12.76908 | 106° | 64km/h | 14526m | 3.9m/s | -64.8°C | 10.4% | 139.5hPa | 2.6V | 00:00:00 | 00:00:00 | 00:00:00 | |
| SONDE2-11 | 2026-09-04 11:35:57 | 49.25847 | 12.76811 | 105° | 66km/h | 14509m | 3.8m/s | -64.4°C | 10.7% | 139.9hPa | 2.6V | 00:00:00 | 00:00:00 | 00:00:00 | |
| OE5DRO-10 | 2026-09-04 11:35:56 | 49.25852 | 12.76787 | 107° | 64km/h | 14505m | 5.0m/s | -64.3°C | 16.8% | 140.0hPa | 2.6V | 00:00:00 | 00:00:00 | 00:00:00 | |
| OE5REO-15 | 2026-09-04 11:35:55 | 49.25852 | 12.76787 | 108° | 66km/h | 14505m | 5.0m/s | 0°C | 0% | 140.0hPa | 2.6V | 04:32:00 | 00:00:00 | 00:00:00 | |
| ANDY1245 | 2026-09-04 11:35:51 | 49.25892 | 12.76613 | 113° | 64km/h | 14476m | 2.7m/s | -63.8°C | 11.3% | 140.7hPa | 2.6V | 00:00:00 | 00:00:00 | 00:00:00 | |
| S52SK | 2026-09-04 11:35:50 | 49.25908 | 12.76545 | 108° | 62km/h | 14464m | 3.5m/s | -64.3°C | 0% | 0hPa | 2.6V | 00:00:00 | 00:00:00 | 00:00:00 | |
| OE5DXL-15 | 2026-09-04 11:35:49 | 49.25923 | 12.76478 | 112° | 64km/h | 14452m | 3.5m/s | -64.5°C | 18.4% | 141.2hPa | 2.6V | 00:00:00 | 00:00:00 | 00:00:00 | |
| OE5MMP-10 | 2026-09-04 11:35:48 | 49.25946 | 12.76387 | 113° | 64km/h | 14436m | 4.6m/s | -64.0°C | 18.8% | 141.5hPa | 2.7V | 04:32:00 | 01:33:00 | 00:00:00 | |
| OE5REO-15 | 2026-09-04 11:35:47 | 49.25946 | 12.76387 | 114° | 64km/h | 14436m | 4.6m/s | 0°C | 0% | 141.6hPa | 2.7V | 04:32:00 | 00:00:00 | 00:00:00 | |
| DO3MHA-11 | 2026-09-04 11:35:42 | 49.25953 | 12.76364 | 115° | 62km/h | 14432m | 4.6m/s | -64.3°C | 18.8% | 141.7hPa | 2.7V | 00:00:00 | 01:32:59 | 00:00:00 | |
| DO8TBO-1 | 2026-09-04 11:35:37 | 49.25960 | 12.76342 | 116° | 64km/h | 14427m | 3.5m/s | -64.5°C | 18.6% | 141.8hPa | 2.7V | 04:32:00 | 01:32:58 | 00:00:00 | |
| PG1ADW-2 | 2026-09-04 11:35:34 | 49.25980 | 12.76273 | 113° | 64km/h | 14414m | 3.4m/s | -64.5°C | 19.3% | 142.1hPa | 2.7V | 00:00:00 | 00:00:00 | 00:00:00 | |
| EDDB2-11 | 2026-09-04 11:35:33 | 49.25986 | 12.76249 | 112° | 64km/h | 14411m | 3.1m/s | -64.3°C | 12.1% | 142.2hPa | 2.7V | 00:00:00 | 00:00:00 | 00:00:00 | |
| DL6DJ-15 | 2026-09-04 11:35:30 | 49.26006 | 12.76184 | 117° | 58km/h | 14398m | 3.1m/s | -64.5°C | 12.1% | 142.5hPa | 2.7V | 00:00:00 | 00:00:00 | 00:00:00 | |
| OE5WHR-10 | 2026-09-04 11:35:29 | 49.26013 | 12.76164 | 119° | 64km/h | 14394m | 4.4m/s | -64.4°C | 19.1% | 142.6hPa | 2.7V | 00:00:00 | 00:00:00 | 00:00:00 | |
| DL1JEZ-13 | 2026-09-04 11:35:28 | 49.26013 | 12.76164 | 120° | 58km/h | 14394m | 4.5m/s | -64.5°C | 0% | 142.6hPa | 2.7V | 00:00:00 | 00:00:00 | 00:00:00 | |
| SONDE2-11 | 2026-09-04 11:35:26 | 49.26034 | 12.76106 | 121° | 57km/h | 14381m | 3.6m/s | -64.5°C | 12.6% | 142.9hPa | 2.7V | 00:00:00 | 00:00:00 | 00:00:00 | |
| EDDB2-12 | 2026-09-04 11:35:23 | 49.26060 | 12.76047 | 121° | 64km/h | 14369m | 4.7m/s | -64.4°C | 12.9% | 143.2hPa | 2.7V | 00:00:00 | 00:00:00 | 00:00:00 | |
| SP3BTT-10 | 2026-09-04 11:35:21 | 49.26076 | 12.76000 | 117° | 91km/h | 14359m | 3.8m/s | 0°C | 0% | 0hPa | 2.7V | 00:00:00 | 00:00:00 | 00:00:00 | |
| DO3MHA-11 | 2026-09-04 11:35:20 | 49.26084 | 12.75975 | 117° | 64km/h | 14355m | 5.4m/s | -64.3°C | 20.4% | 143.5hPa | 2.7V | 00:00:00 | 01:32:41 | 00:00:00 | |
| OE5MMP-10 | 2026-09-04 11:35:19 | 49.26093 | 12.75950 | 119° | 64km/h | 14349m | 5.3m/s | -64.3°C | 20.6% | 143.6hPa | 2.7V | 00:00:00 | 01:32:40 | 00:00:00 | |
| OE5DRO-10 | 2026-09-04 11:35:18 | 49.26102 | 12.75926 | 120° | 69km/h | 14345m | 3.6m/s | -64.1°C | 20.5% | 143.7hPa | 2.6V | 00:00:00 | 00:00:00 | 00:00:00 | |
| ANDY1245 | 2026-09-04 11:35:15 | 49.26119 | 12.75879 | 122° | 69km/h | 14337m | 5.7m/s | -64.1°C | 12.5% | 143.9hPa | 2.6V | 00:00:00 | 00:00:00 | 00:00:00 | |
| PG1ADW-2 | 2026-09-04 11:35:14 | 49.26136 | 12.75836 | 123° | 69km/h | 14326m | 6.1m/s | -64.2°C | 19.2% | 144.2hPa | 2.6V | 00:00:00 | 01:32:35 | 00:00:00 | |
| OE5DXL-15 | 2026-09-04 11:35:13 | 49.26144 | 12.75818 | 124° | 77km/h | 14320m | 4.1m/s | -64.1°C | 19.6% | 144.2hPa | 2.6V | 00:00:00 | 00:00:00 | 00:00:00 | |
| OE5MMP-10 | 2026-09-04 11:35:09 | 49.26176 | 12.75737 | 120° | 75km/h | 14303m | 3.7m/s | -63.9°C | 21.0% | 144.7hPa | 2.6V | 00:00:00 | 01:32:30 | 00:00:00 | |
| OE5WHR-10 | 2026-09-04 11:35:08 | 49.26186 | 12.75712 | 120° | 78km/h | 14298m | 7.1m/s | -63.8°C | 21.0% | 144.8hPa | 2.6V | 00:00:00 | 01:32:29 | 00:00:00 | |
| DO8TBO-1 | 2026-09-04 11:35:07 | 49.26196 | 12.75686 | 122° | 80km/h | 14291m | 6.4m/s | -64.0°C | 21.5% | 145.0hPa | 2.6V | 00:00:00 | 01:32:28 | 00:00:00 | |
| DK5PH-5 | 2026-09-04 11:35:04 | 49.26229 | 12.75609 | 124° | 69km/h | 14276m | 4.8m/s | 0°C | 0% | 0hPa | 2.6V | 00:00:00 | 01:32:25 | 00:00:00 | |
| EDDB2-11 | 2026-09-04 11:35:02 | 49.26247 | 12.75560 | 116° | 69km/h | 14266m | 4.6m/s | -64.0°C | 13.7% | 145.6hPa | 2.6V | 00:00:00 | 00:00:00 | 00:00:00 | |
| DL6DJ-15 | 2026-09-04 11:34:59 | 49.26278 | 12.75469 | 124° | 64km/h | 14246m | 5.8m/s | -63.9°C | 13.7% | 146.1hPa | 2.6V | 00:00:00 | 00:00:00 | 00:00:00 | |
| SONDE2-11 | 2026-09-04 11:34:55 | 49.26314 | 12.75405 | 133° | 78km/h | 14231m | 6.3m/s | -63.6°C | 14.0% | 146.5hPa | 2.6V | 00:00:00 | 00:00:00 | 00:00:00 | |
| EDDB2-12 | 2026-09-04 11:34:52 | 49.26355 | 12.75331 | 128° | 88km/h | 14215m | 4.4m/s | -63.7°C | 14.5% | 146.8hPa | 2.6V | 00:00:00 | 00:00:00 | 00:00:00 | |
| OE5MMP-10 | 2026-09-04 11:34:49 | 49.26397 | 12.75250 | 130° | 88km/h | 14197m | 6.0m/s | -63.4°C | 20.7% | 147.2hPa | 2.6V | 04:33:00 | 01:32:10 | 00:00:00 | |
| OE5WHR-10 | 2026-09-04 11:34:47 | 49.26425 | 12.75201 | 132° | 89km/h | 14187m | 4.0m/s | -63.6°C | 21.7% | 147.5hPa | 2.7V | 00:00:00 | 00:00:00 | 00:00:00 | |
| OE5DXL-15 | 2026-09-04 11:34:43 | 49.26482 | 12.75098 | 127° | 89km/h | 14168m | 5.3m/s | -63.7°C | 22.8% | 147.9hPa | 2.7V | 00:00:00 | 00:00:00 | 00:00:00 | |
| S52SK | 2026-09-04 11:34:42 | 49.26482 | 12.75098 | 127° | 91km/h | 14168m | 5.3m/s | -63.7°C | 0% | 0hPa | 2.7V | 00:00:00 | 00:00:00 | 00:00:00 | |
| OE5DRO-10 | 2026-09-04 11:34:40 | 49.26519 | 12.75010 | 122° | 89km/h | 14153m | 5.0m/s | -63.7°C | 22.8% | 148.3hPa | 2.7V | 04:33:00 | 00:00:00 | 00:00:00 | |
| OE5MMP-10 | 2026-09-04 11:34:39 | 49.26531 | 12.74982 | 123° | 88km/h | 14149m | 4.5m/s | -63.6°C | 23.1% | 148.4hPa | 2.7V | 00:00:00 | 01:32:00 | 00:00:00 | |
| DO8TBO-1 | 2026-09-04 11:34:37 | 49.26555 | 12.74925 | 125° | 91km/h | 14139m | 4.6m/s | -63.3°C | 22.7% | 148.6hPa | 2.7V | 00:00:00 | 01:31:58 | 00:00:00 | |
| DO3MHA-11 | 2026-09-04 11:34:34 | 49.26593 | 12.74840 | 124° | 89km/h | 14126m | 5.0m/s | -63.2°C | 23.0% | 149.0hPa | 2.7V | 00:00:00 | 01:31:55 | 00:00:00 | |
| EDDB2-11 | 2026-09-04 11:34:31 | 49.26629 | 12.74755 | 123° | 88km/h | 14111m | 5.4m/s | -63.4°C | 15.6% | 149.3hPa | 2.6V | 00:00:00 | 00:00:00 | 00:00:00 | |
| OE5MMP-10 | 2026-09-04 11:34:29 | 49.26655 | 12.74697 | 124° | 91km/h | 14101m | 4.9m/s | -63.3°C | 22.9% | 149.5hPa | 2.6V | 00:00:00 | 01:31:50 | 00:00:00 | |
| OE5WHR-10 | 2026-09-04 11:34:26 | 49.26692 | 12.74607 | 122° | 91km/h | 14086m | 5.0m/s | -62.8°C | 23.5% | 149.9hPa | 2.6V | 00:00:00 | 00:00:00 | 00:00:00 | |
| DO3MHA-11 | 2026-09-04 11:34:24 | 49.26716 | 12.74545 | 121° | 91km/h | 14076m | 4.1m/s | -62.4°C | 23.0% | 150.2hPa | 2.6V | 00:00:00 | 01:31:45 | 00:00:00 | |
| EDDB2-12 | 2026-09-04 11:34:21 | 49.26761 | 12.74421 | 118° | 88km/h | 14058m | 4.4m/s | -63.2°C | 17.2% | 150.7hPa | 2.6V | 00:00:00 | 00:00:00 | 00:00:00 | |
| OE5MMP-10 | 2026-09-04 11:34:19 | 49.26772 | 12.74391 | 120° | 91km/h | 14053m | 5.0m/s | -63.0°C | 25.0% | 150.7hPa | 2.6V | 00:00:00 | 01:31:40 | 00:00:00 | |
| PG1ADW-2 | 2026-09-04 11:34:14 | 49.26830 | 12.74241 | 120° | 91km/h | 14030m | 4.6m/s | -62.7°C | 26.4% | 151.3hPa | 2.6V | 04:33:00 | 00:00:00 | 00:00:00 | |
| OE5DXL-15 | 2026-09-04 11:34:13 | 49.26842 | 12.74210 | 120° | 91km/h | 14024m | 5.9m/s | -62.6°C | 25.7% | 151.5hPa | 2.6V | 04:33:00 | 00:00:00 | 00:00:00 | |
| OE5MMP-10 | 2026-09-04 11:34:09 | 49.26886 | 12.74082 | 117° | 91km/h | 14004m | 4.5m/s | -62.6°C | 25.7% | 152.0hPa | 2.6V | 00:00:00 | 01:31:30 | 00:00:00 | |
| DO8TBO-1 | 2026-09-04 11:34:07 | 49.26907 | 12.74019 | 118° | 89km/h | 13994m | 5.4m/s | -62.4°C | 25.9% | 152.2hPa | 2.6V | 00:00:00 | 01:31:28 | 00:00:00 | |
| OE5WHR-10 | 2026-09-04 11:34:05 | 49.26929 | 12.73956 | 119° | 89km/h | 13985m | 4.3m/s | -62.5°C | 25.8% | 152.5hPa | 2.6V | 04:33:00 | 01:31:26 | 00:00:00 | |
| EDDB2-11 | 2026-09-04 11:34:00 | 49.26985 | 12.73801 | 119° | 91km/h | 13960m | 4.3m/s | -62.2°C | 21.1% | 153.1hPa | 2.6V | 00:00:00 | 00:00:00 | 00:00:00 | |
| DL6DJ-15 | 2026-09-04 11:33:57 | 49.27029 | 12.73676 | 118° | 89km/h | 13940m | 5.9m/s | -62.2°C | 20.8% | 153.6hPa | 2.6V | 00:00:00 | 00:00:00 | 00:00:00 | |
| SONDE2-11 | 2026-09-04 11:33:53 | 49.27073 | 12.73557 | 119° | 86km/h | 13921m | 4.5m/s | -62.1°C | 21.5% | 154.1hPa | 2.6V | 00:00:00 | 00:00:00 | 00:00:00 | |
| EDDB2-12 | 2026-09-04 11:33:50 | 49.27096 | 12.73500 | 122° | 86km/h | 13911m | 5.7m/s | -62.1°C | 21.2% | 154.4hPa | 2.6V | 00:00:00 | 00:00:00 | 00:00:00 | |
| OE5MMP-10 | 2026-09-04 11:33:49 | 49.27107 | 12.73472 | 124° | 88km/h | 13907m | 4.5m/s | -62.1°C | 29.6% | 154.4hPa | 2.6V | 00:00:00 | 01:31:10 | 00:00:00 | |
| S52SK | 2026-09-04 11:33:45 | 49.27143 | 12.73384 | 120° | 89km/h | 13892m | 5.3m/s | -62.3°C | 0% | 0hPa | 2.6V | 00:00:00 | 00:00:00 | 00:00:00 | |
| OE5WHR-10 | 2026-09-04 11:33:44 | 49.27165 | 12.73323 | 118° | 86km/h | 13882m | 5.4m/s | -62.5°C | 32.8% | 155.0hPa | 2.6V | 00:00:00 | 00:00:00 | 00:00:00 | |
| OE5DXL-15 | 2026-09-04 11:33:43 | 49.27175 | 12.73293 | 118° | 89km/h | 13877m | 4.7m/s | -62.5°C | 34.0% | 155.1hPa | 2.6V | 00:00:00 | 00:00:00 | 00:00:00 | |
| OE5MMP-10 | 2026-09-04 11:33:39 | 49.27213 | 12.73175 | 117° | 86km/h | 13857m | 4.7m/s | -63.1°C | 37.2% | 155.6hPa | 2.6V | 00:00:00 | 01:31:00 | 00:00:00 | |
| DO8TBO-1 | 2026-09-04 11:33:37 | 49.27234 | 12.73119 | 121° | 91km/h | 13847m | 4.5m/s | -63.6°C | 39.2% | 155.8hPa | 2.6V | 00:00:00 | 01:30:58 | 00:00:00 | |
| PG1ADW-2 | 2026-09-04 11:33:35 | 49.27268 | 12.73036 | 125° | 91km/h | 13832m | 5.7m/s | -63.9°C | 39.8% | 156.2hPa | 2.7V | 00:00:00 | 00:00:00 | 00:00:00 | |
| OE5MMP-10 | 2026-09-04 11:33:29 | 49.27326 | 12.72890 | 116° | 88km/h | 13808m | 4.4m/s | -63.9°C | 38.1% | 156.8hPa | 2.6V | 00:00:00 | 01:30:50 | 00:00:00 | |
| OE5REO-15 | 2026-09-04 11:33:25 | 49.27352 | 12.72802 | 115° | 84km/h | 13794m | 5.1m/s | 0°C | 0% | 157.2hPa | 2.6V | 00:00:00 | 00:00:00 | 00:00:00 | |
| OE5DRO-10 | 2026-09-04 11:33:24 | 49.27369 | 12.72742 | 113° | 97km/h | 13784m | 5.3m/s | -63.2°C | 35.0% | 157.4hPa | 2.6V | 00:00:00 | 00:00:00 | 00:00:00 | |
| OE5WHR-10 | 2026-09-04 11:33:23 | 49.27377 | 12.72710 | 111° | 97km/h | 13779m | 5.2m/s | -63.6°C | 36.3% | 157.6hPa | 2.7V | 00:00:00 | 00:00:00 | 00:00:00 | |
| SONDE2-11 | 2026-09-04 11:33:22 | 49.27393 | 12.72644 | 109° | 93km/h | 13769m | 4.4m/s | -63.7°C | 27.3% | 157.9hPa | 2.7V | 00:00:00 | 00:00:00 | 00:00:00 | |
| OE5MMP-10 | 2026-09-04 11:33:19 | 49.27410 | 12.72575 | 112° | 99km/h | 13759m | 5.3m/s | -63.5°C | 37.0% | 158.1hPa | 2.7V | 00:00:00 | 01:30:40 | 00:00:00 | |
| DO3MHA-11 | 2026-09-04 11:33:16 | 49.27437 | 12.72469 | 111° | 97km/h | 13745m | 5.6m/s | -63.7°C | 41.0% | 158.4hPa | 2.7V | 04:34:00 | 01:30:37 | 00:00:00 | |
| PG1ADW-2 | 2026-09-04 11:33:14 | 49.27453 | 12.72397 | 107° | 97km/h | 13735m | 4.1m/s | -63.4°C | 41.4% | 158.7hPa | 2.7V | 00:00:00 | 00:00:00 | 00:00:00 | |
| OE5DXL-15 | 2026-09-04 11:33:13 | 49.27460 | 12.72360 | 108° | 95km/h | 13731m | 5.4m/s | -63.5°C | 43.2% | 158.8hPa | 2.7V | 00:00:00 | 00:00:00 | 00:00:00 | |
| OE5MMP-10 | 2026-09-04 11:33:09 | 49.27491 | 12.72218 | 109° | 99km/h | 13714m | 3.7m/s | -64.4°C | 46.1% | 159.2hPa | 2.7V | 04:34:00 | 01:30:30 | 00:00:00 | |
| DO8TBO-1 | 2026-09-04 11:33:07 | 49.27508 | 12.72147 | 110° | 95km/h | 13705m | 4.8m/s | -64.1°C | 42.0% | 159.5hPa | 2.7V | 04:34:00 | 01:30:28 | 00:00:00 | |
| OE5DRO-10 | 2026-09-04 11:33:05 | 49.27525 | 12.72072 | 110° | 95km/h | 13696m | 4.3m/s | -64.8°C | 44.3% | 159.7hPa | 2.7V | 04:34:00 | 00:00:00 | 00:00:00 | |
| SP3BTT-10 | 2026-09-04 11:33:04 | 49.27533 | 12.72035 | 109° | 91km/h | 13692m | 4.8m/s | 0°C | 0% | 0hPa | 2.7V | 00:00:00 | 00:00:00 | 00:00:00 | |
| EDDB2-11 | 2026-09-04 11:32:58 | 49.27582 | 12.71824 | 110° | 93km/h | 13665m | 5.2m/s | -64.9°C | 34.6% | 160.6hPa | 2.7V | 00:00:00 | 00:00:00 | 00:00:00 | |
| DL6DJ-15 | 2026-09-04 11:32:55 | 49.27617 | 12.71691 | 113° | 89km/h | 13647m | 4.3m/s | -65.0°C | 37.2% | 161.1hPa | 2.7V | 00:00:00 | 00:00:00 | 00:00:00 | |
| SONDE2-11 | 2026-09-04 11:32:51 | 49.27655 | 12.71563 | 116° | 91km/h | 13629m | 5.2m/s | -64.9°C | 35.9% | 161.5hPa | 2.7V | 00:00:00 | 00:00:00 | 00:00:00 | |
| EDDB2-12 | 2026-09-04 11:32:48 | 49.27687 | 12.71465 | 115° | 95km/h | 13616m | 4.7m/s | -65.4°C | 36.5% | 161.9hPa | 2.7V | 00:00:00 | 00:00:00 | 00:00:00 | |
| OE5DRO-10 | 2026-09-04 11:32:46 | 49.27697 | 12.71431 | 114° | 91km/h | 13612m | 4.3m/s | -65.3°C | 47.9% | 161.9hPa | 2.7V | 00:00:00 | 00:00:00 | 00:00:00 | |
| OE5DXL-15 | 2026-09-04 11:32:43 | 49.27725 | 12.71333 | 115° | 91km/h | 13599m | 4.5m/s | -65.0°C | 48.7% | 162.3hPa | 2.7V | 00:00:00 | 00:00:00 | 00:00:00 | |
| DO9HM | 2026-09-04 11:32:42 | 49.27725 | 12.71333 | 115° | 91km/h | 13599m | 4.5m/s | -65.1°C | 37.5% | 162.3hPa | 2.7V | 00:00:00 | 00:00:00 | 00:00:00 | |
| OE5WHR-10 | 2026-09-04 11:32:41 | 49.27743 | 12.71269 | 114° | 91km/h | 13591m | 4.5m/s | -65.2°C | 49.5% | 162.5hPa | 2.7V | 00:00:00 | 00:00:00 | 00:00:00 | |
| OE5MMP-10 | 2026-09-04 11:32:39 | 49.27761 | 12.71203 | 113° | 91km/h | 13582m | 4.2m/s | -65.1°C | 48.9% | 162.7hPa | 2.7V | 00:00:00 | 01:30:00 | 00:00:00 | |
| DO8TBO-1 | 2026-09-04 11:32:37 | 49.27780 | 12.71136 | 115° | 91km/h | 13572m | 4.0m/s | -65.1°C | 48.2% | 163.0hPa | 2.7V | 00:00:00 | 01:29:58 | 00:00:00 | |
| PG1ADW-2 | 2026-09-04 11:32:34 | 49.27808 | 12.71036 | 112° | 91km/h | 13559m | 3.7m/s | -65.1°C | 48.3% | 163.3hPa | 2.7V | 04:35:00 | 01:29:55 | 00:00:00 | |
| OE5MMP-10 | 2026-09-04 11:32:29 | 49.27851 | 12.70877 | 112° | 93km/h | 13538m | 4.0m/s | -65.0°C | 50.6% | 163.9hPa | 2.7V | 00:00:00 | 01:29:50 | 00:00:00 | |
| OE5DRO-10 | 2026-09-04 11:32:27 | 49.27868 | 12.70812 | 113° | 91km/h | 13530m | 4.8m/s | -64.9°C | 50.8% | 164.1hPa | 2.7V | 00:00:00 | 00:00:00 | 00:00:00 | |
| DL6DJ-15 | 2026-09-04 11:32:24 | 49.27903 | 12.70678 | 110° | 93km/h | 13514m | 3.8m/s | -65.0°C | 39.4% | 164.6hPa | 2.6V | 00:00:00 | 00:00:00 | 00:00:00 | |
| OE5GOL-10 | 2026-09-04 11:32:23 | 49.27903 | 12.70677 | 111° | 89km/h | 13514m | 3.8m/s | -64.9°C | 50.9% | 164.6hPa | 2.6V | 00:00:00 | 01:29:44 | 00:00:00 | |
| SONDE2-11 | 2026-09-04 11:32:20 | 49.27938 | 12.70543 | 111° | 91km/h | 13499m | 3.9m/s | -64.9°C | 38.0% | 165.0hPa | 2.6V | 00:00:00 | 00:00:00 | 00:00:00 | |
| OE5MMP-10 | 2026-09-04 11:32:19 | 49.27938 | 12.70543 | 112° | 89km/h | 13499m | 3.9m/s | -64.9°C | 49.3% | 165.0hPa | 2.6V | 04:35:00 | 01:29:40 | 00:00:00 | |
| EDDB2-12 | 2026-09-04 11:32:17 | 49.27963 | 12.70444 | 111° | 89km/h | 13486m | 5.1m/s | -64.8°C | 38.5% | 165.4hPa | 2.7V | 00:00:00 | 00:00:00 | 00:00:00 | |
| PG1ADW-2 | 2026-09-04 11:32:14 | 49.27980 | 12.70380 | 113° | 89km/h | 13477m | 3.7m/s | -64.4°C | 47.6% | 165.6hPa | 2.7V | 00:00:00 | 00:00:00 | 00:00:00 | |
| OE5DXL-15 | 2026-09-04 11:32:13 | 49.27988 | 12.70349 | 112° | 89km/h | 13473m | 4.9m/s | -64.4°C | 45.9% | 165.7hPa | 2.7V | 00:00:00 | 00:00:00 | 00:00:00 | |
| OE5MMP-10 | 2026-09-04 11:32:08 | 49.28032 | 12.70193 | 116° | 89km/h | 13453m | 3.7m/s | -64.5°C | 48.0% | 166.2hPa | 2.7V | 00:00:00 | 01:29:29 | 00:00:00 | |
| DO8TBO-1 | 2026-09-04 11:32:07 | 49.28041 | 12.70161 | 115° | 89km/h | 13449m | 4.4m/s | -64.4°C | 48.7% | 166.3hPa | 2.7V | 00:00:00 | 01:29:28 | 00:00:00 | |
| NBG1-10 | 2026-09-04 11:32:04 | 49.28069 | 12.70065 | 114° | 86km/h | 13437m | 4.3m/s | -64.3°C | 50.5% | 166.6hPa | 2.7V | 00:00:00 | 01:29:25 | 00:00:00 | |
| EDDB2-11 | 2026-09-04 11:31:56 | 49.28142 | 12.69810 | 116° | 89km/h | 13407m | 3.4m/s | -64.5°C | 40.2% | 167.5hPa | 2.7V | 00:00:00 | 00:00:00 | 00:00:00 | |
| DL6DJ-15 | 2026-09-04 11:31:53 | 49.28182 | 12.69684 | 116° | 89km/h | 13392m | 4.3m/s | -64.4°C | 40.5% | 167.9hPa | 2.7V | 00:00:00 | 00:00:00 | 00:00:00 | |
| SONDE2-11 | 2026-09-04 11:31:49 | 49.28222 | 12.69560 | 114° | 89km/h | 13377m | 3.6m/s | -64.6°C | 39.3% | 168.4hPa | 2.7V | 00:00:00 | 00:00:00 | 00:00:00 | |
| EDDB2-12 | 2026-09-04 11:31:46 | 49.28250 | 12.69466 | 115° | 86km/h | 13365m | 4.5m/s | -64.1°C | 38.3% | 168.7hPa | 2.7V | 00:00:00 | 00:00:00 | 00:00:00 | |
| OE5DXL-15 | 2026-09-04 11:31:43 | 49.28270 | 12.69406 | 117° | 93km/h | 13359m | 3.1m/s | -64.5°C | 49.3% | 168.8hPa | 2.7V | 04:36:00 | 00:00:00 | 00:00:00 | |
| OE5MMP-10 | 2026-09-04 11:31:38 | 49.28320 | 12.69249 | 119° | 95km/h | 13338m | 3.7m/s | -64.3°C | 54.0% | 169.4hPa | 2.7V | 00:00:00 | 01:28:59 | 00:00:00 | |
| DO8TBO-1 | 2026-09-04 11:31:37 | 49.28331 | 12.69218 | 119° | 93km/h | 13335m | 2.6m/s | -64.2°C | 53.7% | 169.5hPa | 2.7V | 00:00:00 | 01:28:58 | 00:00:00 | |
| PG1ADW-2 | 2026-09-04 11:31:34 | 49.28362 | 12.69120 | 114° | 93km/h | 13324m | 3.2m/s | -64.2°C | 55.4% | 169.8hPa | 2.7V | 00:00:00 | 00:00:00 | 00:00:00 | |
| DO9HM | 2026-09-04 11:31:33 | 49.28362 | 12.69120 | 115° | 95km/h | 13324m | 3.2m/s | -64.3°C | 43.5% | 169.8hPa | 2.7V | 04:36:00 | 00:00:00 | 00:00:00 | |
| OE5DRO-10 | 2026-09-04 11:31:30 | 49.28404 | 12.68986 | 117° | 93km/h | 13309m | 3.3m/s | -64.2°C | 53.1% | 170.2hPa | 2.7V | 04:36:00 | 00:00:00 | 00:00:00 | |
| OE5MMP-10 | 2026-09-04 11:31:28 | 49.28425 | 12.68920 | 116° | 91km/h | 13302m | 4.0m/s | -64.2°C | 51.7% | 170.4hPa | 2.7V | 04:36:00 | 01:28:49 | 00:00:00 | |
| EDDB2-11 | 2026-09-04 11:31:25 | 49.28455 | 12.68827 | 118° | 89km/h | 13290m | 4.0m/s | -64.1°C | 41.4% | 170.8hPa | 2.7V | 00:00:00 | 00:00:00 | 00:00:00 | |
| OE5GOL-10 | 2026-09-04 11:31:22 | 49.28488 | 12.68732 | 117° | 95km/h | 13280m | 3.7m/s | -64.0°C | 53.8% | 171.0hPa | 2.7V | 00:00:00 | 01:28:43 | 00:00:00 | |
| DL6DJ-15 | 2026-09-04 11:31:21 | 49.28498 | 12.68699 | 115° | 93km/h | 13277m | 3.4m/s | -64.2°C | 42.7% | 171.1hPa | 2.7V | 00:00:00 | 00:00:00 | 00:00:00 | |
| SONDE2-11 | 2026-09-04 11:31:18 | 49.28540 | 12.68571 | 117° | 93km/h | 13262m | 3.3m/s | -64.0°C | 45.7% | 171.6hPa | 2.7V | 00:00:00 | 00:00:00 | 00:00:00 | |
| EDDB2-12 | 2026-09-04 11:31:15 | 49.28573 | 12.68473 | 118° | 95km/h | 13251m | 4.4m/s | -63.9°C | 42.5% | 171.8hPa | 2.7V | 00:00:00 | 00:00:00 | 00:00:00 | |
| PG1ADW-2 | 2026-09-04 11:31:14 | 49.28573 | 12.68473 | 119° | 95km/h | 13251m | 4.4m/s | -63.9°C | 53.9% | 171.8hPa | 2.7V | 00:00:00 | 01:28:35 | 00:00:00 | |
| OE5DXL-15 | 2026-09-04 11:31:13 | 49.28585 | 12.68440 | 120° | 97km/h | 13247m | 3.7m/s | -63.7°C | 52.9% | 171.9hPa | 2.7V | 00:00:00 | 00:00:00 | 00:00:00 | |
| DO9HM | 2026-09-04 11:31:12 | 49.28597 | 12.68408 | 120° | 95km/h | 13244m | 2.5m/s | -63.9°C | 42.3% | 172.1hPa | 2.7V | 04:36:00 | 00:00:00 | 00:00:00 | |
| OE5DRO-10 | 2026-09-04 11:31:11 | 49.28608 | 12.68375 | 118° | 95km/h | 13241m | 4.0m/s | -64.0°C | 52.6% | 172.1hPa | 2.7V | 00:00:00 | 00:00:00 | 00:00:00 | |
| OE5MMP-10 | 2026-09-04 11:31:08 | 49.28638 | 12.68277 | 114° | 97km/h | 13230m | 3.6m/s | -63.9°C | 56.1% | 172.5hPa | 2.7V | 00:00:00 | 01:28:29 | 00:00:00 | |
| DO8TBO-1 | 2026-09-04 11:31:07 | 49.28647 | 12.68244 | 115° | 97km/h | 13226m | 4.5m/s | -63.7°C | 56.8% | 172.5hPa | 2.7V | 00:00:00 | 01:28:28 | 00:00:00 | |
| EDDB2-11 | 2026-09-04 11:30:54 | 49.28784 | 12.67808 | 115° | 93km/h | 13180m | 3.3m/s | -63.7°C | 44.7% | 173.9hPa | 2.7V | 00:00:00 | 00:00:00 | 00:00:00 | |
| DL6DJ-15 | 2026-09-04 11:30:50 | 49.28829 | 12.67673 | 117° | 100km/h | 13166m | 3.3m/s | -63.8°C | 42.9% | 174.3hPa | 2.7V | 00:00:00 | 00:00:00 | 00:00:00 | |
| OE5MMP-10 | 2026-09-04 11:30:48 | 49.28853 | 12.67605 | 119° | 99km/h | 13159m | 3.1m/s | -63.8°C | 55.1% | 174.4hPa | 2.7V | 00:00:00 | 01:28:09 | 00:00:00 | |
| DO9HM | 2026-09-04 11:30:47 | 49.28852 | 12.67605 | 119° | 99km/h | 13159m | 3.2m/s | -63.8°C | 43.8% | 174.5hPa | 2.7V | 04:37:00 | 00:00:00 | 00:00:00 | |
| OE5DRO-10 | 2026-09-04 11:30:46 | 49.28875 | 12.67538 | 118° | 97km/h | 13152m | 4.1m/s | -63.7°C | 58.6% | 174.6hPa | 2.7V | 00:00:00 | 00:00:00 | 00:00:00 | |
| EDDB2-12 | 2026-09-04 11:30:44 | 49.28908 | 12.67432 | 113° | 99km/h | 13141m | 4.1m/s | -63.6°C | 47.4% | 175.0hPa | 2.7V | 00:00:00 | 00:00:00 | 00:00:00 | |
| OE5DXL-15 | 2026-09-04 11:30:43 | 49.28908 | 12.67432 | 114° | 97km/h | 13141m | 4.1m/s | -63.5°C | 59.4% | 174.9hPa | 2.7V | 00:00:00 | 00:00:00 | 00:00:00 | |
| OE5MMP-10 | 2026-09-04 11:30:38 | 49.28958 | 12.67257 | 115° | 97km/h | 13124m | 3.0m/s | -63.7°C | 56.8% | 175.4hPa | 2.7V | 04:37:00 | 01:27:59 | 00:00:00 | |
| DO8TBO-1 | 2026-09-04 11:30:37 | 49.28969 | 12.67223 | 116° | 97km/h | 13120m | 4.0m/s | -63.7°C | 56.7% | 175.5hPa | 2.7V | 04:37:00 | 01:27:58 | 00:00:00 | |
| OE5WHR-10 | 2026-09-04 11:30:35 | 49.28990 | 12.67156 | 117° | 97km/h | 13113m | 3.6m/s | -63.6°C | 57.1% | 175.8hPa | 2.7V | 04:37:00 | 00:00:00 | 00:00:00 | |
| PG1ADW-2 | 2026-09-04 11:30:34 | 49.29001 | 12.67122 | 117° | 97km/h | 13110m | 3.5m/s | -63.6°C | 57.6% | 175.9hPa | 2.7V | 00:00:00 | 00:00:00 | 00:00:00 | |
| DO3MHA-11 | 2026-09-04 11:30:29 | 49.29055 | 12.66957 | 117° | 97km/h | 13094m | 3.2m/s | -63.6°C | 61.3% | 176.3hPa | 2.7V | 00:00:00 | 01:27:50 | 00:00:00 | |
| OE5MMP-10 | 2026-09-04 11:30:28 | 49.29065 | 12.66924 | 117° | 97km/h | 13091m | 3.9m/s | -63.7°C | 61.5% | 176.4hPa | 2.7V | 00:00:00 | 01:27:49 | 00:00:00 | |
| DO9HM | 2026-09-04 11:30:27 | 49.29076 | 12.66890 | 117° | 99km/h | 13087m | 2.7m/s | -63.7°C | 48.8% | 176.6hPa | 2.7V | 04:37:00 | 00:00:00 | 00:00:00 | |
| EDDB2-11 | 2026-09-04 11:30:23 | 49.29119 | 12.66755 | 115° | 95km/h | 13074m | 3.1m/s | -63.8°C | 50.6% | 176.9hPa | 2.7V | 00:00:00 | 00:00:00 | 00:00:00 | |
| OE5GOL-10 | 2026-09-04 11:30:22 | 49.29129 | 12.66721 | 116° | 95km/h | 13070m | 4.3m/s | -63.7°C | 62.5% | 177.0hPa | 2.7V | 04:37:00 | 01:27:43 | 00:00:00 | |
| DL6DJ-15 | 2026-09-04 11:30:19 | 49.29160 | 12.66619 | 114° | 95km/h | 13061m | 4.1m/s | -63.8°C | 52.2% | 177.3hPa | 2.7V | 00:00:00 | 00:00:00 | 00:00:00 | |
| OE5MMP-10 | 2026-09-04 11:30:18 | 49.29170 | 12.66585 | 115° | 95km/h | 13057m | 3.0m/s | -63.7°C | 64.2% | 177.4hPa | 2.7V | 00:00:00 | 01:27:39 | 00:00:00 | |
| SONDE2-11 | 2026-09-04 11:30:17 | 49.29200 | 12.66484 | 115° | 97km/h | 13047m | 2.3m/s | -63.6°C | 50.2% | 177.7hPa | 2.7V | 00:00:00 | 00:00:00 | 00:00:00 | |
| OE5WHR-10 | 2026-09-04 11:30:14 | 49.29211 | 12.66451 | 117° | 95km/h | 13045m | 3.3m/s | -63.5°C | 61.7% | 177.7hPa | 2.7V | 00:00:00 | 00:00:00 | 00:00:00 | |
| OE5DXL-15 | 2026-09-04 11:30:13 | 49.29222 | 12.66418 | 117° | 95km/h | 13041m | 3.1m/s | -63.3°C | 59.9% | 177.8hPa | 2.7V | 00:00:00 | 00:00:00 | 00:00:00 | |
| EDDB2-12 | 2026-09-04 11:30:12 | 49.29232 | 12.66386 | 117° | 93km/h | 13038m | 2.6m/s | -63.6°C | 48.9% | 177.9hPa | 2.7V | 00:00:00 | 00:00:00 | 00:00:00 | |
| OE5MMP-10 | 2026-09-04 11:30:08 | 49.29275 | 12.66254 | 115° | 95km/h | 13027m | 3.7m/s | -63.7°C | 61.3% | 178.3hPa | 2.7V | 00:00:00 | 01:27:29 | 00:00:00 | |
| DO9HM | 2026-09-04 11:30:07 | 49.29285 | 12.66221 | 115° | 93km/h | 13023m | 4.0m/s | -63.6°C | 49.7% | 178.4hPa | 2.7V | 04:38:00 | 00:00:00 | 00:00:00 | |
| OE5DRO-10 | 2026-09-04 11:29:59 | 49.29363 | 12.65952 | 114° | 93km/h | 12997m | 3.8m/s | -63.4°C | 67.8% | 179.1hPa | 2.7V | 00:00:00 | 00:00:00 | 00:00:00 | |
| OE5MMP-10 | 2026-09-04 11:29:58 | 49.29373 | 12.65917 | 114° | 95km/h | 12994m | 3.0m/s | -63.3°C | 66.6% | 179.2hPa | 2.7V | 00:00:00 | 01:27:19 | 00:00:00 | |
| PG1ADW-2 | 2026-09-04 11:29:54 | 49.29412 | 12.65780 | 115° | 93km/h | 12981m | 3.4m/s | -63.0°C | 61.9% | 179.6hPa | 2.7V | 00:00:00 | 01:27:15 | 00:00:00 | |
| OE5WHR-10 | 2026-09-04 11:29:53 | 49.29421 | 12.65747 | 115° | 91km/h | 12978m | 3.7m/s | -63.1°C | 61.2% | 179.7hPa | 2.7V | 00:00:00 | 01:27:14 | 00:00:00 | |
| PETON7-10 | 2026-09-04 11:29:52 | 49.29432 | 12.65712 | 115° | 97km/h | 12974m | 2.8m/s | 0°C | 0% | 0hPa | 2.7V | 00:00:00 | 01:27:13 | 00:00:00 | |
| OE5GOL-10 | 2026-09-04 11:29:51 | 49.29442 | 12.65679 | 115° | 91km/h | 12971m | 4.1m/s | -63.4°C | 60.1% | 179.9hPa | 2.7V | 00:00:00 | 01:27:12 | 00:00:00 | |
| DO3MHA-11 | 2026-09-04 11:29:48 | 49.29471 | 12.65582 | 116° | 93km/h | 12961m | 3.8m/s | -63.2°C | 59.5% | 180.2hPa | 2.7V | 00:00:00 | 01:27:09 | 00:00:00 | |
| SONDE2-11 | 2026-09-04 11:29:44 | 49.29509 | 12.65455 | 112° | 89km/h | 12949m | 3.3m/s | -63.1°C | 50.8% | 180.6hPa | 2.7V | 00:00:00 | 00:00:00 | 00:00:00 | |
| OE5DXL-15 | 2026-09-04 11:29:43 | 49.29517 | 12.65422 | 112° | 89km/h | 12946m | 3.1m/s | -62.7°C | 61.1% | 180.6hPa | 2.7V | 00:00:00 | 00:00:00 | 00:00:00 | |
| EDDB2-12 | 2026-09-04 11:29:41 | 49.29536 | 12.65355 | 114° | 95km/h | 12939m | 2.6m/s | -63.1°C | 53.9% | 180.9hPa | 2.7V | 00:00:00 | 00:00:00 | 00:00:00 | |
| OE5DRO-10 | 2026-09-04 11:29:39 | 49.29556 | 12.65288 | 114° | 89km/h | 12933m | 3.8m/s | -63.0°C | 65.0% | 181.0hPa | 2.7V | 04:38:00 | 00:00:00 | 00:00:00 | |
| OE5MMP-10 | 2026-09-04 11:29:38 | 49.29565 | 12.65255 | 114° | 89km/h | 12930m | 3.1m/s | -63.0°C | 63.4% | 181.1hPa | 2.7V | 00:00:00 | 01:26:59 | 00:00:00 | |
| DO8TBO-1 | 2026-09-04 11:29:37 | 49.29574 | 12.65223 | 114° | 88km/h | 12927m | 2.5m/s | -63.0°C | 61.8% | 181.2hPa | 2.7V | 00:00:00 | 01:26:58 | 00:00:00 | |
| PETON7-10 | 2026-09-04 11:29:36 | 49.29583 | 12.65192 | 115° | 89km/h | 12924m | 3.1m/s | 0°C | 0% | 0hPa | 2.7V | 00:00:00 | 00:00:00 | 00:00:00 | |
| DO9HM | 2026-09-04 11:29:35 | 49.29592 | 12.65160 | 116° | 89km/h | 12921m | 3.4m/s | -63.0°C | 49.8% | 181.4hPa | 2.7V | 04:38:00 | 00:00:00 | 00:00:00 | |
| PG1ADW-2 | 2026-09-04 11:29:34 | 49.29602 | 12.65129 | 115° | 88km/h | 12918m | 2.6m/s | -62.8°C | 61.1% | 181.4hPa | 2.7V | 00:00:00 | 00:00:00 | 00:00:00 | |
| OE5WHR-10 | 2026-09-04 11:29:32 | 49.29620 | 12.65064 | 112° | 88km/h | 12911m | 3.9m/s | -63.0°C | 61.2% | 181.7hPa | 2.7V | 00:00:00 | 00:00:00 | 00:00:00 | |
| OE5MMP-10 | 2026-09-04 11:29:28 | 49.29653 | 12.64938 | 114° | 88km/h | 12899m | 2.8m/s | -62.8°C | 64.5% | 182.0hPa | 2.7V | 00:00:00 | 01:26:49 | 00:00:00 | |
| ANDY1245 | 2026-09-04 11:29:27 | 49.29653 | 12.64938 | 115° | 88km/h | 12899m | 2.9m/s | -62.8°C | 52.2% | 182.0hPa | 2.7V | 04:38:00 | 00:00:00 | 00:00:00 | |
| DL1JEZ-13 | 2026-09-04 11:29:23 | 49.29688 | 12.64813 | 114° | 89km/h | 12885m | 4.1m/s | -62.8°C | 0% | 182.5hPa | 2.7V | 00:00:00 | 00:00:00 | 00:00:00 | |
| OE5GOL-10 | 2026-09-04 11:29:21 | 49.29715 | 12.64717 | 113° | 86km/h | 12874m | 4.2m/s | -62.8°C | 60.5% | 182.7hPa | 2.7V | 00:00:00 | 01:26:42 | 00:00:00 | |
| OE5DRO-10 | 2026-09-04 11:29:20 | 49.29723 | 12.64686 | 113° | 88km/h | 12870m | 2.7m/s | -62.7°C | 61.4% | 182.9hPa | 2.7V | 00:00:00 | 00:00:00 | 00:00:00 | |
| OE5MMP-10 | 2026-09-04 11:29:18 | 49.29740 | 12.64625 | 115° | 86km/h | 12864m | 4.0m/s | -62.6°C | 62.5% | 183.0hPa | 2.7V | 00:00:00 | 01:26:39 | 00:00:00 | |
| DL6DJ-15 | 2026-09-04 11:29:17 | 49.29750 | 12.64595 | 115° | 86km/h | 12861m | 3.2m/s | -62.6°C | 50.5% | 183.2hPa | 2.7V | 00:00:00 | 00:00:00 | 00:00:00 | |
| ANDY1245 | 2026-09-04 11:29:16 | 49.29750 | 12.64595 | 117° | 86km/h | 12861m | 3.2m/s | 0°C | 0% | 183.2hPa | 2.7V | 00:00:00 | 00:00:00 | 00:00:00 | |
| PG1ADW-2 | 2026-09-04 11:29:14 | 49.29777 | 12.64506 | 114° | 86km/h | 12852m | 3.6m/s | -62.4°C | 60.9% | 183.4hPa | 2.7V | 04:38:00 | 00:00:00 | 00:00:00 | |
| OE5DXL-15 | 2026-09-04 11:29:13 | 49.29785 | 12.64476 | 112° | 86km/h | 12848m | 3.1m/s | -62.4°C | 60.4% | 183.5hPa | 2.7V | 04:38:00 | 00:00:00 | 00:00:00 | |
| OE5WHR-10 | 2026-09-04 11:29:11 | 49.29801 | 12.64415 | 113° | 86km/h | 12842m | 2.8m/s | -62.4°C | 62.4% | 183.7hPa | 2.7V | 00:00:00 | 00:00:00 | 00:00:00 | |
| DO9HM | 2026-09-04 11:29:10 | 49.29810 | 12.64384 | 115° | 89km/h | 12839m | 2.6m/s | -62.3°C | 50.5% | 183.9hPa | 2.7V | 04:39:00 | 00:00:00 | 00:00:00 | |
| DO3MHA-11 | 2026-09-04 11:29:08 | 49.29828 | 12.64322 | 116° | 86km/h | 12834m | 3.1m/s | -62.3°C | 61.7% | 183.9hPa | 2.7V | 04:38:00 | 01:26:29 | 00:00:00 | |
| DO8TBO-1 | 2026-09-04 11:29:07 | 49.29838 | 12.64291 | 115° | 86km/h | 12831m | 3.1m/s | -62.4°C | 60.5% | 184.0hPa | 2.7V | 00:00:00 | 01:26:28 | 00:00:00 | |
| EDDB2-11 | 2026-09-04 11:28:50 | 49.29995 | 12.63785 | 118° | 80km/h | 12773m | 2.8m/s | -62.0°C | 48.4% | 185.9hPa | 2.7V | 00:00:00 | 00:00:00 | 00:00:00 | |
| DL6DJ-15 | 2026-09-04 11:28:46 | 49.30036 | 12.63669 | 117° | 88km/h | 12759m | 4.4m/s | -61.9°C | 47.7% | 186.2hPa | 2.7V | 00:00:00 | 00:00:00 | 00:00:00 | |
| OE5DXL-15 | 2026-09-04 11:28:43 | 49.30066 | 12.63576 | 115° | 88km/h | 12748m | 4.4m/s | -61.6°C | 57.0% | 186.5hPa | 2.7V | 00:00:00 | 00:00:00 | 00:00:00 | |
| SONDE2-11 | 2026-09-04 11:28:42 | 49.30076 | 12.63544 | 113° | 91km/h | 12744m | 3.3m/s | -61.8°C | 45.4% | 186.6hPa | 2.7V | 00:00:00 | 00:00:00 | 00:00:00 | |
| EDDB2-12 | 2026-09-04 11:28:39 | 49.30102 | 12.63449 | 112° | 86km/h | 12733m | 3.0m/s | -61.4°C | 43.1% | 187.0hPa | 2.7V | 00:00:00 | 00:00:00 | 00:00:00 | |
| OE5MMP-10 | 2026-09-04 11:28:38 | 49.30110 | 12.63418 | 113° | 89km/h | 12730m | 3.1m/s | -61.5°C | 52.1% | 187.0hPa | 2.7V | 00:00:00 | 01:25:59 | 00:00:00 | |
| DO8TBO-1 | 2026-09-04 11:28:37 | 49.30119 | 12.63388 | 115° | 88km/h | 12727m | 4.1m/s | -61.5°C | 51.8% | 187.1hPa | 2.7V | 00:00:00 | 01:25:58 | 00:00:00 | |
| PG1ADW-2 | 2026-09-04 11:28:34 | 49.30148 | 12.63298 | 119° | 88km/h | 12716m | 3.1m/s | -61.3°C | 54.3% | 187.5hPa | 2.7V | 00:00:00 | 01:25:55 | 00:00:00 | |
| OE5WHR-10 | 2026-09-04 11:28:29 | 49.30202 | 12.63143 | 117° | 88km/h | 12699m | 4.1m/s | -61.0°C | 61.4% | 187.9hPa | 2.7V | 00:00:00 | 00:00:00 | 00:00:00 | |
| DO9HM | 2026-09-04 11:28:28 | 49.30212 | 12.63112 | 117° | 88km/h | 12696m | 2.9m/s | -60.7°C | 48.6% | 188.1hPa | 2.7V | 04:40:00 | 00:00:00 | 00:00:00 | |
| OE5REO-15 | 2026-09-04 11:28:26 | 49.30221 | 12.63081 | 115° | 88km/h | 12692m | 3.2m/s | 0°C | 0% | 0hPa | 2.7V | 00:00:00 | 00:00:00 | 00:00:00 | |
| OE5GOL-10 | 2026-09-04 11:28:21 | 49.30280 | 12.62902 | 122° | 89km/h | 12671m | 3.1m/s | -60.8°C | 52.2% | 188.8hPa | 2.7V | 00:00:00 | 01:25:42 | 00:00:00 | |
| EDDB2-11 | 2026-09-04 11:28:19 | 49.30303 | 12.62845 | 120° | 88km/h | 12664m | 2.9m/s | -60.7°C | 41.8% | 189.0hPa | 2.7V | 00:00:00 | 00:00:00 | 00:00:00 | |
| OE5MMP-10 | 2026-09-04 11:28:18 | 49.30314 | 12.62815 | 119° | 89km/h | 12661m | 3.1m/s | -61.0°C | 52.8% | 189.1hPa | 2.7V | 00:00:00 | 01:25:39 | 00:00:00 | |
| DL6DJ-15 | 2026-09-04 11:28:15 | 49.30344 | 12.62723 | 115° | 88km/h | 12649m | 3.4m/s | -60.9°C | 41.5% | 189.5hPa | 2.7V | 00:00:00 | 00:00:00 | 00:00:00 | |
| PG1ADW-2 | 2026-09-04 11:28:14 | 49.30353 | 12.62692 | 117° | 91km/h | 12645m | 4.6m/s | -60.9°C | 52.1% | 189.5hPa | 2.7V | 00:00:00 | 00:00:00 | 00:00:00 | |
| OE5DXL-15 | 2026-09-04 11:28:13 | 49.30364 | 12.62662 | 118° | 91km/h | 12641m | 3.4m/s | -60.8°C | 53.1% | 189.7hPa | 2.7V | 00:00:00 | 00:00:00 | 00:00:00 | |
| SONDE2-11 | 2026-09-04 11:28:11 | 49.30384 | 12.62600 | 116° | 89km/h | 12634m | 4.4m/s | -60.7°C | 43.7% | 190.0hPa | 2.7V | 00:00:00 | 00:00:00 | 00:00:00 | |
| DL1JEZ-13 | 2026-09-04 11:28:10 | 49.30384 | 12.62600 | 117° | 89km/h | 12634m | 4.4m/s | -60.7°C | 0% | 0hPa | 2.7V | 00:00:00 | 00:00:00 | 00:00:00 | |
| OE5MMP-10 | 2026-09-04 11:28:08 | 49.30414 | 12.62506 | 117° | 91km/h | 12622m | 3.5m/s | -60.6°C | 52.6% | 190.3hPa | 2.7V | 04:39:00 | 01:25:29 | 00:00:00 | |
| DO8TBO-1 | 2026-09-04 11:28:07 | 49.30425 | 12.62474 | 117° | 91km/h | 12619m | 2.8m/s | -60.6°C | 51.9% | 190.3hPa | 2.7V | 04:39:00 | 01:25:28 | 00:00:00 | |
| DO9HM | 2026-09-04 11:28:00 | 49.30486 | 12.62285 | 117° | 93km/h | 12596m | 4.0m/s | -60.4°C | 48.3% | 191.1hPa | 2.7V | 04:40:00 | 00:00:00 | 00:00:00 | |
| OE5MMP-10 | 2026-09-04 11:27:58 | 49.30516 | 12.62186 | 116° | 88km/h | 12585m | 4.6m/s | -60.3°C | 57.0% | 191.4hPa | 2.7V | 00:00:00 | 01:25:19 | 00:00:00 | |
| PG1ADW-2 | 2026-09-04 11:27:54 | 49.30556 | 12.62060 | 115° | 89km/h | 12570m | 3.1m/s | -60.3°C | 57.6% | 191.9hPa | 2.7V | 00:00:00 | 00:00:00 | 00:00:00 | |
| ANDY1245 | 2026-09-04 11:27:51 | 49.30584 | 12.61970 | 117° | 84km/h | 12558m | 3.0m/s | 0°C | 0% | 192.3hPa | 2.7V | 00:00:00 | 00:00:00 | 00:00:00 | |
| DO3MHA-11 | 2026-09-04 11:27:48 | 49.30612 | 12.61879 | 115° | 95km/h | 12548m | 2.4m/s | -59.9°C | 55.5% | 192.6hPa | 2.7V | 00:00:00 | 01:25:09 | 00:00:00 | |
| OE5WHR-10 | 2026-09-04 11:27:47 | 49.30621 | 12.61847 | 115° | 91km/h | 12545m | 3.7m/s | -59.8°C | 54.9% | 192.7hPa | 2.7V | 00:00:00 | 01:25:08 | 00:00:00 | |
| OE5DRO-10 | 2026-09-04 11:27:46 | 49.30631 | 12.61814 | 115° | 93km/h | 12541m | 4.0m/s | -59.8°C | 55.1% | 192.8hPa | 2.7V | 00:00:00 | 00:00:00 | 00:00:00 | |
| DL6DJ-15 | 2026-09-04 11:27:44 | 49.30651 | 12.61747 | 113° | 95km/h | 12532m | 4.3m/s | -59.7°C | 45.4% | 193.1hPa | 2.7V | 00:00:00 | 00:00:00 | 00:00:00 | |
| OE5DXL-15 | 2026-09-04 11:27:43 | 49.30660 | 12.61713 | 113° | 89km/h | 12529m | 3.0m/s | -59.8°C | 57.9% | 193.2hPa | 2.7V | 00:00:00 | 00:00:00 | 00:00:00 | |
| SONDE2-11 | 2026-09-04 11:27:40 | 49.30689 | 12.61610 | 112° | 93km/h | 12517m | 3.9m/s | -59.9°C | 50.3% | 193.6hPa | 2.7V | 00:00:00 | 00:00:00 | 00:00:00 | |
| ANDY1245 | 2026-09-04 11:27:39 | 49.30690 | 12.61610 | 113° | 95km/h | 12518m | 3.9m/s | 0°C | 0% | 193.5hPa | 2.7V | 00:00:00 | 00:00:00 | 00:00:00 | |
| DO3MHA-11 | 2026-09-04 11:27:38 | 49.30706 | 12.61544 | 110° | 88km/h | 12510m | 3.5m/s | -59.6°C | 59.0% | 193.7hPa | 2.7V | 00:00:00 | 01:24:59 | 00:00:00 | |
| DO8TBO-1 | 2026-09-04 11:27:37 | 49.30713 | 12.61513 | 111° | 89km/h | 12505m | 4.8m/s | -59.5°C | 58.3% | 193.9hPa | 2.7V | 00:00:00 | 01:24:58 | 00:00:00 | |
| PG1ADW-2 | 2026-09-04 11:27:34 | 49.30736 | 12.61423 | 111° | 89km/h | 12493m | 4.7m/s | -59.4°C | 60.5% | 194.2hPa | 2.7V | 04:40:00 | 00:00:00 | 00:00:00 | |
| OE5MMP-10 | 2026-09-04 11:27:28 | 49.30788 | 12.61230 | 114° | 89km/h | 12471m | 4.6m/s | -59.3°C | 59.6% | 195.0hPa | 2.7V | 00:00:00 | 01:24:49 | 00:00:00 | |
| OE5DRO-10 | 2026-09-04 11:27:27 | 49.30797 | 12.61197 | 113° | 89km/h | 12467m | 3.5m/s | -59.3°C | 59.6% | 195.1hPa | 2.7V | 00:00:00 | 00:00:00 | 00:00:00 | |
| OE5WHR-10 | 2026-09-04 11:27:26 | 49.30806 | 12.61164 | 112° | 89km/h | 12463m | 3.4m/s | -59.6°C | 60.5% | 195.2hPa | 2.7V | 00:00:00 | 00:00:00 | 00:00:00 | |
| OE5GOL-10 | 2026-09-04 11:27:21 | 49.30845 | 12.61000 | 108° | 89km/h | 12443m | 3.3m/s | 0°C | 0% | 0hPa | 2.7V | 00:00:00 | 01:24:42 | 00:00:00 | |
| DO9HM | 2026-09-04 11:27:19 | 49.30859 | 12.60936 | 111° | 86km/h | 12434m | 3.9m/s | -59.0°C | 45.7% | 196.2hPa | 2.7V | 00:00:00 | 00:00:00 | 00:00:00 | |
| OE5MMP-10 | 2026-09-04 11:27:18 | 49.30867 | 12.60905 | 111° | 91km/h | 12431m | 2.6m/s | -59.0°C | 56.0% | 196.2hPa | 2.7V | 04:40:00 | 01:24:39 | 00:00:00 | |
| EDDB2-11 | 2026-09-04 11:27:17 | 49.30874 | 12.60873 | 110° | 88km/h | 12427m | 4.2m/s | -59.1°C | 45.7% | 196.3hPa | 2.7V | 00:00:00 | 00:00:00 | 00:00:00 | |
| PG1ADW-2 | 2026-09-04 11:27:14 | 49.30898 | 12.60772 | 110° | 89km/h | 12415m | 3.6m/s | -58.6°C | 53.1% | 196.7hPa | 2.7V | 00:00:00 | 01:24:35 | 00:00:00 | |
| OE5DXL-15 | 2026-09-04 11:27:13 | 49.30906 | 12.60738 | 110° | 88km/h | 12411m | 4.1m/s | -58.6°C | 52.7% | 196.8hPa | 2.7V | 00:00:00 | 00:00:00 | 00:00:00 | |
| SONCRA | 2026-09-04 11:27:09 | 49.30939 | 12.60606 | 110° | 89km/h | 12395m | 4.8m/s | -59.1°C | 48.4% | 197.4hPa | 2.7V | 00:00:00 | 00:00:00 | 00:00:00 | |
| DO3MHA-11 | 2026-09-04 11:27:08 | 49.30946 | 12.60573 | 110° | 88km/h | 12391m | 3.6m/s | -59.0°C | 60.0% | 197.4hPa | 2.7V | 00:00:00 | 01:24:29 | 00:00:00 | |
| DO8TBO-1 | 2026-09-04 11:27:07 | 49.30954 | 12.60540 | 109° | 88km/h | 12387m | 3.4m/s | -59.1°C | 60.2% | 197.6hPa | 2.7V | 00:00:00 | 01:24:28 | 00:00:00 | |
| EDDB2-12 | 2026-09-04 11:27:06 | 49.30961 | 12.60508 | 108° | 88km/h | 12383m | 4.9m/s | -59.2°C | 48.4% | 197.7hPa | 2.7V | 00:00:00 | 00:00:00 | 00:00:00 | |
| OE5WHR-10 | 2026-09-04 11:27:05 | 49.30968 | 12.60475 | 108° | 88km/h | 12379m | 3.8m/s | -59.1°C | 57.5% | 197.8hPa | 2.7V | 04:40:00 | 00:00:00 | 00:00:00 | |
| EDDB2-11 | 2026-09-04 11:26:46 | 49.31099 | 12.59830 | 105° | 88km/h | 12297m | 4.8m/s | -58.4°C | 46.9% | 200.5hPa | 2.7V | 00:00:00 | 00:00:00 | 00:00:00 | |
| DO3MHA-11 | 2026-09-04 11:26:45 | 49.31099 | 12.59830 | 106° | 89km/h | 12297m | 4.8m/s | -58.3°C | 57.0% | 200.4hPa | 2.7V | 00:00:00 | 01:24:06 | 00:00:00 | |
| OE5WHR-10 | 2026-09-04 11:26:44 | 49.31105 | 12.59797 | 106° | 89km/h | 12293m | 4.3m/s | -58.3°C | 57.7% | 200.6hPa | 2.7V | 00:00:00 | 01:24:05 | 00:00:00 | |
| OE5DXL-15 | 2026-09-04 11:26:43 | 49.31111 | 12.59764 | 107° | 89km/h | 12289m | 3.7m/s | -58.2°C | 57.4% | 200.7hPa | 2.7V | 04:41:00 | 01:24:04 | 00:00:00 | |
| OE3JTB-15 | 2026-09-04 11:26:42 | 49.31118 | 12.59731 | 108° | 89km/h | 12284m | 5.0m/s | -58.2°C | 56.8% | 200.9hPa | 2.7V | 04:41:00 | 01:24:03 | 00:00:00 | |
| OE5DRO-10 | 2026-09-04 11:26:40 | 49.31132 | 12.59666 | 110° | 89km/h | 12276m | 4.6m/s | -58.0°C | 54.8% | 201.1hPa | 2.7V | 00:00:00 | 00:00:00 | 00:00:00 | |
| OE5MMP-10 | 2026-09-04 11:26:38 | 49.31147 | 12.59601 | 110° | 89km/h | 12267m | 3.5m/s | -58.1°C | 57.0% | 201.5hPa | 2.7V | 00:00:00 | 01:23:59 | 00:00:00 | |
| DO8TBO-1 | 2026-09-04 11:26:37 | 49.31155 | 12.59569 | 110° | 89km/h | 12263m | 5.0m/s | -58.1°C | 56.0% | 201.5hPa | 2.7V | 00:00:00 | 01:23:58 | 00:00:00 | |
| DO3MHA-11 | 2026-09-04 11:26:35 | 49.31168 | 12.59504 | 106° | 91km/h | 12255m | 3.7m/s | -58.1°C | 53.5% | 201.8hPa | 2.7V | 04:41:00 | 01:23:56 | 00:00:00 | |
| PG1ADW-2 | 2026-09-04 11:26:34 | 49.31174 | 12.59471 | 105° | 89km/h | 12251m | 4.8m/s | -58.1°C | 53.8% | 202.0hPa | 2.7V | 00:00:00 | 00:00:00 | 00:00:00 | |
| ANDY1245 | 2026-09-04 11:26:32 | 49.31179 | 12.59438 | 104° | 86km/h | 12247m | 4.2m/s | 0°C | 0% | 202.2hPa | 2.7V | 04:41:00 | 00:00:00 | 00:00:00 | |
| OE5MMP-10 | 2026-09-04 11:26:28 | 49.31209 | 12.59269 | 107° | 89km/h | 12226m | 4.7m/s | -57.6°C | 51.1% | 202.8hPa | 2.7V | 04:41:00 | 01:23:49 | 00:00:00 | |
| ANDY1245 | 2026-09-04 11:26:27 | 49.31209 | 12.59269 | 107° | 93km/h | 12226m | 4.7m/s | 0°C | 0% | 0hPa | 2.7V | 04:41:00 | 00:00:00 | 00:00:00 | |
| DO3MHA-11 | 2026-09-04 11:26:25 | 49.31230 | 12.59165 | 108° | 88km/h | 12215m | 4.4m/s | -57.2°C | 50.9% | 203.2hPa | 2.7V | 00:00:00 | 01:23:46 | 00:00:00 | |
| OE5WHR-10 | 2026-09-04 11:26:23 | 49.31243 | 12.59097 | 105° | 88km/h | 12206m | 5.0m/s | -56.9°C | 52.7% | 203.4hPa | 2.7V | 00:00:00 | 00:00:00 | 00:00:00 | |
| OE5MMP-10 | 2026-09-04 11:26:18 | 49.31265 | 12.58933 | 103° | 89km/h | 12186m | 3.3m/s | -56.6°C | 53.7% | 204.1hPa | 2.7V | 00:00:00 | 01:23:39 | 00:00:00 | |
| OE5GOL-10 | 2026-09-04 11:26:17 | 49.31270 | 12.58901 | 104° | 88km/h | 12183m | 4.0m/s | 0°C | 0% | 0hPa | 2.7V | 00:00:00 | 01:23:38 | 00:00:00 | |
| DO3MHA-11 | 2026-09-04 11:26:15 | 49.31280 | 12.58835 | 105° | 89km/h | 12174m | 4.0m/s | -56.9°C | 54.1% | 204.5hPa | 2.7V | 00:00:00 | 01:23:36 | 00:00:00 | |
| PG1ADW-2 | 2026-09-04 11:26:14 | 49.31286 | 12.58801 | 105° | 89km/h | 12170m | 3.9m/s | -57.0°C | 54.1% | 204.5hPa | 2.7V | 00:00:00 | 00:00:00 | 00:00:00 | |
| OE5DXL-15 | 2026-09-04 11:26:13 | 49.31293 | 12.58766 | 107° | 89km/h | 12166m | 5.0m/s | -56.7°C | 53.0% | 204.7hPa | 2.7V | 00:00:00 | 00:00:00 | 00:00:00 | |
| DO9HM | 2026-09-04 11:26:12 | 49.31299 | 12.58732 | 109° | 93km/h | 12161m | 4.7m/s | -56.5°C | 42.7% | 204.9hPa | 2.7V | 00:00:00 | 00:00:00 | 00:00:00 | |
| DL6DJ-15 | 2026-09-04 11:26:11 | 49.31314 | 12.58665 | 107° | 89km/h | 12152m | 5.3m/s | -57.2°C | 43.6% | 205.4hPa | 2.7V | 00:00:00 | 00:00:00 | 00:00:00 | |
| OE5MMP-10 | 2026-09-04 11:26:08 | 49.31326 | 12.58599 | 105° | 88km/h | 12144m | 2.9m/s | -57.0°C | 52.2% | 205.5hPa | 2.7V | 00:00:00 | 01:23:29 | 00:00:00 | |
| DO8TBO-1 | 2026-09-04 11:26:07 | 49.31332 | 12.58567 | 105° | 89km/h | 12140m | 4.7m/s | -57.0°C | 52.0% | 205.6hPa | 2.7V | 00:00:00 | 01:23:28 | 00:00:00 | |
| DO3MHA-11 | 2026-09-04 11:26:05 | 49.31342 | 12.58504 | 105° | 89km/h | 12131m | 4.8m/s | -56.8°C | 52.5% | 205.8hPa | 2.7V | 00:00:00 | 01:23:26 | 00:00:00 | |
| EDDB2-12 | 2026-09-04 11:26:04 | 49.31348 | 12.58471 | 102° | 86km/h | 12126m | 4.5m/s | -56.8°C | 42.5% | 206.0hPa | 2.7V | 00:00:00 | 00:00:00 | 00:00:00 | |
| OE5WHR-10 | 2026-09-04 11:26:02 | 49.31358 | 12.58405 | 106° | 89km/h | 12119m | 4.7m/s | -56.8°C | 51.5% | 206.3hPa | 2.7V | 00:00:00 | 00:00:00 | 00:00:00 | |
| OE5MMP-10 | 2026-09-04 11:25:58 | 49.31385 | 12.58272 | 107° | 91km/h | 12101m | 4.8m/s | -56.3°C | 52.4% | 206.9hPa | 2.7V | 00:00:00 | 01:23:19 | 00:00:00 | |
| DO3MHA-11 | 2026-09-04 11:25:55 | 49.31405 | 12.58169 | 107° | 89km/h | 12089m | 4.7m/s | -56.4°C | 53.0% | 207.3hPa | 2.7V | 00:00:00 | 01:23:16 | 00:00:00 | |
| PG1ADW-2 | 2026-09-04 11:25:54 | 49.31411 | 12.58135 | 107° | 89km/h | 12085m | 3.5m/s | -56.3°C | 52.7% | 207.4hPa | 2.7V | 04:42:00 | 01:23:15 | 00:00:00 | |
| DO9HM | 2026-09-04 11:25:51 | 49.31423 | 12.58067 | 105° | 93km/h | 12076m | 4.1m/s | -56.4°C | 43.1% | 207.7hPa | 2.7V | 04:42:00 | 00:00:00 | 00:00:00 | |
| OE5MMP-10 | 2026-09-04 11:25:48 | 49.31447 | 12.57932 | 107° | 88km/h | 12060m | 3.7m/s | -56.3°C | 50.0% | 208.2hPa | 2.7V | 00:00:00 | 01:23:09 | 00:00:00 | |
| DO3MHA-11 | 2026-09-04 11:25:45 | 49.31465 | 12.57834 | 106° | 88km/h | 12048m | 4.0m/s | -56.1°C | 50.9% | 208.6hPa | 2.7V | 04:42:00 | 01:23:06 | 00:00:00 | |
| EDDB2-11 | 2026-09-04 11:25:44 | 49.31476 | 12.57772 | 105° | 82km/h | 12039m | 4.0m/s | -55.9°C | 43.3% | 209.0hPa | 2.7V | 00:00:00 | 00:00:00 | 00:00:00 | |
| OE5DXL-15 | 2026-09-04 11:25:43 | 49.31476 | 12.57772 | 106° | 88km/h | 12039m | 3.9m/s | -55.8°C | 52.3% | 208.9hPa | 2.7V | 00:00:00 | 00:00:00 | 00:00:00 | |
| OE3JTB-15 | 2026-09-04 11:25:42 | 49.31481 | 12.57740 | 104° | 88km/h | 12035m | 5.2m/s | 0°C | 0% | 0hPa | 2.7V | 00:00:00 | 00:00:00 | 00:00:00 | |
| OE5WHR-10 | 2026-09-04 11:25:41 | 49.31486 | 12.57708 | 104° | 89km/h | 12030m | 4.3m/s | -55.8°C | 52.8% | 209.2hPa | 2.7V | 00:00:00 | 01:23:02 | 00:00:00 | |
| DL6DJ-15 | 2026-09-04 11:25:40 | 49.31497 | 12.57640 | 104° | 89km/h | 12022m | 4.3m/s | -56.0°C | 41.9% | 209.5hPa | 2.7V | 00:00:00 | 00:00:00 | 00:00:00 | |
| OE5MMP-10 | 2026-09-04 11:25:38 | 49.31503 | 12.57606 | 106° | 88km/h | 12018m | 4.4m/s | -55.9°C | 51.3% | 209.6hPa | 2.7V | 04:42:00 | 01:22:59 | 00:00:00 | |
| DO8TBO-1 | 2026-09-04 11:25:37 | 49.31510 | 12.57573 | 107° | 89km/h | 12014m | 3.3m/s | -55.8°C | 51.1% | 209.7hPa | 2.7V | 04:42:00 | 01:22:58 | 00:00:00 | |
| SONDE2-11 | 2026-09-04 11:25:36 | 49.31516 | 12.57540 | 106° | 89km/h | 12010m | 4.4m/s | -55.7°C | 42.3% | 209.9hPa | 2.7V | 00:00:00 | 00:00:00 | 00:00:00 | |
| DO3MHA-11 | 2026-09-04 11:25:35 | 49.31523 | 12.57506 | 107° | 88km/h | 12006m | 4.8m/s | -55.5°C | 50.5% | 210.0hPa | 2.7V | 00:00:00 | 01:22:56 | 00:00:00 | |
| PG1ADW-2 | 2026-09-04 11:25:34 | 49.31530 | 12.57471 | 107° | 88km/h | 12002m | 3.5m/s | -55.7°C | 51.4% | 210.1hPa | 2.7V | 00:00:00 | 00:00:00 | 00:00:00 | |
| EDDB2-12 | 2026-09-04 11:25:33 | 49.31536 | 12.57437 | 106° | 89km/h | 11998m | 4.3m/s | -55.7°C | 42.9% | 210.3hPa | 2.7V | 00:00:00 | 00:00:00 | 00:00:00 | |
| DO9HM | 2026-09-04 11:25:30 | 49.31548 | 12.57373 | 108° | 82km/h | 11989m | 4.0m/s | -55.2°C | 42.3% | 210.6hPa | 2.7V | 04:42:00 | 00:00:00 | 00:00:00 | |
| OE5MMP-10 | 2026-09-04 11:25:28 | 49.31566 | 12.57281 | 107° | 91km/h | 11978m | 4.0m/s | -55.4°C | 54.4% | 211.0hPa | 2.7V | 00:00:00 | 01:22:49 | 00:00:00 | |
| OE5GOL-10 | 2026-09-04 11:25:26 | 49.31579 | 12.57215 | 108° | 89km/h | 11970m | 3.7m/s | 0°C | 0% | 0hPa | 2.7V | 00:00:00 | 01:22:47 | 00:00:00 | |
| DO3MHA-11 | 2026-09-04 11:25:25 | 49.31586 | 12.57181 | 107° | 89km/h | 11966m | 3.8m/s | -55.3°C | 51.4% | 211.3hPa | 2.7V | 00:00:00 | 01:22:46 | 00:00:00 | |
| OE5WHR-10 | 2026-09-04 11:25:20 | 49.31617 | 12.57011 | 107° | 88km/h | 11945m | 4.4m/s | -55.2°C | 51.5% | 212.1hPa | 2.7V | 04:42:00 | 00:00:00 | 00:00:00 | |
| OE5MMP-10 | 2026-09-04 11:25:18 | 49.31630 | 12.56944 | 107° | 88km/h | 11937m | 5.0m/s | -55.0°C | 51.5% | 212.3hPa | 2.7V | 00:00:00 | 01:22:39 | 00:00:00 | |
| DO3MHA-11 | 2026-09-04 11:25:15 | 49.31649 | 12.56849 | 108° | 89km/h | 11925m | 4.4m/s | -55.1°C | 50.7% | 212.7hPa | 2.7V | 00:00:00 | 01:22:36 | 00:00:00 | |
| PG1ADW-2 | 2026-09-04 11:25:14 | 49.31655 | 12.56817 | 109° | 88km/h | 11921m | 4.1m/s | -55.0°C | 51.4% | 212.9hPa | 2.7V | 00:00:00 | 00:00:00 | 00:00:00 | |
| OE5DXL-15 | 2026-09-04 11:25:13 | 49.31662 | 12.56784 | 109° | 88km/h | 11917m | 3.9m/s | -54.9°C | 50.6% | 213.1hPa | 2.7V | 00:00:00 | 00:00:00 | 00:00:00 | |
| DL1JEZ-13 | 2026-09-04 11:25:12 | 49.31662 | 12.56784 | 109° | 89km/h | 11917m | 3.9m/s | 0°C | 0% | 0hPa | 2.8V | 00:00:00 | 00:00:00 | 00:00:00 | |
| ANDY1245 | 2026-09-04 11:25:10 | 49.31676 | 12.56718 | 108° | 89km/h | 11908m | 4.4m/s | 0°C | 0% | 0hPa | 2.8V | 00:00:00 | 00:00:00 | 00:00:00 | |
| DL6DJ-15 | 2026-09-04 11:25:09 | 49.31695 | 12.56617 | 106° | 91km/h | 11896m | 4.3m/s | -54.6°C | 39.8% | 213.8hPa | 2.8V | 00:00:00 | 00:00:00 | 00:00:00 | |
| OE5MMP-10 | 2026-09-04 11:25:08 | 49.31695 | 12.56617 | 107° | 88km/h | 11896m | 4.2m/s | -54.6°C | 47.9% | 213.8hPa | 2.8V | 00:00:00 | 01:22:29 | 00:00:00 | |
| DO8TBO-1 | 2026-09-04 11:25:07 | 49.31702 | 12.56583 | 107° | 86km/h | 11892m | 4.2m/s | -54.7°C | 49.7% | 213.9hPa | 2.8V | 00:00:00 | 01:22:28 | 00:00:00 | |
| DO3MHA-11 | 2026-09-04 11:25:05 | 49.31714 | 12.56516 | 105° | 86km/h | 11883m | 4.1m/s | -54.6°C | 50.6% | 214.2hPa | 2.8V | 00:00:00 | 01:22:26 | 00:00:00 | |
| EDDB2-12 | 2026-09-04 11:25:03 | 49.31732 | 12.56418 | 106° | 86km/h | 11870m | 3.5m/s | -54.6°C | 41.3% | 214.6hPa | 2.8V | 00:00:00 | 00:00:00 | 00:00:00 | |
| OE5WHR-10 | 2026-09-04 11:24:59 | 49.31750 | 12.56324 | 105° | 86km/h | 11857m | 4.3m/s | -54.3°C | 49.5% | 215.1hPa | 2.8V | 00:00:00 | 00:00:00 | 00:00:00 | |
| OE5MMP-10 | 2026-09-04 11:24:58 | 49.31755 | 12.56293 | 106° | 88km/h | 11853m | 4.6m/s | -54.4°C | 49.8% | 215.2hPa | 2.8V | 00:00:00 | 01:22:19 | 00:00:00 | |
| DO3MHA-11 | 2026-09-04 11:24:55 | 49.31772 | 12.56199 | 104° | 88km/h | 11840m | 4.9m/s | -54.4°C | 49.3% | 215.6hPa | 2.8V | 04:43:00 | 01:22:16 | 00:00:00 | |
| PG1ADW-2 | 2026-09-04 11:24:54 | 49.31777 | 12.56167 | 103° | 88km/h | 11836m | 4.1m/s | -54.2°C | 49.6% | 0hPa | 2.8V | 00:00:00 | 00:00:00 | 00:00:00 | |
| DM0DOS-11 | 2026-09-04 11:24:52 | 49.31798 | 12.56032 | 104° | 91km/h | 11818m | 4.3m/s | 0°C | 0% | 0hPa | 2.8V | 00:00:00 | 01:22:11 | 00:00:00 | |
| OE5MMP-10 | 2026-09-04 11:24:48 | 49.31809 | 12.55965 | 105° | 84km/h | 11810m | 3.8m/s | -54.0°C | 45.0% | 216.6hPa | 2.7V | 04:43:00 | 01:22:09 | 00:00:00 | |
| OE5GOL-10 | 2026-09-04 11:24:47 | 49.31814 | 12.55932 | 107° | 84km/h | 11806m | 5.4m/s | 0°C | 0% | 0hPa | 2.8V | 00:00:00 | 01:22:08 | 00:00:00 | |
| DO9HM | 2026-09-04 11:24:46 | 49.31814 | 12.55932 | 107° | 88km/h | 11806m | 5.4m/s | -54.0°C | 36.9% | 216.8hPa | 2.8V | 04:43:00 | 00:00:00 | 00:00:00 | |
| DM0DOS-11 | 2026-09-04 11:24:45 | 49.31852 | 12.55714 | 103° | 84km/h | 11777m | 4.5m/s | 0°C | 0% | 0hPa | 2.8V | 00:00:00 | 01:22:01 | 00:00:00 | |
| DO3MHA-11 | 2026-09-04 11:24:45 | 49.31827 | 12.55869 | 107° | 86km/h | 11798m | 3.4m/s | -53.8°C | 44.4% | 217.1hPa | 2.7V | 00:00:00 | 01:22:06 | 00:00:00 | |
| OE5DXL-15 | 2026-09-04 11:24:43 | 49.31838 | 12.55807 | 104° | 86km/h | 11788m | 4.6m/s | -53.7°C | 45.0% | 217.4hPa | 2.7V | 00:00:00 | 00:00:00 | 00:00:00 | |
| EDDB2-11 | 2026-09-04 11:24:42 | 49.31847 | 12.55745 | 102° | 82km/h | 11781m | 3.8m/s | -53.7°C | 37.2% | 217.7hPa | 2.7V | 00:00:00 | 00:00:00 | 00:00:00 | |
| DL6DJ-15 | 2026-09-04 11:24:38 | 49.31867 | 12.55615 | 102° | 89km/h | 11764m | 4.4m/s | -53.4°C | 37.6% | 218.2hPa | 2.7V | 00:00:00 | 00:00:00 | 00:00:00 | |
| OE3JTB-15 | 2026-09-04 11:24:37 | 49.31867 | 12.55615 | 103° | 88km/h | 11764m | 4.3m/s | 0°C | 0% | 0hPa | 2.7V | 00:00:00 | 00:00:00 | 00:00:00 | |
| DO3MHA-11 | 2026-09-04 11:24:35 | 49.31877 | 12.55547 | 104° | 88km/h | 11757m | 3.7m/s | -53.4°C | 44.4% | 218.5hPa | 2.7V | 00:00:00 | 01:21:56 | 00:00:00 | |
| PG1ADW-2 | 2026-09-04 11:24:34 | 49.31882 | 12.55514 | 105° | 84km/h | 11753m | 4.7m/s | 0°C | 0% | 0hPa | 2.7V | 00:00:00 | 01:21:55 | 00:00:00 | |
| OE5DRO-10 | 2026-09-04 11:24:33 | 49.31888 | 12.55482 | 108° | 86km/h | 11749m | 4.3m/s | -53.3°C | 43.5% | 218.8hPa | 2.7V | 00:00:00 | 00:00:00 | 00:00:00 | |
| EDDB2-12 | 2026-09-04 11:24:31 | 49.31902 | 12.55419 | 108° | 88km/h | 11740m | 5.2m/s | -53.4°C | 37.7% | 219.2hPa | 2.7V | 00:00:00 | 00:00:00 | 00:00:00 | |
| OE5MMP-10 | 2026-09-04 11:24:28 | 49.31922 | 12.55321 | 107° | 86km/h | 11727m | 5.2m/s | -53.2°C | 43.1% | 219.6hPa | 2.7V | 00:00:00 | 01:21:49 | 00:00:00 | |
| DM0DOS-11 | 2026-09-04 11:24:26 | 49.31947 | 12.55159 | 100° | 86km/h | 11707m | 4.4m/s | 0°C | 0% | 0hPa | 2.7V | 00:00:00 | 01:21:44 | 00:00:00 | |
| DO3MHA-11 | 2026-09-04 11:24:25 | 49.31938 | 12.55225 | 103° | 84km/h | 11715m | 5.1m/s | -53.1°C | 42.1% | 220.0hPa | 2.7V | 00:00:00 | 01:21:46 | 00:00:00 | |
| OE5MMP-10 | 2026-09-04 11:24:18 | 49.31971 | 12.54999 | 105° | 84km/h | 11687m | 3.4m/s | -52.8°C | 40.6% | 220.9hPa | 2.7V | 00:00:00 | 01:21:39 | 00:00:00 | |
| OE5WHR-10 | 2026-09-04 11:24:17 | 49.31976 | 12.54968 | 106° | 84km/h | 11683m | 5.0m/s | -52.7°C | 40.1% | 221.1hPa | 2.7V | 00:00:00 | 00:00:00 | 00:00:00 | |
| DO3MHA-11 | 2026-09-04 11:24:15 | 49.31987 | 12.54907 | 104° | 84km/h | 11675m | 3.6m/s | -52.7°C | 39.4% | 221.4hPa | 2.7V | 00:00:00 | 01:21:36 | 00:00:00 | |
| OE5DRO-10 | 2026-09-04 11:24:14 | 49.31992 | 12.54876 | 104° | 84km/h | 11670m | 5.2m/s | -52.6°C | 39.1% | 221.6hPa | 2.7V | 04:43:00 | 00:00:00 | 00:00:00 | |
| OE5DXL-15 | 2026-09-04 11:24:13 | 49.31996 | 12.54845 | 102° | 86km/h | 11666m | 4.1m/s | -52.6°C | 38.7% | 221.7hPa | 2.7V | 04:43:00 | 00:00:00 | 00:00:00 | |
| ANDY1245 | 2026-09-04 11:24:10 | 49.32003 | 12.54780 | 100° | 86km/h | 11658m | 4.0m/s | 0°C | 0% | 0hPa | 2.7V | 00:00:00 | 00:00:00 | 00:00:00 | |
| PG1ADW-2 | 2026-09-04 11:24:09 | 49.32011 | 12.54715 | 102° | 84km/h | 11650m | 3.8m/s | 0°C | 0% | 0hPa | 2.7V | 04:43:00 | 00:00:00 | 00:00:00 | |
| OE5MMP-10 | 2026-09-04 11:24:08 | 49.32015 | 12.54684 | 104° | 86km/h | 11646m | 4.1m/s | -52.4°C | 37.3% | 222.4hPa | 2.7V | 00:00:00 | 01:21:29 | 00:00:00 | |
| DO8TBO-1 | 2026-09-04 11:24:07 | 49.32021 | 12.54652 | 105° | 84km/h | 11642m | 5.3m/s | -52.3°C | 37.0% | 222.6hPa | 2.7V | 00:00:00 | 01:21:28 | 00:00:00 | |
| DL6DJ-15 | 2026-09-04 11:24:06 | 49.32026 | 12.54619 | 105° | 88km/h | 11637m | 4.3m/s | -52.4°C | 30.6% | 222.8hPa | 2.7V | 00:00:00 | 00:00:00 | 00:00:00 | |
| DO3MHA-11 | 2026-09-04 11:24:05 | 49.32032 | 12.54586 | 106° | 84km/h | 11633m | 4.8m/s | -52.2°C | 36.8% | 222.9hPa | 2.7V | 04:43:00 | 01:21:26 | 00:00:00 | |
| ANDY1245 | 2026-09-04 11:24:04 | 49.32032 | 12.54586 | 106° | 89km/h | 11633m | 4.8m/s | 0°C | 0% | 0hPa | 2.7V | 00:00:00 | 00:00:00 | 00:00:00 | |
| SONDE2-11 | 2026-09-04 11:24:03 | 49.32045 | 12.54521 | 105° | 86km/h | 11624m | 3.7m/s | -52.1°C | 30.5% | 223.2hPa | 2.7V | 00:00:00 | 00:00:00 | 00:00:00 | |
| EDDB2-12 | 2026-09-04 11:24:00 | 49.32062 | 12.54425 | 103° | 84km/h | 11612m | 3.9m/s | -52.1°C | 30.8% | 223.7hPa | 2.7V | 00:00:00 | 00:00:00 | 00:00:00 | |
| OE5MMP-10 | 2026-09-04 11:23:58 | 49.32070 | 12.54363 | 100° | 86km/h | 11603m | 4.6m/s | -51.9°C | 37.6% | 224.0hPa | 2.7V | 04:43:00 | 01:21:19 | 00:00:00 | |
| OE5WHR-10 | 2026-09-04 11:23:56 | 49.32076 | 12.54301 | 99° | 86km/h | 11594m | 5.5m/s | -51.9°C | 37.4% | 224.2hPa | 2.7V | 00:00:00 | 00:00:00 | 00:00:00 | |
| DO3MHA-11 | 2026-09-04 11:23:55 | 49.32079 | 12.54270 | 102° | 88km/h | 11589m | 5.1m/s | -51.8°C | 37.5% | 224.4hPa | 2.7V | 00:00:00 | 01:21:16 | 00:00:00 | |
| ANDY1245 | 2026-09-04 11:23:52 | 49.32089 | 12.54208 | 105° | 84km/h | 11580m | 5.5m/s | 0°C | 0% | 0hPa | 2.7V | 00:00:00 | 00:00:00 | 00:00:00 | |
| PG1ADW-2 | 2026-09-04 11:23:49 | 49.32112 | 12.54077 | 106° | 86km/h | 11561m | 3.8m/s | 0°C | 0% | 0hPa | 2.7V | 00:00:00 | 00:00:00 | 00:00:00 | |
| OE5MMP-10 | 2026-09-04 11:23:47 | 49.32124 | 12.54008 | 104° | 84km/h | 11553m | 5.8m/s | -51.5°C | 36.9% | 225.7hPa | 2.7V | 00:00:00 | 01:21:08 | 00:00:00 | |
| DO3MHA-11 | 2026-09-04 11:23:45 | 49.32132 | 12.53945 | 100° | 86km/h | 11544m | 4.4m/s | -51.3°C | 36.6% | 225.9hPa | 2.7V | 00:00:00 | 01:21:06 | 00:00:00 | |
| DO9HM | 2026-09-04 11:23:44 | 49.32132 | 12.53945 | 100° | 78km/h | 11544m | 4.4m/s | -51.4°C | 30.3% | 226.0hPa | 2.7V | 00:00:00 | 00:00:00 | 00:00:00 | |
| OE5DXL-15 | 2026-09-04 11:23:43 | 49.32138 | 12.53886 | 100° | 84km/h | 11534m | 5.7m/s | -51.3°C | 36.6% | 226.3hPa | 2.7V | 00:00:00 | 00:00:00 | 00:00:00 | |
| ANDY1245 | 2026-09-04 11:23:42 | 49.32138 | 12.53886 | 100° | 75km/h | 11534m | 5.8m/s | 0°C | 0% | 0hPa | 2.7V | 00:00:00 | 00:00:00 | 00:00:00 | |
| EDDB2-11 | 2026-09-04 11:23:40 | 49.32158 | 12.53764 | 105° | 88km/h | 11515m | 5.6m/s | -51.3°C | 29.7% | 227.0hPa | 2.7V | 00:00:00 | 00:00:00 | 00:00:00 | |
| DO8TBO-1 | 2026-09-04 11:23:37 | 49.32170 | 12.53694 | 103° | 84km/h | 11505m | 3.6m/s | -51.1°C | 36.1% | 227.3hPa | 2.7V | 00:00:00 | 01:20:58 | 00:00:00 | |
| OE5MMP-10 | 2026-09-04 11:23:36 | 49.32175 | 12.53658 | 103° | 86km/h | 11501m | 4.1m/s | -51.1°C | 36.5% | 227.4hPa | 2.7V | 00:00:00 | 01:20:57 | 00:00:00 | |
| DO3MHA-11 | 2026-09-04 11:23:35 | 49.32180 | 12.53621 | 102° | 84km/h | 11497m | 4.1m/s | -51.1°C | 37.0% | 227.6hPa | 2.7V | 00:00:00 | 01:20:56 | 00:00:00 | |
| SONDE2-11 | 2026-09-04 11:23:32 | 49.32201 | 12.53489 | 105° | 80km/h | 11478m | 6.6m/s | -50.9°C | 31.4% | 228.3hPa | 2.7V | 00:00:00 | 00:00:00 | 00:00:00 | |
| OE3JTB-15 | 2026-09-04 11:23:31 | 49.32201 | 12.53489 | 106° | 80km/h | 11478m | 6.6m/s | 0°C | 0% | 0hPa | 2.7V | 00:00:00 | 00:00:00 | 00:00:00 | |
| PG1ADW-2 | 2026-09-04 11:23:29 | 49.32212 | 12.53430 | 112° | 82km/h | 11467m | 3.8m/s | 0°C | 0% | 0hPa | 2.7V | 00:00:00 | 00:00:00 | 00:00:00 | |
| OE5MMP-10 | 2026-09-04 11:23:26 | 49.32233 | 12.53342 | 107° | 84km/h | 11453m | 4.0m/s | -50.6°C | 39.2% | 229.1hPa | 2.7V | 00:00:00 | 01:20:47 | 00:00:00 | |
| DO3MHA-11 | 2026-09-04 11:23:25 | 49.32239 | 12.53310 | 105° | 84km/h | 11450m | 3.9m/s | -50.6°C | 39.4% | 229.2hPa | 2.7V | 00:00:00 | 01:20:46 | 00:00:00 | |
| DO9HM | 2026-09-04 11:23:24 | 49.32239 | 12.53310 | 106° | 86km/h | 11450m | 3.9m/s | -50.7°C | 33.0% | 229.3hPa | 2.7V | 00:00:00 | 00:00:00 | 00:00:00 | |
| OE5DRO-10 | 2026-09-04 11:23:17 | 49.32273 | 12.53053 | 105° | 82km/h | 11409m | 7.6m/s | -50.3°C | 40.2% | 230.7hPa | 2.7V | 00:00:00 | 00:00:00 | 00:00:00 | |
| OE5MMP-10 | 2026-09-04 11:23:16 | 49.32279 | 12.53023 | 105° | 82km/h | 11403m | 6.2m/s | -50.2°C | 40.3% | 230.9hPa | 2.7V | 00:00:00 | 01:20:37 | 00:00:00 | |
| DO3MHA-11 | 2026-09-04 11:23:15 | 49.32284 | 12.52993 | 105° | 84km/h | 11396m | 7.7m/s | -50.2°C | 40.7% | 231.2hPa | 2.7V | 04:44:00 | 01:20:36 | 00:00:00 | |
| OE5WHR-10 | 2026-09-04 11:23:14 | 49.32289 | 12.52962 | 104° | 80km/h | 11390m | 4.1m/s | -50.2°C | 40.6% | 231.3hPa | 2.7V | 00:00:00 | 00:00:00 | 00:00:00 | |
| OE5DXL-15 | 2026-09-04 11:23:13 | 49.32293 | 12.52931 | 102° | 80km/h | 11385m | 6.9m/s | -50.2°C | 40.1% | 231.5hPa | 2.7V | 00:00:00 | 00:00:00 | 00:00:00 | |
| EDDB2-11 | 2026-09-04 11:23:09 | 49.32303 | 12.52771 | 94° | 84km/h | 11357m | 6.0m/s | -50.0°C | 32.4% | 232.5hPa | 2.7V | 00:00:00 | 00:00:00 | 00:00:00 | |
| DO8TBO-1 | 2026-09-04 11:23:07 | 49.32305 | 12.52739 | 97° | 80km/h | 11351m | 5.5m/s | -49.7°C | 38.2% | 232.7hPa | 2.7V | 04:44:00 | 01:20:28 | 00:00:00 | |
| OE5MMP-10 | 2026-09-04 11:23:06 | 49.32308 | 12.52707 | 100° | 80km/h | 11346m | 5.4m/s | -49.8°C | 37.0% | 232.9hPa | 2.7V | 04:44:00 | 01:20:27 | 00:00:00 | |
| DO3MHA-11 | 2026-09-04 11:23:05 | 49.32312 | 12.52675 | 102° | 78km/h | 11342m | 4.3m/s | -49.8°C | 36.7% | 233.1hPa | 2.7V | 00:00:00 | 01:20:26 | 00:00:00 | |
| DL6DJ-15 | 2026-09-04 11:23:04 | 49.32317 | 12.52644 | 103° | 82km/h | 11337m | 5.4m/s | -49.8°C | 30.0% | 233.3hPa | 2.7V | 00:00:00 | 00:00:00 | 00:00:00 | |
| SONDE2-11 | 2026-09-04 11:23:01 | 49.32335 | 12.52524 | 101° | 78km/h | 11314m | 4.8m/s | -49.5°C | 29.3% | 234.1hPa | 2.7V | 00:00:00 | 00:00:00 | 00:00:00 | |
| OE5DRO-10 | 2026-09-04 11:22:58 | 49.32343 | 12.52465 | 102° | 80km/h | 11303m | 6.0m/s | -49.2°C | 35.3% | 234.4hPa | 2.7V | 00:00:00 | 00:00:00 | 00:00:00 | |
| OE5MMP-10 | 2026-09-04 11:22:56 | 49.32350 | 12.52406 | 101° | 80km/h | 11291m | 4.6m/s | -49.1°C | 35.1% | 234.8hPa | 2.7V | 00:00:00 | 01:20:17 | 00:00:00 | |
| DO3MHA-11 | 2026-09-04 11:22:55 | 49.32354 | 12.52377 | 101° | 80km/h | 11286m | 4.6m/s | -49.2°C | 35.0% | 235.1hPa | 2.7V | 00:00:00 | 01:20:16 | 00:00:00 | |
| OE5WHR-10 | 2026-09-04 11:22:53 | 49.32361 | 12.52318 | 101° | 80km/h | 11275m | 7.6m/s | -49.1°C | 36.0% | 235.6hPa | 2.7V | 00:00:00 | 00:00:00 | 00:00:00 | |
| PG1ADW-2 | 2026-09-04 11:22:49 | 49.32379 | 12.52196 | 103° | 80km/h | 11250m | 7.7m/s | 0°C | 0% | 0hPa | 2.7V | 00:00:00 | 00:00:00 | 00:00:00 | |
| OE5MMP-10 | 2026-09-04 11:22:46 | 49.32392 | 12.52103 | 102° | 82km/h | 11233m | 4.5m/s | -48.9°C | 35.3% | 236.9hPa | 2.7V | 00:00:00 | 01:20:07 | 00:00:00 | |
| DO3MHA-11 | 2026-09-04 11:22:45 | 49.32395 | 12.52072 | 101° | 82km/h | 11228m | 6.9m/s | -48.7°C | 35.0% | 237.1hPa | 2.9V | 00:00:00 | 01:20:06 | 00:00:00 | |
| OE5DXL-15 | 2026-09-04 11:22:43 | 49.32403 | 12.52009 | 102° | 80km/h | 11215m | 7.5m/s | -48.7°C | 33.7% | 237.6hPa | 2.7V | 00:00:00 | 00:00:00 | 00:00:00 | |
| DO9HM | 2026-09-04 11:22:41 | 49.32408 | 12.51977 | 103° | 84km/h | 11210m | 4.3m/s | -48.7°C | 27.9% | 237.7hPa | 2.7V | 04:45:00 | 00:00:00 | 00:00:00 | |
| OE5DRO-10 | 2026-09-04 11:22:39 | 49.32420 | 12.51881 | 102° | 78km/h | 11194m | 5.8m/s | -48.4°C | 32.1% | 238.3hPa | 2.7V | 04:45:00 | 00:00:00 | 00:00:00 | |
| EDDB2-11 | 2026-09-04 11:22:37 | 49.32429 | 12.51821 | 104° | 78km/h | 11182m | 7.2m/s | 0°C | -1.0% | 238.8hPa | 2.7V | 00:00:00 | 00:00:00 | 00:00:00 | |
| DO3MHA-11 | 2026-09-04 11:22:35 | 49.32439 | 12.51764 | 107° | 80km/h | 11172m | 5.9m/s | -48.3°C | 32.7% | 239.1hPa | 2.7V | 00:00:00 | 01:19:56 | 00:00:00 | |
| OE5MMP-10 | 2026-09-04 11:22:33 | 49.32450 | 12.51708 | 106° | 80km/h | 11163m | 4.8m/s | -48.1°C | 33.4% | 239.4hPa | 2.7V | 00:00:00 | 01:19:54 | 00:00:00 | |
| OE5WHR-10 | 2026-09-04 11:22:32 | 49.32455 | 12.51679 | 106° | 80km/h | 11158m | 4.6m/s | -48.1°C | 33.3% | 239.5hPa | 2.7V | 00:00:00 | 01:19:53 | 00:00:00 | |
| PG1ADW-2 | 2026-09-04 11:22:29 | 49.32471 | 12.51588 | 106° | 82km/h | 11144m | 4.5m/s | 0°C | 0% | 0hPa | 2.7V | 00:00:00 | 00:00:00 | 00:00:00 | |
| EDDB2-12 | 2026-09-04 11:22:27 | 49.32482 | 12.51528 | 104° | 82km/h | 11135m | 3.9m/s | 0°C | -1.0% | 240.6hPa | 2.7V | 00:00:00 | 00:00:00 | 00:00:00 | |
| DO3MHA-11 | 2026-09-04 11:22:25 | 49.32492 | 12.51466 | 105° | 80km/h | 11124m | 8.5m/s | -47.7°C | 31.8% | 240.9hPa | 2.7V | 04:45:00 | 01:19:46 | 00:00:00 | |
| OE5MMP-10 | 2026-09-04 11:22:23 | 49.32502 | 12.51405 | 104° | 82km/h | 11111m | 7.7m/s | -47.6°C | 31.5% | 241.3hPa | 2.7V | 00:00:00 | 01:19:44 | 00:00:00 | |
| DO3MHA-11 | 2026-09-04 11:22:15 | 49.32536 | 12.51159 | 103° | 78km/h | 11065m | 5.3m/s | -47.1°C | 29.7% | 243.0hPa | 2.7V | 00:00:00 | 01:19:36 | 00:00:00 | |
| OE5DXL-15 | 2026-09-04 11:22:13 | 49.32547 | 12.51097 | 107° | 78km/h | 11052m | 4.7m/s | -47.1°C | 29.5% | 243.4hPa | 2.7V | 00:00:00 | 00:00:00 | 00:00:00 | |
| OE5MMP-10 | 2026-09-04 11:22:12 | 49.32553 | 12.51067 | 107° | 77km/h | 11046m | 8.8m/s | -47.0°C | 29.2% | 243.6hPa | 2.9V | 04:45:00 | 01:19:33 | 00:00:00 | |
| OE5WHR-10 | 2026-09-04 11:22:11 | 49.32558 | 12.51039 | 107° | 78km/h | 11039m | 4.6m/s | -47.0°C | 29.3% | 243.9hPa | 2.7V | 00:00:00 | 00:00:00 | 00:00:00 | |
| EDDB2-11 | 2026-09-04 11:22:07 | 49.32582 | 12.50898 | 101° | 78km/h | 11009m | 6.9m/s | 0°C | -1.0% | -1.0hPa | 2.9V | 00:00:00 | 00:00:00 | 00:00:00 | |
| DO8TBO-1 | 2026-09-04 11:22:06 | 49.32582 | 12.50898 | 102° | 78km/h | 11009m | 6.8m/s | -46.7°C | 28.5% | 244.9hPa | 2.9V | 00:00:00 | 01:19:27 | 00:00:00 | |
| DO3MHA-11 | 2026-09-04 11:22:05 | 49.32586 | 12.50868 | 103° | 78km/h | 11004m | 3.8m/s | -46.6°C | 28.4% | 245.1hPa | 2.9V | 00:00:00 | 01:19:26 | 00:00:00 | |
| DL6DJ-15 | 2026-09-04 11:22:02 | 49.32598 | 12.50778 | 102° | 78km/h | 10985m | 7.8m/s | -46.5°C | 23.4% | 245.8hPa | 2.9V | 00:00:00 | 00:00:00 | 00:00:00 | |
| SONCRA | 2026-09-04 11:21:59 | 49.32619 | 12.50630 | 104° | 78km/h | 10956m | 4.4m/s | 0°C | -1.0% | -1.0hPa | 2.9V | 00:00:00 | 00:00:00 | 00:00:00 | |
| DO9HM | 2026-09-04 11:21:58 | 49.32610 | 12.50689 | 104° | 77km/h | 10967m | 4.5m/s | -46.3°C | 23.6% | 246.5hPa | 2.9V | 04:46:00 | 00:00:00 | 00:00:00 | |
| DO3MHA-11 | 2026-09-04 11:21:55 | 49.32629 | 12.50571 | 105° | 80km/h | 10945m | 4.2m/s | -46.1°C | 27.8% | 247.3hPa | 2.9V | 00:00:00 | 01:19:16 | 00:00:00 | |
| OE5MMP-10 | 2026-09-04 11:21:52 | 49.32643 | 12.50478 | 102° | 80km/h | 10930m | 5.3m/s | -46.0°C | 26.8% | 247.8hPa | 2.9V | 00:00:00 | 01:19:13 | 00:00:00 | |
| OE5WHR-10 | 2026-09-04 11:21:50 | 49.32649 | 12.50417 | 98° | 80km/h | 10916m | 7.6m/s | -45.8°C | 26.6% | 248.3hPa | 2.9V | 04:46:00 | 00:00:00 | 00:00:00 | |
| DO3MHA-11 | 2026-09-04 11:21:45 | 49.32663 | 12.50266 | 100° | 80km/h | 10890m | 6.8m/s | -45.6°C | 24.4% | 249.2hPa | 2.9V | 00:00:00 | 01:19:06 | 00:00:00 | |
| OE5DXL-15 | 2026-09-04 11:21:43 | 49.32670 | 12.50205 | 101° | 82km/h | 10879m | 6.2m/s | -45.6°C | 23.9% | 249.7hPa | 2.7V | 04:46:00 | 00:00:00 | 00:00:00 | |
| OE5MMP-10 | 2026-09-04 11:21:42 | 49.32674 | 12.50175 | 103° | 84km/h | 10873m | 5.1m/s | -45.5°C | 24.0% | 249.9hPa | 2.7V | 00:00:00 | 01:19:03 | 00:00:00 | |
| DO8TBO-1 | 2026-09-04 11:21:36 | 49.32707 | 12.49998 | 107° | 84km/h | 10841m | 3.7m/s | -45.2°C | 29.4% | 251.2hPa | 2.7V | 00:00:00 | 01:18:57 | 00:00:00 | |
| DO3MHA-11 | 2026-09-04 11:21:35 | 49.32713 | 12.49967 | 105° | 84km/h | 10837m | 4.6m/s | -45.2°C | 30.2% | 251.4hPa | 2.7V | 04:46:00 | 01:18:56 | 00:00:00 | |
| OE5DRO-10 | 2026-09-04 11:21:34 | 49.32718 | 12.49935 | 103° | 84km/h | 10833m | 3.2m/s | -45.0°C | 30.7% | 251.5hPa | 2.7V | 00:00:00 | 00:00:00 | 00:00:00 | |
| OE5WHR-10 | 2026-09-04 11:21:29 | 49.32740 | 12.49774 | 101° | 84km/h | 10808m | 6.1m/s | -45.2°C | 35.9% | 252.6hPa | 2.7V | 00:00:00 | 01:18:50 | 00:00:00 | |
| SONDE2-11 | 2026-09-04 11:21:28 | 49.32749 | 12.49711 | 103° | 80km/h | 10797m | 5.0m/s | -45.2°C | 32.6% | 253.1hPa | 2.7V | 00:00:00 | 00:00:00 | 00:00:00 | |
| SONCRA | 2026-09-04 11:21:27 | 49.32749 | 12.49711 | 103° | 80km/h | 10797m | 5.0m/s | 0°C | -1.0% | -1.0hPa | 2.7V | 00:00:00 | 00:00:00 | 00:00:00 | |
| DO3MHA-11 | 2026-09-04 11:21:25 | 49.32758 | 12.49651 | 103° | 84km/h | 10787m | 5.2m/s | -44.9°C | 39.7% | 253.4hPa | 2.7V | 00:00:00 | 01:18:46 | 00:00:00 | |
| AM1SDL-15 | 2026-09-04 11:21:24 | 49.32762 | 12.49620 | 103° | 82km/h | 10780m | 7.5m/s | 0°C | 0% | 0hPa | 2.7V | 00:00:00 | 01:18:45 | 00:00:00 | |
| OE5MMP-10 | 2026-09-04 11:21:18 | 49.32789 | 12.49432 | 108° | 84km/h | 10748m | 2.6m/s | 0°C | 0% | 0hPa | 2.7V | 04:46:00 | 01:18:39 | 00:00:00 | |
| DO3MHA-11 | 2026-09-04 11:21:15 | 49.32808 | 12.49337 | 109° | 84km/h | 10734m | 6.2m/s | -44.2°C | 43.7% | 255.5hPa | 2.7V | 00:00:00 | 01:18:36 | 00:00:00 | |
| OE5DXL-15 | 2026-09-04 11:21:13 | 49.32822 | 12.49278 | 109° | 88km/h | 10724m | 5.5m/s | -44.3°C | 45.9% | 255.8hPa | 2.7V | 00:00:00 | 00:00:00 | 00:00:00 | |
| AM1SDL-15 | 2026-09-04 11:21:12 | 49.32828 | 12.49249 | 107° | 86km/h | 10720m | 4.0m/s | 0°C | 0% | 0hPa | 2.7V | 00:00:00 | 01:18:33 | 00:00:00 | |
| OE5WHR-10 | 2026-09-04 11:21:08 | 49.32852 | 12.49120 | 106° | 88km/h | 10699m | 4.9m/s | -44.3°C | 48.9% | 256.9hPa | 2.7V | 00:00:00 | 00:00:00 | 00:00:00 | |
| DO8TBO-1 | 2026-09-04 11:21:06 | 49.32865 | 12.49055 | 108° | 88km/h | 10687m | 4.5m/s | -44.2°C | 50.5% | 257.4hPa | 2.9V | 00:00:00 | 01:18:27 | 00:00:00 | |
| DO3MHA-11 | 2026-09-04 11:21:05 | 49.32871 | 12.49023 | 107° | 86km/h | 10681m | 7.9m/s | -44.2°C | 51.9% | 257.6hPa | 2.9V | 00:00:00 | 01:18:26 | 00:00:00 | |
| AM1SDL-15 | 2026-09-04 11:21:00 | 49.32901 | 12.48864 | 110° | 88km/h | 10652m | 5.0m/s | 0°C | 0% | 0hPa | 2.9V | 00:00:00 | 01:18:21 | 00:00:00 | |
| ANDY1245 | 2026-09-04 11:20:59 | 49.32901 | 12.48864 | 111° | 84km/h | 10652m | 5.0m/s | 0°C | 0% | 0hPa | 2.9V | 00:00:00 | 00:00:00 | 00:00:00 | |
| OE5MMP-10 | 2026-09-04 11:20:58 | 49.32916 | 12.48802 | 112° | 89km/h | 10641m | 4.9m/s | 0°C | 0% | 0hPa | 2.9V | 00:00:00 | 01:18:19 | 00:00:00 | |
| OE5DRO-10 | 2026-09-04 11:20:56 | 49.32931 | 12.48741 | 108° | 89km/h | 10631m | 5.1m/s | -43.9°C | 49.5% | 259.4hPa | 2.9V | 04:46:00 | 00:00:00 | 00:00:00 | |
| DO3MHA-11 | 2026-09-04 11:20:55 | 49.32937 | 12.48708 | 104° | 89km/h | 10627m | 3.7m/s | -43.8°C | 49.2% | 259.7hPa | 2.9V | 00:00:00 | 01:18:16 | 00:00:00 | |
| DO9HM | 2026-09-04 11:20:54 | 49.32937 | 12.48708 | 105° | 88km/h | 10627m | 3.7m/s | -43.9°C | 43.2% | 259.7hPa | 2.9V | 00:00:00 | 00:00:00 | 00:00:00 | |
| OE5MMP-10 | 2026-09-04 11:20:48 | 49.32968 | 12.48468 | 106° | 88km/h | 10585m | 4.5m/s | 0°C | 0% | 0hPa | 2.9V | 00:00:00 | 01:18:09 | 00:00:00 | |
| OE5WHR-10 | 2026-09-04 11:20:47 | 49.32974 | 12.48435 | 106° | 88km/h | 10580m | 7.2m/s | -43.2°C | 45.9% | 261.5hPa | 2.9V | 00:00:00 | 00:00:00 | 00:00:00 | |
| DO3MHA-11 | 2026-09-04 11:20:45 | 49.32986 | 12.48370 | 107° | 89km/h | 10568m | 8.0m/s | -43.2°C | 44.8% | 261.9hPa | 2.9V | 04:47:00 | 01:18:06 | 00:00:00 | |
| AM1SDL-15 | 2026-09-04 11:20:44 | 49.32992 | 12.48339 | 105° | 88km/h | 10562m | 3.6m/s | 0°C | 0% | 0hPa | 2.9V | 04:47:00 | 01:18:05 | 00:00:00 | |
| OE5DXL-15 | 2026-09-04 11:20:43 | 49.32997 | 12.48307 | 103° | 89km/h | 10557m | 6.9m/s | -43.1°C | 43.6% | 262.3hPa | 2.9V | 00:00:00 | 00:00:00 | 00:00:00 | |
| OE5MMP-10 | 2026-09-04 11:20:38 | 49.33022 | 12.48138 | 102° | 91km/h | 10528m | 4.6m/s | 0°C | 0% | 0hPa | 2.7V | 00:00:00 | 01:17:59 | 00:00:00 | |
| DB0NH | 2026-09-04 11:20:37 | 49.33027 | 12.48102 | 104° | 89km/h | 10523m | 6.8m/s | -42.8°C | 42.2% | 263.7hPa | 2.7V | 00:00:00 | 01:17:58 | 00:00:00 | |
| DO8TBO-1 | 2026-09-04 11:20:36 | 49.33033 | 12.48066 | 104° | 88km/h | 10518m | 3.3m/s | -42.6°C | 42.4% | 263.8hPa | 2.7V | 04:47:00 | 01:17:57 | 00:00:00 | |
| DO3MHA-11 | 2026-09-04 11:20:35 | 49.33038 | 12.48030 | 102° | 88km/h | 10513m | 6.0m/s | -42.6°C | 42.3% | 264.0hPa | 2.7V | 00:00:00 | 01:17:56 | 00:00:00 | |
| DO9HM | 2026-09-04 11:20:34 | 49.33038 | 12.48030 | 102° | 97km/h | 10513m | 6.1m/s | -42.6°C | 37.0% | 264.1hPa | 2.7V | 04:47:00 | 00:00:00 | 00:00:00 | |
| DL6DJ-15 | 2026-09-04 11:20:29 | 49.33065 | 12.47826 | 98° | 84km/h | 10481m | 7.6m/s | -42.4°C | 37.0% | 265.4hPa | 2.7V | 00:00:00 | 00:00:00 | 00:00:00 | |
| OE5WHR-10 | 2026-09-04 11:20:26 | 49.33073 | 12.47730 | 99° | 88km/h | 10465m | 4.6m/s | -42.2°C | 44.2% | 265.9hPa | 2.7V | 00:00:00 | 01:17:47 | 00:00:00 | |
| DO3MHA-11 | 2026-09-04 11:20:25 | 49.33077 | 12.47696 | 100° | 91km/h | 10460m | 5.7m/s | -42.2°C | 44.6% | 266.1hPa | 2.7V | 00:00:00 | 01:17:46 | 00:00:00 | |
| OE5DRO-10 | 2026-09-04 11:20:18 | 49.33118 | 12.47451 | 105° | 86km/h | 10424m | 6.4m/s | -41.9°C | 44.1% | 267.5hPa | 2.7V | 00:00:00 | 00:00:00 | 00:00:00 | |
| DO3MHA-11 | 2026-09-04 11:20:15 | 49.33131 | 12.47352 | 102° | 84km/h | 10408m | 5.1m/s | -41.7°C | 43.4% | 268.1hPa | 2.9V | 00:00:00 | 01:17:36 | 00:00:00 | |
| OE5DXL-15 | 2026-09-04 11:20:13 | 49.33140 | 12.47289 | 102° | 86km/h | 10398m | 6.8m/s | -41.6°C | 42.6% | 268.4hPa | 2.9V | 00:00:00 | 00:00:00 | 00:00:00 | |
| DB0NH | 2026-09-04 11:20:07 | 49.33175 | 12.47104 | 106° | 86km/h | 10364m | 7.2m/s | -41.3°C | 38.8% | 269.9hPa | 2.9V | 00:00:00 | 01:17:28 | 00:00:00 | |
| DO8TBO-1 | 2026-09-04 11:20:06 | 49.33181 | 12.47073 | 105° | 86km/h | 10358m | 4.3m/s | -41.3°C | 38.1% | 270.0hPa | 2.9V | 00:00:00 | 01:17:27 | 00:00:00 | |
| OE5WHR-10 | 2026-09-04 11:20:05 | 49.33187 | 12.47040 | 105° | 88km/h | 10353m | 6.4m/s | -41.2°C | 37.1% | 270.2hPa | 2.9V | 04:47:00 | 00:00:00 | 00:00:00 | |
| OE5MMP-10 | 2026-09-04 11:20:04 | 49.33192 | 12.47006 | 104° | 89km/h | 10347m | 5.6m/s | 0°C | 0% | 0hPa | 2.9V | 04:47:00 | 01:17:25 | 00:00:00 | |
| DL6DJ-15 | 2026-09-04 11:19:58 | 49.33228 | 12.46806 | 105° | 80km/h | 10313m | 6.2m/s | -41.0°C | 31.3% | 271.8hPa | 2.9V | 00:00:00 | 00:00:00 | 00:00:00 | |
| SONDE2-11 | 2026-09-04 11:19:54 | 49.33247 | 12.46683 | 100° | 84km/h | 10292m | 7.4m/s | -40.8°C | 31.9% | 272.7hPa | 2.9V | 00:00:00 | 00:00:00 | 00:00:00 | |
| OE5MMP-10 | 2026-09-04 11:19:51 | 49.33260 | 12.46584 | 102° | 88km/h | 10273m | 5.3m/s | 0°C | 0% | 0hPa | 2.9V | 00:00:00 | 01:17:12 | 00:00:00 | |
| AM1SDL-15 | 2026-09-04 11:19:47 | 49.33282 | 12.46449 | 106° | 82km/h | 10251m | 5.8m/s | 0°C | 0% | 0hPa | 2.9V | 00:00:00 | 01:17:08 | 00:00:00 | |
| DO9HM | 2026-09-04 11:19:46 | 49.33282 | 12.46449 | 106° | 91km/h | 10251m | 5.9m/s | -40.5°C | 25.1% | 274.3hPa | 2.9V | 00:00:00 | 00:00:00 | 00:00:00 | |
| DO3MHA-11 | 2026-09-04 11:19:45 | 49.33294 | 12.46382 | 106° | 82km/h | 10243m | 5.0m/s | -40.3°C | 26.5% | 274.6hPa | 2.9V | 00:00:00 | 01:17:06 | 00:00:00 | |
| OE5WHR-10 | 2026-09-04 11:19:44 | 49.33300 | 12.46351 | 106° | 82km/h | 10239m | 2.4m/s | -40.2°C | 26.1% | 274.8hPa | 2.9V | 00:00:00 | 00:00:00 | 00:00:00 | |
| OE5DXL-15 | 2026-09-04 11:19:43 | 49.33306 | 12.46320 | 106° | 82km/h | 10235m | 6.0m/s | -40.2°C | 24.8% | 274.9hPa | 2.9V | 00:00:00 | 00:00:00 | 00:00:00 | |
| OE5MMP-10 | 2026-09-04 11:19:41 | 49.33317 | 12.46259 | 107° | 80km/h | 10225m | 5.4m/s | 0°C | 0% | 0hPa | 2.9V | 00:00:00 | 01:17:02 | 00:00:00 | |
| OE5DRO-10 | 2026-09-04 11:19:40 | 49.33323 | 12.46229 | 108° | 82km/h | 10220m | 5.9m/s | -40.0°C | 24.4% | 275.7hPa | 2.9V | 00:00:00 | 00:00:00 | 00:00:00 | |
| DB0NH | 2026-09-04 11:19:37 | 49.33340 | 12.46137 | 105° | 77km/h | 10206m | 5.4m/s | -39.9°C | 23.8% | 276.2hPa | 2.9V | 00:00:00 | 01:16:58 | 00:00:00 | |
| DO8TBO-1 | 2026-09-04 11:19:36 | 49.33345 | 12.46108 | 104° | 80km/h | 10201m | 4.4m/s | -39.6°C | 24.1% | 276.4hPa | 2.9V | 00:00:00 | 01:16:57 | 00:00:00 | |
| DO3MHA-11 | 2026-09-04 11:19:35 | 49.33349 | 12.46078 | 102° | 82km/h | 10196m | 5.0m/s | -39.6°C | 24.4% | 276.6hPa | 2.9V | 00:00:00 | 01:16:56 | 00:00:00 | |
| AM1SDL-15 | 2026-09-04 11:19:34 | 49.33353 | 12.46048 | 102° | 82km/h | 10193m | 3.4m/s | 0°C | 0% | 0hPa | 2.9V | 00:00:00 | 01:16:55 | 00:00:00 | |
| DL6DJ-15 | 2026-09-04 11:19:27 | 49.33396 | 12.45832 | 106° | 82km/h | 10161m | 3.6m/s | -39.6°C | 20.6% | 278.1hPa | 2.9V | 00:00:00 | 00:00:00 | 00:00:00 | |
| DO3MHA-11 | 2026-09-04 11:19:25 | 49.33408 | 12.45770 | 108° | 80km/h | 10152m | 6.4m/s | -39.5°C | 24.5% | 278.6hPa | 2.9V | 00:00:00 | 01:16:46 | 00:00:00 | |
| OE5WHR-10 | 2026-09-04 11:19:23 | 49.33420 | 12.45710 | 109° | 80km/h | 10142m | 6.2m/s | -39.3°C | 24.8% | 278.9hPa | 2.9V | 00:00:00 | 01:16:44 | 00:00:00 | |
| OE5DRO-10 | 2026-09-04 11:19:21 | 49.33434 | 12.45648 | 109° | 82km/h | 10133m | 5.4m/s | -39.2°C | 25.0% | 279.3hPa | 2.9V | 04:48:00 | 00:00:00 | 00:00:00 | |
| AM1SDL-15 | 2026-09-04 11:19:18 | 49.33455 | 12.45558 | 110° | 80km/h | 10117m | 4.4m/s | 0°C | 0% | 0hPa | 2.9V | 00:00:00 | 01:16:39 | 00:00:00 | |
| DO3MHA-11 | 2026-09-04 11:19:15 | 49.33471 | 12.45472 | 104° | 80km/h | 10101m | 6.0m/s | -39.1°C | 25.8% | 280.6hPa | 2.9V | 00:00:00 | 01:16:36 | 00:00:00 | |
| OE5DXL-15 | 2026-09-04 11:19:13 | 49.33479 | 12.45413 | 99° | 82km/h | 10091m | 5.5m/s | -38.8°C | 26.4% | 280.9hPa | 2.9V | 04:48:00 | 00:00:00 | 00:00:00 | |
| DF9NV-10 | 2026-09-04 11:19:06 | 49.33513 | 12.45235 | 113° | 84km/h | 10064m | 5.2m/s | 0°C | 0% | 0hPa | 2.7V | 00:00:00 | 00:00:00 | 00:00:00 | |
| DO3MHA-11 | 2026-09-04 11:19:05 | 49.33527 | 12.45173 | 108° | 84km/h | 10053m | 4.5m/s | -38.4°C | 27.1% | 282.4hPa | 2.7V | 04:48:00 | 01:16:26 | 00:00:00 | |
| DL6DJ-15 | 2026-09-04 11:18:56 | 49.33576 | 12.44893 | 101° | 77km/h | 10011m | 4.2m/s | -38.2°C | 20.8% | 284.3hPa | 2.7V | 00:00:00 | 00:00:00 | 00:00:00 | |
| SONDE2-11 | 2026-09-04 11:18:52 | 49.33597 | 12.44771 | 107° | 84km/h | 9993m | 3.6m/s | -38.0°C | 19.1% | 285.1hPa | 2.7V | 00:00:00 | 00:00:00 | 00:00:00 | |
| DO3MHA-11 | 2026-09-04 11:18:45 | 49.33646 | 12.44555 | 110° | 82km/h | 9963m | 4.7m/s | -37.6°C | 21.5% | 286.3hPa | 2.7V | 00:00:00 | 01:16:06 | 00:00:00 | |
| OE5MMP-10 | 2026-09-04 11:18:43 | 49.33660 | 12.44491 | 109° | 84km/h | 9955m | 3.7m/s | 0°C | 0% | 0hPa | 2.9V | 00:00:00 | 01:16:04 | 00:00:00 | |
| AM1SDL-15 | 2026-09-04 11:18:42 | 49.33667 | 12.44459 | 109° | 80km/h | 9950m | 6.3m/s | 0°C | 0% | 0hPa | 2.9V | 00:00:00 | 01:16:03 | 00:00:00 | |
| OE5WHR-10 | 2026-09-04 11:18:41 | 49.33673 | 12.44429 | 108° | 80km/h | 9945m | 4.0m/s | -37.4°C | 19.2% | 287.1hPa | 2.9V | 00:00:00 | 00:00:00 | 00:00:00 | |
| OE5DRO-10 | 2026-09-04 11:18:37 | 49.33700 | 12.44315 | 109° | 80km/h | 9925m | 5.5m/s | -37.3°C | 18.2% | 287.9hPa | 2.9V | 00:00:00 | 00:00:00 | 00:00:00 | |
| DO8TBO-1 | 2026-09-04 11:18:36 | 49.33707 | 12.44285 | 109° | 82km/h | 9920m | 4.8m/s | -37.3°C | 18.0% | 288.1hPa | 2.9V | 00:00:00 | 01:15:57 | 00:00:00 | |
| OE5MMP-10 | 2026-09-04 11:18:27 | 49.33759 | 12.44017 | 110° | 80km/h | 9876m | 5.7m/s | 0°C | 0% | 0hPa | 2.9V | 00:00:00 | 01:15:48 | 00:00:00 | |
| DO3MHA-11 | 2026-09-04 11:18:25 | 49.33773 | 12.43960 | 111° | 80km/h | 9867m | 4.0m/s | -36.9°C | 17.3% | 290.4hPa | 2.9V | 00:00:00 | 01:15:46 | 00:00:00 | |
| OE5WHR-10 | 2026-09-04 11:18:20 | 49.33805 | 12.43808 | 106° | 80km/h | 9843m | 7.5m/s | -36.8°C | 16.0% | 291.5hPa | 2.9V | 04:49:00 | 01:15:41 | 00:00:00 | |
| OE5DRO-10 | 2026-09-04 11:18:18 | 49.33816 | 12.43751 | 108° | 80km/h | 9832m | 7.1m/s | -36.6°C | 15.4% | 291.9hPa | 2.9V | 00:00:00 | 00:00:00 | 00:00:00 | |
| DO9HM | 2026-09-04 11:18:16 | 49.33828 | 12.43693 | 110° | 78km/h | 9820m | 4.5m/s | -36.6°C | 13.1% | 292.5hPa | 2.9V | 00:00:00 | 00:00:00 | 00:00:00 | |
| DO3MHA-11 | 2026-09-04 11:18:15 | 49.33835 | 12.43664 | 111° | 84km/h | 9815m | 6.1m/s | -36.6°C | 15.5% | 292.6hPa | 2.9V | 04:49:00 | 01:15:36 | 00:00:00 | |
| OE5DXL-15 | 2026-09-04 11:18:13 | 49.33850 | 12.43605 | 111° | 80km/h | 9806m | 6.5m/s | -36.5°C | 16.0% | 293.0hPa | 2.9V | 00:00:00 | 00:00:00 | 00:00:00 | |
| DO8TBO-1 | 2026-09-04 11:18:06 | 49.33886 | 12.43384 | 105° | 80km/h | 9771m | 7.3m/s | -36.3°C | 16.4% | 294.6hPa | 2.9V | 04:49:00 | 01:15:27 | 00:00:00 | |
| DL6DJ-15 | 2026-09-04 11:17:54 | 49.33953 | 12.42995 | 101° | 82km/h | 9709m | 5.3m/s | -35.9°C | 13.4% | 297.1hPa | 2.9V | 00:00:00 | 00:00:00 | 00:00:00 | |
| SONDE2-11 | 2026-09-04 11:17:50 | 49.33972 | 12.42903 | 112° | 80km/h | 9696m | 6.0m/s | 0°C | -1.0% | -1.0hPa | 2.9V | 00:00:00 | 00:00:00 | 00:00:00 | |
| AM1SDL-15 | 2026-09-04 11:17:47 | 49.33995 | 12.42819 | 112° | 80km/h | 9680m | 3.3m/s | 0°C | 0% | 0hPa | 2.9V | 00:00:00 | 01:15:08 | 00:00:00 | |
| DO3MHA-11 | 2026-09-04 11:17:45 | 49.34008 | 12.42764 | 109° | 80km/h | 9671m | 4.4m/s | -35.6°C | 15.3% | 298.7hPa | 2.9V | 00:00:00 | 01:15:06 | 00:00:00 | |
| OE5DXL-15 | 2026-09-04 11:17:43 | 49.34021 | 12.42707 | 108° | 80km/h | 9659m | 6.0m/s | -35.4°C | 15.3% | 299.2hPa | 2.9V | 00:00:00 | 00:00:00 | 00:00:00 | |
| OE5DRO-10 | 2026-09-04 11:17:40 | 49.34041 | 12.42615 | 109° | 82km/h | 9644m | 3.6m/s | -35.3°C | 15.5% | 299.9hPa | 2.7V | 04:50:00 | 00:00:00 | 00:00:00 | |
| DO3MHA-11 | 2026-09-04 11:17:35 | 49.34071 | 12.42464 | 108° | 82km/h | 9619m | 3.2m/s | -35.1°C | 16.9% | 301.0hPa | 2.7V | 00:00:00 | 01:14:56 | 00:00:00 | |
| DO9HM | 2026-09-04 11:17:33 | 49.34077 | 12.42435 | 110° | 78km/h | 9615m | 6.6m/s | -35.2°C | 14.5% | 301.2hPa | 2.7V | 00:00:00 | 00:00:00 | 00:00:00 | |
| DO3MHA-11 | 2026-09-04 11:17:25 | 49.34146 | 12.42165 | 109° | 82km/h | 9563m | 4.4m/s | -34.8°C | 16.6% | 303.4hPa | 2.7V | 04:50:00 | 01:14:46 | 00:00:00 | |
| DL6DJ-15 | 2026-09-04 11:17:23 | 49.34170 | 12.42071 | 114° | 84km/h | 9550m | 3.5m/s | -34.8°C | 14.3% | 304.0hPa | 2.7V | 00:00:00 | 00:00:00 | 00:00:00 | |
| OE5DRO-10 | 2026-09-04 11:17:20 | 49.34188 | 12.42011 | 113° | 73km/h | 9542m | 3.9m/s | -34.7°C | 16.5% | 304.4hPa | 2.7V | 00:00:00 | 00:00:00 | 00:00:00 | |
| DO3MHA-11 | 2026-09-04 11:17:15 | 49.34219 | 12.41873 | 108° | 73km/h | 9517m | 7.0m/s | -34.5°C | 17.1% | 305.5hPa | 2.9V | 00:00:00 | 01:14:36 | 00:00:00 | |
| OE5DXL-15 | 2026-09-04 11:17:13 | 49.34230 | 12.41822 | 109° | 73km/h | 9507m | 7.0m/s | -34.4°C | 18.8% | 305.9hPa | 2.9V | 00:00:00 | 00:00:00 | 00:00:00 | |
| DO9HM | 2026-09-04 11:17:12 | 49.34230 | 12.41822 | 109° | 71km/h | 9507m | 7.0m/s | -34.5°C | 16.3% | 306.0hPa | 2.9V | 00:00:00 | 00:00:00 | 00:00:00 | |
| DO3MHA-11 | 2026-09-04 11:17:05 | 49.34284 | 12.41605 | 112° | 75km/h | 9468m | 4.2m/s | -34.2°C | 23.0% | 307.5hPa | 2.9V | 00:00:00 | 01:14:26 | 00:00:00 | |
| DL6DJ-15 | 2026-09-04 11:16:52 | 49.34369 | 12.41219 | 109° | 69km/h | 9405m | 5.3m/s | -33.9°C | 33.7% | 310.5hPa | 2.9V | 00:00:00 | 00:00:00 | 00:00:00 | |
| SONDE2-11 | 2026-09-04 11:16:48 | 49.34387 | 12.41141 | 106° | 69km/h | 9387m | 5.6m/s | 0°C | -1.0% | -1.0hPa | 2.9V | 00:00:00 | 00:00:00 | 00:00:00 | |
| OE3JTB-15 | 2026-09-04 11:16:47 | 49.34392 | 12.41115 | 105° | 68km/h | 9382m | 5.7m/s | 0°C | 0% | 0hPa | 2.9V | 00:00:00 | 00:00:00 | 00:00:00 | |
| DO3MHA-11 | 2026-09-04 11:16:45 | 49.34399 | 12.41063 | 100° | 71km/h | 9371m | 4.1m/s | -33.6°C | 37.0% | 311.8hPa | 2.9V | 00:00:00 | 01:14:06 | 00:00:00 | |
| OE5DXL-15 | 2026-09-04 11:16:43 | 49.34406 | 12.41008 | 102° | 69km/h | 9362m | 3.8m/s | -33.5°C | 37.7% | 312.2hPa | 2.9V | 04:51:00 | 00:00:00 | 00:00:00 | |
| OE5DRO-10 | 2026-09-04 11:16:40 | 49.34422 | 12.40927 | 112° | 69km/h | 9350m | 3.9m/s | -33.4°C | 39.7% | 312.8hPa | 2.9V | 00:00:00 | 00:00:00 | 00:00:00 | |
| DO3MHA-11 | 2026-09-04 11:16:35 | 49.34459 | 12.40799 | 115° | 69km/h | 9324m | 5.4m/s | -33.2°C | 40.0% | 313.9hPa | 2.9V | 04:51:00 | 01:13:56 | 00:00:00 | |
| DO9HM | 2026-09-04 11:16:31 | 49.34479 | 12.40720 | 109° | 68km/h | 9310m | 6.4m/s | -33.2°C | 36.8% | 314.7hPa | 2.9V | 00:00:00 | 00:00:00 | 00:00:00 | |
| OE5WHR-10 | 2026-09-04 11:16:28 | 49.34498 | 12.40624 | 109° | 68km/h | 9292m | 6.2m/s | -32.9°C | 41.2% | 315.4hPa | 2.9V | 00:00:00 | 00:00:00 | 00:00:00 | |
| DO3MHA-11 | 2026-09-04 11:16:25 | 49.34516 | 12.40547 | 109° | 69km/h | 9278m | 5.0m/s | -32.8°C | 40.5% | 316.0hPa | 2.9V | 00:00:00 | 01:13:46 | 00:00:00 | |
| OE5DRO-10 | 2026-09-04 11:16:21 | 49.34538 | 12.40442 | 107° | 69km/h | 9257m | 6.9m/s | -32.7°C | 39.4% | 316.9hPa | 2.9V | 00:00:00 | 00:00:00 | 00:00:00 | |
| DL6DJ-15 | 2026-09-04 11:16:20 | 49.34544 | 12.40416 | 107° | 68km/h | 9252m | 4.2m/s | -32.7°C | 35.7% | 317.2hPa | 2.9V | 00:00:00 | 00:00:00 | 00:00:00 | |
| DO3MHA-11 | 2026-09-04 11:16:15 | 49.34569 | 12.40290 | 108° | 71km/h | 9229m | 3.3m/s | -32.4°C | 38.2% | 318.2hPa | 2.9V | 00:00:00 | 01:13:36 | 00:00:00 | |
| DO9HM | 2026-09-04 11:16:08 | 49.34593 | 12.40132 | 105° | 73km/h | 9206m | 4.9m/s | -32.3°C | 31.7% | 319.4hPa | 2.9V | 00:00:00 | 00:00:00 | 00:00:00 | |
| DO3MHA-11 | 2026-09-04 11:16:05 | 49.34615 | 12.40025 | 109° | 66km/h | 9188m | 4.7m/s | -32.1°C | 31.9% | 320.1hPa | 2.9V | 00:00:00 | 01:13:26 | 00:00:00 | |
| DO8TBO-1 | 2026-09-04 11:16:04 | 49.34620 | 12.40000 | 110° | 64km/h | 9183m | 4.9m/s | -32.0°C | 31.1% | 320.4hPa | 2.9V | 00:00:00 | 01:13:25 | 00:00:00 | |
| DL6DJ-15 | 2026-09-04 11:15:49 | 49.34696 | 12.39634 | 109° | 64km/h | 9108m | 5.1m/s | -31.5°C | 25.0% | 323.7hPa | 2.9V | 00:00:00 | 00:00:00 | 00:00:00 | |
| DO9HM | 2026-09-04 11:15:48 | 49.34695 | 12.39634 | 111° | 66km/h | 9109m | 5.1m/s | -31.5°C | 25.0% | 323.7hPa | 2.9V | 00:00:00 | 00:00:00 | 00:00:00 | |
| DO3MHA-11 | 2026-09-04 11:15:45 | 49.34714 | 12.39536 | 106° | 60km/h | 9090m | 6.9m/s | -31.3°C | 27.0% | 324.6hPa | 2.9V | 04:52:00 | 01:13:06 | 00:00:00 | |
| OE5DXL-15 | 2026-09-04 11:15:43 | 49.34722 | 12.39490 | 105° | 62km/h | 9079m | 6.1m/s | -31.2°C | 27.5% | 325.1hPa | 2.9V | 00:00:00 | 00:00:00 | 00:00:00 | |
| DO3MHA-11 | 2026-09-04 11:15:35 | 49.34745 | 12.39306 | 104° | 66km/h | 9038m | 6.5m/s | -30.9°C | 29.3% | 326.9hPa | 2.9V | 00:00:00 | 01:12:56 | 00:00:00 | |
| DO8TBO-1 | 2026-09-04 11:15:34 | 49.34749 | 12.39282 | 107° | 64km/h | 9033m | 4.1m/s | -30.9°C | 28.9% | 327.1hPa | 2.9V | 04:52:00 | 01:12:55 | 00:00:00 | |
| DO3MHA-11 | 2026-09-04 11:15:25 | 49.34790 | 12.39062 | 104° | 62km/h | 8991m | 5.6m/s | -30.6°C | 29.1% | 329.1hPa | 2.9V | 00:00:00 | 01:12:46 | 00:00:00 | |
| OE5DRO-10 | 2026-09-04 11:15:24 | 49.34794 | 12.39039 | 99° | 64km/h | 8986m | 5.8m/s | -30.5°C | 29.2% | 329.3hPa | 2.9V | 00:00:00 | 00:00:00 | 00:00:00 | |
| DL6DJ-15 | 2026-09-04 11:15:18 | 49.34813 | 12.38901 | 106° | 60km/h | 8953m | 6.6m/s | -30.3°C | 28.7% | 330.9hPa | 2.9V | 00:00:00 | 00:00:00 | 00:00:00 | |
| DO3MHA-11 | 2026-09-04 11:15:15 | 49.34826 | 12.38830 | 104° | 68km/h | 8939m | 6.7m/s | -30.1°C | 29.8% | 331.5hPa | 2.9V | 00:00:00 | 01:12:36 | 00:00:00 | |
| OE5WHR-10 | 2026-09-04 11:15:13 | 49.34834 | 12.38780 | 102° | 66km/h | 8927m | 8.2m/s | -30.0°C | 24.7% | 332.1hPa | 2.9V | 00:00:00 | 00:00:00 | 00:00:00 | |
| DO9HM | 2026-09-04 11:15:11 | 49.34836 | 12.38754 | 97° | 68km/h | 8920m | 6.2m/s | -30.0°C | 20.8% | 332.5hPa | 2.9V | 00:00:00 | 00:00:00 | 00:00:00 | |
| DO3MHA-11 | 2026-09-04 11:15:05 | 49.34845 | 12.38570 | 100° | 64km/h | 8887m | 3.7m/s | -29.7°C | 19.1% | 333.8hPa | 2.9V | 00:00:00 | 01:12:26 | 00:00:00 | |
| OE3JTB-15 | 2026-09-04 11:15:04 | 49.34848 | 12.38546 | 101° | 73km/h | 8883m | 5.3m/s | 0°C | 0% | 0hPa | 2.9V | 00:00:00 | 01:12:25 | 00:00:00 | |
| DL6DJ-15 | 2026-09-04 11:14:47 | 49.34909 | 12.38111 | 95° | 69km/h | 8796m | 5.3m/s | -29.6°C | 19.8% | 338.3hPa | 2.9V | 00:00:00 | 00:00:00 | 00:00:00 | |
| OE5DRO-10 | 2026-09-04 11:14:46 | 49.34911 | 12.38083 | 94° | 75km/h | 8791m | 6.3m/s | -29.5°C | 22.1% | 338.6hPa | 2.9V | 00:00:00 | 00:00:00 | 00:00:00 | |
| DO3MHA-11 | 2026-09-04 11:14:45 | 49.34912 | 12.38054 | 95° | 75km/h | 8785m | 6.8m/s | -29.4°C | 22.2% | 338.8hPa | 2.9V | 00:00:00 | 01:12:06 | 00:00:00 | |
| OE5DXL-15 | 2026-09-04 11:14:43 | 49.34916 | 12.37993 | 98° | 77km/h | 8774m | 7.0m/s | -29.2°C | 22.6% | 339.4hPa | 2.9V | 00:00:00 | 00:00:00 | 00:00:00 | |
| DO3MHA-11 | 2026-09-04 11:14:35 | 49.34956 | 12.37775 | 107° | 77km/h | 8736m | 5.2m/s | -29.1°C | 23.5% | 341.1hPa | 2.9V | 00:00:00 | 01:11:56 | 00:00:00 | |
| DO8TBO-1 | 2026-09-04 11:14:34 | 49.34960 | 12.37749 | 105° | 75km/h | 8732m | 4.5m/s | -29.0°C | 23.4% | 341.3hPa | 2.9V | 00:00:00 | 01:11:55 | 00:00:00 | |
| OE5WHR-10 | 2026-09-04 11:14:31 | 49.34972 | 12.37668 | 101° | 78km/h | 8716m | 7.1m/s | 0°C | 0% | 0hPa | 2.9V | 00:00:00 | 01:11:52 | 00:00:00 | |
| OE5DRO-10 | 2026-09-04 11:14:27 | 49.34985 | 12.37545 | 101° | 78km/h | 8696m | 4.4m/s | -28.8°C | 23.0% | 343.0hPa | 2.9V | 04:53:00 | 00:00:00 | 00:00:00 | |
| DO3MHA-11 | 2026-09-04 11:14:25 | 49.34993 | 12.37480 | 102° | 77km/h | 8687m | 4.5m/s | -28.6°C | 22.7% | 343.4hPa | 2.9V | 00:00:00 | 01:11:46 | 00:00:00 | |
| DL6DJ-15 | 2026-09-04 11:14:16 | 49.35037 | 12.37220 | 105° | 73km/h | 8640m | 6.8m/s | -28.4°C | 20.3% | 345.7hPa | 2.9V | 00:00:00 | 00:00:00 | 00:00:00 | |
| DO3MHA-11 | 2026-09-04 11:14:15 | 49.35042 | 12.37192 | 105° | 77km/h | 8634m | 6.1m/s | -28.3°C | 22.4% | 345.9hPa | 2.9V | 00:00:00 | 01:11:36 | 00:00:00 | |
| OE5DXL-15 | 2026-09-04 11:14:13 | 49.35052 | 12.37136 | 107° | 80km/h | 8622m | 6.6m/s | -28.2°C | 22.0% | 346.4hPa | 2.9V | 04:53:00 | 00:00:00 | 00:00:00 | |
| OE5WHR-10 | 2026-09-04 11:14:10 | 49.35068 | 12.37047 | 101° | 82km/h | 8603m | 5.8m/s | 0°C | 0% | 0hPa | 2.9V | 00:00:00 | 00:00:00 | 00:00:00 | |
| OE5DRO-10 | 2026-09-04 11:14:08 | 49.35075 | 12.36987 | 100° | 82km/h | 8592m | 5.4m/s | -28.0°C | 21.5% | 347.8hPa | 2.9V | 00:00:00 | 00:00:00 | 00:00:00 | |
| DO9HM | 2026-09-04 11:14:06 | 49.35078 | 12.36958 | 100° | 77km/h | 8588m | 3.4m/s | -27.9°C | 19.6% | 348.1hPa | 2.9V | 00:00:00 | 00:00:00 | 00:00:00 | |
| DO3MHA-11 | 2026-09-04 11:14:05 | 49.35085 | 12.36899 | 103° | 82km/h | 8579m | 5.0m/s | -27.8°C | 21.5% | 348.3hPa | 2.9V | 04:53:00 | 01:11:26 | 00:00:00 | |
| DB0NH | 2026-09-04 11:14:02 | 49.35100 | 12.36806 | 105° | 82km/h | 8563m | 6.2m/s | -27.7°C | 21.5% | 349.2hPa | 2.9V | 00:00:00 | 01:11:23 | 00:00:00 | |
| DO3MHA-11 | 2026-09-04 11:13:55 | 49.35138 | 12.36588 | 107° | 82km/h | 8528m | 5.4m/s | -27.4°C | 21.3% | 350.9hPa | 2.9V | 00:00:00 | 01:11:16 | 00:00:00 | |
| OE5WHR-10 | 2026-09-04 11:13:49 | 49.35184 | 12.36408 | 114° | 84km/h | 8498m | 5.1m/s | 0°C | 0% | 0hPa | 2.9V | 00:00:00 | 00:00:00 | 00:00:00 | |
| DO9HM | 2026-09-04 11:13:46 | 49.35201 | 12.36352 | 113° | 77km/h | 8490m | 4.1m/s | -27.2°C | 19.7% | 352.9hPa | 2.9V | 04:54:00 | 00:00:00 | 00:00:00 | |
| DO3MHA-11 | 2026-09-04 11:13:45 | 49.35214 | 12.36296 | 111° | 80km/h | 8480m | 4.1m/s | -26.9°C | 21.6% | 353.2hPa | 2.9V | 00:00:00 | 01:11:06 | 00:00:00 | |
| OE5DXL-15 | 2026-09-04 11:13:43 | 49.35227 | 12.36241 | 109° | 84km/h | 8471m | 3.9m/s | -27.0°C | 21.4% | 353.7hPa | 2.9V | 00:00:00 | 00:00:00 | 00:00:00 | |
| DO3MHA-11 | 2026-09-04 11:13:35 | 49.35285 | 12.36001 | 112° | 84km/h | 8430m | 5.7m/s | -26.7°C | 21.5% | 355.8hPa | 2.9V | 00:00:00 | 01:10:56 | 00:00:00 | |
| DB0NH | 2026-09-04 11:13:32 | 49.35308 | 12.35908 | 110° | 93km/h | 8417m | 6.2m/s | -26.5°C | 21.6% | 356.5hPa | 2.9V | 04:54:00 | 01:10:53 | 00:00:00 | |
| DO3MHA-11 | 2026-09-04 11:13:25 | 49.35352 | 12.35694 | 115° | 84km/h | 8380m | 5.8m/s | -26.2°C | 22.4% | 358.3hPa | 2.9V | 00:00:00 | 01:10:46 | 00:00:00 | |
| DO9HM | 2026-09-04 11:13:21 | 49.35380 | 12.35605 | 117° | 86km/h | 8364m | 4.1m/s | -26.2°C | 21.2% | 359.2hPa | 2.9V | 04:54:00 | 00:00:00 | 00:00:00 | |
| DO3MHA-11 | 2026-09-04 11:13:15 | 49.35432 | 12.35391 | 110° | 84km/h | 8333m | 4.4m/s | -25.9°C | 24.5% | 360.7hPa | 2.9V | 04:54:00 | 01:10:36 | 00:00:00 | |
| DL6DJ-15 | 2026-09-04 11:13:14 | 49.35439 | 12.35361 | 112° | 80km/h | 8328m | 4.4m/s | -26.0°C | 22.5% | 360.9hPa | 2.9V | 00:00:00 | 00:00:00 | 00:00:00 | |
| OE5DXL-15 | 2026-09-04 11:13:13 | 49.35447 | 12.35332 | 114° | 86km/h | 8325m | 3.8m/s | -25.9°C | 24.7% | 361.0hPa | 2.9V | 00:00:00 | 00:00:00 | 00:00:00 | |
| DO8TBO-1 | 2026-09-04 11:13:10 | 49.35472 | 12.35241 | 111° | 84km/h | 8310m | 3.7m/s | -25.8°C | 24.8% | 361.8hPa | 2.9V | 00:00:00 | 01:10:31 | 00:00:00 | |
| DO3MHA-11 | 2026-09-04 11:13:05 | 49.35507 | 12.35081 | 106° | 84km/h | 8285m | 5.8m/s | -25.6°C | 24.2% | 363.0hPa | 2.7V | 00:00:00 | 01:10:26 | 00:00:00 | |
| DO9HM | 2026-09-04 11:13:01 | 49.35534 | 12.34953 | 111° | 84km/h | 8266m | 4.2m/s | -25.5°C | 22.3% | 364.1hPa | 2.7V | 04:55:00 | 00:00:00 | 00:00:00 | |
| DO3MHA-11 | 2026-09-04 11:12:55 | 49.35574 | 12.34774 | 110° | 86km/h | 8233m | 5.1m/s | -25.1°C | 23.5% | 365.6hPa | 2.7V | 00:00:00 | 01:10:16 | 00:00:00 | |
| OE5DRO-10 | 2026-09-04 11:12:51 | 49.35604 | 12.34649 | 108° | 84km/h | 8211m | 5.8m/s | -25.0°C | 23.2% | 366.7hPa | 2.7V | 00:00:00 | 00:00:00 | 00:00:00 | |
| DO3MHA-11 | 2026-09-04 11:12:45 | 49.35649 | 12.34457 | 111° | 82km/h | 8178m | 5.0m/s | -24.6°C | 22.7% | 368.3hPa | 2.9V | 00:00:00 | 01:10:06 | 00:00:00 | |
| OE5DXL-15 | 2026-09-04 11:12:43 | 49.35666 | 12.34397 | 116° | 84km/h | 8168m | 5.9m/s | -24.6°C | 22.5% | 368.8hPa | 2.9V | 00:00:00 | 00:00:00 | 00:00:00 | |
| DO9HM | 2026-09-04 11:12:37 | 49.35706 | 12.34258 | 113° | 82km/h | 8143m | 4.6m/s | -24.5°C | 21.4% | 370.1hPa | 2.9V | 04:55:00 | 00:00:00 | 00:00:00 | |
| DO3MHA-11 | 2026-09-04 11:12:35 | 49.35729 | 12.34165 | 112° | 80km/h | 8125m | 7.4m/s | -24.3°C | 23.4% | 371.0hPa | 2.9V | 00:00:00 | 01:09:56 | 00:00:00 | |
| DO8TBO-1 | 2026-09-04 11:12:32 | 49.35749 | 12.34073 | 106° | 82km/h | 8108m | 4.5m/s | -24.2°C | 24.1% | 371.8hPa | 2.9V | 00:00:00 | 01:09:53 | 00:00:00 | |
| OE5DRO-10 | 2026-09-04 11:12:31 | 49.35755 | 12.34043 | 106° | 84km/h | 8104m | 4.0m/s | -24.2°C | 24.2% | 372.0hPa | 2.9V | 00:00:00 | 00:00:00 | 00:00:00 | |
| DO3MHA-11 | 2026-09-04 11:12:25 | 49.35789 | 12.33866 | 108° | 89km/h | 8072m | 5.8m/s | -24.0°C | 25.4% | 373.6hPa | 2.9V | 04:55:00 | 01:09:46 | 00:00:00 | |
| OE5WHR-10 | 2026-09-04 11:12:19 | 49.35829 | 12.33668 | 109° | 88km/h | 8042m | 5.7m/s | 0°C | 0% | 0hPa | 2.9V | 00:00:00 | 01:09:40 | 00:00:00 | |
| DO9HM | 2026-09-04 11:12:17 | 49.35843 | 12.33601 | 111° | 89km/h | 8033m | 4.2m/s | -23.7°C | 23.4% | 375.9hPa | 2.9V | 04:56:00 | 00:00:00 | 00:00:00 | |
| OE5DXL-15 | 2026-09-04 11:12:13 | 49.35878 | 12.33475 | 115° | 86km/h | 8013m | 4.7m/s | -23.6°C | 23.1% | 376.9hPa | 2.9V | 00:00:00 | 00:00:00 | 00:00:00 | |
| DL6DJ-15 | 2026-09-04 11:12:12 | 49.35897 | 12.33413 | 113° | 89km/h | 8003m | 4.7m/s | -23.5°C | 19.4% | 377.4hPa | 2.9V | 00:00:00 | 00:00:00 | 00:00:00 | |
| OE5DRO-10 | 2026-09-04 11:12:07 | 49.35923 | 12.33279 | 101° | 84km/h | 7984m | 6.9m/s | -23.4°C | 21.2% | 378.5hPa | 2.9V | 04:55:00 | 00:00:00 | 00:00:00 | |
| DO3MHA-11 | 2026-09-04 11:12:05 | 49.35931 | 12.33212 | 102° | 84km/h | 7973m | 6.3m/s | -23.2°C | 21.8% | 379.1hPa | 2.9V | 00:00:00 | 01:09:26 | 00:00:00 | |
| DO8TBO-1 | 2026-09-04 11:12:02 | 49.35947 | 12.33118 | 108° | 88km/h | 7956m | 7.6m/s | -23.0°C | 21.5% | 380.0hPa | 2.9V | 04:55:00 | 01:09:23 | 00:00:00 | |
| OE5WHR-10 | 2026-09-04 11:11:58 | 49.35975 | 12.32999 | 109° | 88km/h | 7931m | 5.4m/s | 0°C | 0% | 0hPa | 2.9V | 00:00:00 | 00:00:00 | 00:00:00 | |
| DO9HM | 2026-09-04 11:11:56 | 49.35982 | 12.32968 | 109° | 84km/h | 7925m | 7.5m/s | -22.8°C | 19.3% | 381.7hPa | 2.9V | 04:56:00 | 00:00:00 | 00:00:00 | |
| DO3MHA-11 | 2026-09-04 11:11:55 | 49.35996 | 12.32903 | 109° | 88km/h | 7913m | 4.8m/s | -22.6°C | 21.4% | 382.2hPa | 2.9V | 00:00:00 | 01:09:16 | 00:00:00 | |
| OE5DRO-10 | 2026-09-04 11:11:47 | 49.36054 | 12.32643 | 112° | 86km/h | 7865m | 8.0m/s | -22.2°C | 19.9% | 384.7hPa | 2.9V | 00:00:00 | 00:00:00 | 00:00:00 | |
| DO3MHA-11 | 2026-09-04 11:11:45 | 49.36069 | 12.32583 | 112° | 84km/h | 7852m | 6.9m/s | -22.1°C | 19.5% | 385.4hPa | 2.9V | 00:00:00 | 01:09:06 | 00:00:00 | |
| OE5DXL-15 | 2026-09-04 11:11:43 | 49.36084 | 12.32523 | 108° | 88km/h | 7842m | 3.6m/s | -22.0°C | 19.3% | 385.9hPa | 2.9V | 04:56:00 | 00:00:00 | 00:00:00 | |
| DL6DJ-15 | 2026-09-04 11:11:41 | 49.36103 | 12.32431 | 109° | 82km/h | 7827m | 7.0m/s | -21.9°C | 18.7% | 386.8hPa | 2.9V | 00:00:00 | 00:00:00 | 00:00:00 | |
| DO9HM | 2026-09-04 11:11:36 | 49.36124 | 12.32339 | 110° | 86km/h | 7811m | 5.1m/s | -21.7°C | 19.2% | 387.6hPa | 2.9V | 04:56:00 | 00:00:00 | 00:00:00 | |
| DO3MHA-11 | 2026-09-04 11:11:35 | 49.36139 | 12.32274 | 110° | 89km/h | 7801m | 6.0m/s | -21.6°C | 20.7% | 388.1hPa | 2.9V | 04:56:00 | 01:08:56 | 00:00:00 | |
| DO3MHA-11 | 2026-09-04 11:11:25 | 49.36208 | 12.31940 | 106° | 89km/h | 7749m | 7.5m/s | -21.1°C | 20.2% | 391.0hPa | 2.9V | 00:00:00 | 01:08:46 | 00:00:00 | |
| NBG1-10 | 2026-09-04 11:11:20 | 49.36244 | 12.31776 | 110° | 100km/h | 7718m | 6.3m/s | -20.8°C | 18.1% | 392.5hPa | 2.9V | 04:56:00 | 01:08:41 | 00:00:00 | |
| DO9HM | 2026-09-04 11:11:16 | 49.36272 | 12.31646 | 108° | 88km/h | 7697m | 5.6m/s | -20.7°C | 17.3% | 393.6hPa | 2.9V | 04:57:00 | 00:00:00 | 00:00:00 | |
| DO3MHA-11 | 2026-09-04 11:11:15 | 49.36278 | 12.31613 | 108° | 89km/h | 7692m | 5.3m/s | -20.6°C | 18.7% | 393.8hPa | 2.9V | 00:00:00 | 01:08:36 | 00:00:00 | |
| OE5DXL-15 | 2026-09-04 11:11:13 | 49.36294 | 12.31547 | 113° | 89km/h | 7679m | 5.1m/s | -20.5°C | 18.1% | 394.4hPa | 2.9V | 00:00:00 | 00:00:00 | 00:00:00 | |
| DL6DJ-15 | 2026-09-04 11:11:10 | 49.36325 | 12.31413 | 105° | 91km/h | 7658m | 4.0m/s | -20.3°C | 15.2% | 395.6hPa | 2.9V | 00:00:00 | 00:00:00 | 00:00:00 | |
| DO3MHA-11 | 2026-09-04 11:11:05 | 49.36345 | 12.31283 | 104° | 86km/h | 7638m | 5.4m/s | -20.0°C | 15.4% | 396.6hPa | 2.9V | 00:00:00 | 01:08:26 | 00:00:00 | |
| OE5DRO-10 | 2026-09-04 11:11:04 | 49.36349 | 12.31253 | 106° | 89km/h | 7632m | 5.5m/s | -20.0°C | 15.1% | 396.9hPa | 2.9V | 00:00:00 | 00:00:00 | 00:00:00 | |
| DO3MHA-11 | 2026-09-04 11:10:55 | 49.36418 | 12.30972 | 108° | 91km/h | 7575m | 6.0m/s | -19.6°C | 14.6% | 400.1hPa | 2.9V | 00:00:00 | 01:08:16 | 00:00:00 | |
| DO9HM | 2026-09-04 11:10:54 | 49.36419 | 12.30972 | 108° | 89km/h | 7575m | 6.1m/s | -19.6°C | 13.4% | 400.1hPa | 2.9V | 04:57:00 | 00:00:00 | 00:00:00 | |
| DO3MHA-11 | 2026-09-04 11:10:45 | 49.36491 | 12.30635 | 111° | 88km/h | 7514m | 5.0m/s | -19.0°C | 14.3% | 403.3hPa | 2.9V | 04:57:00 | 01:08:06 | 00:00:00 | |
| OE5DXL-15 | 2026-09-04 11:10:43 | 49.36506 | 12.30568 | 108° | 88km/h | 7503m | 6.6m/s | -19.0°C | 14.2% | 403.9hPa | 2.9V | 00:00:00 | 00:00:00 | 00:00:00 | |
| DL6DJ-15 | 2026-09-04 11:10:39 | 49.36537 | 12.30402 | 105° | 82km/h | 7476m | 5.0m/s | -18.8°C | 13.0% | 405.5hPa | 2.9V | 00:00:00 | 00:00:00 | 00:00:00 | |
| DO3MHA-11 | 2026-09-04 11:10:35 | 49.36553 | 12.30308 | 107° | 88km/h | 7461m | 4.8m/s | -18.5°C | 13.6% | 406.4hPa | 2.9V | 00:00:00 | 01:07:56 | 00:00:00 | |
| DO9HM | 2026-09-04 11:10:34 | 49.36560 | 12.30277 | 109° | 84km/h | 7456m | 6.7m/s | -18.5°C | 12.3% | 406.7hPa | 2.9V | 04:58:00 | 00:00:00 | 00:00:00 | |
| OE5DRO-10 | 2026-09-04 11:10:26 | 49.36623 | 12.30022 | 111° | 97km/h | 7414m | 5.4m/s | 0°C | 0% | 0hPa | 2.9V | 00:00:00 | 00:00:00 | 00:00:00 | |
| DO3MHA-11 | 2026-09-04 11:10:25 | 49.36631 | 12.29992 | 111° | 89km/h | 7410m | 4.0m/s | -18.1°C | 10.8% | 409.0hPa | 2.9V | 00:00:00 | 01:07:46 | 00:00:00 | |
| DO3MHA-11 | 2026-09-04 11:10:15 | 49.36703 | 12.29662 | 107° | 88km/h | 7361m | 4.3m/s | -18.0°C | 11.5% | 411.6hPa | 2.9V | 00:00:00 | 01:07:36 | 00:00:00 | |
| DO9HM | 2026-09-04 11:10:13 | 49.36718 | 12.29594 | 109° | 89km/h | 7352m | 4.9m/s | -18.0°C | 11.0% | 412.2hPa | 2.9V | 04:58:00 | 00:00:00 | 00:00:00 | |
| DL6DJ-15 | 2026-09-04 11:10:08 | 49.36763 | 12.29407 | 109° | 84km/h | 7323m | 5.9m/s | -17.9°C | 11.1% | 413.6hPa | 2.9V | 00:00:00 | 00:00:00 | 00:00:00 | |
| DO8TBO-1 | 2026-09-04 11:10:07 | 49.36763 | 12.29407 | 110° | 88km/h | 7324m | 5.9m/s | -17.8°C | 12.1% | 413.6hPa | 2.9V | 00:00:00 | 01:07:28 | 00:00:00 | |
| DO3MHA-11 | 2026-09-04 11:10:05 | 49.36777 | 12.29343 | 109° | 88km/h | 7315m | 4.0m/s | -17.8°C | 12.0% | 414.0hPa | 2.9V | 00:00:00 | 01:07:26 | 00:00:00 | |
| DO3MHA-11 | 2026-09-04 11:09:55 | 49.36853 | 12.29024 | 110° | 86km/h | 7276m | 4.7m/s | -17.5°C | 11.9% | 416.3hPa | 2.9V | 04:58:00 | 01:07:16 | 00:00:00 | |
| DO9HM | 2026-09-04 11:09:53 | 49.36866 | 12.28962 | 109° | 84km/h | 7268m | 4.2m/s | -17.5°C | 11.0% | 416.8hPa | 2.9V | 04:58:00 | 00:00:00 | 00:00:00 | |
| DO3MHA-11 | 2026-09-04 11:09:45 | 49.36921 | 12.28711 | 115° | 88km/h | 7235m | 5.3m/s | -17.4°C | 12.5% | 418.5hPa | 2.9V | 00:00:00 | 01:07:06 | 00:00:00 | |
| OE5DXL-15 | 2026-09-04 11:09:43 | 49.36942 | 12.28647 | 119° | 89km/h | 7225m | 4.0m/s | -17.5°C | 13.1% | 419.1hPa | 2.9V | 00:00:00 | 00:00:00 | 00:00:00 | |
| DL6DJ-15 | 2026-09-04 11:09:37 | 49.37005 | 12.28430 | 111° | 86km/h | 7185m | 7.8m/s | -17.4°C | 13.3% | 421.5hPa | 2.9V | 00:00:00 | 00:00:00 | 00:00:00 | |
| DO3MHA-11 | 2026-09-04 11:09:35 | 49.37013 | 12.28399 | 112° | 88km/h | 7178m | 7.0m/s | -17.3°C | 14.7% | 421.9hPa | 2.9V | 00:00:00 | 01:06:56 | 00:00:00 | |
| DO8TBO-1 | 2026-09-04 11:09:34 | 49.37021 | 12.28366 | 113° | 95km/h | 7171m | 8.4m/s | -17.3°C | 14.9% | 422.4hPa | 2.9V | 00:00:00 | 01:06:55 | 00:00:00 | |
| DO9HM | 2026-09-04 11:09:31 | 49.37040 | 12.28300 | 114° | 95km/h | 7156m | 6.3m/s | -17.3°C | 14.7% | 423.3hPa | 2.9V | 04:58:00 | 00:00:00 | 00:00:00 | |
| DO3MHA-11 | 2026-09-04 11:09:25 | 49.37094 | 12.28082 | 107° | 91km/h | 7116m | 5.0m/s | -17.3°C | 19.3% | 425.6hPa | 2.9V | 00:00:00 | 01:06:46 | 00:00:00 | |
| DO3MHA-11 | 2026-09-04 11:09:15 | 49.37168 | 12.27743 | 112° | 97km/h | 7051m | 8.1m/s | -17.3°C | 25.3% | 429.4hPa | 2.9V | 00:00:00 | 01:06:36 | 00:00:00 | |
| OE5DXL-15 | 2026-09-04 11:09:13 | 49.37187 | 12.27671 | 112° | 100km/h | 7038m | 6.5m/s | -17.2°C | 25.9% | 430.2hPa | 2.9V | 04:58:00 | 00:00:00 | 00:00:00 | |
| DO9HM | 2026-09-04 11:09:09 | 49.37212 | 12.27564 | 111° | 95km/h | 7020m | 6.6m/s | -17.2°C | 25.1% | 431.2hPa | 2.9V | 04:58:00 | 00:00:00 | 00:00:00 | |
| DB0NH | 2026-09-04 11:09:08 | 49.37228 | 12.27495 | 112° | 100km/h | 7007m | 5.3m/s | -17.0°C | 28.1% | 431.8hPa | 2.9V | 00:00:00 | 01:06:29 | 00:00:00 | |
| DL6DJ-15 | 2026-09-04 11:09:06 | 49.37257 | 12.27394 | 114° | 99km/h | 6992m | 4.7m/s | -17.0°C | 26.7% | 432.7hPa | 2.7V | 00:00:00 | 00:00:00 | 00:00:00 | |
| DO3MHA-11 | 2026-09-04 11:09:05 | 49.37256 | 12.27393 | 115° | 100km/h | 6992m | 4.6m/s | -16.9°C | 28.3% | 432.7hPa | 2.7V | 04:58:00 | 01:06:26 | 00:00:00 | |
| DO3MHA-11 | 2026-09-04 11:08:55 | 49.37358 | 12.27040 | 114° | 106km/h | 6938m | 5.4m/s | -16.5°C | 27.8% | 435.7hPa | 2.7V | 00:00:00 | 01:06:16 | 00:00:00 | |
| DO8TBO-1 | 2026-09-04 11:08:54 | 49.37368 | 12.27004 | 114° | 104km/h | 6933m | 5.5m/s | -16.4°C | 27.6% | 436.0hPa | 2.7V | 00:00:00 | 01:06:15 | 00:00:00 | |
| DO9HM | 2026-09-04 11:08:49 | 49.37421 | 12.26817 | 113° | 106km/h | 6908m | 4.9m/s | -16.3°C | 26.0% | 437.4hPa | 2.7V | 04:59:00 | 00:00:00 | 00:00:00 | |
| DO3MHA-11 | 2026-09-04 11:08:45 | 49.37464 | 12.26662 | 115° | 102km/h | 6891m | 4.1m/s | -16.1°C | 27.4% | 438.3hPa | 2.7V | 00:00:00 | 01:06:06 | 00:00:00 | |
| OE5DXL-15 | 2026-09-04 11:08:43 | 49.37486 | 12.26586 | 114° | 102km/h | 6882m | 5.0m/s | -16.0°C | 27.3% | 438.8hPa | 2.9V | 00:00:00 | 00:00:00 | 00:00:00 | |
| NBG1-10 | 2026-09-04 11:08:38 | 49.37538 | 12.26408 | 115° | 100km/h | 6861m | 4.4m/s | -15.8°C | 27.1% | 440.1hPa | 2.9V | 00:00:00 | 01:05:59 | 00:00:00 | |
| DO3MHA-11 | 2026-09-04 11:08:35 | 49.37568 | 12.26305 | 113° | 102km/h | 6848m | 5.2m/s | -15.7°C | 26.9% | 440.8hPa | 2.9V | 00:00:00 | 01:05:56 | 00:00:00 | |
| DL6DJ-15 | 2026-09-04 11:08:34 | 49.37577 | 12.26270 | 112° | 97km/h | 6843m | 4.1m/s | -15.7°C | 25.4% | 441.1hPa | 2.9V | 00:00:00 | 00:00:00 | 00:00:00 | |
| DO9HM | 2026-09-04 11:08:28 | 49.37627 | 12.26089 | 113° | 106km/h | 6823m | 4.2m/s | -15.6°C | 25.1% | 442.3hPa | 2.9V | 04:59:00 | 00:00:00 | 00:00:00 | |
| OE5DRO-10 | 2026-09-04 11:08:26 | 49.37658 | 12.25976 | 114° | 100km/h | 6811m | 3.8m/s | 0°C | 0% | 0hPa | 2.9V | 00:00:00 | 00:00:00 | 00:00:00 | |
| DO3MHA-11 | 2026-09-04 11:08:25 | 49.37668 | 12.25939 | 114° | 102km/h | 6808m | 3.4m/s | -15.4°C | 26.5% | 443.1hPa | 2.9V | 00:00:00 | 01:05:46 | 00:00:00 | |
| DO8TBO-1 | 2026-09-04 11:08:24 | 49.37679 | 12.25903 | 114° | 102km/h | 6804m | 4.6m/s | -15.4°C | 26.3% | 443.4hPa | 2.9V | 00:00:00 | 01:05:45 | 00:00:00 | |
| DO3MHA-11 | 2026-09-04 11:08:15 | 49.37771 | 12.25576 | 113° | 104km/h | 6767m | 4.9m/s | -15.0°C | 25.7% | 445.6hPa | 2.9V | 04:59:00 | 01:05:36 | 00:00:00 | |
| OE5DXL-15 | 2026-09-04 11:08:13 | 49.37792 | 12.25501 | 115° | 102km/h | 6758m | 3.8m/s | -14.9°C | 25.8% | 446.1hPa | 2.9V | 00:00:00 | 00:00:00 | 00:00:00 | |
| DO9HM | 2026-09-04 11:08:08 | 49.37844 | 12.25314 | 114° | 102km/h | 6739m | 4.4m/s | -14.8°C | 24.1% | 447.3hPa | 2.9V | 04:59:00 | 00:00:00 | 00:00:00 | |
| DL6DJ-15 | 2026-09-04 11:08:03 | 49.37898 | 12.25133 | 114° | 99km/h | 6718m | 3.8m/s | -14.6°C | 23.8% | 448.5hPa | 2.9V | 00:00:00 | 00:00:00 | 00:00:00 | |
| NBG1-10 | 2026-09-04 11:08:00 | 49.37930 | 12.25028 | 116° | 99km/h | 6707m | 4.0m/s | -14.5°C | 25.1% | 449.2hPa | 2.9V | 00:00:00 | 01:05:21 | 00:00:00 | |
| DO3MHA-11 | 2026-09-04 11:07:55 | 49.37979 | 12.24842 | 109° | 104km/h | 6686m | 4.3m/s | -14.3°C | 24.8% | 450.4hPa | 2.9V | 00:00:00 | 01:05:16 | 00:00:00 | |
| DO8TBO-1 | 2026-09-04 11:07:54 | 49.37988 | 12.24804 | 111° | 102km/h | 6682m | 4.6m/s | -14.3°C | 24.8% | 450.6hPa | 2.9V | 00:00:00 | 01:05:15 | 00:00:00 | |
| DO9HM | 2026-09-04 11:07:46 | 49.38064 | 12.24547 | 118° | 108km/h | 6655m | 3.5m/s | -14.1°C | 23.3% | 452.4hPa | 2.9V | 00:00:00 | 00:00:00 | 00:00:00 | |
| DO3MHA-11 | 2026-09-04 11:07:45 | 49.38087 | 12.24475 | 115° | 100km/h | 6648m | 4.3m/s | -14.0°C | 24.6% | 452.8hPa | 2.9V | 00:00:00 | 01:05:06 | 00:00:00 | |
| OE5DXL-15 | 2026-09-04 11:07:43 | 49.38108 | 12.24406 | 116° | 99km/h | 6641m | 4.9m/s | -14.0°C | 24.6% | 453.2hPa | 2.9V | 00:00:00 | 00:00:00 | 00:00:00 | |
| DO3MHA-11 | 2026-09-04 11:07:35 | 49.38184 | 12.24111 | 109° | 102km/h | 6609m | 4.1m/s | -13.9°C | 24.8% | 454.9hPa | 2.9V | 00:00:00 | 01:04:56 | 00:00:00 | |
| DL6DJ-15 | 2026-09-04 11:07:32 | 49.38212 | 12.23991 | 110° | 100km/h | 6598m | 4.7m/s | -13.9°C | 23.9% | 455.7hPa | 2.9V | 00:00:00 | 00:00:00 | 00:00:00 | |
| DO3MHA-11 | 2026-09-04 11:07:25 | 49.38288 | 12.23752 | 116° | 97km/h | 6557m | 4.6m/s | -13.6°C | 26.0% | 458.1hPa | 2.9V | 00:00:00 | 01:04:46 | 00:00:00 | |
| DO8TBO-1 | 2026-09-04 11:07:24 | 49.38299 | 12.23715 | 115° | 97km/h | 6552m | 7.2m/s | -13.6°C | 25.9% | 458.5hPa | 2.9V | 00:00:00 | 01:04:45 | 00:00:00 | |
| DO3MHA-11 | 2026-09-04 11:07:15 | 49.38385 | 12.23411 | 113° | 97km/h | 6494m | 4.8m/s | -13.3°C | 26.8% | 462.0hPa | 2.9V | 05:00:00 | 01:04:36 | 00:00:00 | |
| OE5DXL-15 | 2026-09-04 11:07:13 | 49.38403 | 12.23343 | 113° | 100km/h | 6483m | 4.3m/s | -13.2°C | 26.8% | 462.6hPa | 2.9V | 05:00:00 | 00:00:00 | 00:00:00 | |
| DO3MHA-11 | 2026-09-04 11:07:05 | 49.38474 | 12.23060 | 113° | 99km/h | 6449m | 5.5m/s | -13.1°C | 27.2% | 464.8hPa | 2.9V | 00:00:00 | 01:04:26 | 00:00:00 | |
| DL6DJ-15 | 2026-09-04 11:07:01 | 49.38515 | 12.22921 | 115° | 106km/h | 6432m | 3.7m/s | -13.2°C | 27.8% | 465.9hPa | 2.9V | 00:00:00 | 00:00:00 | 00:00:00 | |
| OE5DRO-10 | 2026-09-04 11:06:56 | 49.38573 | 12.22744 | 115° | 97km/h | 6411m | 6.4m/s | 0°C | 0% | 0hPa | 2.9V | 00:00:00 | 00:00:00 | 00:00:00 | |
| DO3MHA-11 | 2026-09-04 11:06:55 | 49.38582 | 12.22711 | 112° | 104km/h | 6404m | 6.4m/s | -13.1°C | 32.2% | 467.4hPa | 2.9V | 00:00:00 | 01:04:16 | 00:00:00 | |
| DO8TBO-1 | 2026-09-04 11:06:54 | 49.38590 | 12.22678 | 110° | 97km/h | 6398m | 6.7m/s | -13.1°C | 31.8% | 467.7hPa | 2.9V | 05:01:00 | 01:04:15 | 00:00:00 | |
| DO3MHA-11 | 2026-09-04 11:06:45 | 49.38668 | 12.22330 | 117° | 99km/h | 6352m | 4.1m/s | -12.9°C | 28.3% | 470.3hPa | 2.9V | 00:00:00 | 01:04:06 | 00:00:00 | |
| OE5DXL-15 | 2026-09-04 11:06:43 | 49.38692 | 12.22258 | 117° | 99km/h | 6341m | 6.9m/s | -12.8°C | 28.2% | 471.0hPa | 2.7V | 00:00:00 | 00:00:00 | 00:00:00 | |
| DO9HM | 2026-09-04 11:06:39 | 49.38722 | 12.22157 | 112° | 91km/h | 6321m | 8.1m/s | -12.7°C | 27.6% | 472.3hPa | 2.7V | 05:01:00 | 00:00:00 | 00:00:00 | |
| DO3MHA-11 | 2026-09-04 11:06:35 | 49.38764 | 12.21980 | 114° | 97km/h | 6290m | 6.8m/s | -12.5°C | 31.2% | 474.2hPa | 2.7V | 00:00:00 | 01:03:56 | 00:00:00 | |
| DL6DJ-15 | 2026-09-04 11:06:30 | 49.38821 | 12.21810 | 115° | 95km/h | 6262m | 5.6m/s | -12.4°C | 29.1% | 476.0hPa | 2.7V | 00:00:00 | 00:00:00 | 00:00:00 | |
| NBG1-10 | 2026-09-04 11:06:27 | 49.38848 | 12.21709 | 112° | 100km/h | 6250m | 4.3m/s | -12.4°C | 32.7% | 476.8hPa | 2.7V | 00:00:00 | 01:03:48 | 00:00:00 | |
| DO3MHA-11 | 2026-09-04 11:06:25 | 49.38867 | 12.21640 | 114° | 99km/h | 6242m | 4.0m/s | -12.4°C | 35.9% | 477.2hPa | 2.7V | 00:00:00 | 01:03:46 | 00:00:00 | |
| DO9HM | 2026-09-04 11:06:19 | 49.38921 | 12.21472 | 118° | 97km/h | 6222m | 3.7m/s | -12.4°C | 37.9% | 478.6hPa | 2.7V | 05:02:00 | 00:00:00 | 00:00:00 | |
| DO8TBO-1 | 2026-09-04 11:06:16 | 49.38963 | 12.21333 | 115° | 102km/h | 6207m | 3.4m/s | -12.3°C | 42.2% | 479.6hPa | 2.7V | 00:00:00 | 01:03:37 | 00:00:00 | |
| DO3MHA-11 | 2026-09-04 11:06:15 | 49.38974 | 12.21297 | 115° | 102km/h | 6203m | 4.2m/s | -12.3°C | 42.9% | 479.7hPa | 2.7V | 05:01:00 | 01:03:36 | 00:00:00 | |
| OE5DXL-15 | 2026-09-04 11:06:13 | 49.38997 | 12.21223 | 117° | 102km/h | 6196m | 2.8m/s | -12.3°C | 44.8% | 480.2hPa | 2.9V | 00:00:00 | 00:00:00 | 00:00:00 | |
| DO3MHA-11 | 2026-09-04 11:06:05 | 49.39084 | 12.20940 | 115° | 104km/h | 6166m | 3.9m/s | -12.3°C | 51.5% | 482.0hPa | 2.9V | 00:00:00 | 01:03:26 | 00:00:00 | |
| DL6DJ-15 | 2026-09-04 11:05:59 | 49.39149 | 12.20722 | 117° | 102km/h | 6143m | 5.2m/s | -12.1°C | 50.1% | 483.4hPa | 2.9V | 00:00:00 | 00:00:00 | 00:00:00 | |
| OE5DRO-10 | 2026-09-04 11:05:56 | 49.39186 | 12.20614 | 117° | 102km/h | 6132m | 4.1m/s | 0°C | 0% | 0hPa | 2.9V | 00:00:00 | 00:00:00 | 00:00:00 | |
| DO3MHA-11 | 2026-09-04 11:05:55 | 49.39197 | 12.20578 | 115° | 102km/h | 6128m | 4.3m/s | -12.0°C | 52.5% | 484.5hPa | 2.9V | 00:00:00 | 01:03:16 | 00:00:00 | |
| DO8TBO-1 | 2026-09-04 11:05:46 | 49.39302 | 12.20256 | 118° | 102km/h | 6095m | 3.3m/s | -11.7°C | 52.9% | 486.4hPa | 2.9V | 00:00:00 | 01:03:07 | 00:00:00 | |
| DO3MHA-11 | 2026-09-04 11:05:45 | 49.39314 | 12.20220 | 118° | 102km/h | 6091m | 3.9m/s | -11.7°C | 53.0% | 486.7hPa | 2.9V | 00:00:00 | 01:03:06 | 00:00:00 | |
| OE5DXL-15 | 2026-09-04 11:05:43 | 49.39338 | 12.20147 | 115° | 104km/h | 6084m | 3.3m/s | -11.6°C | 53.2% | 487.2hPa | 2.9V | 00:00:00 | 00:00:00 | 00:00:00 | |
| DO9HM | 2026-09-04 11:05:38 | 49.39383 | 12.20003 | 118° | 97km/h | 6070m | 3.9m/s | -11.6°C | 50.7% | 488.1hPa | 2.9V | 05:02:00 | 00:00:00 | 00:00:00 | |
| DO3MHA-11 | 2026-09-04 11:05:35 | 49.39430 | 12.19865 | 119° | 102km/h | 6056m | 4.3m/s | -11.4°C | 52.9% | 489.0hPa | 2.9V | 00:00:00 | 01:02:56 | 00:00:00 | |
| OE5DRO-10 | 2026-09-04 11:05:31 | 49.39515 | 12.19578 | 108° | 108km/h | 6024m | 3.7m/s | 0°C | 0% | 0hPa | 2.9V | 00:00:00 | 00:00:00 | 00:00:00 | |
| DO9HM | 2026-09-04 11:05:30 | 49.39605 | 12.19241 | 109° | 99km/h | 5973m | 8.1m/s | -10.7°C | 49.4% | 494.5hPa | 2.9V | 05:03:00 | 00:00:00 | 00:00:00 | |
| DO3MHA-11 | 2026-09-04 11:05:28 | 49.39626 | 12.19128 | 107° | 104km/h | 5953m | 5.8m/s | -10.6°C | 50.5% | 495.9hPa | 2.9V | 05:02:00 | 01:02:36 | 00:00:00 | |
| DO8TBO-1 | 2026-09-04 11:05:21 | 49.39643 | 12.19051 | 112° | 99km/h | 5945m | 4.9m/s | -10.5°C | 50.4% | 496.4hPa | 2.7V | 00:00:00 | 01:02:34 | 00:00:00 | |
| OE5DXL-15 | 2026-09-04 11:05:20 | 49.39643 | 12.19051 | 112° | 97km/h | 5945m | 4.9m/s | 0°C | 0% | 0hPa | 2.9V | 00:00:00 | 00:00:00 | 00:00:00 | |
| DO3MHA-11 | 2026-09-04 11:05:05 | 49.39723 | 12.18753 | 110° | 97km/h | 5904m | 3.9m/s | -10.2°C | 53.7% | 499.0hPa | 2.9V | 00:00:00 | 01:02:26 | 00:00:00 | |
| DL6DJ-15 | 2026-09-04 11:04:57 | 49.39796 | 12.18473 | 113° | 97km/h | 5873m | 3.6m/s | -10.0°C | 52.7% | 501.0hPa | 2.9V | 00:00:00 | 00:00:00 | 00:00:00 | |
| DO3MHA-11 | 2026-09-04 11:04:55 | 49.39815 | 12.18404 | 116° | 91km/h | 5866m | 4.5m/s | -9.9°C | 54.3% | 501.5hPa | 2.9V | 00:00:00 | 01:02:16 | 00:00:00 | |
| NBG1-10 | 2026-09-04 11:04:46 | 49.39909 | 12.18124 | 115° | 97km/h | 5827m | 7.4m/s | -9.8°C | 54.4% | 504.1hPa | 2.9V | 05:03:00 | 01:02:07 | 00:00:00 | |
| DO3MHA-11 | 2026-09-04 11:04:45 | 49.39919 | 12.18088 | 114° | 97km/h | 5820m | 7.4m/s | -9.7°C | 53.8% | 504.4hPa | 2.9V | 00:00:00 | 01:02:06 | 00:00:00 | |
| OE5DXL-15 | 2026-09-04 11:04:43 | 49.39938 | 12.18018 | 111° | 97km/h | 5805m | 7.5m/s | 0°C | 0% | 0hPa | 2.9V | 00:00:00 | 01:02:04 | 00:00:00 | |
| DO9HM | 2026-09-04 11:04:37 | 49.39976 | 12.17841 | 108° | 97km/h | 5777m | 4.5m/s | -9.5°C | 54.6% | 507.2hPa | 2.9V | 05:04:00 | 00:00:00 | 00:00:00 | |
| DO3MHA-11 | 2026-09-04 11:04:35 | 49.39997 | 12.17734 | 107° | 95km/h | 5764m | 6.5m/s | -9.4°C | 53.3% | 508.2hPa | 2.9V | 00:00:00 | 01:01:56 | 00:00:00 | |
| DL6DJ-15 | 2026-09-04 11:04:26 | 49.40078 | 12.17426 | 114° | 93km/h | 5726m | 2.7m/s | -9.3°C | 50.8% | 510.6hPa | 2.9V | 00:00:00 | 00:00:00 | 00:00:00 | |
| DO3MHA-11 | 2026-09-04 11:04:25 | 49.40088 | 12.17392 | 116° | 99km/h | 5723m | 4.6m/s | -9.2°C | 52.8% | 510.7hPa | 2.9V | 00:00:00 | 01:01:46 | 00:00:00 | |
| DO9HM | 2026-09-04 11:04:18 | 49.40151 | 12.17142 | 106° | 102km/h | 5695m | 4.0m/s | -9.2°C | 51.1% | 512.6hPa | 2.9V | 05:04:00 | 00:00:00 | 00:00:00 | |
| DO3MHA-11 | 2026-09-04 11:04:15 | 49.40171 | 12.17032 | 107° | 93km/h | 5684m | 5.6m/s | -9.0°C | 54.5% | 513.3hPa | 2.9V | 05:03:00 | 01:01:36 | 00:00:00 | |
| NBG1-10 | 2026-09-04 11:04:13 | 49.40186 | 12.16962 | 110° | 91km/h | 5674m | 5.7m/s | -9.0°C | 55.7% | 514.0hPa | 2.9V | 00:00:00 | 01:01:34 | 00:00:00 | |
| DO3MHA-11 | 2026-09-04 11:04:05 | 49.40261 | 12.16700 | 118° | 89km/h | 5631m | 5.0m/s | -8.7°C | 51.6% | 516.7hPa | 2.9V | 00:00:00 | 01:01:26 | 00:00:00 | |
| DL6DJ-15 | 2026-09-04 11:03:56 | 49.40341 | 12.16377 | 114° | 91km/h | 5585m | 4.4m/s | -8.4°C | 46.6% | 519.9hPa | 2.9V | 00:00:00 | 00:00:00 | 00:00:00 | |
| DO3MHA-11 | 2026-09-04 11:03:55 | 49.40340 | 12.16377 | 115° | 93km/h | 5585m | 4.4m/s | -8.4°C | 48.3% | 519.8hPa | 2.9V | 00:00:00 | 01:01:16 | 00:00:00 | |
| DO3MHA-11 | 2026-09-04 11:03:45 | 49.40412 | 12.16039 | 104° | 91km/h | 5549m | 1.8m/s | -8.3°C | 52.9% | 522.2hPa | 2.9V | 00:00:00 | 01:01:06 | 00:00:00 | |
| DO8TBO-1 | 2026-09-04 11:03:43 | 49.40422 | 12.15978 | 106° | 91km/h | 5545m | 2.7m/s | -8.3°C | 53.4% | 522.5hPa | 2.9V | 05:04:00 | 01:01:04 | 00:00:00 | |
| NBG1-10 | 2026-09-04 11:03:40 | 49.40440 | 12.15877 | 106° | 91km/h | 5528m | 7.1m/s | -8.2°C | 53.6% | 523.8hPa | 3.0V | 00:00:00 | 01:01:01 | 00:00:00 | |
| DO3MHA-11 | 2026-09-04 11:03:35 | 49.40480 | 12.15701 | 115° | 89km/h | 5498m | 4.0m/s | -8.0°C | 65.5% | 525.8hPa | 3.0V | 00:00:00 | 01:00:56 | 00:00:00 | |
| DO3MHA-11 | 2026-09-04 11:03:25 | 49.40559 | 12.15381 | 114° | 93km/h | 5462m | 4.2m/s | -7.6°C | 67.0% | 528.3hPa | 3.0V | 00:00:00 | 01:00:46 | 00:00:00 | |
| DL6DJ-15 | 2026-09-04 11:03:24 | 49.40577 | 12.15318 | 115° | 91km/h | 5455m | 4.0m/s | -7.7°C | 64.8% | 528.8hPa | 3.0V | 00:00:00 | 00:00:00 | 00:00:00 | |
| DO9HM | 2026-09-04 11:03:15 | 49.40634 | 12.15040 | 104° | 88km/h | 5424m | 3.4m/s | -7.5°C | 62.0% | 530.8hPa | 3.0V | 05:04:00 | 00:00:00 | 00:00:00 | |
| DO8TBO-1 | 2026-09-04 11:03:13 | 49.40646 | 12.14976 | 109° | 88km/h | 5415m | 5.7m/s | -7.3°C | 59.9% | 531.4hPa | 3.0V | 00:00:00 | 01:00:34 | 00:00:00 | |
| NBG1-10 | 2026-09-04 11:03:07 | 49.40706 | 12.14793 | 118° | 86km/h | 5383m | 5.0m/s | -6.9°C | 53.3% | 533.9hPa | 3.0V | 00:00:00 | 01:00:28 | 00:00:00 | |
| DO3MHA-11 | 2026-09-04 11:03:05 | 49.40723 | 12.14735 | 110° | 88km/h | 5373m | 3.4m/s | -6.9°C | 53.4% | 534.3hPa | 2.9V | 00:00:00 | 01:00:26 | 00:00:00 | |
| DL6DJ-15 | 2026-09-04 11:02:53 | 49.40829 | 12.14327 | 113° | 86km/h | 5325m | 3.8m/s | -6.4°C | 44.2% | 538.0hPa | 2.9V | 00:00:00 | 00:00:00 | 00:00:00 | |
| DO3MHA-11 | 2026-09-04 11:02:45 | 49.40883 | 12.14106 | 113° | 86km/h | 5301m | 4.0m/s | -6.3°C | 43.0% | 539.5hPa | 2.9V | 00:00:00 | 01:00:06 | 00:00:00 | |
| DO8TBO-1 | 2026-09-04 11:02:43 | 49.40904 | 12.14039 | 117° | 88km/h | 5295m | 2.7m/s | -6.4°C | 43.2% | 539.8hPa | 3.0V | 00:00:00 | 01:00:04 | 00:00:00 | |
| DO3MHA-11 | 2026-09-04 11:02:35 | 49.40978 | 12.13808 | 112° | 88km/h | 5261m | 6.9m/s | -6.1°C | 44.9% | 542.2hPa | 3.0V | 00:00:00 | 00:59:56 | 00:00:00 | |
| NBG1-10 | 2026-09-04 11:02:34 | 49.40985 | 12.13780 | 113° | 89km/h | 5255m | 6.4m/s | -6.1°C | 45.5% | 542.6hPa | 3.0V | 00:00:00 | 00:59:55 | 00:00:00 | |
| DO9HM | 2026-09-04 11:02:33 | 49.40985 | 12.13780 | 114° | 80km/h | 5255m | 6.4m/s | -6.1°C | 44.0% | 542.6hPa | 3.0V | 05:05:00 | 00:00:00 | 00:00:00 | |
| DO3MHA-11 | 2026-09-04 11:02:25 | 49.41048 | 12.13483 | 102° | 91km/h | 5212m | 4.8m/s | -5.9°C | 50.4% | 545.4hPa | 3.0V | 00:00:00 | 00:59:46 | 00:00:00 | |
| DL6DJ-15 | 2026-09-04 11:02:22 | 49.41077 | 12.13348 | 114° | 89km/h | 5196m | 6.5m/s | -5.8°C | 47.8% | 546.5hPa | 3.0V | 00:00:00 | 00:00:00 | 00:00:00 | |
| DO3MHA-11 | 2026-09-04 11:02:15 | 49.41136 | 12.13157 | 111° | 88km/h | 5164m | 6.8m/s | -5.5°C | 52.1% | 548.7hPa | 3.0V | 05:05:00 | 00:59:36 | 00:00:00 | |
| DO8TBO-1 | 2026-09-04 11:02:13 | 49.41150 | 12.13089 | 107° | 84km/h | 5151m | 6.1m/s | -5.4°C | 52.9% | 549.8hPa | 2.9V | 00:00:00 | 00:59:34 | 00:00:00 | |
| DO3MHA-11 | 2026-09-04 11:02:05 | 49.41212 | 12.12836 | 113° | 82km/h | 5119m | 4.0m/s | -5.1°C | 55.1% | 552.0hPa | 3.0V | 00:00:00 | 00:59:26 | 00:00:00 | |
| DL6DJ-15 | 2026-09-04 11:01:51 | 49.41317 | 12.12382 | 106° | 82km/h | 5061m | 5.6m/s | -4.8°C | 58.7% | 556.1hPa | 3.0V | 00:00:00 | 00:00:00 | 00:00:00 | |
| DO3MHA-11 | 2026-09-04 11:01:45 | 49.41348 | 12.12227 | 111° | 88km/h | 5040m | 4.6m/s | -4.5°C | 55.9% | 557.8hPa | 3.0V | 00:00:00 | 00:59:06 | 00:00:00 | |
| DO8TBO-1 | 2026-09-04 11:01:43 | 49.41366 | 12.12164 | 115° | 84km/h | 5033m | 2.9m/s | -4.5°C | 56.7% | 558.1hPa | 3.0V | 00:00:00 | 00:59:04 | 00:00:00 | |
| DO3MHA-11 | 2026-09-04 11:01:35 | 49.41417 | 12.11902 | 102° | 82km/h | 5008m | 4.0m/s | -4.3°C | 60.2% | 560.0hPa | 3.0V | 00:00:00 | 00:58:56 | 00:00:00 | |
| DO9HM | 2026-09-04 11:01:31 | 49.41429 | 12.11813 | 100° | 77km/h | 4998m | 3.4m/s | -4.3°C | 61.6% | 560.7hPa | 3.0V | 05:06:00 | 00:00:00 | 00:00:00 | |
| NBG1-10 | 2026-09-04 11:01:28 | 49.41439 | 12.11689 | 95° | 82km/h | 4983m | 4.3m/s | -4.2°C | 61.2% | 561.7hPa | 3.0V | 05:06:00 | 00:58:49 | 00:00:00 | |
| DO3MHA-11 | 2026-09-04 11:01:25 | 49.41449 | 12.11586 | 104° | 84km/h | 4969m | 4.9m/s | -4.1°C | 62.0% | 562.8hPa | 3.0V | 00:00:00 | 00:58:46 | 00:00:00 | |
| DL6DJ-15 | 2026-09-04 11:01:20 | 49.41491 | 12.11401 | 107° | 80km/h | 4940m | 4.2m/s | -3.8°C | 57.0% | 564.9hPa | 3.0V | 00:00:00 | 00:00:00 | 00:00:00 | |
| DO3MHA-11 | 2026-09-04 11:01:15 | 49.41513 | 12.11274 | 106° | 84km/h | 4925m | 3.8m/s | -3.6°C | 59.8% | 565.9hPa | 3.0V | 05:06:00 | 00:58:36 | 00:00:00 | |
| DO8TBO-1 | 2026-09-04 11:01:13 | 49.41526 | 12.11212 | 110° | 86km/h | 4920m | 4.6m/s | -3.6°C | 58.7% | 566.4hPa | 3.0V | 00:00:00 | 00:58:34 | 00:00:00 | |
| DO9HM | 2026-09-04 11:01:10 | 49.41540 | 12.11154 | 113° | 77km/h | 4913m | 3.4m/s | -3.6°C | 57.6% | 566.9hPa | 3.0V | 05:07:00 | 00:00:00 | 00:00:00 | |
| DB0NH | 2026-09-04 11:01:06 | 49.41569 | 12.10999 | 102° | 84km/h | 4896m | 3.7m/s | -3.6°C | 60.6% | 567.9hPa | 3.0V | 00:00:00 | 00:58:27 | 00:00:00 | |
| DO3MHA-11 | 2026-09-04 11:01:05 | 49.41573 | 12.10963 | 99° | 78km/h | 4893m | 3.2m/s | -3.5°C | 62.3% | 568.1hPa | 3.0V | 00:00:00 | 00:58:26 | 00:00:00 | |
| DL6DJ-15 | 2026-09-04 11:00:48 | 49.41672 | 12.10423 | 105° | 97km/h | 4819m | 4.2m/s | -3.1°C | 72.2% | 573.4hPa | 3.0V | 00:00:00 | 00:00:00 | 00:00:00 | |
| DO3MHA-11 | 2026-09-04 11:00:45 | 49.41695 | 12.10319 | 111° | 77km/h | 4806m | 4.6m/s | -2.9°C | 74.5% | 574.4hPa | 3.0V | 00:00:00 | 00:58:06 | 00:00:00 | |
| DO8TBO-1 | 2026-09-04 11:00:43 | 49.41709 | 12.10260 | 110° | 78km/h | 4796m | 5.2m/s | -2.8°C | 74.7% | 575.1hPa | 2.9V | 05:07:00 | 00:58:04 | 00:00:00 | |
| DB0NH | 2026-09-04 11:00:36 | 49.41750 | 12.10070 | 111° | 80km/h | 4762m | 4.8m/s | -2.5°C | 73.4% | 577.5hPa | 3.0V | 00:00:00 | 00:57:57 | 00:00:00 | |
| DO3MHA-11 | 2026-09-04 11:00:35 | 49.41757 | 12.10041 | 110° | 82km/h | 4758m | 5.1m/s | -2.5°C | 73.2% | 577.9hPa | 3.0V | 00:00:00 | 00:57:56 | 00:00:00 | |
| DO9HM | 2026-09-04 11:00:31 | 49.41782 | 12.09913 | 105° | 84km/h | 4741m | 5.2m/s | -2.4°C | 70.9% | 579.1hPa | 3.0V | 05:07:00 | 00:00:00 | 00:00:00 | |
| DO3MHA-11 | 2026-09-04 11:00:25 | 49.41804 | 12.09734 | 101° | 80km/h | 4719m | 4.2m/s | -2.2°C | 73.8% | 580.8hPa | 3.0V | 00:00:00 | 00:57:46 | 00:00:00 | |
| NBG1-10 | 2026-09-04 11:00:22 | 49.41815 | 12.09643 | 101° | 78km/h | 4706m | 5.3m/s | -2.1°C | 72.5% | 581.8hPa | 3.0V | 00:00:00 | 00:57:43 | 00:00:00 | |
| DL6DJ-15 | 2026-09-04 11:00:17 | 49.41839 | 12.09493 | 106° | 84km/h | 4689m | 3.2m/s | -2.0°C | 71.1% | 583.0hPa | 3.0V | 00:00:00 | 00:00:00 | 00:00:00 | |
| DO3MHA-11 | 2026-09-04 11:00:16 | 49.41851 | 12.09432 | 107° | 77km/h | 4682m | 4.2m/s | -1.9°C | 73.0% | 583.5hPa | 3.0V | 05:07:00 | 00:57:36 | 00:00:00 | |
| DO8TBO-1 | 2026-09-04 11:00:13 | 49.41860 | 12.09373 | 103° | 80km/h | 4675m | 3.9m/s | 0°C | 0% | 0hPa | 3.0V | 00:00:00 | 00:57:34 | 00:00:00 | |
| DO9HM | 2026-09-04 11:00:10 | 49.41868 | 12.09314 | 103° | 78km/h | 4669m | 3.8m/s | -1.8°C | 71.1% | 584.4hPa | 3.0V | 05:08:00 | 00:00:00 | 00:00:00 | |
| DB0NH | 2026-09-04 11:00:06 | 49.41890 | 12.09167 | 104° | 77km/h | 4652m | 3.8m/s | -1.7°C | 74.0% | 585.8hPa | 3.0V | 00:00:00 | 00:57:27 | 00:00:00 | |
| DL6DJ-15 | 2026-09-04 10:59:46 | 49.41953 | 12.08577 | 97° | 78km/h | 4574m | 4.7m/s | -1.4°C | 74.6% | 591.3hPa | 3.0V | 00:00:00 | 00:00:00 | 00:00:00 | |
| DO3MHA-11 | 2026-09-04 10:59:45 | 49.41956 | 12.08545 | 99° | 86km/h | 4569m | 5.5m/s | -1.3°C | 76.5% | 591.6hPa | 3.0V | 00:00:00 | 00:57:06 | 00:00:00 | |
| DO8TBO-1 | 2026-09-04 10:59:40 | 49.41977 | 12.08368 | 100° | 78km/h | 4542m | 4.0m/s | -1.2°C | 79.0% | 593.7hPa | 3.0V | 00:00:00 | 00:57:01 | 00:00:00 | |
| DB0NH | 2026-09-04 10:59:36 | 49.41987 | 12.08243 | 97° | 78km/h | 4522m | 5.3m/s | -1.0°C | 78.4% | 595.2hPa | 3.0V | 00:00:00 | 00:56:57 | 00:00:00 | |
| DO3MHA-11 | 2026-09-04 10:59:35 | 49.41989 | 12.08216 | 97° | 73km/h | 4517m | 4.2m/s | -1.0°C | 79.3% | 595.5hPa | 3.0V | 00:00:00 | 00:56:56 | 00:00:00 | |
| DO9HM | 2026-09-04 10:59:30 | 49.41997 | 12.08078 | 94° | 73km/h | 4495m | 6.9m/s | -0.9°C | 79.4% | 597.3hPa | 3.0V | 05:09:00 | 00:00:00 | 00:00:00 | |
| DO3MHA-11 | 2026-09-04 10:59:25 | 49.42009 | 12.07931 | 102° | 75km/h | 4468m | 5.2m/s | -0.7°C | 79.6% | 599.3hPa | 3.0V | 00:00:00 | 00:56:46 | 00:00:00 | |
| NBG1-10 | 2026-09-04 10:59:16 | 49.42040 | 12.07674 | 103° | 84km/h | 4433m | 4.2m/s | -0.3°C | 78.0% | 601.7hPa | 3.0V | 00:00:00 | 00:56:37 | 00:00:00 | |
| DO3MHA-11 | 2026-09-04 10:59:15 | 49.42043 | 12.07644 | 101° | 89km/h | 4430m | 3.2m/s | -0.3°C | 78.3% | 602.0hPa | 3.0V | 05:08:00 | 00:56:36 | 00:00:00 | |
| DO8TBO-1 | 2026-09-04 10:59:10 | 49.42063 | 12.07473 | 103° | 82km/h | 4410m | 4.2m/s | -0.3°C | 78.1% | 603.3hPa | 3.0V | 00:00:00 | 00:56:31 | 00:00:00 | |
| DB0NH | 2026-09-04 10:59:06 | 49.42084 | 12.07335 | 103° | 80km/h | 4393m | 5.6m/s | -0.1°C | 78.1% | 604.7hPa | 3.0V | 05:08:00 | 00:56:27 | 00:00:00 | |
| DO3MHA-11 | 2026-09-04 10:59:05 | 49.42089 | 12.07303 | 102° | 77km/h | 4388m | 6.4m/s | -0.1°C | 78.0% | 605.1hPa | 3.0V | 00:00:00 | 00:56:26 | 00:00:00 | |
| DO3MHA-11 | 2026-09-04 10:58:55 | 49.42119 | 12.07005 | 92° | 84km/h | 4342m | 4.5m/s | 0.0°C | 83.5% | 608.3hPa | 3.0V | 00:00:00 | 00:56:16 | 00:00:00 | |
| DO9HM | 2026-09-04 10:58:49 | 49.42132 | 12.06800 | 105° | 78km/h | 4318m | 5.0m/s | 0.3°C | 80.8% | 610.4hPa | 3.0V | 05:09:00 | 00:00:00 | 00:00:00 | |
| DO3MHA-11 | 2026-09-04 10:58:45 | 49.42149 | 12.06688 | 100° | 82km/h | 4292m | 6.0m/s | 0.4°C | 81.5% | 612.3hPa | 3.0V | 00:00:00 | 00:56:06 | 00:00:00 | |
| DL6DJ-15 | 2026-09-04 10:58:44 | 49.42153 | 12.06658 | 98° | 78km/h | 4287m | 5.0m/s | 0.5°C | 79.7% | 612.7hPa | 3.0V | 00:00:00 | 00:00:00 | 00:00:00 | |
| NBG1-10 | 2026-09-04 10:58:43 | 49.42156 | 12.06626 | 98° | 84km/h | 4282m | 6.2m/s | 0.5°C | 81.4% | 613.0hPa | 3.0V | 00:00:00 | 00:56:04 | 00:00:00 | |
| DO8TBO-1 | 2026-09-04 10:58:40 | 49.42164 | 12.06536 | 100° | 86km/h | 4268m | 3.5m/s | 0°C | 0% | 0hPa | 3.0V | 00:00:00 | 00:56:01 | 00:00:00 | |
| DO9HM | 2026-09-04 10:58:28 | 49.42208 | 12.06142 | 97° | 71km/h | 4216m | 5.3m/s | 1.0°C | 79.5% | 617.8hPa | 3.0V | 05:10:00 | 00:00:00 | 00:00:00 | |
| DO3MHA-11 | 2026-09-04 10:58:25 | 49.42214 | 12.06057 | 96° | 84km/h | 4203m | 4.8m/s | 1.0°C | 81.7% | 618.7hPa | 3.0V | 00:00:00 | 00:55:46 | 00:00:00 | |
| DO3MHA-11 | 2026-09-04 10:58:15 | 49.42255 | 12.05734 | 107° | 88km/h | 4151m | 4.4m/s | 1.4°C | 84.4% | 622.6hPa | 3.0V | 05:09:00 | 00:55:36 | 00:00:00 | |
| DL6DJ-15 | 2026-09-04 10:58:13 | 49.42268 | 12.05666 | 108° | 91km/h | 4143m | 5.0m/s | 1.4°C | 82.8% | 623.0hPa | 3.0V | 00:00:00 | 00:00:00 | 00:00:00 | |
| NBG1-10 | 2026-09-04 10:58:10 | 49.42288 | 12.05565 | 105° | 78km/h | 4130m | 4.4m/s | 1.5°C | 84.5% | 623.9hPa | 3.0V | 05:09:00 | 00:55:31 | 00:00:00 | |
| DO9HM | 2026-09-04 10:58:07 | 49.42297 | 12.05502 | 103° | 82km/h | 4119m | 7.1m/s | 1.6°C | 79.2% | 624.9hPa | 3.0V | 05:10:00 | 00:00:00 | 00:00:00 | |
| DO3MHA-11 | 2026-09-04 10:58:05 | 49.42308 | 12.05407 | 100° | 77km/h | 4101m | 4.9m/s | 1.7°C | 79.5% | 626.2hPa | 3.0V | 00:00:00 | 00:55:26 | 00:00:00 | |
| DB0NH | 2026-09-04 10:58:04 | 49.42311 | 12.05375 | 101° | 82km/h | 4097m | 3.3m/s | 1.8°C | 79.3% | 626.4hPa | 3.0V | 00:00:00 | 00:55:25 | 00:00:00 | |
| DO3MHA-11 | 2026-09-04 10:57:55 | 49.42339 | 12.05119 | 103° | 82km/h | 4066m | 3.7m/s | 2.1°C | 79.1% | 628.8hPa | 3.0V | 00:00:00 | 00:55:16 | 00:00:00 | |
| DO9HM | 2026-09-04 10:57:47 | 49.42363 | 12.04897 | 102° | 82km/h | 4030m | 4.3m/s | 2.5°C | 78.9% | 631.8hPa | 3.0V | 05:10:00 | 00:00:00 | 00:00:00 | |
| DO3MHA-11 | 2026-09-04 10:57:45 | 49.42375 | 12.04809 | 105° | 78km/h | 4018m | 4.1m/s | 2.4°C | 80.8% | 632.6hPa | 3.0V | 00:00:00 | 00:55:06 | 00:00:00 | |
| DL6DJ-15 | 2026-09-04 10:57:42 | 49.42391 | 12.04728 | 108° | 75km/h | 4009m | 2.7m/s | 2.5°C | 80.5% | 633.4hPa | 3.0V | 00:00:00 | 00:00:00 | 00:00:00 | |
| NBG1-10 | 2026-09-04 10:57:37 | 49.42427 | 12.04582 | 112° | 88km/h | 3990m | 3.8m/s | 2.6°C | 81.3% | 635.0hPa | 3.0V | 00:00:00 | 00:54:58 | 00:00:00 | |
| DO3MHA-11 | 2026-09-04 10:57:35 | 49.42443 | 12.04518 | 111° | 89km/h | 3981m | 4.2m/s | 2.7°C | 81.1% | 635.7hPa | 3.0V | 00:00:00 | 00:54:56 | 00:00:00 | |
| DB0NH | 2026-09-04 10:57:31 | 49.42466 | 12.04389 | 99° | 88km/h | 3962m | 6.1m/s | 3.1°C | 79.7% | 637.2hPa | 3.0V | 00:00:00 | 00:54:52 | 00:00:00 | |
| DO9HM | 2026-09-04 10:57:26 | 49.42476 | 12.04250 | 97° | 91km/h | 3944m | 2.7m/s | 3.2°C | 78.3% | 638.4hPa | 3.0V | 05:10:00 | 00:00:00 | 00:00:00 | |
| DO3MHA-11 | 2026-09-04 10:57:25 | 49.42481 | 12.04180 | 97° | 88km/h | 3938m | 3.9m/s | 3.3°C | 79.1% | 638.9hPa | 3.0V | 00:00:00 | 00:54:46 | 00:00:00 | |
| DO3MHA-11 | 2026-09-04 10:57:15 | 49.42542 | 12.03851 | 105° | 86km/h | 3897m | 4.2m/s | 3.4°C | 79.8% | 642.1hPa | 3.0V | 05:10:00 | 00:54:36 | 00:00:00 | |
| DL6DJ-15 | 2026-09-04 10:57:12 | 49.42561 | 12.03714 | 100° | 82km/h | 3875m | 5.4m/s | 3.6°C | 77.2% | 644.2hPa | 3.0V | 00:00:00 | 00:00:00 | 00:00:00 | |
| DO9HM | 2026-09-04 10:57:06 | 49.42580 | 12.03592 | 105° | 82km/h | 3853m | 4.3m/s | 4.0°C | 75.4% | 645.8hPa | 3.0V | 05:10:00 | 00:00:00 | 00:00:00 | |
| DO3MHA-11 | 2026-09-04 10:57:05 | 49.42588 | 12.03529 | 98° | 88km/h | 3844m | 3.9m/s | 3.9°C | 77.0% | 646.5hPa | 3.0V | 00:00:00 | 00:54:26 | 00:00:00 | |
| NBG1-10 | 2026-09-04 10:57:04 | 49.42590 | 12.03496 | 95° | 80km/h | 3841m | 3.1m/s | 3.8°C | 77.7% | 646.8hPa | 3.0V | 00:00:00 | 00:54:25 | 00:00:00 | |
| DB0NH | 2026-09-04 10:57:01 | 49.42595 | 12.03393 | 96° | 89km/h | 3830m | 2.8m/s | 4.0°C | 75.6% | 647.6hPa | 3.0V | 00:00:00 | 00:54:22 | 00:00:00 | |
| DO3MHA-11 | 2026-09-04 10:56:55 | 49.42623 | 12.03195 | 108° | 75km/h | 3806m | 5.0m/s | 4.2°C | 71.0% | 649.7hPa | 3.0V | 00:00:00 | 00:54:16 | 00:00:00 | |
| DO9HM | 2026-09-04 10:56:46 | 49.42641 | 12.02971 | 92° | 78km/h | 3755m | 5.0m/s | 4.7°C | 60.7% | 653.9hPa | 3.0V | 05:11:00 | 00:00:00 | 00:00:00 | |
| DO3MHA-11 | 2026-09-04 10:56:45 | 49.42642 | 12.02910 | 94° | 80km/h | 3746m | 5.3m/s | 4.7°C | 60.0% | 654.4hPa | 3.0V | 00:00:00 | 00:54:06 | 00:00:00 | |
| DL6DJ-15 | 2026-09-04 10:56:40 | 49.42661 | 12.02762 | 106° | 77km/h | 3721m | 4.7m/s | 5.1°C | 54.3% | 656.5hPa | 3.0V | 00:00:00 | 00:00:00 | 00:00:00 | |
| DO3MHA-11 | 2026-09-04 10:56:35 | 49.42683 | 12.02606 | 99° | 82km/h | 3698m | 4.9m/s | 5.2°C | 52.6% | 658.2hPa | 3.0V | 00:00:00 | 00:53:56 | 00:00:00 | |
| NBG1-10 | 2026-09-04 10:56:31 | 49.42701 | 12.02482 | 106° | 86km/h | 3681m | 5.1m/s | 5.4°C | 52.3% | 659.4hPa | 3.0V | 00:00:00 | 00:53:52 | 00:00:00 | |
| DO9HM | 2026-09-04 10:56:26 | 49.42736 | 12.02333 | 111° | 77km/h | 3661m | 3.5m/s | 5.6°C | 48.3% | 661.0hPa | 3.0V | 05:11:00 | 00:00:00 | 00:00:00 | |
| DO3MHA-11 | 2026-09-04 10:56:25 | 49.42742 | 12.02305 | 108° | 88km/h | 3657m | 3.7m/s | 5.6°C | 48.1% | 661.2hPa | 3.0V | 00:00:00 | 00:53:46 | 00:00:00 | |
| DO3MHA-11 | 2026-09-04 10:56:15 | 49.42780 | 12.01969 | 101° | 88km/h | 3610m | 3.4m/s | 5.9°C | 40.6% | 665.0hPa | 3.0V | 05:11:00 | 00:53:36 | 00:00:00 | |
| DL6DJ-15 | 2026-09-04 10:56:09 | 49.42824 | 12.01733 | 104° | 78km/h | 3569m | 5.9m/s | 6.2°C | 35.0% | 668.5hPa | 3.0V | 00:00:00 | 00:00:00 | 00:00:00 | |
| DO9HM | 2026-09-04 10:56:06 | 49.42832 | 12.01672 | 101° | 80km/h | 3555m | 6.5m/s | 6.3°C | 34.9% | 669.6hPa | 3.0V | 05:12:00 | 00:00:00 | 00:00:00 | |
| DO3MHA-11 | 2026-09-04 10:56:05 | 49.42836 | 12.01642 | 101° | 86km/h | 3549m | 4.8m/s | 6.3°C | 35.6% | 670.0hPa | 3.0V | 00:00:00 | 00:53:26 | 00:00:00 | |
| DB0NH | 2026-09-04 10:56:03 | 49.42846 | 12.01578 | 107° | 82km/h | 3540m | 3.7m/s | 6.3°C | 36.1% | 670.6hPa | 3.0V | 00:00:00 | 00:53:24 | 00:00:00 | |
| NBG1-10 | 2026-09-04 10:55:58 | 49.42883 | 12.01415 | 109° | 80km/h | 3520m | 3.8m/s | 6.4°C | 38.8% | 672.4hPa | 3.0V | 00:00:00 | 00:53:19 | 00:00:00 | |
| DO3MHA-11 | 2026-09-04 10:55:55 | 49.42899 | 12.01320 | 101° | 82km/h | 3504m | 6.2m/s | 6.7°C | 42.5% | 673.8hPa | 3.0V | 00:00:00 | 00:53:16 | 00:00:00 | |
| DO3MHA-11 | 2026-09-04 10:55:45 | 49.42953 | 12.01018 | 108° | 78km/h | 3459m | 4.3m/s | 6.9°C | 43.9% | 677.5hPa | 3.0V | 00:00:00 | 00:53:06 | 00:00:00 | |
| DO9HM | 2026-09-04 10:55:44 | 49.42953 | 12.01018 | 109° | 77km/h | 3459m | 4.4m/s | 6.9°C | 43.3% | 677.6hPa | 3.0V | 05:12:00 | 00:00:00 | 00:00:00 | |
| DL6DJ-15 | 2026-09-04 10:55:38 | 49.42971 | 12.00772 | 94° | 75km/h | 3419m | 5.3m/s | 7.3°C | 42.8% | 680.9hPa | 3.0V | 00:00:00 | 00:00:00 | 00:00:00 | |
| DO3MHA-11 | 2026-09-04 10:55:35 | 49.42975 | 12.00716 | 101° | 78km/h | 3409m | 5.1m/s | 7.2°C | 43.5% | 681.6hPa | 3.0V | 00:00:00 | 00:52:56 | 00:00:00 | |
| DB0NH | 2026-09-04 10:55:33 | 49.42984 | 12.00664 | 106° | 78km/h | 3399m | 4.4m/s | 7.3°C | 41.2% | 682.6hPa | 3.0V | 00:00:00 | 00:52:54 | 00:00:00 | |
| DO3MHA-11 | 2026-09-04 10:55:25 | 49.43010 | 12.00409 | 96° | 82km/h | 3353m | 4.5m/s | 7.5°C | 49.8% | 686.3hPa | 3.0V | 00:00:00 | 00:52:46 | 00:00:00 | |
| DO9HM | 2026-09-04 10:55:18 | 49.43032 | 12.00212 | 106° | 78km/h | 3322m | 6.9m/s | 7.7°C | 51.2% | 689.0hPa | 3.0V | 00:00:00 | 00:00:00 | 00:00:00 | |
| DO3MHA-11 | 2026-09-04 10:55:15 | 49.43055 | 12.00099 | 109° | 75km/h | 3303m | 3.1m/s | 7.7°C | 50.3% | 690.5hPa | 3.0V | 05:12:00 | 00:52:36 | 00:00:00 | |
| DL6DJ-15 | 2026-09-04 10:55:07 | 49.43082 | 11.99842 | 90° | 68km/h | 3256m | 4.1m/s | 8.1°C | 44.8% | 694.6hPa | 3.0V | 00:00:00 | 00:00:00 | 00:00:00 | |
| DO3MHA-11 | 2026-09-04 10:55:05 | 49.43083 | 11.99814 | 94° | 80km/h | 3252m | 3.5m/s | 8.2°C | 45.3% | 694.9hPa | 3.0V | 00:00:00 | 00:52:26 | 00:00:00 | |
| DO9HM | 2026-09-04 10:54:58 | 49.43113 | 11.99603 | 101° | 89km/h | 3217m | 4.2m/s | 8.4°C | 47.6% | 698.0hPa | 3.0V | 00:00:00 | 00:00:00 | 00:00:00 | |
| DO3MHA-11 | 2026-09-04 10:54:55 | 49.43119 | 11.99503 | 92° | 80km/h | 3205m | 4.2m/s | 8.5°C | 48.2% | 699.0hPa | 3.0V | 00:00:00 | 00:52:16 | 00:00:00 | |
| NBG1-10 | 2026-09-04 10:54:52 | 49.43120 | 11.99405 | 93° | 78km/h | 3186m | 6.6m/s | 8.6°C | 48.4% | 700.7hPa | 3.0V | 05:13:00 | 00:52:13 | 00:00:00 | |
| DB0NH | 2026-09-04 10:54:49 | 49.43130 | 11.99314 | 105° | 78km/h | 3168m | 6.5m/s | 8.7°C | 46.9% | 702.2hPa | 3.0V | 05:13:00 | 00:52:10 | 00:00:00 | |
| DO3MHA-11 | 2026-09-04 10:54:45 | 49.43148 | 11.99195 | 99° | 78km/h | 3147m | 3.5m/s | 9.1°C | 45.6% | 704.0hPa | 3.0V | 00:00:00 | 00:52:06 | 00:00:00 | |
| DO9HM | 2026-09-04 10:54:37 | 49.43173 | 11.98990 | 108° | 84km/h | 3118m | 3.8m/s | 9.2°C | 44.9% | 706.6hPa | 3.0V | 00:00:00 | 00:00:00 | 00:00:00 | |
| DL6DJ-15 | 2026-09-04 10:54:36 | 49.43192 | 11.98896 | 108° | 80km/h | 3106m | 3.6m/s | 9.3°C | 45.2% | 707.6hPa | 3.0V | 00:00:00 | 00:00:00 | 00:00:00 | |
| DO3MHA-11 | 2026-09-04 10:54:35 | 49.43192 | 11.98896 | 109° | 77km/h | 3106m | 3.5m/s | 9.2°C | 45.9% | 707.6hPa | 3.0V | 00:00:00 | 00:51:56 | 00:00:00 | |
| DO3MHA-11 | 2026-09-04 10:54:25 | 49.43238 | 11.98606 | 96° | 78km/h | 3056m | 5.3m/s | 9.7°C | 44.9% | 712.2hPa | 3.0V | 00:00:00 | 00:51:46 | 00:00:00 | |
| NBG1-10 | 2026-09-04 10:54:19 | 49.43244 | 11.98423 | 96° | 73km/h | 3034m | 3.5m/s | 9.8°C | 45.1% | 714.2hPa | 3.0V | 00:00:00 | 00:51:40 | 00:00:00 | |
| DO9HM | 2026-09-04 10:54:16 | 49.43251 | 11.98369 | 104° | 75km/h | 3026m | 5.7m/s | 0°C | 0% | 715.1hPa | 3.0V | 05:14:00 | 00:00:00 | 00:00:00 | |
| DO3MHA-11 | 2026-09-04 10:54:15 | 49.43260 | 11.98310 | 107° | 71km/h | 3015m | 5.6m/s | 10.0°C | 43.9% | 716.1hPa | 3.0V | 05:13:00 | 00:51:36 | 00:00:00 | |
| DL6DJ-15 | 2026-09-04 10:54:05 | 49.43301 | 11.98021 | 105° | 62km/h | 2956m | 6.5m/s | 10.4°C | 41.4% | 721.2hPa | 3.0V | 00:00:00 | 00:00:00 | 00:00:00 | |
| DO3MHA-11 | 2026-09-04 10:53:55 | 49.43332 | 11.97778 | 90° | 78km/h | 2915m | 3.9m/s | 10.5°C | 41.9% | 724.7hPa | 3.0V | 00:00:00 | 00:51:16 | 00:00:00 | |
| DB0NH | 2026-09-04 10:53:49 | 49.43339 | 11.97604 | 103° | 75km/h | 2894m | 4.5m/s | 10.7°C | 39.4% | 726.7hPa | 3.0V | 00:00:00 | 00:51:10 | 00:00:00 | |
| NBG1-10 | 2026-09-04 10:53:46 | 49.43356 | 11.97513 | 110° | 71km/h | 2882m | 4.9m/s | 10.7°C | 38.7% | 727.8hPa | 3.0V | 00:00:00 | 00:51:07 | 00:00:00 | |
| DO3MHA-11 | 2026-09-04 10:53:45 | 49.43363 | 11.97484 | 110° | 80km/h | 2878m | 4.4m/s | 10.7°C | 38.7% | 728.2hPa | 3.0V | 00:00:00 | 00:51:06 | 00:00:00 | |
| DO3MHA-11 | 2026-09-04 10:53:35 | 49.43399 | 11.97175 | 93° | 68km/h | 2834m | 4.7m/s | 10.9°C | 38.0% | 731.9hPa | 3.0V | 00:00:00 | 00:50:56 | 00:00:00 | |
| DL6DJ-15 | 2026-09-04 10:53:34 | 49.43401 | 11.97114 | 90° | 75km/h | 2827m | 2.2m/s | 11.0°C | 36.1% | 732.5hPa | 3.0V | 00:00:00 | 00:00:00 | 00:00:00 | |
| DO3MHA-11 | 2026-09-04 10:53:25 | 49.43415 | 11.96915 | 103° | 66km/h | 2797m | 4.4m/s | 11.1°C | 36.5% | 735.1hPa | 3.0V | 00:00:00 | 00:50:46 | 00:00:00 | |
| DB0NH | 2026-09-04 10:53:19 | 49.43427 | 11.96754 | 98° | 71km/h | 2768m | 4.0m/s | 11.3°C | 36.7% | 737.7hPa | 3.0V | 00:00:00 | 00:50:40 | 00:00:00 | |
| DO3MHA-11 | 2026-09-04 10:53:15 | 49.43441 | 11.96668 | 109° | 75km/h | 2752m | 2.7m/s | 11.4°C | 37.0% | 739.1hPa | 3.0V | 05:14:00 | 00:50:36 | 00:00:00 | |
| DO9HM | 2026-09-04 10:53:14 | 49.43441 | 11.96668 | 109° | 64km/h | 2752m | 2.8m/s | 0°C | 0% | 0hPa | 3.0V | 05:15:00 | 00:00:00 | 00:00:00 | |
| NBG1-10 | 2026-09-04 10:53:13 | 49.43451 | 11.96618 | 107° | 77km/h | 2747m | 3.6m/s | 11.4°C | 37.1% | 739.5hPa | 3.0V | 00:00:00 | 00:50:34 | 00:00:00 | |
| DO3MHA-11 | 2026-09-04 10:53:05 | 49.43482 | 11.96383 | 99° | 71km/h | 2721m | 5.1m/s | 11.4°C | 40.0% | 741.9hPa | 3.0V | 00:00:00 | 00:50:26 | 00:00:00 | |
| DL6DJ-15 | 2026-09-04 10:53:02 | 49.43492 | 11.96308 | 104° | 64km/h | 2707m | 6.1m/s | 11.4°C | 42.3% | 743.4hPa | 3.0V | 00:00:00 | 00:00:00 | 00:00:00 | |
| DO3MHA-11 | 2026-09-04 10:52:55 | 49.43525 | 11.96113 | 100° | 78km/h | 2685m | 4.6m/s | 11.4°C | 49.8% | 745.1hPa | 3.0V | 00:00:00 | 00:50:16 | 00:00:00 | |
| DO9HM | 2026-09-04 10:52:51 | 49.43532 | 11.96023 | 94° | 78km/h | 2671m | 4.4m/s | 0°C | 0% | 0hPa | 3.0V | 05:15:00 | 00:00:00 | 00:00:00 | |
| DB0NH | 2026-09-04 10:52:49 | 49.43534 | 11.95934 | 93° | 73km/h | 2660m | 5.5m/s | 11.5°C | 45.9% | 747.4hPa | 3.0V | 00:00:00 | 00:50:10 | 00:00:00 | |
| DO3MHA-11 | 2026-09-04 10:52:45 | 49.43543 | 11.95811 | 101° | 77km/h | 2647m | 2.3m/s | 11.4°C | 46.2% | 748.3hPa | 3.0V | 00:00:00 | 00:50:06 | 00:00:00 | |
| NBG1-10 | 2026-09-04 10:52:40 | 49.43564 | 11.95660 | 103° | 68km/h | 2632m | 2.9m/s | 11.4°C | 48.6% | 749.7hPa | 3.0V | 00:00:00 | 00:50:01 | 00:00:00 | |
| DO3MHA-11 | 2026-09-04 10:52:35 | 49.43574 | 11.95522 | 92° | 64km/h | 2613m | 5.5m/s | 11.5°C | 49.1% | 751.3hPa | 3.0V | 00:00:00 | 00:49:56 | 00:00:00 | |
| DO9HM | 2026-09-04 10:52:31 | 49.43575 | 11.95456 | 91° | 53km/h | 2604m | 2.8m/s | 0°C | 0% | 0hPa | 3.0V | 00:00:00 | 00:00:00 | 00:00:00 | |
| DO3MHA-11 | 2026-09-04 10:52:25 | 49.43592 | 11.95274 | 99° | 69km/h | 2583m | 2.8m/s | 11.4°C | 51.1% | 753.9hPa | 3.0V | 00:00:00 | 00:49:46 | 00:00:00 | |
| DO3MHA-11 | 2026-09-04 10:52:15 | 49.43602 | 11.95007 | 88° | 62km/h | 2548m | 5.0m/s | 11.4°C | 51.6% | 757.1hPa | 3.0V | 05:15:00 | 00:49:36 | 00:00:00 | |
| NBG1-10 | 2026-09-04 10:52:07 | 49.43620 | 11.94816 | 105° | 68km/h | 2514m | 4.7m/s | 11.6°C | 51.7% | 760.2hPa | 3.0V | 00:00:00 | 00:49:28 | 00:00:00 | |
| DO3MHA-11 | 2026-09-04 10:52:05 | 49.43629 | 11.94773 | 110° | 66km/h | 2508m | 3.5m/s | 11.6°C | 51.7% | 760.8hPa | 3.0V | 00:00:00 | 00:49:26 | 00:00:00 | |
| DL6DJ-15 | 2026-09-04 10:52:00 | 49.43644 | 11.94656 | 92° | 64km/h | 2493m | 5.4m/s | 0°C | -1.0% | 762.1hPa | 3.0V | 00:00:00 | 00:00:00 | 00:00:00 | |
| DO3MHA-11 | 2026-09-04 10:51:55 | 49.43658 | 11.94522 | 106° | 73km/h | 2468m | 4.4m/s | 11.7°C | 56.0% | 764.3hPa | 3.0V | 00:00:00 | 00:49:16 | 00:00:00 | |
| DB0NH | 2026-09-04 10:51:49 | 49.43684 | 11.94357 | 97° | 66km/h | 2447m | 6.4m/s | 11.8°C | 57.4% | 766.0hPa | 3.0V | 05:16:00 | 00:49:10 | 00:00:00 | |
| DO3MHA-11 | 2026-09-04 10:51:45 | 49.43682 | 11.94248 | 85° | 68km/h | 2427m | 3.8m/s | 11.9°C | 58.0% | 767.8hPa | 3.0V | 00:00:00 | 00:49:06 | 00:00:00 | |
| DO3MHA-11 | 2026-09-04 10:51:35 | 49.43686 | 11.93987 | 84° | 66km/h | 2387m | 6.4m/s | 11.6°C | 62.3% | 771.9hPa | 3.0V | 00:00:00 | 00:48:56 | 00:00:00 | |
| NBG1-10 | 2026-09-04 10:51:34 | 49.43684 | 11.93960 | 85° | 58km/h | 2381m | 6.2m/s | 11.6°C | 62.6% | 772.4hPa | 3.0V | 05:16:00 | 00:48:55 | 00:00:00 | |
| DL6DJ-15 | 2026-09-04 10:51:29 | 49.43693 | 11.93842 | 106° | 64km/h | 2355m | 5.4m/s | 0°C | -1.0% | -1.0hPa | 3.0V | 00:00:00 | 00:00:00 | 00:00:00 | |
| DO3MHA-11 | 2026-09-04 10:51:25 | 49.43713 | 11.93738 | 104° | 62km/h | 2345m | 2.3m/s | 9.1°C | 85.5% | 775.2hPa | 3.0V | 00:00:00 | 00:48:46 | 00:00:00 | |
| DB0NH | 2026-09-04 10:51:19 | 49.43719 | 11.93597 | 81° | 51km/h | 2313m | 6.8m/s | 8.7°C | 94.3% | 778.3hPa | 3.0V | 00:00:00 | 00:48:40 | 00:00:00 | |
| DO3MHA-11 | 2026-09-04 10:51:15 | 49.43713 | 11.93497 | 89° | 51km/h | 2295m | 4.3m/s | 8.5°C | 98.6% | 779.6hPa | 3.0V | 05:16:00 | 00:48:36 | 00:00:00 | |
| DO3MHA-11 | 2026-09-04 10:51:05 | 49.43713 | 11.93304 | 74° | 53km/h | 2245m | 3.3m/s | 8.9°C | 97.9% | 784.1hPa | 3.0V | 00:00:00 | 00:48:26 | 00:00:00 | |
| NBG1-10 | 2026-09-04 10:51:01 | 49.43700 | 11.93218 | 85° | 51km/h | 2227m | 3.8m/s | 8.9°C | 97.9% | 785.8hPa | 3.0V | 00:00:00 | 00:48:22 | 00:00:00 | |
| DO3MHA-11 | 2026-09-04 10:50:55 | 49.43701 | 11.93106 | 86° | 49km/h | 2195m | 6.0m/s | 9.2°C | 95.8% | 788.8hPa | 3.0V | 00:00:00 | 00:48:16 | 00:00:00 | |
| DO3MHA-11 | 2026-09-04 10:50:46 | 49.43689 | 11.92914 | 93° | 53km/h | 2145m | 5.8m/s | 9.3°C | 0% | 793.7hPa | 3.0V | 00:00:00 | 00:48:06 | 00:00:00 | |
| DO3MHA-11 | 2026-09-04 10:50:35 | 49.43662 | 11.92712 | 72° | 47km/h | 2095m | 4.2m/s | 9.6°C | 98.9% | 798.6hPa | 3.0V | 00:00:00 | 00:47:56 | 00:00:00 | |
| NBG1-10 | 2026-09-04 10:50:28 | 49.43651 | 11.92575 | 91° | 40km/h | 2057m | 6.0m/s | 10.2°C | 93.9% | 802.3hPa | 3.0V | 00:00:00 | 00:47:49 | 00:00:00 | |
| DO3MHA-11 | 2026-09-04 10:50:25 | 49.43644 | 11.92534 | 63° | 49km/h | 2039m | 5.1m/s | 10.3°C | 94.5% | 804.1hPa | 3.0V | 00:00:00 | 00:47:46 | 00:00:00 | |
| DB0NH | 2026-09-04 10:50:19 | 49.43617 | 11.92427 | 80° | 38km/h | 2007m | 6.6m/s | 10.7°C | 91.4% | 807.3hPa | 3.0V | 00:00:00 | 00:47:40 | 00:00:00 | |
| DO3MHA-11 | 2026-09-04 10:50:16 | 49.43608 | 11.92356 | 79° | 42km/h | 1986m | 4.8m/s | 10.6°C | 0% | 809.6hPa | 3.0V | 05:17:00 | 00:47:36 | 00:00:00 | |
| DO3MHA-11 | 2026-09-04 10:50:05 | 49.43566 | 11.92209 | 46° | 31km/h | 1930m | 6.1m/s | 11.2°C | 90.5% | 815.0hPa | 3.0V | 00:00:00 | 00:47:26 | 00:00:00 | |
| DO3MHA-11 | 2026-09-04 10:49:55 | 49.43521 | 11.92106 | 56° | 33km/h | 1876m | 6.2m/s | 11.2°C | 98.7% | 820.5hPa | 3.0V | 00:00:00 | 00:47:16 | 00:00:00 | |
| NBG1-10 | 2026-09-04 10:49:55 | 49.43521 | 11.92106 | 56° | 35km/h | 1876m | 6.2m/s | 11.2°C | 98.7% | 820.5hPa | 3.0V | 00:00:00 | 00:47:16 | 00:00:00 | |
| DB0NH | 2026-09-04 10:49:49 | 49.43493 | 11.92037 | 74° | 35km/h | 1842m | 5.9m/s | 11.6°C | 98.2% | 823.7hPa | 3.0V | 00:00:00 | 00:47:10 | 00:00:00 | |
| DO3MHA-11 | 2026-09-04 10:49:45 | 49.43483 | 11.91994 | 63° | 37km/h | 1815m | 8.7m/s | 11.8°C | 96.8% | 826.3hPa | 3.0V | 00:00:00 | 00:47:06 | 00:00:00 | |
| DO3MHA-11 | 2026-09-04 10:49:35 | 49.43419 | 11.91889 | 57° | 31km/h | 1745m | 7.9m/s | 12.5°C | 92.8% | 833.0hPa | 3.0V | 00:00:00 | 00:46:56 | 00:00:00 | |
| DO3MHA-11 | 2026-09-04 10:49:25 | 49.43381 | 11.91792 | 41° | 37km/h | 1683m | 5.2m/s | 13.1°C | 90.6% | 838.9hPa | 3.0V | 00:00:00 | 00:46:46 | 00:00:00 | |
| NBG1-10 | 2026-09-04 10:49:22 | 49.43360 | 11.91762 | 51° | 33km/h | 1665m | 6.1m/s | 13.2°C | 89.8% | 840.6hPa | 3.0V | 00:00:00 | 00:46:43 | 00:00:00 | |
| DB0NH | 2026-09-04 10:49:19 | 49.43344 | 11.91722 | 68° | 31km/h | 1650m | 6.1m/s | 0°C | 0% | 0hPa | 3.0V | 00:00:00 | 00:46:40 | 00:00:00 | |
| DO3MHA-11 | 2026-09-04 10:49:15 | 49.43331 | 11.91677 | 50° | 33km/h | 1624m | 6.9m/s | 13.6°C | 87.7% | 845.0hPa | 3.0V | 05:18:00 | 00:46:36 | 00:00:00 | |
| DO3MHA-11 | 2026-09-04 10:49:05 | 49.43284 | 11.91573 | 63° | 29km/h | 1565m | 7.1m/s | 14.2°C | 85.3% | 850.9hPa | 0V | 00:00:00 | 00:46:26 | 00:00:00 | |
| DO3MHA-11 | 2026-09-04 10:48:55 | 49.43246 | 11.91480 | 68° | 26km/h | 1495m | 5.4m/s | 0°C | 0% | 0hPa | 0V | 00:00:00 | 00:46:16 | 00:00:00 | |
| DB0NH | 2026-09-04 10:48:49 | 49.43220 | 11.91423 | 46° | 18km/h | 1464m | 5.8m/s | 0°C | 0% | 0hPa | 0V | 00:00:00 | 00:46:10 | 00:00:00 | |
| NBG1-10 | 2026-09-04 10:48:49 | 49.43220 | 11.91423 | 46° | 20km/h | 1464m | 5.8m/s | 0°C | 0% | 0hPa | 0V | 00:00:00 | 00:46:10 | 00:00:00 | |
| DO3MHA-11 | 2026-09-04 10:48:45 | 49.43215 | 11.91397 | 92° | 22km/h | 1440m | 6.0m/s | 0°C | 0% | 0hPa | 0V | 00:00:00 | 00:46:06 | 00:00:00 | |
| DO3MHA-11 | 2026-09-04 10:48:35 | 49.43194 | 11.91321 | 53° | 20km/h | 1374m | 7.2m/s | 0°C | 0% | 0hPa | 0V | 00:00:00 | 00:45:56 | 00:00:00 |